<?xml version='1.0' encoding='UTF-8'?><gpx version="1.1" creator="JPX - https://github.com/jenetics/jpx" xmlns="http://www.topografix.com/GPX/1/1"><trk><trkseg><trkpt lat="41.5146833" lon="0.8756617"><ele>309.0</ele><time>2026-04-24T15:32:43.925Z</time></trkpt><trkpt lat="41.5146433" lon="0.8757333"><ele>309.0</ele><time>2026-04-24T15:32:45.925Z</time></trkpt><trkpt lat="41.5146383" lon="0.8758183"><ele>309.0</ele><time>2026-04-24T15:32:47.925Z</time></trkpt><trkpt lat="41.5145783" lon="0.8759183"><ele>309.0</ele><time>2026-04-24T15:32:49.925Z</time></trkpt><trkpt lat="41.5145267" lon="0.8759817"><ele>309.0</ele><time>2026-04-24T15:32:50.925Z</time></trkpt><trkpt lat="41.5144583" lon="0.8760517"><ele>309.0</ele><time>2026-04-24T15:32:51.924Z</time></trkpt><trkpt lat="41.5143733" lon="0.876125"><ele>310.5</ele><time>2026-04-24T15:32:52.924Z</time></trkpt><trkpt lat="41.5142883" lon="0.8762033"><ele>312.0</ele><time>2026-04-24T15:32:53.924Z</time></trkpt><trkpt lat="41.5141967" lon="0.876285"><ele>313.5</ele><time>2026-04-24T15:32:54.924Z</time></trkpt><trkpt lat="41.5140983" lon="0.8763717"><ele>315.0</ele><time>2026-04-24T15:32:55.925Z</time></trkpt><trkpt lat="41.513985" lon="0.8764667"><ele>315.0</ele><time>2026-04-24T15:32:56.925Z</time></trkpt><trkpt lat="41.5138783" lon="0.876555"><ele>315.0</ele><time>2026-04-24T15:32:57.925Z</time></trkpt><trkpt lat="41.513775" lon="0.87665"><ele>315.0</ele><time>2026-04-24T15:32:58.924Z</time></trkpt><trkpt lat="41.5136667" lon="0.87674"><ele>315.0</ele><time>2026-04-24T15:32:59.924Z</time></trkpt><trkpt lat="41.5135583" lon="0.8768367"><ele>315.4</ele><time>2026-04-24T15:33:00.925Z</time></trkpt><trkpt lat="41.5134533" lon="0.8769317"><ele>315.8</ele><time>2026-04-24T15:33:01.924Z</time></trkpt><trkpt lat="41.5133633" lon="0.8770333"><ele>316.2</ele><time>2026-04-24T15:33:02.925Z</time></trkpt><trkpt lat="41.51328" lon="0.8771183"><ele>316.6</ele><time>2026-04-24T15:33:03.924Z</time></trkpt><trkpt lat="41.5132083" lon="0.8771867"><ele>317.0</ele><time>2026-04-24T15:33:04.924Z</time></trkpt><trkpt lat="41.5131433" lon="0.8772383"><ele>317.0</ele><time>2026-04-24T15:33:05.925Z</time></trkpt><trkpt lat="41.5130417" lon="0.877295"><ele>317.0</ele><time>2026-04-24T15:33:07.925Z</time></trkpt><trkpt lat="41.5129517" lon="0.8773017"><ele>317.0</ele><time>2026-04-24T15:33:09.924Z</time></trkpt><trkpt lat="41.5128433" lon="0.8772267"><ele>317.0</ele><time>2026-04-24T15:33:11.925Z</time></trkpt><trkpt lat="41.5127833" lon="0.8771567"><ele>317.0</ele><time>2026-04-24T15:33:12.924Z</time></trkpt><trkpt lat="41.51273" lon="0.8770567"><ele>317.5</ele><time>2026-04-24T15:33:13.925Z</time></trkpt><trkpt lat="41.5126783" lon="0.8769267"><ele>318.0</ele><time>2026-04-24T15:33:14.925Z</time></trkpt><trkpt lat="41.5126267" lon="0.87679"><ele>318.5</ele><time>2026-04-24T15:33:15.925Z</time></trkpt><trkpt lat="41.512575" lon="0.8766533"><ele>319.0</ele><time>2026-04-24T15:33:16.924Z</time></trkpt><trkpt lat="41.5125233" lon="0.87651"><ele>319.25</ele><time>2026-04-24T15:33:17.924Z</time></trkpt><trkpt lat="41.5124717" lon="0.8763817"><ele>319.5</ele><time>2026-04-24T15:33:18.924Z</time></trkpt><trkpt lat="41.51242" lon="0.876245"><ele>319.75</ele><time>2026-04-24T15:33:19.925Z</time></trkpt><trkpt lat="41.5123667" lon="0.8761033"><ele>320.0</ele><time>2026-04-24T15:33:20.925Z</time></trkpt><trkpt lat="41.5123117" lon="0.8759433"><ele>319.25</ele><time>2026-04-24T15:33:21.924Z</time></trkpt><trkpt lat="41.5122533" lon="0.875775"><ele>318.5</ele><time>2026-04-24T15:33:22.924Z</time></trkpt><trkpt lat="41.51219" lon="0.8755967"><ele>317.75</ele><time>2026-04-24T15:33:23.924Z</time></trkpt><trkpt lat="41.51213" lon="0.87542"><ele>317.0</ele><time>2026-04-24T15:33:24.924Z</time></trkpt><trkpt lat="41.512065" lon="0.87524"><ele>315.25</ele><time>2026-04-24T15:33:25.924Z</time></trkpt><trkpt lat="41.512" lon="0.875065"><ele>313.5</ele><time>2026-04-24T15:33:26.924Z</time></trkpt><trkpt lat="41.51193" lon="0.8748817"><ele>311.75</ele><time>2026-04-24T15:33:27.925Z</time></trkpt><trkpt lat="41.51186" lon="0.87471"><ele>310.0</ele><time>2026-04-24T15:33:28.924Z</time></trkpt><trkpt lat="41.5117867" lon="0.874535"><ele>310.0</ele><time>2026-04-24T15:33:29.924Z</time></trkpt><trkpt lat="41.5117217" lon="0.87436"><ele>310.0</ele><time>2026-04-24T15:33:30.924Z</time></trkpt><trkpt lat="41.511655" lon="0.8741867"><ele>310.0</ele><time>2026-04-24T15:33:31.925Z</time></trkpt><trkpt lat="41.5115917" lon="0.87401"><ele>310.0</ele><time>2026-04-24T15:33:32.925Z</time></trkpt><trkpt lat="41.511525" lon="0.8738283"><ele>309.5</ele><time>2026-04-24T15:33:33.924Z</time></trkpt><trkpt lat="41.5114617" lon="0.8736533"><ele>309.0</ele><time>2026-04-24T15:33:34.925Z</time></trkpt><trkpt lat="41.5113917" lon="0.8734783"><ele>308.5</ele><time>2026-04-24T15:33:35.925Z</time></trkpt><trkpt lat="41.511325" lon="0.8733017"><ele>308.0</ele><time>2026-04-24T15:33:36.925Z</time></trkpt><trkpt lat="41.5112583" lon="0.873125"><ele>307.75</ele><time>2026-04-24T15:33:37.924Z</time></trkpt><trkpt lat="41.511195" lon="0.8729583"><ele>307.5</ele><time>2026-04-24T15:33:38.924Z</time></trkpt><trkpt lat="41.5111333" lon="0.8727967"><ele>307.25</ele><time>2026-04-24T15:33:39.925Z</time></trkpt><trkpt lat="41.51108" lon="0.87265"><ele>307.0</ele><time>2026-04-24T15:33:40.924Z</time></trkpt><trkpt lat="41.5110333" lon="0.8725283"><ele>306.66666666666663</ele><time>2026-04-24T15:33:41.925Z</time></trkpt><trkpt lat="41.5109933" lon="0.8724233"><ele>306.3333333333333</ele><time>2026-04-24T15:33:42.925Z</time></trkpt><trkpt lat="41.5109617" lon="0.87233"><ele>306.0</ele><time>2026-04-24T15:33:43.924Z</time></trkpt><trkpt lat="41.5109167" lon="0.8722033"><ele>305.6666666666667</ele><time>2026-04-24T15:33:45.925Z</time></trkpt><trkpt lat="41.5108883" lon="0.872095"><ele>305.33333333333337</ele><time>2026-04-24T15:33:48.925Z</time></trkpt><trkpt lat="41.510875" lon="0.8720017"><ele>305.0</ele><time>2026-04-24T15:33:50.925Z</time></trkpt><trkpt lat="41.5108833" lon="0.8718883"><ele>305.0</ele><time>2026-04-24T15:33:52.924Z</time></trkpt><trkpt lat="41.51084" lon="0.871755"><ele>305.0</ele><time>2026-04-24T15:33:54.925Z</time></trkpt><trkpt lat="41.51078" lon="0.871705"><ele>305.0</ele><time>2026-04-24T15:33:55.925Z</time></trkpt><trkpt lat="41.51071" lon="0.8716967"><ele>305.0</ele><time>2026-04-24T15:33:56.924Z</time></trkpt><trkpt lat="41.510635" lon="0.8717233"><ele>305.0</ele><time>2026-04-24T15:33:57.924Z</time></trkpt><trkpt lat="41.510545" lon="0.8717733"><ele>305.0</ele><time>2026-04-24T15:33:58.925Z</time></trkpt><trkpt lat="41.5104367" lon="0.871795"><ele>305.2</ele><time>2026-04-24T15:33:59.925Z</time></trkpt><trkpt lat="41.510325" lon="0.8717867"><ele>305.4</ele><time>2026-04-24T15:34:00.925Z</time></trkpt><trkpt lat="41.51021" lon="0.871765"><ele>305.6</ele><time>2026-04-24T15:34:01.925Z</time></trkpt><trkpt lat="41.5101067" lon="0.87173"><ele>305.8</ele><time>2026-04-24T15:34:02.924Z</time></trkpt><trkpt lat="41.5100267" lon="0.8716883"><ele>306.0</ele><time>2026-04-24T15:34:03.925Z</time></trkpt><trkpt lat="41.5099567" lon="0.8716317"><ele>306.0</ele><time>2026-04-24T15:34:04.924Z</time></trkpt><trkpt lat="41.5098833" lon="0.8715917"><ele>306.0</ele><time>2026-04-24T15:34:05.925Z</time></trkpt><trkpt lat="41.5097733" lon="0.87163"><ele>306.0</ele><time>2026-04-24T15:34:07.924Z</time></trkpt><trkpt lat="41.50976" lon="0.8718017"><ele>306.0</ele><time>2026-04-24T15:34:09.925Z</time></trkpt><trkpt lat="41.50981" lon="0.8718967"><ele>306.0</ele><time>2026-04-24T15:34:10.925Z</time></trkpt><trkpt lat="41.5098733" lon="0.8719867"><ele>306.2</ele><time>2026-04-24T15:34:11.924Z</time></trkpt><trkpt lat="41.50991" lon="0.872095"><ele>306.40000000000003</ele><time>2026-04-24T15:34:12.925Z</time></trkpt><trkpt lat="41.5099267" lon="0.87221"><ele>306.6</ele><time>2026-04-24T15:34:13.925Z</time></trkpt><trkpt lat="41.5099183" lon="0.872345"><ele>306.8</ele><time>2026-04-24T15:34:14.924Z</time></trkpt><trkpt lat="41.509895" lon="0.8725067"><ele>307.0</ele><time>2026-04-24T15:34:15.924Z</time></trkpt><trkpt lat="41.5098683" lon="0.8726717"><ele>307.0</ele><time>2026-04-24T15:34:16.925Z</time></trkpt><trkpt lat="41.509835" lon="0.8728433"><ele>307.0</ele><time>2026-04-24T15:34:17.925Z</time></trkpt><trkpt lat="41.5098083" lon="0.873035"><ele>307.0</ele><time>2026-04-24T15:34:18.924Z</time></trkpt><trkpt lat="41.50978" lon="0.8732367"><ele>307.0</ele><time>2026-04-24T15:34:19.925Z</time></trkpt><trkpt lat="41.5097517" lon="0.873445"><ele>307.0</ele><time>2026-04-24T15:34:20.924Z</time></trkpt><trkpt lat="41.5097167" lon="0.87365"><ele>307.0</ele><time>2026-04-24T15:34:21.924Z</time></trkpt><trkpt lat="41.509685" lon="0.8738517"><ele>307.0</ele><time>2026-04-24T15:34:22.924Z</time></trkpt><trkpt lat="41.5096533" lon="0.8740683"><ele>308.3333333333333</ele><time>2026-04-24T15:34:23.924Z</time></trkpt><trkpt lat="41.50962" lon="0.8742967"><ele>309.6666666666667</ele><time>2026-04-24T15:34:24.925Z</time></trkpt><trkpt lat="41.5095817" lon="0.874535"><ele>311.0</ele><time>2026-04-24T15:34:25.925Z</time></trkpt><trkpt lat="41.5095367" lon="0.8747883"><ele>311.6666666666667</ele><time>2026-04-24T15:34:26.925Z</time></trkpt><trkpt lat="41.509485" lon="0.87505"><ele>312.3333333333333</ele><time>2026-04-24T15:34:27.925Z</time></trkpt><trkpt lat="41.509435" lon="0.8753183"><ele>313.0</ele><time>2026-04-24T15:34:28.924Z</time></trkpt><trkpt lat="41.5093817" lon="0.8755783"><ele>314.0</ele><time>2026-04-24T15:34:29.925Z</time></trkpt><trkpt lat="41.50933" lon="0.87584"><ele>315.0</ele><time>2026-04-24T15:34:30.924Z</time></trkpt><trkpt lat="41.5092867" lon="0.8761117"><ele>316.0</ele><time>2026-04-24T15:34:31.925Z</time></trkpt><trkpt lat="41.50925" lon="0.87639"><ele>317.0</ele><time>2026-04-24T15:34:32.924Z</time></trkpt><trkpt lat="41.5092083" lon="0.876675"><ele>318.0</ele><time>2026-04-24T15:34:33.924Z</time></trkpt><trkpt lat="41.5091683" lon="0.8769733"><ele>319.0</ele><time>2026-04-24T15:34:34.924Z</time></trkpt><trkpt lat="41.509125" lon="0.8772717"><ele>320.0</ele><time>2026-04-24T15:34:35.924Z</time></trkpt><trkpt lat="41.509075" lon="0.8775733"><ele>321.0</ele><time>2026-04-24T15:34:36.925Z</time></trkpt><trkpt lat="41.5090333" lon="0.8778783"><ele>321.5</ele><time>2026-04-24T15:34:37.924Z</time></trkpt><trkpt lat="41.5089983" lon="0.8781833"><ele>322.0</ele><time>2026-04-24T15:34:38.925Z</time></trkpt><trkpt lat="41.5089683" lon="0.878485"><ele>323.0</ele><time>2026-04-24T15:34:39.924Z</time></trkpt><trkpt lat="41.508945" lon="0.8787867"><ele>324.0</ele><time>2026-04-24T15:34:40.924Z</time></trkpt><trkpt lat="41.508925" lon="0.8790867"><ele>324.6666666666667</ele><time>2026-04-24T15:34:41.924Z</time></trkpt><trkpt lat="41.50891" lon="0.87938"><ele>325.33333333333337</ele><time>2026-04-24T15:34:42.924Z</time></trkpt><trkpt lat="41.5088933" lon="0.8796683"><ele>326.0</ele><time>2026-04-24T15:34:43.925Z</time></trkpt><trkpt lat="41.508875" lon="0.879955"><ele>327.0</ele><time>2026-04-24T15:34:44.924Z</time></trkpt><trkpt lat="41.5088533" lon="0.880225"><ele>328.0</ele><time>2026-04-24T15:34:45.924Z</time></trkpt><trkpt lat="41.5088317" lon="0.880505"><ele>329.0</ele><time>2026-04-24T15:34:46.924Z</time></trkpt><trkpt lat="41.5088117" lon="0.88078"><ele>330.6666666666667</ele><time>2026-04-24T15:34:47.925Z</time></trkpt><trkpt lat="41.508785" lon="0.88106"><ele>332.3333333333333</ele><time>2026-04-24T15:34:48.924Z</time></trkpt><trkpt lat="41.5087617" lon="0.88133"><ele>334.0</ele><time>2026-04-24T15:34:49.924Z</time></trkpt><trkpt lat="41.5087367" lon="0.881595"><ele>336.0</ele><time>2026-04-24T15:34:50.924Z</time></trkpt><trkpt lat="41.5087067" lon="0.8818583"><ele>338.0</ele><time>2026-04-24T15:34:51.924Z</time></trkpt><trkpt lat="41.5086767" lon="0.8821217"><ele>340.0</ele><time>2026-04-24T15:34:52.924Z</time></trkpt><trkpt lat="41.5086467" lon="0.8823917"><ele>340.3333333333333</ele><time>2026-04-24T15:34:53.925Z</time></trkpt><trkpt lat="41.5086167" lon="0.8826567"><ele>340.6666666666667</ele><time>2026-04-24T15:34:54.925Z</time></trkpt><trkpt lat="41.5085733" lon="0.88292"><ele>341.0</ele><time>2026-04-24T15:34:55.925Z</time></trkpt><trkpt lat="41.5085283" lon="0.8831883"><ele>340.0</ele><time>2026-04-24T15:34:56.924Z</time></trkpt><trkpt lat="41.5084883" lon="0.8834617"><ele>339.0</ele><time>2026-04-24T15:34:57.924Z</time></trkpt><trkpt lat="41.5084467" lon="0.8837383"><ele>338.0</ele><time>2026-04-24T15:34:58.924Z</time></trkpt><trkpt lat="41.508395" lon="0.884"><ele>338.0</ele><time>2026-04-24T15:34:59.925Z</time></trkpt><trkpt lat="41.508335" lon="0.8842567"><ele>338.0</ele><time>2026-04-24T15:35:00.924Z</time></trkpt><trkpt lat="41.5082733" lon="0.8845133"><ele>338.0</ele><time>2026-04-24T15:35:01.925Z</time></trkpt><trkpt lat="41.50821" lon="0.88476"><ele>337.6666666666667</ele><time>2026-04-24T15:35:02.925Z</time></trkpt><trkpt lat="41.5081483" lon="0.8849967"><ele>337.3333333333333</ele><time>2026-04-24T15:35:03.924Z</time></trkpt><trkpt lat="41.5080783" lon="0.8852417"><ele>337.0</ele><time>2026-04-24T15:35:04.925Z</time></trkpt><trkpt lat="41.50801" lon="0.8854883"><ele>336.66666666666663</ele><time>2026-04-24T15:35:05.925Z</time></trkpt><trkpt lat="41.5079433" lon="0.8857417"><ele>336.3333333333333</ele><time>2026-04-24T15:35:06.924Z</time></trkpt><trkpt lat="41.5078683" lon="0.8859983"><ele>336.0</ele><time>2026-04-24T15:35:07.925Z</time></trkpt><trkpt lat="41.5077967" lon="0.8862467"><ele>336.0</ele><time>2026-04-24T15:35:08.925Z</time></trkpt><trkpt lat="41.5077067" lon="0.886505"><ele>336.0</ele><time>2026-04-24T15:35:09.925Z</time></trkpt><trkpt lat="41.5076183" lon="0.88676"><ele>336.0</ele><time>2026-04-24T15:35:10.925Z</time></trkpt><trkpt lat="41.50753" lon="0.8870083"><ele>335.3333333333333</ele><time>2026-04-24T15:35:11.925Z</time></trkpt><trkpt lat="41.5074467" lon="0.88725"><ele>334.66666666666663</ele><time>2026-04-24T15:35:12.924Z</time></trkpt><trkpt lat="41.507355" lon="0.8874833"><ele>334.0</ele><time>2026-04-24T15:35:13.923Z</time></trkpt><trkpt lat="41.5072667" lon="0.887715"><ele>333.66666666666663</ele><time>2026-04-24T15:35:14.923Z</time></trkpt><trkpt lat="41.5071717" lon="0.8879417"><ele>333.3333333333333</ele><time>2026-04-24T15:35:15.924Z</time></trkpt><trkpt lat="41.5070833" lon="0.8881667"><ele>333.0</ele><time>2026-04-24T15:35:16.923Z</time></trkpt><trkpt lat="41.5069867" lon="0.8883933"><ele>332.0</ele><time>2026-04-24T15:35:17.924Z</time></trkpt><trkpt lat="41.5068833" lon="0.888625"><ele>331.0</ele><time>2026-04-24T15:35:18.924Z</time></trkpt><trkpt lat="41.5067783" lon="0.8888517"><ele>330.0</ele><time>2026-04-24T15:35:19.923Z</time></trkpt><trkpt lat="41.5066667" lon="0.8890717"><ele>329.6666666666667</ele><time>2026-04-24T15:35:20.923Z</time></trkpt><trkpt lat="41.506555" lon="0.8892933"><ele>329.33333333333337</ele><time>2026-04-24T15:35:21.924Z</time></trkpt><trkpt lat="41.5064467" lon="0.8895033"><ele>329.0</ele><time>2026-04-24T15:35:22.923Z</time></trkpt><trkpt lat="41.506335" lon="0.8897167"><ele>329.33333333333337</ele><time>2026-04-24T15:35:23.923Z</time></trkpt><trkpt lat="41.5062233" lon="0.88992"><ele>329.6666666666667</ele><time>2026-04-24T15:35:24.923Z</time></trkpt><trkpt lat="41.5061133" lon="0.8901283"><ele>330.0</ele><time>2026-04-24T15:35:25.923Z</time></trkpt><trkpt lat="41.5059967" lon="0.8903233"><ele>330.0</ele><time>2026-04-24T15:35:26.923Z</time></trkpt><trkpt lat="41.505875" lon="0.89052"><ele>330.0</ele><time>2026-04-24T15:35:27.924Z</time></trkpt><trkpt lat="41.5057467" lon="0.8907133"><ele>330.0</ele><time>2026-04-24T15:35:28.924Z</time></trkpt><trkpt lat="41.5056183" lon="0.8909117"><ele>330.0</ele><time>2026-04-24T15:35:29.924Z</time></trkpt><trkpt lat="41.505485" lon="0.8911"><ele>330.0</ele><time>2026-04-24T15:35:30.924Z</time></trkpt><trkpt lat="41.5053433" lon="0.891285"><ele>330.0</ele><time>2026-04-24T15:35:31.924Z</time></trkpt><trkpt lat="41.5051967" lon="0.8914583"><ele>330.0</ele><time>2026-04-24T15:35:32.923Z</time></trkpt><trkpt lat="41.5050333" lon="0.8916283"><ele>330.0</ele><time>2026-04-24T15:35:33.924Z</time></trkpt><trkpt lat="41.5048683" lon="0.8917933"><ele>330.0</ele><time>2026-04-24T15:35:34.923Z</time></trkpt><trkpt lat="41.5046967" lon="0.8919567"><ele>331.3333333333333</ele><time>2026-04-24T15:35:35.923Z</time></trkpt><trkpt lat="41.50453" lon="0.89212"><ele>332.66666666666663</ele><time>2026-04-24T15:35:36.924Z</time></trkpt><trkpt lat="41.5043617" lon="0.8922867"><ele>334.0</ele><time>2026-04-24T15:35:37.924Z</time></trkpt><trkpt lat="41.5041917" lon="0.8924583"><ele>333.66666666666663</ele><time>2026-04-24T15:35:38.924Z</time></trkpt><trkpt lat="41.5040233" lon="0.892635"><ele>333.3333333333333</ele><time>2026-04-24T15:35:39.924Z</time></trkpt><trkpt lat="41.50385" lon="0.892805"><ele>333.0</ele><time>2026-04-24T15:35:40.923Z</time></trkpt><trkpt lat="41.5036767" lon="0.8929883"><ele>333.6666666666667</ele><time>2026-04-24T15:35:41.924Z</time></trkpt><trkpt lat="41.5035" lon="0.8931817"><ele>334.33333333333337</ele><time>2026-04-24T15:35:42.923Z</time></trkpt><trkpt lat="41.5033333" lon="0.8933717"><ele>335.0</ele><time>2026-04-24T15:35:43.923Z</time></trkpt><trkpt lat="41.503165" lon="0.8935767"><ele>335.0</ele><time>2026-04-24T15:35:44.924Z</time></trkpt><trkpt lat="41.5030033" lon="0.8937883"><ele>335.0</ele><time>2026-04-24T15:35:45.923Z</time></trkpt><trkpt lat="41.50285" lon="0.8940133"><ele>336.0</ele><time>2026-04-24T15:35:46.924Z</time></trkpt><trkpt lat="41.5026867" lon="0.8942417"><ele>337.0</ele><time>2026-04-24T15:35:47.924Z</time></trkpt><trkpt lat="41.50252" lon="0.89447"><ele>337.0</ele><time>2026-04-24T15:35:48.924Z</time></trkpt><trkpt lat="41.502365" lon="0.8947"><ele>337.0</ele><time>2026-04-24T15:35:49.923Z</time></trkpt><trkpt lat="41.5022117" lon="0.89492"><ele>337.66666666666663</ele><time>2026-04-24T15:35:50.924Z</time></trkpt><trkpt lat="41.5020583" lon="0.8951333"><ele>338.3333333333333</ele><time>2026-04-24T15:35:51.924Z</time></trkpt><trkpt lat="41.5019167" lon="0.8953383"><ele>339.0</ele><time>2026-04-24T15:35:52.924Z</time></trkpt><trkpt lat="41.501775" lon="0.8955333"><ele>339.0</ele><time>2026-04-24T15:35:53.923Z</time></trkpt><trkpt lat="41.5016333" lon="0.895725"><ele>339.0</ele><time>2026-04-24T15:35:54.923Z</time></trkpt><trkpt lat="41.50149" lon="0.8959083"><ele>339.0</ele><time>2026-04-24T15:35:55.923Z</time></trkpt><trkpt lat="41.5013433" lon="0.896085"><ele>341.0</ele><time>2026-04-24T15:35:56.923Z</time></trkpt><trkpt lat="41.501185" lon="0.8962517"><ele>343.0</ele><time>2026-04-24T15:35:57.923Z</time></trkpt><trkpt lat="41.50102" lon="0.8964067"><ele>345.0</ele><time>2026-04-24T15:35:58.923Z</time></trkpt><trkpt lat="41.5008483" lon="0.8965583"><ele>345.0</ele><time>2026-04-24T15:35:59.923Z</time></trkpt><trkpt lat="41.5006683" lon="0.896705"><ele>345.0</ele><time>2026-04-24T15:36:00.923Z</time></trkpt><trkpt lat="41.5004767" lon="0.8968483"><ele>345.0</ele><time>2026-04-24T15:36:01.924Z</time></trkpt><trkpt lat="41.5002767" lon="0.8969967"><ele>345.6666666666667</ele><time>2026-04-24T15:36:02.924Z</time></trkpt><trkpt lat="41.5000817" lon="0.897145"><ele>346.33333333333337</ele><time>2026-04-24T15:36:03.923Z</time></trkpt><trkpt lat="41.49989" lon="0.8972833"><ele>347.0</ele><time>2026-04-24T15:36:04.923Z</time></trkpt><trkpt lat="41.4996967" lon="0.8974317"><ele>348.0</ele><time>2026-04-24T15:36:05.923Z</time></trkpt><trkpt lat="41.499505" lon="0.8975783"><ele>349.0</ele><time>2026-04-24T15:36:06.923Z</time></trkpt><trkpt lat="41.4993183" lon="0.897725"><ele>350.0</ele><time>2026-04-24T15:36:07.924Z</time></trkpt><trkpt lat="41.4991267" lon="0.897865"><ele>350.6666666666667</ele><time>2026-04-24T15:36:08.924Z</time></trkpt><trkpt lat="41.4989433" lon="0.898"><ele>351.3333333333333</ele><time>2026-04-24T15:36:09.923Z</time></trkpt><trkpt lat="41.4987567" lon="0.8981283"><ele>352.0</ele><time>2026-04-24T15:36:10.924Z</time></trkpt><trkpt lat="41.4985767" lon="0.89827"><ele>353.3333333333333</ele><time>2026-04-24T15:36:11.924Z</time></trkpt><trkpt lat="41.4984" lon="0.898405"><ele>354.6666666666667</ele><time>2026-04-24T15:36:12.924Z</time></trkpt><trkpt lat="41.4982267" lon="0.8985333"><ele>356.0</ele><time>2026-04-24T15:36:13.923Z</time></trkpt><trkpt lat="41.49805" lon="0.8986633"><ele>357.33333333333337</ele><time>2026-04-24T15:36:14.923Z</time></trkpt><trkpt lat="41.497875" lon="0.8987933"><ele>358.6666666666667</ele><time>2026-04-24T15:36:15.923Z</time></trkpt><trkpt lat="41.4976983" lon="0.8989217"><ele>360.0</ele><time>2026-04-24T15:36:16.923Z</time></trkpt><trkpt lat="41.4975183" lon="0.8990483"><ele>360.0</ele><time>2026-04-24T15:36:17.923Z</time></trkpt><trkpt lat="41.4973433" lon="0.899175"><ele>360.0</ele><time>2026-04-24T15:36:18.923Z</time></trkpt><trkpt lat="41.4971633" lon="0.8992917"><ele>360.0</ele><time>2026-04-24T15:36:19.924Z</time></trkpt><trkpt lat="41.496995" lon="0.8993967"><ele>359.6666666666667</ele><time>2026-04-24T15:36:20.923Z</time></trkpt><trkpt lat="41.4968283" lon="0.8994933"><ele>359.33333333333337</ele><time>2026-04-24T15:36:21.924Z</time></trkpt><trkpt lat="41.49667" lon="0.8995783"><ele>359.0</ele><time>2026-04-24T15:36:22.924Z</time></trkpt><trkpt lat="41.496515" lon="0.899655"><ele>359.0</ele><time>2026-04-24T15:36:23.923Z</time></trkpt><trkpt lat="41.496365" lon="0.8997317"><ele>359.0</ele><time>2026-04-24T15:36:24.924Z</time></trkpt><trkpt lat="41.4962183" lon="0.8998083"><ele>359.0</ele><time>2026-04-24T15:36:25.923Z</time></trkpt><trkpt lat="41.4960683" lon="0.8998833"><ele>359.33333333333337</ele><time>2026-04-24T15:36:26.923Z</time></trkpt><trkpt lat="41.49591" lon="0.8999633"><ele>359.6666666666667</ele><time>2026-04-24T15:36:27.923Z</time></trkpt><trkpt lat="41.4957533" lon="0.9000467"><ele>360.0</ele><time>2026-04-24T15:36:28.923Z</time></trkpt><trkpt lat="41.49558" lon="0.90013"><ele>361.0</ele><time>2026-04-24T15:36:29.924Z</time></trkpt><trkpt lat="41.4954017" lon="0.9002167"><ele>362.0</ele><time>2026-04-24T15:36:30.924Z</time></trkpt><trkpt lat="41.4952183" lon="0.9003083"><ele>363.0</ele><time>2026-04-24T15:36:31.924Z</time></trkpt><trkpt lat="41.49503" lon="0.9004083"><ele>363.0</ele><time>2026-04-24T15:36:32.924Z</time></trkpt><trkpt lat="41.4948417" lon="0.9005083"><ele>363.0</ele><time>2026-04-24T15:36:33.923Z</time></trkpt><trkpt lat="41.4946517" lon="0.9006133"><ele>363.0</ele><time>2026-04-24T15:36:34.924Z</time></trkpt><trkpt lat="41.4944583" lon="0.9007333"><ele>362.6666666666667</ele><time>2026-04-24T15:36:35.924Z</time></trkpt><trkpt lat="41.4942683" lon="0.90087"><ele>362.33333333333337</ele><time>2026-04-24T15:36:36.924Z</time></trkpt><trkpt lat="41.4940933" lon="0.90103"><ele>362.0</ele><time>2026-04-24T15:36:37.924Z</time></trkpt><trkpt lat="41.493925" lon="0.90121"><ele>362.6666666666667</ele><time>2026-04-24T15:36:38.923Z</time></trkpt><trkpt lat="41.493755" lon="0.9013933"><ele>363.3333333333333</ele><time>2026-04-24T15:36:39.923Z</time></trkpt><trkpt lat="41.493585" lon="0.90159"><ele>364.0</ele><time>2026-04-24T15:36:40.923Z</time></trkpt><trkpt lat="41.493415" lon="0.9017833"><ele>364.66666666666663</ele><time>2026-04-24T15:36:41.924Z</time></trkpt><trkpt lat="41.493255" lon="0.90198"><ele>365.3333333333333</ele><time>2026-04-24T15:36:42.923Z</time></trkpt><trkpt lat="41.4930867" lon="0.90218"><ele>366.0</ele><time>2026-04-24T15:36:43.924Z</time></trkpt><trkpt lat="41.4929067" lon="0.902385"><ele>366.5</ele><time>2026-04-24T15:36:44.924Z</time></trkpt><trkpt lat="41.4927333" lon="0.902595"><ele>367.0</ele><time>2026-04-24T15:36:45.923Z</time></trkpt><trkpt lat="41.4925583" lon="0.9028033"><ele>367.0</ele><time>2026-04-24T15:36:46.923Z</time></trkpt><trkpt lat="41.492375" lon="0.9030183"><ele>367.0</ele><time>2026-04-24T15:36:47.924Z</time></trkpt><trkpt lat="41.4922" lon="0.903225"><ele>369.5</ele><time>2026-04-24T15:36:48.924Z</time></trkpt><trkpt lat="41.4920217" lon="0.9034417"><ele>372.0</ele><time>2026-04-24T15:36:49.924Z</time></trkpt><trkpt lat="41.4918333" lon="0.9036483"><ele>372.0</ele><time>2026-04-24T15:36:50.924Z</time></trkpt><trkpt lat="41.4916367" lon="0.9038417"><ele>372.0</ele><time>2026-04-24T15:36:51.924Z</time></trkpt><trkpt lat="41.49144" lon="0.9040283"><ele>372.0</ele><time>2026-04-24T15:36:52.923Z</time></trkpt><trkpt lat="41.4912317" lon="0.9041883"><ele>372.0</ele><time>2026-04-24T15:36:53.923Z</time></trkpt><trkpt lat="41.49102" lon="0.9043367"><ele>372.0</ele><time>2026-04-24T15:36:54.923Z</time></trkpt><trkpt lat="41.4907983" lon="0.9044783"><ele>372.0</ele><time>2026-04-24T15:36:55.923Z</time></trkpt><trkpt lat="41.4905883" lon="0.904615"><ele>375.5</ele><time>2026-04-24T15:36:56.923Z</time></trkpt><trkpt lat="41.49038" lon="0.9047583"><ele>379.0</ele><time>2026-04-24T15:36:57.924Z</time></trkpt><trkpt lat="41.4901733" lon="0.9048933"><ele>379.0</ele><time>2026-04-24T15:36:58.923Z</time></trkpt><trkpt lat="41.4899617" lon="0.9050367"><ele>379.0</ele><time>2026-04-24T15:36:59.924Z</time></trkpt><trkpt lat="41.4897517" lon="0.9051733"><ele>380.5</ele><time>2026-04-24T15:37:00.924Z</time></trkpt><trkpt lat="41.48953" lon="0.9053133"><ele>382.0</ele><time>2026-04-24T15:37:01.924Z</time></trkpt><trkpt lat="41.489315" lon="0.9054517"><ele>382.0</ele><time>2026-04-24T15:37:02.923Z</time></trkpt><trkpt lat="41.4891083" lon="0.9055867"><ele>382.0</ele><time>2026-04-24T15:37:03.923Z</time></trkpt><trkpt lat="41.48891" lon="0.9057267"><ele>382.3333333333333</ele><time>2026-04-24T15:37:04.924Z</time></trkpt><trkpt lat="41.4887133" lon="0.9058617"><ele>382.6666666666667</ele><time>2026-04-24T15:37:05.924Z</time></trkpt><trkpt lat="41.4885217" lon="0.90599"><ele>383.0</ele><time>2026-04-24T15:37:06.924Z</time></trkpt><trkpt lat="41.4883333" lon="0.9061133"><ele>383.0</ele><time>2026-04-24T15:37:07.923Z</time></trkpt><trkpt lat="41.4881433" lon="0.9062367"><ele>383.0</ele><time>2026-04-24T15:37:08.923Z</time></trkpt><trkpt lat="41.4879583" lon="0.90636"><ele>383.0</ele><time>2026-04-24T15:37:09.923Z</time></trkpt><trkpt lat="41.4877733" lon="0.9064867"><ele>383.0</ele><time>2026-04-24T15:37:10.923Z</time></trkpt><trkpt lat="41.4875867" lon="0.90661"><ele>383.0</ele><time>2026-04-24T15:37:11.923Z</time></trkpt><trkpt lat="41.4874033" lon="0.9067333"><ele>383.0</ele><time>2026-04-24T15:37:12.923Z</time></trkpt><trkpt lat="41.48722" lon="0.90686"><ele>382.33333333333337</ele><time>2026-04-24T15:37:13.923Z</time></trkpt><trkpt lat="41.4870367" lon="0.906985"><ele>381.6666666666667</ele><time>2026-04-24T15:37:14.924Z</time></trkpt><trkpt lat="41.4868417" lon="0.90711"><ele>381.0</ele><time>2026-04-24T15:37:15.923Z</time></trkpt><trkpt lat="41.48665" lon="0.9072317"><ele>381.0</ele><time>2026-04-24T15:37:16.923Z</time></trkpt><trkpt lat="41.4864567" lon="0.90736"><ele>381.0</ele><time>2026-04-24T15:37:17.923Z</time></trkpt><trkpt lat="41.4862667" lon="0.9074767"><ele>381.0</ele><time>2026-04-24T15:37:18.924Z</time></trkpt><trkpt lat="41.48608" lon="0.9076067"><ele>381.0</ele><time>2026-04-24T15:37:19.924Z</time></trkpt><trkpt lat="41.4858883" lon="0.907735"><ele>381.0</ele><time>2026-04-24T15:37:20.924Z</time></trkpt><trkpt lat="41.485685" lon="0.9078717"><ele>381.0</ele><time>2026-04-24T15:37:21.923Z</time></trkpt><trkpt lat="41.485485" lon="0.907995"><ele>382.33333333333337</ele><time>2026-04-24T15:37:22.923Z</time></trkpt><trkpt lat="41.4852867" lon="0.9081183"><ele>383.6666666666667</ele><time>2026-04-24T15:37:23.924Z</time></trkpt><trkpt lat="41.4850933" lon="0.9082483"><ele>385.0</ele><time>2026-04-24T15:37:24.924Z</time></trkpt><trkpt lat="41.4848983" lon="0.9083867"><ele>385.33333333333337</ele><time>2026-04-24T15:37:25.923Z</time></trkpt><trkpt lat="41.4847017" lon="0.90852"><ele>385.66666666666663</ele><time>2026-04-24T15:37:26.924Z</time></trkpt><trkpt lat="41.484505" lon="0.9086517"><ele>386.0</ele><time>2026-04-24T15:37:27.924Z</time></trkpt><trkpt lat="41.4843067" lon="0.9087883"><ele>387.5</ele><time>2026-04-24T15:37:28.923Z</time></trkpt><trkpt lat="41.4841" lon="0.9089267"><ele>389.0</ele><time>2026-04-24T15:37:29.923Z</time></trkpt><trkpt lat="41.4838883" lon="0.9090633"><ele>391.0</ele><time>2026-04-24T15:37:30.924Z</time></trkpt><trkpt lat="41.4836683" lon="0.9092067"><ele>393.0</ele><time>2026-04-24T15:37:31.924Z</time></trkpt><trkpt lat="41.4834483" lon="0.9093483"><ele>393.0</ele><time>2026-04-24T15:37:32.924Z</time></trkpt><trkpt lat="41.4832417" lon="0.9094917"><ele>393.0</ele><time>2026-04-24T15:37:33.923Z</time></trkpt><trkpt lat="41.4830183" lon="0.909635"><ele>394.5</ele><time>2026-04-24T15:37:34.923Z</time></trkpt><trkpt lat="41.4827967" lon="0.90978"><ele>396.0</ele><time>2026-04-24T15:37:35.924Z</time></trkpt><trkpt lat="41.4825883" lon="0.90993"><ele>396.5</ele><time>2026-04-24T15:37:36.924Z</time></trkpt><trkpt lat="41.4823683" lon="0.9100767"><ele>397.0</ele><time>2026-04-24T15:37:37.923Z</time></trkpt><trkpt lat="41.4821583" lon="0.9102183"><ele>398.0</ele><time>2026-04-24T15:37:38.923Z</time></trkpt><trkpt lat="41.4819383" lon="0.9103633"><ele>399.0</ele><time>2026-04-24T15:37:39.923Z</time></trkpt><trkpt lat="41.4817267" lon="0.9105033"><ele>399.0</ele><time>2026-04-24T15:37:40.923Z</time></trkpt><trkpt lat="41.4815167" lon="0.9106333"><ele>399.0</ele><time>2026-04-24T15:37:41.924Z</time></trkpt><trkpt lat="41.481325" lon="0.9107667"><ele>399.0</ele><time>2026-04-24T15:37:42.924Z</time></trkpt><trkpt lat="41.4811267" lon="0.9108917"><ele>399.66666666666663</ele><time>2026-04-24T15:37:43.923Z</time></trkpt><trkpt lat="41.480945" lon="0.9110133"><ele>400.3333333333333</ele><time>2026-04-24T15:37:44.924Z</time></trkpt><trkpt lat="41.4807567" lon="0.91114"><ele>401.0</ele><time>2026-04-24T15:37:45.924Z</time></trkpt><trkpt lat="41.4805683" lon="0.9112633"><ele>401.3333333333333</ele><time>2026-04-24T15:37:46.924Z</time></trkpt><trkpt lat="41.48039" lon="0.9113883"><ele>401.66666666666663</ele><time>2026-04-24T15:37:47.924Z</time></trkpt><trkpt lat="41.4802117" lon="0.91151"><ele>402.0</ele><time>2026-04-24T15:37:48.923Z</time></trkpt><trkpt lat="41.4800333" lon="0.9116317"><ele>402.33333333333337</ele><time>2026-04-24T15:37:49.923Z</time></trkpt><trkpt lat="41.4798433" lon="0.911755"><ele>402.6666666666667</ele><time>2026-04-24T15:37:50.924Z</time></trkpt><trkpt lat="41.4796533" lon="0.9118817"><ele>403.0</ele><time>2026-04-24T15:37:51.924Z</time></trkpt><trkpt lat="41.4794617" lon="0.91201"><ele>403.6666666666667</ele><time>2026-04-24T15:37:52.923Z</time></trkpt><trkpt lat="41.479265" lon="0.9121367"><ele>404.33333333333337</ele><time>2026-04-24T15:37:53.923Z</time></trkpt><trkpt lat="41.47907" lon="0.912265"><ele>405.0</ele><time>2026-04-24T15:37:54.923Z</time></trkpt><trkpt lat="41.47887" lon="0.91239"><ele>407.0</ele><time>2026-04-24T15:37:55.923Z</time></trkpt><trkpt lat="41.4786683" lon="0.9125217"><ele>409.0</ele><time>2026-04-24T15:37:56.923Z</time></trkpt><trkpt lat="41.478465" lon="0.9126533"><ele>409.33333333333337</ele><time>2026-04-24T15:37:57.923Z</time></trkpt><trkpt lat="41.4782667" lon="0.9127867"><ele>409.66666666666663</ele><time>2026-04-24T15:37:58.923Z</time></trkpt><trkpt lat="41.478065" lon="0.9129233"><ele>410.0</ele><time>2026-04-24T15:37:59.924Z</time></trkpt><trkpt lat="41.4778717" lon="0.9130567"><ele>410.66666666666663</ele><time>2026-04-24T15:38:00.923Z</time></trkpt><trkpt lat="41.47768" lon="0.9132083"><ele>411.33333333333337</ele><time>2026-04-24T15:38:01.924Z</time></trkpt><trkpt lat="41.4774883" lon="0.9133667"><ele>412.0</ele><time>2026-04-24T15:38:02.923Z</time></trkpt><trkpt lat="41.477315" lon="0.913545"><ele>412.0</ele><time>2026-04-24T15:38:03.923Z</time></trkpt><trkpt lat="41.4771467" lon="0.913745"><ele>412.0</ele><time>2026-04-24T15:38:04.923Z</time></trkpt><trkpt lat="41.4769917" lon="0.9139617"><ele>412.5</ele><time>2026-04-24T15:38:05.924Z</time></trkpt><trkpt lat="41.4768417" lon="0.9142"><ele>413.0</ele><time>2026-04-24T15:38:06.923Z</time></trkpt><trkpt lat="41.4767" lon="0.9144633"><ele>413.5</ele><time>2026-04-24T15:38:07.924Z</time></trkpt><trkpt lat="41.4765667" lon="0.91473"><ele>414.0</ele><time>2026-04-24T15:38:08.924Z</time></trkpt><trkpt lat="41.4764317" lon="0.9150017"><ele>416.0</ele><time>2026-04-24T15:38:09.924Z</time></trkpt><trkpt lat="41.4762933" lon="0.9152667"><ele>418.0</ele><time>2026-04-24T15:38:10.924Z</time></trkpt><trkpt lat="41.4761533" lon="0.9155367"><ele>420.0</ele><time>2026-04-24T15:38:11.924Z</time></trkpt><trkpt lat="41.4760167" lon="0.915815"><ele>422.0</ele><time>2026-04-24T15:38:12.923Z</time></trkpt><trkpt lat="41.47588" lon="0.9160917"><ele>422.0</ele><time>2026-04-24T15:38:13.923Z</time></trkpt><trkpt lat="41.47573" lon="0.91637"><ele>422.0</ele><time>2026-04-24T15:38:14.924Z</time></trkpt><trkpt lat="41.47559" lon="0.91665"><ele>421.0</ele><time>2026-04-24T15:38:15.923Z</time></trkpt><trkpt lat="41.47545" lon="0.9169283"><ele>420.0</ele><time>2026-04-24T15:38:16.923Z</time></trkpt><trkpt lat="41.4753133" lon="0.9172017"><ele>423.0</ele><time>2026-04-24T15:38:17.923Z</time></trkpt><trkpt lat="41.4751617" lon="0.9174817"><ele>426.0</ele><time>2026-04-24T15:38:18.924Z</time></trkpt><trkpt lat="41.4750183" lon="0.9177733"><ele>426.0</ele><time>2026-04-24T15:38:19.923Z</time></trkpt><trkpt lat="41.4748717" lon="0.918065"><ele>426.0</ele><time>2026-04-24T15:38:20.924Z</time></trkpt><trkpt lat="41.474715" lon="0.9183567"><ele>428.5</ele><time>2026-04-24T15:38:21.923Z</time></trkpt><trkpt lat="41.474565" lon="0.9186467"><ele>431.0</ele><time>2026-04-24T15:38:22.923Z</time></trkpt><trkpt lat="41.4744167" lon="0.91894"><ele>431.0</ele><time>2026-04-24T15:38:23.924Z</time></trkpt><trkpt lat="41.4742667" lon="0.91923"><ele>431.0</ele><time>2026-04-24T15:38:24.924Z</time></trkpt><trkpt lat="41.47413" lon="0.9195133"><ele>433.0</ele><time>2026-04-24T15:38:25.924Z</time></trkpt><trkpt lat="41.4739783" lon="0.9198017"><ele>435.0</ele><time>2026-04-24T15:38:26.924Z</time></trkpt><trkpt lat="41.4738333" lon="0.920085"><ele>436.5</ele><time>2026-04-24T15:38:27.924Z</time></trkpt><trkpt lat="41.4736933" lon="0.920385"><ele>438.0</ele><time>2026-04-24T15:38:28.924Z</time></trkpt><trkpt lat="41.47354" lon="0.9206783"><ele>440.0</ele><time>2026-04-24T15:38:29.924Z</time></trkpt><trkpt lat="41.4733883" lon="0.9209617"><ele>442.0</ele><time>2026-04-24T15:38:30.923Z</time></trkpt><trkpt lat="41.473245" lon="0.921245"><ele>442.0</ele><time>2026-04-24T15:38:31.923Z</time></trkpt><trkpt lat="41.4731033" lon="0.921515"><ele>442.0</ele><time>2026-04-24T15:38:32.924Z</time></trkpt><trkpt lat="41.4729667" lon="0.9217867"><ele>447.0</ele><time>2026-04-24T15:38:33.924Z</time></trkpt><trkpt lat="41.47283" lon="0.9220483"><ele>452.0</ele><time>2026-04-24T15:38:34.924Z</time></trkpt><trkpt lat="41.4726933" lon="0.9222983"><ele>452.0</ele><time>2026-04-24T15:38:35.924Z</time></trkpt><trkpt lat="41.472555" lon="0.9225633"><ele>452.0</ele><time>2026-04-24T15:38:36.924Z</time></trkpt><trkpt lat="41.4724233" lon="0.9228267"><ele>455.0</ele><time>2026-04-24T15:38:37.923Z</time></trkpt><trkpt lat="41.4722833" lon="0.9230883"><ele>458.0</ele><time>2026-04-24T15:38:38.923Z</time></trkpt><trkpt lat="41.4721467" lon="0.9233533"><ele>463.0</ele><time>2026-04-24T15:38:39.923Z</time></trkpt><trkpt lat="41.4720067" lon="0.9236117"><ele>468.0</ele><time>2026-04-24T15:38:40.924Z</time></trkpt><trkpt lat="41.471865" lon="0.92387"><ele>468.0</ele><time>2026-04-24T15:38:41.923Z</time></trkpt><trkpt lat="41.4717083" lon="0.9241067"><ele>468.0</ele><time>2026-04-24T15:38:42.923Z</time></trkpt><trkpt lat="41.4715267" lon="0.9243283"><ele>469.0</ele><time>2026-04-24T15:38:43.923Z</time></trkpt><trkpt lat="41.4713383" lon="0.9245267"><ele>470.0</ele><time>2026-04-24T15:38:44.924Z</time></trkpt><trkpt lat="41.4711433" lon="0.9247183"><ele>470.0</ele><time>2026-04-24T15:38:45.924Z</time></trkpt><trkpt lat="41.47095" lon="0.92491"><ele>470.0</ele><time>2026-04-24T15:38:46.924Z</time></trkpt><trkpt lat="41.4707667" lon="0.925105"><ele>470.0</ele><time>2026-04-24T15:38:47.924Z</time></trkpt><trkpt lat="41.470585" lon="0.925295"><ele>470.0</ele><time>2026-04-24T15:38:48.923Z</time></trkpt><trkpt lat="41.47041" lon="0.9254733"><ele>472.0</ele><time>2026-04-24T15:38:49.924Z</time></trkpt><trkpt lat="41.47023" lon="0.92566"><ele>474.0</ele><time>2026-04-24T15:38:50.923Z</time></trkpt><trkpt lat="41.4700517" lon="0.9258467"><ele>473.66666666666663</ele><time>2026-04-24T15:38:51.924Z</time></trkpt><trkpt lat="41.4698783" lon="0.92603"><ele>473.3333333333333</ele><time>2026-04-24T15:38:52.923Z</time></trkpt><trkpt lat="41.4696983" lon="0.9262067"><ele>473.0</ele><time>2026-04-24T15:38:53.923Z</time></trkpt><trkpt lat="41.4695133" lon="0.9263867"><ele>474.5</ele><time>2026-04-24T15:38:54.924Z</time></trkpt><trkpt lat="41.4693367" lon="0.926575"><ele>476.0</ele><time>2026-04-24T15:38:55.924Z</time></trkpt><trkpt lat="41.4691617" lon="0.9267733"><ele>476.0</ele><time>2026-04-24T15:38:56.924Z</time></trkpt><trkpt lat="41.4689983" lon="0.9269767"><ele>476.0</ele><time>2026-04-24T15:38:57.924Z</time></trkpt><trkpt lat="41.46885" lon="0.92718"><ele>476.0</ele><time>2026-04-24T15:38:58.924Z</time></trkpt><trkpt lat="41.468715" lon="0.927385"><ele>478.0</ele><time>2026-04-24T15:38:59.924Z</time></trkpt><trkpt lat="41.468575" lon="0.92759"><ele>480.0</ele><time>2026-04-24T15:39:00.923Z</time></trkpt><trkpt lat="41.46843" lon="0.9278033"><ele>482.0</ele><time>2026-04-24T15:39:01.924Z</time></trkpt><trkpt lat="41.4682867" lon="0.92802"><ele>482.0</ele><time>2026-04-24T15:39:02.924Z</time></trkpt><trkpt lat="41.46814" lon="0.9282383"><ele>482.0</ele><time>2026-04-24T15:39:03.924Z</time></trkpt><trkpt lat="41.4679883" lon="0.9284517"><ele>482.0</ele><time>2026-04-24T15:39:04.923Z</time></trkpt><trkpt lat="41.4678383" lon="0.9286683"><ele>483.0</ele><time>2026-04-24T15:39:05.923Z</time></trkpt><trkpt lat="41.4676917" lon="0.9288967"><ele>484.0</ele><time>2026-04-24T15:39:06.924Z</time></trkpt><trkpt lat="41.4675417" lon="0.9291183"><ele>485.0</ele><time>2026-04-24T15:39:07.924Z</time></trkpt><trkpt lat="41.46738" lon="0.92934"><ele>486.0</ele><time>2026-04-24T15:39:08.924Z</time></trkpt><trkpt lat="41.4672283" lon="0.9295633"><ele>487.0</ele><time>2026-04-24T15:39:09.923Z</time></trkpt><trkpt lat="41.4670717" lon="0.9297817"><ele>487.5</ele><time>2026-04-24T15:39:10.924Z</time></trkpt><trkpt lat="41.466915" lon="0.93001"><ele>488.0</ele><time>2026-04-24T15:39:11.924Z</time></trkpt><trkpt lat="41.46677" lon="0.9302317"><ele>488.66666666666663</ele><time>2026-04-24T15:39:12.923Z</time></trkpt><trkpt lat="41.46663" lon="0.93046"><ele>489.33333333333337</ele><time>2026-04-24T15:39:13.924Z</time></trkpt><trkpt lat="41.4664867" lon="0.93069"><ele>490.0</ele><time>2026-04-24T15:39:14.924Z</time></trkpt><trkpt lat="41.4663483" lon="0.9309183"><ele>490.33333333333337</ele><time>2026-04-24T15:39:15.924Z</time></trkpt><trkpt lat="41.4662183" lon="0.9311567"><ele>490.66666666666663</ele><time>2026-04-24T15:39:16.923Z</time></trkpt><trkpt lat="41.46608" lon="0.9313917"><ele>491.0</ele><time>2026-04-24T15:39:17.923Z</time></trkpt><trkpt lat="41.4659533" lon="0.9316283"><ele>491.66666666666663</ele><time>2026-04-24T15:39:18.923Z</time></trkpt><trkpt lat="41.4658367" lon="0.9318767"><ele>492.33333333333337</ele><time>2026-04-24T15:39:19.923Z</time></trkpt><trkpt lat="41.4657117" lon="0.9321233"><ele>493.0</ele><time>2026-04-24T15:39:20.923Z</time></trkpt><trkpt lat="41.4655867" lon="0.9323783"><ele>494.0</ele><time>2026-04-24T15:39:21.923Z</time></trkpt><trkpt lat="41.46547" lon="0.9326283"><ele>495.0</ele><time>2026-04-24T15:39:22.923Z</time></trkpt><trkpt lat="41.46535" lon="0.9328733"><ele>496.0</ele><time>2026-04-24T15:39:23.923Z</time></trkpt><trkpt lat="41.4652267" lon="0.9331167"><ele>496.0</ele><time>2026-04-24T15:39:24.923Z</time></trkpt><trkpt lat="41.46511" lon="0.9333633"><ele>496.0</ele><time>2026-04-24T15:39:25.924Z</time></trkpt><trkpt lat="41.4649933" lon="0.933605"><ele>496.0</ele><time>2026-04-24T15:39:26.923Z</time></trkpt><trkpt lat="41.4648767" lon="0.9338383"><ele>497.6666666666667</ele><time>2026-04-24T15:39:27.924Z</time></trkpt><trkpt lat="41.4647617" lon="0.9340717"><ele>499.33333333333337</ele><time>2026-04-24T15:39:28.923Z</time></trkpt><trkpt lat="41.4646467" lon="0.9342933"><ele>501.0</ele><time>2026-04-24T15:39:29.924Z</time></trkpt><trkpt lat="41.464535" lon="0.9345167"><ele>501.33333333333337</ele><time>2026-04-24T15:39:30.924Z</time></trkpt><trkpt lat="41.464425" lon="0.9347467"><ele>501.6666666666667</ele><time>2026-04-24T15:39:31.923Z</time></trkpt><trkpt lat="41.4642933" lon="0.934965"><ele>502.0</ele><time>2026-04-24T15:39:32.923Z</time></trkpt><trkpt lat="41.4641417" lon="0.9351833"><ele>502.6666666666667</ele><time>2026-04-24T15:39:33.923Z</time></trkpt><trkpt lat="41.4639767" lon="0.935375"><ele>503.33333333333337</ele><time>2026-04-24T15:39:34.923Z</time></trkpt><trkpt lat="41.4637967" lon="0.9355617"><ele>504.0</ele><time>2026-04-24T15:39:35.923Z</time></trkpt><trkpt lat="41.46361" lon="0.935735"><ele>504.0</ele><time>2026-04-24T15:39:36.924Z</time></trkpt><trkpt lat="41.4634167" lon="0.9358983"><ele>504.0</ele><time>2026-04-24T15:39:37.923Z</time></trkpt><trkpt lat="41.46323" lon="0.9360583"><ele>504.0</ele><time>2026-04-24T15:39:38.924Z</time></trkpt><trkpt lat="41.463045" lon="0.9362233"><ele>504.0</ele><time>2026-04-24T15:39:39.923Z</time></trkpt><trkpt lat="41.4628633" lon="0.9363867"><ele>504.0</ele><time>2026-04-24T15:39:40.923Z</time></trkpt><trkpt lat="41.4626733" lon="0.9365533"><ele>505.33333333333337</ele><time>2026-04-24T15:39:41.923Z</time></trkpt><trkpt lat="41.4624883" lon="0.9367217"><ele>506.6666666666667</ele><time>2026-04-24T15:39:42.924Z</time></trkpt><trkpt lat="41.462305" lon="0.9368833"><ele>508.0</ele><time>2026-04-24T15:39:43.924Z</time></trkpt><trkpt lat="41.462125" lon="0.93704"><ele>510.0</ele><time>2026-04-24T15:39:44.923Z</time></trkpt><trkpt lat="41.4619383" lon="0.9372017"><ele>512.0</ele><time>2026-04-24T15:39:45.923Z</time></trkpt><trkpt lat="41.461755" lon="0.9373717"><ele>514.0</ele><time>2026-04-24T15:39:46.923Z</time></trkpt><trkpt lat="41.4615733" lon="0.93754"><ele>513.3333333333334</ele><time>2026-04-24T15:39:47.924Z</time></trkpt><trkpt lat="41.461395" lon="0.9377117"><ele>512.6666666666666</ele><time>2026-04-24T15:39:48.924Z</time></trkpt><trkpt lat="41.4612183" lon="0.937895"><ele>512.0</ele><time>2026-04-24T15:39:49.923Z</time></trkpt><trkpt lat="41.4610367" lon="0.93807"><ele>513.3333333333333</ele><time>2026-04-24T15:39:50.924Z</time></trkpt><trkpt lat="41.46086" lon="0.9382433"><ele>514.6666666666666</ele><time>2026-04-24T15:39:51.924Z</time></trkpt><trkpt lat="41.4606833" lon="0.9384183"><ele>516.0</ele><time>2026-04-24T15:39:52.924Z</time></trkpt><trkpt lat="41.4605117" lon="0.9385817"><ele>516.3333333333334</ele><time>2026-04-24T15:39:53.923Z</time></trkpt><trkpt lat="41.4603383" lon="0.9387517"><ele>516.6666666666667</ele><time>2026-04-24T15:39:54.924Z</time></trkpt><trkpt lat="41.460175" lon="0.9389217"><ele>517.0</ele><time>2026-04-24T15:39:55.924Z</time></trkpt><trkpt lat="41.4600067" lon="0.9390917"><ele>518.0</ele><time>2026-04-24T15:39:56.924Z</time></trkpt><trkpt lat="41.459835" lon="0.9392683"><ele>519.0</ele><time>2026-04-24T15:39:57.923Z</time></trkpt><trkpt lat="41.459665" lon="0.9394483"><ele>520.0</ele><time>2026-04-24T15:39:58.923Z</time></trkpt><trkpt lat="41.459495" lon="0.9396283"><ele>520.0</ele><time>2026-04-24T15:39:59.924Z</time></trkpt><trkpt lat="41.4593317" lon="0.9398133"><ele>520.0</ele><time>2026-04-24T15:40:00.923Z</time></trkpt><trkpt lat="41.4591717" lon="0.9399983"><ele>520.0</ele><time>2026-04-24T15:40:01.924Z</time></trkpt><trkpt lat="41.4590083" lon="0.9401817"><ele>520.3333333333334</ele><time>2026-04-24T15:40:02.924Z</time></trkpt><trkpt lat="41.458845" lon="0.9403683"><ele>520.6666666666666</ele><time>2026-04-24T15:40:03.924Z</time></trkpt><trkpt lat="41.4586867" lon="0.9405533"><ele>521.0</ele><time>2026-04-24T15:40:04.923Z</time></trkpt><trkpt lat="41.4585317" lon="0.940735"><ele>522.0</ele><time>2026-04-24T15:40:05.923Z</time></trkpt><trkpt lat="41.45837" lon="0.9409233"><ele>523.0</ele><time>2026-04-24T15:40:06.924Z</time></trkpt><trkpt lat="41.458205" lon="0.9411"><ele>524.0</ele><time>2026-04-24T15:40:07.923Z</time></trkpt><trkpt lat="41.45803" lon="0.9412733"><ele>526.0</ele><time>2026-04-24T15:40:08.923Z</time></trkpt><trkpt lat="41.4578433" lon="0.9414433"><ele>528.0</ele><time>2026-04-24T15:40:09.923Z</time></trkpt><trkpt lat="41.4576533" lon="0.9416033"><ele>528.3333333333334</ele><time>2026-04-24T15:40:10.923Z</time></trkpt><trkpt lat="41.4574583" lon="0.94174"><ele>528.6666666666667</ele><time>2026-04-24T15:40:11.923Z</time></trkpt><trkpt lat="41.4572533" lon="0.9418717"><ele>529.0</ele><time>2026-04-24T15:40:12.923Z</time></trkpt><trkpt lat="41.4570467" lon="0.9419967"><ele>529.0</ele><time>2026-04-24T15:40:13.924Z</time></trkpt><trkpt lat="41.456835" lon="0.9421067"><ele>529.0</ele><time>2026-04-24T15:40:14.923Z</time></trkpt><trkpt lat="41.4566217" lon="0.9422083"><ele>529.0</ele><time>2026-04-24T15:40:15.923Z</time></trkpt><trkpt lat="41.4564183" lon="0.9422933"><ele>529.0</ele><time>2026-04-24T15:40:16.924Z</time></trkpt><trkpt lat="41.4562167" lon="0.942375"><ele>529.0</ele><time>2026-04-24T15:40:17.924Z</time></trkpt><trkpt lat="41.4560167" lon="0.9424583"><ele>529.3333333333334</ele><time>2026-04-24T15:40:18.924Z</time></trkpt><trkpt lat="41.4558133" lon="0.9425367"><ele>529.6666666666666</ele><time>2026-04-24T15:40:19.923Z</time></trkpt><trkpt lat="41.4556167" lon="0.942615"><ele>530.0</ele><time>2026-04-24T15:40:20.923Z</time></trkpt><trkpt lat="41.455415" lon="0.9426933"><ele>532.0</ele><time>2026-04-24T15:40:21.923Z</time></trkpt><trkpt lat="41.4552117" lon="0.9427733"><ele>534.0</ele><time>2026-04-24T15:40:22.924Z</time></trkpt><trkpt lat="41.4550033" lon="0.9428483"><ele>536.0</ele><time>2026-04-24T15:40:23.923Z</time></trkpt><trkpt lat="41.4547933" lon="0.9429267"><ele>535.6666666666666</ele><time>2026-04-24T15:40:24.923Z</time></trkpt><trkpt lat="41.454585" lon="0.9430083"><ele>535.3333333333334</ele><time>2026-04-24T15:40:25.923Z</time></trkpt><trkpt lat="41.4543783" lon="0.9431"><ele>535.0</ele><time>2026-04-24T15:40:26.924Z</time></trkpt><trkpt lat="41.45417" lon="0.9431817"><ele>535.0</ele><time>2026-04-24T15:40:27.923Z</time></trkpt><trkpt lat="41.4539633" lon="0.9432667"><ele>535.0</ele><time>2026-04-24T15:40:28.923Z</time></trkpt><trkpt lat="41.4537517" lon="0.943355"><ele>535.0</ele><time>2026-04-24T15:40:29.923Z</time></trkpt><trkpt lat="41.4535333" lon="0.9434417"><ele>534.6666666666667</ele><time>2026-04-24T15:40:30.924Z</time></trkpt><trkpt lat="41.4533217" lon="0.943535"><ele>534.3333333333334</ele><time>2026-04-24T15:40:31.923Z</time></trkpt><trkpt lat="41.4531033" lon="0.943615"><ele>534.0</ele><time>2026-04-24T15:40:32.924Z</time></trkpt><trkpt lat="41.4528933" lon="0.9436967"><ele>534.0</ele><time>2026-04-24T15:40:33.924Z</time></trkpt><trkpt lat="41.4526917" lon="0.9437883"><ele>534.0</ele><time>2026-04-24T15:40:34.923Z</time></trkpt><trkpt lat="41.4524933" lon="0.94388"><ele>534.0</ele><time>2026-04-24T15:40:35.923Z</time></trkpt><trkpt lat="41.4522867" lon="0.9439567"><ele>534.6666666666666</ele><time>2026-04-24T15:40:36.924Z</time></trkpt><trkpt lat="41.4520783" lon="0.94404"><ele>535.3333333333333</ele><time>2026-04-24T15:40:37.924Z</time></trkpt><trkpt lat="41.4518867" lon="0.9441133"><ele>536.0</ele><time>2026-04-24T15:40:38.923Z</time></trkpt><trkpt lat="41.4517083" lon="0.9441917"><ele>535.6666666666666</ele><time>2026-04-24T15:40:39.924Z</time></trkpt><trkpt lat="41.4515283" lon="0.944255"><ele>535.3333333333334</ele><time>2026-04-24T15:40:40.923Z</time></trkpt><trkpt lat="41.45135" lon="0.944325"><ele>535.0</ele><time>2026-04-24T15:40:41.924Z</time></trkpt><trkpt lat="41.4511667" lon="0.944395"><ele>537.6666666666667</ele><time>2026-04-24T15:40:42.923Z</time></trkpt><trkpt lat="41.4509867" lon="0.9444717"><ele>540.3333333333334</ele><time>2026-04-24T15:40:43.923Z</time></trkpt><trkpt lat="41.4508017" lon="0.9445567"><ele>543.0</ele><time>2026-04-24T15:40:44.923Z</time></trkpt><trkpt lat="41.4506233" lon="0.9446367"><ele>543.0</ele><time>2026-04-24T15:40:45.923Z</time></trkpt><trkpt lat="41.4504417" lon="0.9447117"><ele>543.0</ele><time>2026-04-24T15:40:46.924Z</time></trkpt><trkpt lat="41.4502633" lon="0.94478"><ele>543.0</ele><time>2026-04-24T15:40:47.924Z</time></trkpt><trkpt lat="41.4500833" lon="0.94485"><ele>543.0</ele><time>2026-04-24T15:40:48.923Z</time></trkpt><trkpt lat="41.4499133" lon="0.94492"><ele>543.0</ele><time>2026-04-24T15:40:49.924Z</time></trkpt><trkpt lat="41.4497417" lon="0.9450033"><ele>543.0</ele><time>2026-04-24T15:40:50.923Z</time></trkpt><trkpt lat="41.4495683" lon="0.945085"><ele>544.0</ele><time>2026-04-24T15:40:51.924Z</time></trkpt><trkpt lat="41.4493967" lon="0.9451917"><ele>545.0</ele><time>2026-04-24T15:40:52.923Z</time></trkpt><trkpt lat="41.4492267" lon="0.94532"><ele>546.0</ele><time>2026-04-24T15:40:53.923Z</time></trkpt><trkpt lat="41.4490617" lon="0.945465"><ele>546.0</ele><time>2026-04-24T15:40:54.924Z</time></trkpt><trkpt lat="41.4489033" lon="0.945625"><ele>546.0</ele><time>2026-04-24T15:40:55.923Z</time></trkpt><trkpt lat="41.4487533" lon="0.945795"><ele>546.0</ele><time>2026-04-24T15:40:56.924Z</time></trkpt><trkpt lat="41.4485983" lon="0.945975"><ele>547.3333333333334</ele><time>2026-04-24T15:40:57.924Z</time></trkpt><trkpt lat="41.4484533" lon="0.9461517"><ele>548.6666666666667</ele><time>2026-04-24T15:40:58.923Z</time></trkpt><trkpt lat="41.4483183" lon="0.9463367"><ele>550.0</ele><time>2026-04-24T15:40:59.923Z</time></trkpt><trkpt lat="41.4481967" lon="0.946515"><ele>550.0</ele><time>2026-04-24T15:41:00.923Z</time></trkpt><trkpt lat="41.4480683" lon="0.9466733"><ele>550.0</ele><time>2026-04-24T15:41:01.923Z</time></trkpt><trkpt lat="41.4479517" lon="0.9468367"><ele>550.0</ele><time>2026-04-24T15:41:02.924Z</time></trkpt><trkpt lat="41.4478283" lon="0.9469967"><ele>552.3333333333334</ele><time>2026-04-24T15:41:03.924Z</time></trkpt><trkpt lat="41.4477017" lon="0.9471533"><ele>554.6666666666666</ele><time>2026-04-24T15:41:04.924Z</time></trkpt><trkpt lat="41.4475783" lon="0.9473133"><ele>557.0</ele><time>2026-04-24T15:41:05.924Z</time></trkpt><trkpt lat="41.4474567" lon="0.9474767"><ele>557.3333333333333</ele><time>2026-04-24T15:41:06.923Z</time></trkpt><trkpt lat="41.447335" lon="0.947645"><ele>557.6666666666666</ele><time>2026-04-24T15:41:07.924Z</time></trkpt><trkpt lat="41.44721" lon="0.9478283"><ele>558.0</ele><time>2026-04-24T15:41:08.923Z</time></trkpt><trkpt lat="41.44707" lon="0.9480017"><ele>558.0</ele><time>2026-04-24T15:41:09.924Z</time></trkpt><trkpt lat="41.4469383" lon="0.9481867"><ele>558.0</ele><time>2026-04-24T15:41:10.923Z</time></trkpt><trkpt lat="41.4468" lon="0.9483683"><ele>558.0</ele><time>2026-04-24T15:41:11.924Z</time></trkpt><trkpt lat="41.44667" lon="0.9485633"><ele>558.0</ele><time>2026-04-24T15:41:12.924Z</time></trkpt><trkpt lat="41.4465283" lon="0.94875"><ele>558.0</ele><time>2026-04-24T15:41:13.924Z</time></trkpt><trkpt lat="41.4463883" lon="0.94893"><ele>558.0</ele><time>2026-04-24T15:41:14.923Z</time></trkpt><trkpt lat="41.4462433" lon="0.9491067"><ele>559.0</ele><time>2026-04-24T15:41:15.924Z</time></trkpt><trkpt lat="41.4461017" lon="0.949295"><ele>560.0</ele><time>2026-04-24T15:41:16.924Z</time></trkpt><trkpt lat="41.445965" lon="0.9494817"><ele>561.0</ele><time>2026-04-24T15:41:17.924Z</time></trkpt><trkpt lat="41.4458283" lon="0.9496667"><ele>561.0</ele><time>2026-04-24T15:41:18.924Z</time></trkpt><trkpt lat="41.4456967" lon="0.9498483"><ele>561.0</ele><time>2026-04-24T15:41:19.923Z</time></trkpt><trkpt lat="41.4455683" lon="0.9500267"><ele>561.0</ele><time>2026-04-24T15:41:20.924Z</time></trkpt><trkpt lat="41.4454383" lon="0.950205"><ele>562.0</ele><time>2026-04-24T15:41:21.924Z</time></trkpt><trkpt lat="41.4453033" lon="0.9503833"><ele>563.0</ele><time>2026-04-24T15:41:22.923Z</time></trkpt><trkpt lat="41.4451717" lon="0.9505633"><ele>564.0</ele><time>2026-04-24T15:41:23.924Z</time></trkpt><trkpt lat="41.44504" lon="0.9507383"><ele>564.6666666666666</ele><time>2026-04-24T15:41:24.923Z</time></trkpt><trkpt lat="41.44491" lon="0.9509117"><ele>565.3333333333333</ele><time>2026-04-24T15:41:25.923Z</time></trkpt><trkpt lat="41.4447833" lon="0.9510867"><ele>566.0</ele><time>2026-04-24T15:41:26.924Z</time></trkpt><trkpt lat="41.444645" lon="0.9512683"><ele>565.6666666666666</ele><time>2026-04-24T15:41:27.923Z</time></trkpt><trkpt lat="41.444505" lon="0.9514533"><ele>565.3333333333334</ele><time>2026-04-24T15:41:28.923Z</time></trkpt><trkpt lat="41.4443533" lon="0.951655"><ele>565.0</ele><time>2026-04-24T15:41:29.924Z</time></trkpt><trkpt lat="41.4441883" lon="0.95185"><ele>566.0</ele><time>2026-04-24T15:41:30.924Z</time></trkpt><trkpt lat="41.4440217" lon="0.9520367"><ele>567.0</ele><time>2026-04-24T15:41:31.924Z</time></trkpt><trkpt lat="41.443855" lon="0.95222"><ele>568.0</ele><time>2026-04-24T15:41:32.924Z</time></trkpt><trkpt lat="41.4436833" lon="0.952405"><ele>569.3333333333334</ele><time>2026-04-24T15:41:33.924Z</time></trkpt><trkpt lat="41.4435117" lon="0.95259"><ele>570.6666666666666</ele><time>2026-04-24T15:41:34.924Z</time></trkpt><trkpt lat="41.4433517" lon="0.9527767"><ele>572.0</ele><time>2026-04-24T15:41:35.923Z</time></trkpt><trkpt lat="41.4431917" lon="0.952965"><ele>572.0</ele><time>2026-04-24T15:41:36.924Z</time></trkpt><trkpt lat="41.4430283" lon="0.953155"><ele>572.0</ele><time>2026-04-24T15:41:37.923Z</time></trkpt><trkpt lat="41.4428583" lon="0.9533467"><ele>572.0</ele><time>2026-04-24T15:41:38.923Z</time></trkpt><trkpt lat="41.4426867" lon="0.953545"><ele>575.0</ele><time>2026-04-24T15:41:39.924Z</time></trkpt><trkpt lat="41.4425117" lon="0.953735"><ele>578.0</ele><time>2026-04-24T15:41:40.924Z</time></trkpt><trkpt lat="41.44233" lon="0.95393"><ele>578.0</ele><time>2026-04-24T15:41:41.924Z</time></trkpt><trkpt lat="41.442155" lon="0.9541283"><ele>578.0</ele><time>2026-04-24T15:41:42.924Z</time></trkpt><trkpt lat="41.4419767" lon="0.9543267"><ele>578.3333333333333</ele><time>2026-04-24T15:41:43.924Z</time></trkpt><trkpt lat="41.4418067" lon="0.9545083"><ele>578.6666666666666</ele><time>2026-04-24T15:41:44.924Z</time></trkpt><trkpt lat="41.4416417" lon="0.9546917"><ele>579.0</ele><time>2026-04-24T15:41:45.923Z</time></trkpt><trkpt lat="41.441485" lon="0.9548683"><ele>579.6666666666666</ele><time>2026-04-24T15:41:46.924Z</time></trkpt><trkpt lat="41.441335" lon="0.9550417"><ele>580.3333333333333</ele><time>2026-04-24T15:41:47.924Z</time></trkpt><trkpt lat="41.4411833" lon="0.955205"><ele>581.0</ele><time>2026-04-24T15:41:48.923Z</time></trkpt><trkpt lat="41.44104" lon="0.95537"><ele>581.0</ele><time>2026-04-24T15:41:49.923Z</time></trkpt><trkpt lat="41.4408967" lon="0.9555367"><ele>581.0</ele><time>2026-04-24T15:41:50.923Z</time></trkpt><trkpt lat="41.44075" lon="0.9557017"><ele>581.0</ele><time>2026-04-24T15:41:51.923Z</time></trkpt><trkpt lat="41.4405983" lon="0.955865"><ele>581.6666666666666</ele><time>2026-04-24T15:41:52.924Z</time></trkpt><trkpt lat="41.4404583" lon="0.95601"><ele>582.3333333333334</ele><time>2026-04-24T15:41:53.923Z</time></trkpt><trkpt lat="41.440325" lon="0.9561567"><ele>583.0</ele><time>2026-04-24T15:41:54.923Z</time></trkpt><trkpt lat="41.4401883" lon="0.956285"><ele>583.0</ele><time>2026-04-24T15:41:55.923Z</time></trkpt><trkpt lat="41.4400467" lon="0.9564"><ele>583.0</ele><time>2026-04-24T15:41:56.923Z</time></trkpt><trkpt lat="41.43989" lon="0.9565"><ele>583.0</ele><time>2026-04-24T15:41:57.923Z</time></trkpt><trkpt lat="41.4397367" lon="0.9565883"><ele>582.3333333333334</ele><time>2026-04-24T15:41:58.923Z</time></trkpt><trkpt lat="41.4395767" lon="0.9566783"><ele>581.6666666666666</ele><time>2026-04-24T15:41:59.924Z</time></trkpt><trkpt lat="41.43942" lon="0.9567483"><ele>581.0</ele><time>2026-04-24T15:42:00.923Z</time></trkpt><trkpt lat="41.4392617" lon="0.9568167"><ele>579.0</ele><time>2026-04-24T15:42:01.924Z</time></trkpt><trkpt lat="41.4391033" lon="0.9568817"><ele>577.0</ele><time>2026-04-24T15:42:02.924Z</time></trkpt><trkpt lat="41.4389517" lon="0.9569483"><ele>575.0</ele><time>2026-04-24T15:42:03.924Z</time></trkpt><trkpt lat="41.4387983" lon="0.957035"><ele>575.0</ele><time>2026-04-24T15:42:04.923Z</time></trkpt><trkpt lat="41.43865" lon="0.957145"><ele>575.0</ele><time>2026-04-24T15:42:05.924Z</time></trkpt><trkpt lat="41.4385067" lon="0.957265"><ele>575.0</ele><time>2026-04-24T15:42:06.923Z</time></trkpt><trkpt lat="41.43837" lon="0.95741"><ele>568.3333333333333</ele><time>2026-04-24T15:42:07.924Z</time></trkpt><trkpt lat="41.4382417" lon="0.9575633"><ele>561.6666666666666</ele><time>2026-04-24T15:42:08.924Z</time></trkpt><trkpt lat="41.4381167" lon="0.9577517"><ele>555.0</ele><time>2026-04-24T15:42:09.923Z</time></trkpt><trkpt lat="41.4379917" lon="0.95795"><ele>556.0</ele><time>2026-04-24T15:42:10.924Z</time></trkpt><trkpt lat="41.4378767" lon="0.9581533"><ele>557.0</ele><time>2026-04-24T15:42:11.924Z</time></trkpt><trkpt lat="41.4377717" lon="0.95836"><ele>558.0</ele><time>2026-04-24T15:42:12.923Z</time></trkpt><trkpt lat="41.4376633" lon="0.9585567"><ele>558.0</ele><time>2026-04-24T15:42:13.923Z</time></trkpt><trkpt lat="41.437555" lon="0.95877"><ele>558.0</ele><time>2026-04-24T15:42:14.923Z</time></trkpt><trkpt lat="41.437455" lon="0.9589967"><ele>558.0</ele><time>2026-04-24T15:42:15.923Z</time></trkpt><trkpt lat="41.4373433" lon="0.9592117"><ele>553.0</ele><time>2026-04-24T15:42:16.923Z</time></trkpt><trkpt lat="41.437235" lon="0.9594217"><ele>548.0</ele><time>2026-04-24T15:42:17.923Z</time></trkpt><trkpt lat="41.43712" lon="0.95963"><ele>543.0</ele><time>2026-04-24T15:42:18.923Z</time></trkpt><trkpt lat="41.43701" lon="0.95984"><ele>544.0</ele><time>2026-04-24T15:42:19.924Z</time></trkpt><trkpt lat="41.436905" lon="0.9600483"><ele>545.0</ele><time>2026-04-24T15:42:20.923Z</time></trkpt><trkpt lat="41.4368083" lon="0.960255"><ele>546.0</ele><time>2026-04-24T15:42:21.924Z</time></trkpt><trkpt lat="41.4367117" lon="0.96044"><ele>546.0</ele><time>2026-04-24T15:42:22.924Z</time></trkpt><trkpt lat="41.4366183" lon="0.9606317"><ele>546.0</ele><time>2026-04-24T15:42:23.923Z</time></trkpt><trkpt lat="41.436525" lon="0.9608267"><ele>546.0</ele><time>2026-04-24T15:42:24.923Z</time></trkpt><trkpt lat="41.43643" lon="0.9610283"><ele>545.0</ele><time>2026-04-24T15:42:25.924Z</time></trkpt><trkpt lat="41.4363433" lon="0.9612367"><ele>544.0</ele><time>2026-04-24T15:42:26.923Z</time></trkpt><trkpt lat="41.43627" lon="0.9614583"><ele>543.0</ele><time>2026-04-24T15:42:27.923Z</time></trkpt><trkpt lat="41.4362083" lon="0.9616667"><ele>538.0</ele><time>2026-04-24T15:42:28.924Z</time></trkpt><trkpt lat="41.436145" lon="0.9618867"><ele>533.0</ele><time>2026-04-24T15:42:29.923Z</time></trkpt><trkpt lat="41.4360783" lon="0.9620983"><ele>528.0</ele><time>2026-04-24T15:42:30.923Z</time></trkpt><trkpt lat="41.4360217" lon="0.9622883"><ele>528.0</ele><time>2026-04-24T15:42:31.923Z</time></trkpt><trkpt lat="41.43597" lon="0.9624617"><ele>528.0</ele><time>2026-04-24T15:42:32.924Z</time></trkpt><trkpt lat="41.4359233" lon="0.9626383"><ele>528.0</ele><time>2026-04-24T15:42:33.924Z</time></trkpt><trkpt lat="41.435875" lon="0.9628"><ele>528.0</ele><time>2026-04-24T15:42:34.924Z</time></trkpt><trkpt lat="41.4358283" lon="0.9629583"><ele>526.5</ele><time>2026-04-24T15:42:35.924Z</time></trkpt><trkpt lat="41.435785" lon="0.963115"><ele>525.0</ele><time>2026-04-24T15:42:36.923Z</time></trkpt><trkpt lat="41.4357367" lon="0.96327"><ele>523.5</ele><time>2026-04-24T15:42:37.923Z</time></trkpt><trkpt lat="41.4357017" lon="0.9634167"><ele>522.0</ele><time>2026-04-24T15:42:38.923Z</time></trkpt><trkpt lat="41.4356617" lon="0.9635483"><ele>521.6666666666666</ele><time>2026-04-24T15:42:39.924Z</time></trkpt><trkpt lat="41.4356183" lon="0.9636667"><ele>521.3333333333334</ele><time>2026-04-24T15:42:40.924Z</time></trkpt><trkpt lat="41.4355817" lon="0.9637783"><ele>521.0</ele><time>2026-04-24T15:42:41.924Z</time></trkpt><trkpt lat="41.4355417" lon="0.9638867"><ele>520.6666666666667</ele><time>2026-04-24T15:42:42.923Z</time></trkpt><trkpt lat="41.4355083" lon="0.9639883"><ele>520.3333333333334</ele><time>2026-04-24T15:42:43.924Z</time></trkpt><trkpt lat="41.4354733" lon="0.9640783"><ele>520.0</ele><time>2026-04-24T15:42:44.924Z</time></trkpt><trkpt lat="41.4354433" lon="0.964165"><ele>519.6</ele><time>2026-04-24T15:42:45.923Z</time></trkpt><trkpt lat="41.4353717" lon="0.9642883"><ele>519.2</ele><time>2026-04-24T15:42:47.923Z</time></trkpt><trkpt lat="41.4352833" lon="0.9643433"><ele>518.8</ele><time>2026-04-24T15:42:49.923Z</time></trkpt><trkpt lat="41.4351733" lon="0.9643483"><ele>518.4</ele><time>2026-04-24T15:42:51.923Z</time></trkpt><trkpt lat="41.43511" lon="0.9643233"><ele>518.0</ele><time>2026-04-24T15:42:52.924Z</time></trkpt><trkpt lat="41.435055" lon="0.9642683"><ele>518.4</ele><time>2026-04-24T15:42:53.924Z</time></trkpt><trkpt lat="41.435005" lon="0.9641883"><ele>518.8</ele><time>2026-04-24T15:42:54.923Z</time></trkpt><trkpt lat="41.4349667" lon="0.9640883"><ele>519.2</ele><time>2026-04-24T15:42:55.924Z</time></trkpt><trkpt lat="41.4349283" lon="0.963965"><ele>519.6</ele><time>2026-04-24T15:42:56.923Z</time></trkpt><trkpt lat="41.4348917" lon="0.9638333"><ele>520.0</ele><time>2026-04-24T15:42:57.923Z</time></trkpt><trkpt lat="41.434855" lon="0.9636933"><ele>520.0</ele><time>2026-04-24T15:42:58.924Z</time></trkpt><trkpt lat="41.43481" lon="0.9635383"><ele>520.0</ele><time>2026-04-24T15:42:59.924Z</time></trkpt><trkpt lat="41.434765" lon="0.9633683"><ele>520.0</ele><time>2026-04-24T15:43:00.924Z</time></trkpt><trkpt lat="41.4347183" lon="0.963195"><ele>520.0</ele><time>2026-04-24T15:43:01.924Z</time></trkpt><trkpt lat="41.4346617" lon="0.963015"><ele>518.0</ele><time>2026-04-24T15:43:02.924Z</time></trkpt><trkpt lat="41.4345933" lon="0.9628267"><ele>516.0</ele><time>2026-04-24T15:43:03.923Z</time></trkpt><trkpt lat="41.4345167" lon="0.962645"><ele>514.0</ele><time>2026-04-24T15:43:04.924Z</time></trkpt><trkpt lat="41.4344283" lon="0.9624617"><ele>514.0</ele><time>2026-04-24T15:43:05.924Z</time></trkpt><trkpt lat="41.434335" lon="0.962285"><ele>514.0</ele><time>2026-04-24T15:43:06.924Z</time></trkpt><trkpt lat="41.43423" lon="0.9621183"><ele>514.0</ele><time>2026-04-24T15:43:07.924Z</time></trkpt><trkpt lat="41.4341183" lon="0.9619583"><ele>514.0</ele><time>2026-04-24T15:43:08.924Z</time></trkpt><trkpt lat="41.4339883" lon="0.9618033"><ele>514.0</ele><time>2026-04-24T15:43:09.924Z</time></trkpt><trkpt lat="41.4338483" lon="0.9616533"><ele>514.0</ele><time>2026-04-24T15:43:10.923Z</time></trkpt><trkpt lat="41.4337033" lon="0.9615133"><ele>514.0</ele><time>2026-04-24T15:43:11.923Z</time></trkpt><trkpt lat="41.43354" lon="0.9613783"><ele>514.0</ele><time>2026-04-24T15:43:12.923Z</time></trkpt><trkpt lat="41.43337" lon="0.9612417"><ele>514.0</ele><time>2026-04-24T15:43:13.922Z</time></trkpt><trkpt lat="41.4332033" lon="0.9611117"><ele>514.0</ele><time>2026-04-24T15:43:14.923Z</time></trkpt><trkpt lat="41.433035" lon="0.9609817"><ele>514.0</ele><time>2026-04-24T15:43:15.923Z</time></trkpt><trkpt lat="41.43287" lon="0.9608533"><ele>514.0</ele><time>2026-04-24T15:43:16.923Z</time></trkpt><trkpt lat="41.4327233" lon="0.9607233"><ele>516.6666666666667</ele><time>2026-04-24T15:43:17.922Z</time></trkpt><trkpt lat="41.43258" lon="0.9605783"><ele>519.3333333333334</ele><time>2026-04-24T15:43:18.922Z</time></trkpt><trkpt lat="41.4324367" lon="0.9604083"><ele>522.0</ele><time>2026-04-24T15:43:19.922Z</time></trkpt><trkpt lat="41.4323067" lon="0.960225"><ele>523.6666666666666</ele><time>2026-04-24T15:43:20.923Z</time></trkpt><trkpt lat="41.4321767" lon="0.96003"><ele>525.3333333333333</ele><time>2026-04-24T15:43:21.923Z</time></trkpt><trkpt lat="41.4320567" lon="0.9598167"><ele>527.0</ele><time>2026-04-24T15:43:22.923Z</time></trkpt><trkpt lat="41.4319467" lon="0.9595983"><ele>528.0</ele><time>2026-04-24T15:43:23.922Z</time></trkpt><trkpt lat="41.4318517" lon="0.95938"><ele>529.0</ele><time>2026-04-24T15:43:24.922Z</time></trkpt><trkpt lat="41.4317483" lon="0.95917"><ele>530.0</ele><time>2026-04-24T15:43:25.923Z</time></trkpt><trkpt lat="41.4316433" lon="0.9589533"><ele>530.0</ele><time>2026-04-24T15:43:26.922Z</time></trkpt><trkpt lat="41.4315467" lon="0.9587383"><ele>530.0</ele><time>2026-04-24T15:43:27.922Z</time></trkpt><trkpt lat="41.4314483" lon="0.958525"><ele>530.0</ele><time>2026-04-24T15:43:28.922Z</time></trkpt><trkpt lat="41.431345" lon="0.958305"><ele>530.0</ele><time>2026-04-24T15:43:29.923Z</time></trkpt><trkpt lat="41.4312467" lon="0.95808"><ele>530.0</ele><time>2026-04-24T15:43:30.922Z</time></trkpt><trkpt lat="41.4311433" lon="0.9578517"><ele>530.0</ele><time>2026-04-24T15:43:31.922Z</time></trkpt><trkpt lat="41.431035" lon="0.9576233"><ele>531.0</ele><time>2026-04-24T15:43:32.922Z</time></trkpt><trkpt lat="41.4309317" lon="0.95739"><ele>532.0</ele><time>2026-04-24T15:43:33.923Z</time></trkpt><trkpt lat="41.430825" lon="0.957155"><ele>533.0</ele><time>2026-04-24T15:43:34.922Z</time></trkpt><trkpt lat="41.4307117" lon="0.9569183"><ele>533.0</ele><time>2026-04-24T15:43:35.922Z</time></trkpt><trkpt lat="41.4306" lon="0.9566767"><ele>533.0</ele><time>2026-04-24T15:43:36.922Z</time></trkpt><trkpt lat="41.430485" lon="0.9564467"><ele>533.0</ele><time>2026-04-24T15:43:37.923Z</time></trkpt><trkpt lat="41.4303683" lon="0.9562133"><ele>533.0</ele><time>2026-04-24T15:43:38.923Z</time></trkpt><trkpt lat="41.4302467" lon="0.9559783"><ele>533.0</ele><time>2026-04-24T15:43:39.922Z</time></trkpt><trkpt lat="41.4300983" lon="0.9557683"><ele>533.0</ele><time>2026-04-24T15:43:40.922Z</time></trkpt><trkpt lat="41.4299467" lon="0.95556"><ele>535.6666666666666</ele><time>2026-04-24T15:43:41.922Z</time></trkpt><trkpt lat="41.42979" lon="0.955365"><ele>538.3333333333334</ele><time>2026-04-24T15:43:42.922Z</time></trkpt><trkpt lat="41.4296233" lon="0.9551733"><ele>541.0</ele><time>2026-04-24T15:43:43.923Z</time></trkpt><trkpt lat="41.4294533" lon="0.955"><ele>541.0</ele><time>2026-04-24T15:43:44.923Z</time></trkpt><trkpt lat="41.42927" lon="0.9548367"><ele>541.0</ele><time>2026-04-24T15:43:45.922Z</time></trkpt><trkpt lat="41.42908" lon="0.9546967"><ele>541.0</ele><time>2026-04-24T15:43:46.922Z</time></trkpt><trkpt lat="41.4288883" lon="0.95457"><ele>541.0</ele><time>2026-04-24T15:43:47.923Z</time></trkpt><trkpt lat="41.42868" lon="0.95446"><ele>541.0</ele><time>2026-04-24T15:43:48.923Z</time></trkpt><trkpt lat="41.4284833" lon="0.9543633"><ele>541.0</ele><time>2026-04-24T15:43:49.922Z</time></trkpt><trkpt lat="41.4282767" lon="0.954285"><ele>541.0</ele><time>2026-04-24T15:43:50.922Z</time></trkpt><trkpt lat="41.4280683" lon="0.9542283"><ele>541.0</ele><time>2026-04-24T15:43:51.922Z</time></trkpt><trkpt lat="41.42786" lon="0.9541933"><ele>541.0</ele><time>2026-04-24T15:43:52.923Z</time></trkpt><trkpt lat="41.4276517" lon="0.9541683"><ele>540.6666666666667</ele><time>2026-04-24T15:43:53.922Z</time></trkpt><trkpt lat="41.4274467" lon="0.9541483"><ele>540.3333333333334</ele><time>2026-04-24T15:43:54.923Z</time></trkpt><trkpt lat="41.4272417" lon="0.9541417"><ele>540.0</ele><time>2026-04-24T15:43:55.922Z</time></trkpt><trkpt lat="41.4270433" lon="0.9541317"><ele>540.6666666666666</ele><time>2026-04-24T15:43:56.922Z</time></trkpt><trkpt lat="41.426845" lon="0.954135"><ele>541.3333333333333</ele><time>2026-04-24T15:43:57.923Z</time></trkpt><trkpt lat="41.426655" lon="0.95414"><ele>542.0</ele><time>2026-04-24T15:43:58.922Z</time></trkpt><trkpt lat="41.4264683" lon="0.95414"><ele>543.6666666666666</ele><time>2026-04-24T15:43:59.922Z</time></trkpt><trkpt lat="41.42628" lon="0.9541283"><ele>545.3333333333334</ele><time>2026-04-24T15:44:00.923Z</time></trkpt><trkpt lat="41.42609" lon="0.9541"><ele>547.0</ele><time>2026-04-24T15:44:01.922Z</time></trkpt><trkpt lat="41.4259033" lon="0.9540533"><ele>547.0</ele><time>2026-04-24T15:44:02.923Z</time></trkpt><trkpt lat="41.4257267" lon="0.9539917"><ele>547.0</ele><time>2026-04-24T15:44:03.923Z</time></trkpt><trkpt lat="41.4255533" lon="0.9539133"><ele>547.0</ele><time>2026-04-24T15:44:04.923Z</time></trkpt><trkpt lat="41.4253783" lon="0.9538233"><ele>547.0</ele><time>2026-04-24T15:44:05.922Z</time></trkpt><trkpt lat="41.4252117" lon="0.953715"><ele>547.0</ele><time>2026-04-24T15:44:06.923Z</time></trkpt><trkpt lat="41.4250583" lon="0.9535983"><ele>547.0</ele><time>2026-04-24T15:44:07.923Z</time></trkpt><trkpt lat="41.4249033" lon="0.9534567"><ele>547.0</ele><time>2026-04-24T15:44:08.922Z</time></trkpt><trkpt lat="41.4247533" lon="0.9533017"><ele>547.0</ele><time>2026-04-24T15:44:09.923Z</time></trkpt><trkpt lat="41.4246117" lon="0.9531367"><ele>547.0</ele><time>2026-04-24T15:44:10.922Z</time></trkpt><trkpt lat="41.4244833" lon="0.9529583"><ele>547.3333333333334</ele><time>2026-04-24T15:44:11.923Z</time></trkpt><trkpt lat="41.42436" lon="0.9527617"><ele>547.6666666666666</ele><time>2026-04-24T15:44:12.922Z</time></trkpt><trkpt lat="41.424245" lon="0.952565"><ele>548.0</ele><time>2026-04-24T15:44:13.922Z</time></trkpt><trkpt lat="41.4241383" lon="0.9523467"><ele>548.0</ele><time>2026-04-24T15:44:14.923Z</time></trkpt><trkpt lat="41.4240367" lon="0.952125"><ele>548.0</ele><time>2026-04-24T15:44:15.923Z</time></trkpt><trkpt lat="41.42394" lon="0.9519167"><ele>548.0</ele><time>2026-04-24T15:44:16.922Z</time></trkpt><trkpt lat="41.4238417" lon="0.9516983"><ele>547.3333333333333</ele><time>2026-04-24T15:44:17.923Z</time></trkpt><trkpt lat="41.4237467" lon="0.951485"><ele>546.6666666666666</ele><time>2026-04-24T15:44:18.922Z</time></trkpt><trkpt lat="41.42365" lon="0.9512717"><ele>546.0</ele><time>2026-04-24T15:44:19.923Z</time></trkpt><trkpt lat="41.42355" lon="0.9510467"><ele>546.3333333333334</ele><time>2026-04-24T15:44:20.923Z</time></trkpt><trkpt lat="41.4234483" lon="0.9508217"><ele>546.6666666666667</ele><time>2026-04-24T15:44:21.922Z</time></trkpt><trkpt lat="41.423355" lon="0.950615"><ele>547.0</ele><time>2026-04-24T15:44:22.923Z</time></trkpt><trkpt lat="41.4232667" lon="0.9504117"><ele>547.0</ele><time>2026-04-24T15:44:23.923Z</time></trkpt><trkpt lat="41.42318" lon="0.950235"><ele>547.0</ele><time>2026-04-24T15:44:24.922Z</time></trkpt><trkpt lat="41.4231033" lon="0.9500667"><ele>547.0</ele><time>2026-04-24T15:44:25.922Z</time></trkpt><trkpt lat="41.4230433" lon="0.9499333"><ele>547.0</ele><time>2026-04-24T15:44:26.922Z</time></trkpt><trkpt lat="41.4229983" lon="0.9498283"><ele>547.2</ele><time>2026-04-24T15:44:27.922Z</time></trkpt><trkpt lat="41.4229517" lon="0.949755"><ele>547.4000000000001</ele><time>2026-04-24T15:44:28.923Z</time></trkpt><trkpt lat="41.4228617" lon="0.949685"><ele>547.5999999999999</ele><time>2026-04-24T15:44:30.923Z</time></trkpt><trkpt lat="41.4227333" lon="0.9497717"><ele>547.8</ele><time>2026-04-24T15:44:32.923Z</time></trkpt><trkpt lat="41.4226533" lon="0.94986"><ele>548.0</ele><time>2026-04-24T15:44:33.923Z</time></trkpt><trkpt lat="41.4225583" lon="0.9499783"><ele>547.75</ele><time>2026-04-24T15:44:34.923Z</time></trkpt><trkpt lat="41.422455" lon="0.9501083"><ele>547.5</ele><time>2026-04-24T15:44:35.922Z</time></trkpt><trkpt lat="41.42235" lon="0.95024"><ele>547.25</ele><time>2026-04-24T15:44:36.922Z</time></trkpt><trkpt lat="41.4222467" lon="0.9503867"><ele>547.0</ele><time>2026-04-24T15:44:37.922Z</time></trkpt><trkpt lat="41.42214" lon="0.9505617"><ele>548.0</ele><time>2026-04-24T15:44:38.923Z</time></trkpt><trkpt lat="41.4220433" lon="0.9507683"><ele>549.0</ele><time>2026-04-24T15:44:39.922Z</time></trkpt><trkpt lat="41.4219483" lon="0.95098"><ele>550.0</ele><time>2026-04-24T15:44:40.922Z</time></trkpt><trkpt lat="41.421855" lon="0.9511983"><ele>550.0</ele><time>2026-04-24T15:44:41.923Z</time></trkpt><trkpt lat="41.4217717" lon="0.9514267"><ele>550.0</ele><time>2026-04-24T15:44:42.923Z</time></trkpt><trkpt lat="41.4217" lon="0.951675"><ele>550.0</ele><time>2026-04-24T15:44:43.923Z</time></trkpt><trkpt lat="41.4216167" lon="0.95194"><ele>549.6666666666667</ele><time>2026-04-24T15:44:44.922Z</time></trkpt><trkpt lat="41.4215283" lon="0.952195"><ele>549.3333333333334</ele><time>2026-04-24T15:44:45.922Z</time></trkpt><trkpt lat="41.42143" lon="0.9524467"><ele>549.0</ele><time>2026-04-24T15:44:46.923Z</time></trkpt><trkpt lat="41.42132" lon="0.9526817"><ele>552.0</ele><time>2026-04-24T15:44:47.923Z</time></trkpt><trkpt lat="41.4211917" lon="0.952915"><ele>555.0</ele><time>2026-04-24T15:44:48.922Z</time></trkpt><trkpt lat="41.4210517" lon="0.9531267"><ele>558.0</ele><time>2026-04-24T15:44:49.922Z</time></trkpt><trkpt lat="41.4208983" lon="0.953325"><ele>557.6666666666666</ele><time>2026-04-24T15:44:50.923Z</time></trkpt><trkpt lat="41.4207367" lon="0.95351"><ele>557.3333333333333</ele><time>2026-04-24T15:44:51.922Z</time></trkpt><trkpt lat="41.42057" lon="0.9536933"><ele>557.0</ele><time>2026-04-24T15:44:52.922Z</time></trkpt><trkpt lat="41.42041" lon="0.95387"><ele>557.3333333333333</ele><time>2026-04-24T15:44:53.922Z</time></trkpt><trkpt lat="41.4202483" lon="0.9540433"><ele>557.6666666666666</ele><time>2026-04-24T15:44:54.922Z</time></trkpt><trkpt lat="41.420105" lon="0.9542083"><ele>558.0</ele><time>2026-04-24T15:44:55.922Z</time></trkpt><trkpt lat="41.419955" lon="0.95433"><ele>558.0</ele><time>2026-04-24T15:44:56.922Z</time></trkpt><trkpt lat="41.419795" lon="0.9544117"><ele>558.0</ele><time>2026-04-24T15:44:57.923Z</time></trkpt><trkpt lat="41.419625" lon="0.95447"><ele>558.0</ele><time>2026-04-24T15:44:58.922Z</time></trkpt><trkpt lat="41.4194433" lon="0.9545217"><ele>560.0</ele><time>2026-04-24T15:44:59.923Z</time></trkpt><trkpt lat="41.4192583" lon="0.9545767"><ele>562.0</ele><time>2026-04-24T15:45:00.922Z</time></trkpt><trkpt lat="41.41907" lon="0.9546233"><ele>564.0</ele><time>2026-04-24T15:45:01.923Z</time></trkpt><trkpt lat="41.4188767" lon="0.9546767"><ele>563.6666666666666</ele><time>2026-04-24T15:45:02.922Z</time></trkpt><trkpt lat="41.4186867" lon="0.9547283"><ele>563.3333333333333</ele><time>2026-04-24T15:45:03.922Z</time></trkpt><trkpt lat="41.4185033" lon="0.9547783"><ele>563.0</ele><time>2026-04-24T15:45:04.923Z</time></trkpt><trkpt lat="41.41832" lon="0.954825"><ele>563.0</ele><time>2026-04-24T15:45:05.923Z</time></trkpt><trkpt lat="41.4181417" lon="0.9548733"><ele>563.0</ele><time>2026-04-24T15:45:06.923Z</time></trkpt><trkpt lat="41.4179717" lon="0.9549217"><ele>563.0</ele><time>2026-04-24T15:45:07.923Z</time></trkpt><trkpt lat="41.4178033" lon="0.95497"><ele>564.0</ele><time>2026-04-24T15:45:08.922Z</time></trkpt><trkpt lat="41.4176367" lon="0.95502"><ele>565.0</ele><time>2026-04-24T15:45:09.922Z</time></trkpt><trkpt lat="41.4174717" lon="0.9550883"><ele>566.0</ele><time>2026-04-24T15:45:10.922Z</time></trkpt><trkpt lat="41.4172983" lon="0.955185"><ele>567.3333333333333</ele><time>2026-04-24T15:45:11.922Z</time></trkpt><trkpt lat="41.4171333" lon="0.9552867"><ele>568.6666666666666</ele><time>2026-04-24T15:45:12.923Z</time></trkpt><trkpt lat="41.4169617" lon="0.9553883"><ele>570.0</ele><time>2026-04-24T15:45:13.923Z</time></trkpt><trkpt lat="41.4167867" lon="0.9554967"><ele>570.0</ele><time>2026-04-24T15:45:14.923Z</time></trkpt><trkpt lat="41.4166083" lon="0.9556083"><ele>570.0</ele><time>2026-04-24T15:45:15.923Z</time></trkpt><trkpt lat="41.4164333" lon="0.9557133"><ele>570.0</ele><time>2026-04-24T15:45:16.923Z</time></trkpt><trkpt lat="41.41626" lon="0.95582"><ele>568.6666666666666</ele><time>2026-04-24T15:45:17.922Z</time></trkpt><trkpt lat="41.41609" lon="0.9559233"><ele>567.3333333333333</ele><time>2026-04-24T15:45:18.922Z</time></trkpt><trkpt lat="41.4159183" lon="0.9560167"><ele>566.0</ele><time>2026-04-24T15:45:19.923Z</time></trkpt><trkpt lat="41.415745" lon="0.9560783"><ele>566.0</ele><time>2026-04-24T15:45:20.922Z</time></trkpt><trkpt lat="41.4155667" lon="0.9561233"><ele>566.0</ele><time>2026-04-24T15:45:21.922Z</time></trkpt><trkpt lat="41.415385" lon="0.9561517"><ele>566.0</ele><time>2026-04-24T15:45:22.922Z</time></trkpt><trkpt lat="41.4152" lon="0.9561683"><ele>566.3333333333333</ele><time>2026-04-24T15:45:23.922Z</time></trkpt><trkpt lat="41.41503" lon="0.95619"><ele>566.6666666666666</ele><time>2026-04-24T15:45:24.922Z</time></trkpt><trkpt lat="41.4148667" lon="0.956205"><ele>567.0</ele><time>2026-04-24T15:45:25.923Z</time></trkpt><trkpt lat="41.4147217" lon="0.9562167"><ele>567.0</ele><time>2026-04-24T15:45:26.923Z</time></trkpt><trkpt lat="41.41459" lon="0.9562317"><ele>567.0</ele><time>2026-04-24T15:45:27.923Z</time></trkpt><trkpt lat="41.4144667" lon="0.9562433"><ele>567.0</ele><time>2026-04-24T15:45:28.922Z</time></trkpt><trkpt lat="41.4143333" lon="0.956245"><ele>567.0</ele><time>2026-04-24T15:45:29.923Z</time></trkpt><trkpt lat="41.4142117" lon="0.9562217"><ele>567.0</ele><time>2026-04-24T15:45:30.923Z</time></trkpt><trkpt lat="41.4140933" lon="0.9561667"><ele>567.0</ele><time>2026-04-24T15:45:31.922Z</time></trkpt><trkpt lat="41.41398" lon="0.9561233"><ele>567.0</ele><time>2026-04-24T15:45:32.922Z</time></trkpt><trkpt lat="41.413875" lon="0.9560867"><ele>567.0</ele><time>2026-04-24T15:45:33.922Z</time></trkpt><trkpt lat="41.4137733" lon="0.956095"><ele>565.25</ele><time>2026-04-24T15:45:34.922Z</time></trkpt><trkpt lat="41.4136717" lon="0.9561583"><ele>563.5</ele><time>2026-04-24T15:45:35.923Z</time></trkpt><trkpt lat="41.4135683" lon="0.9562667"><ele>561.75</ele><time>2026-04-24T15:45:36.922Z</time></trkpt><trkpt lat="41.4134833" lon="0.9564117"><ele>560.0</ele><time>2026-04-24T15:45:37.922Z</time></trkpt><trkpt lat="41.4134033" lon="0.956555"><ele>560.0</ele><time>2026-04-24T15:45:38.922Z</time></trkpt><trkpt lat="41.413325" lon="0.956675"><ele>560.0</ele><time>2026-04-24T15:45:39.923Z</time></trkpt><trkpt lat="41.4132267" lon="0.9567467"><ele>560.0</ele><time>2026-04-24T15:45:40.922Z</time></trkpt><trkpt lat="41.4131183" lon="0.95678"><ele>560.0</ele><time>2026-04-24T15:45:41.922Z</time></trkpt><trkpt lat="41.4130017" lon="0.9567517"><ele>558.5</ele><time>2026-04-24T15:45:42.923Z</time></trkpt><trkpt lat="41.4129133" lon="0.9566633"><ele>557.0</ele><time>2026-04-24T15:45:43.922Z</time></trkpt><trkpt lat="41.412835" lon="0.9565367"><ele>555.5</ele><time>2026-04-24T15:45:44.923Z</time></trkpt><trkpt lat="41.41274" lon="0.9564267"><ele>554.0</ele><time>2026-04-24T15:45:45.922Z</time></trkpt><trkpt lat="41.4126233" lon="0.9563883"><ele>554.0</ele><time>2026-04-24T15:45:46.922Z</time></trkpt><trkpt lat="41.4124983" lon="0.9564083"><ele>554.0</ele><time>2026-04-24T15:45:47.923Z</time></trkpt><trkpt lat="41.4123683" lon="0.956455"><ele>554.0</ele><time>2026-04-24T15:45:48.922Z</time></trkpt><trkpt lat="41.41222" lon="0.956475"><ele>554.0</ele><time>2026-04-24T15:45:49.922Z</time></trkpt><trkpt lat="41.4120633" lon="0.9564667"><ele>556.3333333333333</ele><time>2026-04-24T15:45:50.922Z</time></trkpt><trkpt lat="41.4118983" lon="0.9564717"><ele>558.6666666666666</ele><time>2026-04-24T15:45:51.922Z</time></trkpt><trkpt lat="41.4117467" lon="0.9565017"><ele>561.0</ele><time>2026-04-24T15:45:52.923Z</time></trkpt><trkpt lat="41.4116" lon="0.9565483"><ele>561.0</ele><time>2026-04-24T15:45:53.922Z</time></trkpt><trkpt lat="41.4114617" lon="0.9566283"><ele>561.0</ele><time>2026-04-24T15:45:54.923Z</time></trkpt><trkpt lat="41.4113367" lon="0.956755"><ele>561.0</ele><time>2026-04-24T15:45:55.922Z</time></trkpt><trkpt lat="41.4112283" lon="0.9569083"><ele>563.3333333333334</ele><time>2026-04-24T15:45:56.923Z</time></trkpt><trkpt lat="41.4111333" lon="0.9570783"><ele>565.6666666666667</ele><time>2026-04-24T15:45:57.923Z</time></trkpt><trkpt lat="41.411055" lon="0.9572567"><ele>568.0</ele><time>2026-04-24T15:45:58.922Z</time></trkpt><trkpt lat="41.4109717" lon="0.95741"><ele>567.25</ele><time>2026-04-24T15:45:59.923Z</time></trkpt><trkpt lat="41.4108633" lon="0.9575433"><ele>566.5</ele><time>2026-04-24T15:46:00.922Z</time></trkpt><trkpt lat="41.4107367" lon="0.9576417"><ele>565.75</ele><time>2026-04-24T15:46:01.923Z</time></trkpt><trkpt lat="41.410605" lon="0.957685"><ele>565.0</ele><time>2026-04-24T15:46:02.922Z</time></trkpt><trkpt lat="41.410455" lon="0.9576683"><ele>565.0</ele><time>2026-04-24T15:46:03.923Z</time></trkpt><trkpt lat="41.4103133" lon="0.9576383"><ele>565.0</ele><time>2026-04-24T15:46:04.922Z</time></trkpt><trkpt lat="41.410175" lon="0.9576333"><ele>565.0</ele><time>2026-04-24T15:46:05.922Z</time></trkpt><trkpt lat="41.410025" lon="0.9576683"><ele>565.0</ele><time>2026-04-24T15:46:06.923Z</time></trkpt><trkpt lat="41.4098717" lon="0.957735"><ele>565.0</ele><time>2026-04-24T15:46:07.923Z</time></trkpt><trkpt lat="41.4097117" lon="0.9578017"><ele>565.0</ele><time>2026-04-24T15:46:08.923Z</time></trkpt><trkpt lat="41.4095583" lon="0.9578617"><ele>565.0</ele><time>2026-04-24T15:46:09.922Z</time></trkpt><trkpt lat="41.4094083" lon="0.957895"><ele>567.25</ele><time>2026-04-24T15:46:10.922Z</time></trkpt><trkpt lat="41.4092567" lon="0.9578983"><ele>569.5</ele><time>2026-04-24T15:46:11.923Z</time></trkpt><trkpt lat="41.4091067" lon="0.9578817"><ele>571.75</ele><time>2026-04-24T15:46:12.922Z</time></trkpt><trkpt lat="41.40897" lon="0.9578633"><ele>574.0</ele><time>2026-04-24T15:46:13.923Z</time></trkpt><trkpt lat="41.408825" lon="0.9578583"><ele>576.0</ele><time>2026-04-24T15:46:14.922Z</time></trkpt><trkpt lat="41.4086833" lon="0.9578417"><ele>578.0</ele><time>2026-04-24T15:46:15.923Z</time></trkpt><trkpt lat="41.4085367" lon="0.95785"><ele>580.0</ele><time>2026-04-24T15:46:16.923Z</time></trkpt><trkpt lat="41.4083917" lon="0.957885"><ele>582.0</ele><time>2026-04-24T15:46:17.923Z</time></trkpt><trkpt lat="41.40826" lon="0.9579617"><ele>582.0</ele><time>2026-04-24T15:46:18.923Z</time></trkpt><trkpt lat="41.408135" lon="0.9580783"><ele>582.0</ele><time>2026-04-24T15:46:19.923Z</time></trkpt><trkpt lat="41.4080283" lon="0.9582017"><ele>582.0</ele><time>2026-04-24T15:46:20.923Z</time></trkpt><trkpt lat="41.40792" lon="0.9582917"><ele>582.0</ele><time>2026-04-24T15:46:21.922Z</time></trkpt><trkpt lat="41.4077817" lon="0.9583317"><ele>585.0</ele><time>2026-04-24T15:46:22.922Z</time></trkpt><trkpt lat="41.4076333" lon="0.9583483"><ele>588.0</ele><time>2026-04-24T15:46:23.923Z</time></trkpt><trkpt lat="41.4074683" lon="0.9583583"><ele>591.0</ele><time>2026-04-24T15:46:24.922Z</time></trkpt><trkpt lat="41.4073" lon="0.9583417"><ele>592.3333333333334</ele><time>2026-04-24T15:46:25.922Z</time></trkpt><trkpt lat="41.4071333" lon="0.95829"><ele>593.6666666666667</ele><time>2026-04-24T15:46:26.922Z</time></trkpt><trkpt lat="41.4069733" lon="0.958205"><ele>595.0</ele><time>2026-04-24T15:46:27.923Z</time></trkpt><trkpt lat="41.4068033" lon="0.95812"><ele>595.0</ele><time>2026-04-24T15:46:28.922Z</time></trkpt><trkpt lat="41.40662" lon="0.9580183"><ele>595.0</ele><time>2026-04-24T15:46:29.922Z</time></trkpt><trkpt lat="41.4064333" lon="0.9579233"><ele>595.0</ele><time>2026-04-24T15:46:30.922Z</time></trkpt><trkpt lat="41.4062483" lon="0.957825"><ele>595.3333333333334</ele><time>2026-04-24T15:46:31.923Z</time></trkpt><trkpt lat="41.4060633" lon="0.957735"><ele>595.6666666666666</ele><time>2026-04-24T15:46:32.922Z</time></trkpt><trkpt lat="41.40587" lon="0.9576483"><ele>596.0</ele><time>2026-04-24T15:46:33.923Z</time></trkpt><trkpt lat="41.4056883" lon="0.957575"><ele>596.6666666666666</ele><time>2026-04-24T15:46:34.923Z</time></trkpt><trkpt lat="41.4055" lon="0.9575"><ele>597.3333333333334</ele><time>2026-04-24T15:46:35.923Z</time></trkpt><trkpt lat="41.405305" lon="0.95742"><ele>598.0</ele><time>2026-04-24T15:46:36.922Z</time></trkpt><trkpt lat="41.4051" lon="0.95733"><ele>598.0</ele><time>2026-04-24T15:46:37.923Z</time></trkpt><trkpt lat="41.4048917" lon="0.95725"><ele>598.0</ele><time>2026-04-24T15:46:38.923Z</time></trkpt><trkpt lat="41.4046833" lon="0.9571683"><ele>598.0</ele><time>2026-04-24T15:46:39.922Z</time></trkpt><trkpt lat="41.4044733" lon="0.957085"><ele>598.5</ele><time>2026-04-24T15:46:40.922Z</time></trkpt><trkpt lat="41.4042617" lon="0.9570033"><ele>599.0</ele><time>2026-04-24T15:46:41.923Z</time></trkpt><trkpt lat="41.40404" lon="0.9569233"><ele>598.0</ele><time>2026-04-24T15:46:42.922Z</time></trkpt><trkpt lat="41.40382" lon="0.9568383"><ele>597.0</ele><time>2026-04-24T15:46:43.922Z</time></trkpt><trkpt lat="41.403605" lon="0.956755"><ele>598.0</ele><time>2026-04-24T15:46:44.922Z</time></trkpt><trkpt lat="41.403395" lon="0.9566783"><ele>599.0</ele><time>2026-04-24T15:46:45.923Z</time></trkpt><trkpt lat="41.4031767" lon="0.9565917"><ele>600.0</ele><time>2026-04-24T15:46:46.923Z</time></trkpt><trkpt lat="41.4029583" lon="0.9565017"><ele>600.5</ele><time>2026-04-24T15:46:47.923Z</time></trkpt><trkpt lat="41.4027417" lon="0.95642"><ele>601.0</ele><time>2026-04-24T15:46:48.922Z</time></trkpt><trkpt lat="41.40252" lon="0.9563333"><ele>601.0</ele><time>2026-04-24T15:46:49.922Z</time></trkpt><trkpt lat="41.4022983" lon="0.95625"><ele>601.0</ele><time>2026-04-24T15:46:50.923Z</time></trkpt><trkpt lat="41.402075" lon="0.95616"><ele>601.5</ele><time>2026-04-24T15:46:51.923Z</time></trkpt><trkpt lat="41.401855" lon="0.956075"><ele>602.0</ele><time>2026-04-24T15:46:52.922Z</time></trkpt><trkpt lat="41.4016367" lon="0.95599"><ele>602.0</ele><time>2026-04-24T15:46:53.923Z</time></trkpt><trkpt lat="41.4014183" lon="0.9559067"><ele>602.0</ele><time>2026-04-24T15:46:54.923Z</time></trkpt><trkpt lat="41.4012033" lon="0.955825"><ele>602.6666666666666</ele><time>2026-04-24T15:46:55.922Z</time></trkpt><trkpt lat="41.4010067" lon="0.9557483"><ele>603.3333333333334</ele><time>2026-04-24T15:46:56.922Z</time></trkpt><trkpt lat="41.4008133" lon="0.9556683"><ele>604.0</ele><time>2026-04-24T15:46:57.922Z</time></trkpt><trkpt lat="41.4006133" lon="0.955595"><ele>604.0</ele><time>2026-04-24T15:46:58.922Z</time></trkpt><trkpt lat="41.4004083" lon="0.95553"><ele>604.0</ele><time>2026-04-24T15:46:59.922Z</time></trkpt><trkpt lat="41.4002067" lon="0.95546"><ele>604.0</ele><time>2026-04-24T15:47:00.922Z</time></trkpt><trkpt lat="41.400005" lon="0.9553867"><ele>604.0</ele><time>2026-04-24T15:47:01.922Z</time></trkpt><trkpt lat="41.3998033" lon="0.9553033"><ele>604.0</ele><time>2026-04-24T15:47:02.922Z</time></trkpt><trkpt lat="41.3996133" lon="0.955225"><ele>604.0</ele><time>2026-04-24T15:47:03.922Z</time></trkpt><trkpt lat="41.39941" lon="0.955145"><ele>604.6666666666667</ele><time>2026-04-24T15:47:04.923Z</time></trkpt><trkpt lat="41.3992083" lon="0.9550667"><ele>605.3333333333334</ele><time>2026-04-24T15:47:05.922Z</time></trkpt><trkpt lat="41.399005" lon="0.954995"><ele>606.0</ele><time>2026-04-24T15:47:06.923Z</time></trkpt><trkpt lat="41.3988017" lon="0.9549183"><ele>607.3333333333334</ele><time>2026-04-24T15:47:07.923Z</time></trkpt><trkpt lat="41.3986" lon="0.9548333"><ele>608.6666666666667</ele><time>2026-04-24T15:47:08.922Z</time></trkpt><trkpt lat="41.398395" lon="0.9547533"><ele>610.0</ele><time>2026-04-24T15:47:09.923Z</time></trkpt><trkpt lat="41.3981867" lon="0.954685"><ele>610.0</ele><time>2026-04-24T15:47:10.923Z</time></trkpt><trkpt lat="41.3979833" lon="0.95461"><ele>610.0</ele><time>2026-04-24T15:47:11.923Z</time></trkpt><trkpt lat="41.3977833" lon="0.9545283"><ele>610.0</ele><time>2026-04-24T15:47:12.922Z</time></trkpt><trkpt lat="41.3975917" lon="0.95445"><ele>610.0</ele><time>2026-04-24T15:47:13.923Z</time></trkpt><trkpt lat="41.3973967" lon="0.954385"><ele>610.0</ele><time>2026-04-24T15:47:14.922Z</time></trkpt><trkpt lat="41.3972033" lon="0.9543267"><ele>610.0</ele><time>2026-04-24T15:47:15.922Z</time></trkpt><trkpt lat="41.397015" lon="0.9542417"><ele>610.3333333333334</ele><time>2026-04-24T15:47:16.923Z</time></trkpt><trkpt lat="41.396815" lon="0.954165"><ele>610.6666666666666</ele><time>2026-04-24T15:47:17.923Z</time></trkpt><trkpt lat="41.39662" lon="0.9540817"><ele>611.0</ele><time>2026-04-24T15:47:18.923Z</time></trkpt><trkpt lat="41.3964217" lon="0.954005"><ele>611.0</ele><time>2026-04-24T15:47:19.922Z</time></trkpt><trkpt lat="41.3962367" lon="0.95393"><ele>611.0</ele><time>2026-04-24T15:47:20.923Z</time></trkpt><trkpt lat="41.39605" lon="0.9538633"><ele>611.0</ele><time>2026-04-24T15:47:21.923Z</time></trkpt><trkpt lat="41.3958783" lon="0.9537983"><ele>611.0</ele><time>2026-04-24T15:47:22.922Z</time></trkpt><trkpt lat="41.395715" lon="0.9537283"><ele>611.0</ele><time>2026-04-24T15:47:23.922Z</time></trkpt><trkpt lat="41.3955533" lon="0.95367"><ele>611.0</ele><time>2026-04-24T15:47:24.922Z</time></trkpt><trkpt lat="41.39539" lon="0.953625"><ele>611.3333333333333</ele><time>2026-04-24T15:47:25.923Z</time></trkpt><trkpt lat="41.3952233" lon="0.95361"><ele>611.6666666666666</ele><time>2026-04-24T15:47:26.922Z</time></trkpt><trkpt lat="41.39507" lon="0.9536067"><ele>612.0</ele><time>2026-04-24T15:47:27.922Z</time></trkpt><trkpt lat="41.39493" lon="0.9536067"><ele>612.0</ele><time>2026-04-24T15:47:28.922Z</time></trkpt><trkpt lat="41.3948083" lon="0.95359"><ele>612.0</ele><time>2026-04-24T15:47:29.923Z</time></trkpt><trkpt lat="41.3946933" lon="0.95354"><ele>612.0</ele><time>2026-04-24T15:47:30.923Z</time></trkpt><trkpt lat="41.394595" lon="0.9534417"><ele>612.0</ele><time>2026-04-24T15:47:31.922Z</time></trkpt><trkpt lat="41.3945183" lon="0.9532983"><ele>611.75</ele><time>2026-04-24T15:47:32.922Z</time></trkpt><trkpt lat="41.3944433" lon="0.95314"><ele>611.5</ele><time>2026-04-24T15:47:33.923Z</time></trkpt><trkpt lat="41.3943783" lon="0.95297"><ele>611.25</ele><time>2026-04-24T15:47:34.922Z</time></trkpt><trkpt lat="41.3943233" lon="0.9528067"><ele>611.0</ele><time>2026-04-24T15:47:35.922Z</time></trkpt><trkpt lat="41.3942817" lon="0.9526417"><ele>611.25</ele><time>2026-04-24T15:47:36.923Z</time></trkpt><trkpt lat="41.3942317" lon="0.9524867"><ele>611.5</ele><time>2026-04-24T15:47:37.922Z</time></trkpt><trkpt lat="41.3941517" lon="0.952335"><ele>611.75</ele><time>2026-04-24T15:47:38.922Z</time></trkpt><trkpt lat="41.39406" lon="0.9521733"><ele>612.0</ele><time>2026-04-24T15:47:39.923Z</time></trkpt><trkpt lat="41.3939567" lon="0.9520117"><ele>612.0</ele><time>2026-04-24T15:47:40.923Z</time></trkpt><trkpt lat="41.3938533" lon="0.95185"><ele>612.0</ele><time>2026-04-24T15:47:41.922Z</time></trkpt><trkpt lat="41.3937533" lon="0.9517183"><ele>612.0</ele><time>2026-04-24T15:47:42.923Z</time></trkpt><trkpt lat="41.3936483" lon="0.9516083"><ele>612.0</ele><time>2026-04-24T15:47:43.923Z</time></trkpt><trkpt lat="41.3935283" lon="0.9515183"><ele>615.3333333333334</ele><time>2026-04-24T15:47:44.922Z</time></trkpt><trkpt lat="41.3933917" lon="0.9514533"><ele>618.6666666666667</ele><time>2026-04-24T15:47:45.922Z</time></trkpt><trkpt lat="41.3932417" lon="0.9513933"><ele>622.0</ele><time>2026-04-24T15:47:46.922Z</time></trkpt><trkpt lat="41.3931" lon="0.9513333"><ele>624.25</ele><time>2026-04-24T15:47:47.922Z</time></trkpt><trkpt lat="41.3929717" lon="0.9512367"><ele>626.5</ele><time>2026-04-24T15:47:48.922Z</time></trkpt><trkpt lat="41.392875" lon="0.95111"><ele>628.75</ele><time>2026-04-24T15:47:49.922Z</time></trkpt><trkpt lat="41.3927967" lon="0.950995"><ele>631.0</ele><time>2026-04-24T15:47:50.922Z</time></trkpt><trkpt lat="41.3927067" lon="0.9508867"><ele>631.5</ele><time>2026-04-24T15:47:51.923Z</time></trkpt><trkpt lat="41.3925983" lon="0.9508083"><ele>632.0</ele><time>2026-04-24T15:47:52.922Z</time></trkpt><trkpt lat="41.39246" lon="0.95076"><ele>632.5</ele><time>2026-04-24T15:47:53.922Z</time></trkpt><trkpt lat="41.3923083" lon="0.9507233"><ele>633.0</ele><time>2026-04-24T15:47:54.922Z</time></trkpt><trkpt lat="41.392145" lon="0.9506817"><ele>633.0</ele><time>2026-04-24T15:47:55.922Z</time></trkpt><trkpt lat="41.391975" lon="0.95064"><ele>633.0</ele><time>2026-04-24T15:47:56.922Z</time></trkpt><trkpt lat="41.3918033" lon="0.950595"><ele>633.0</ele><time>2026-04-24T15:47:57.922Z</time></trkpt><trkpt lat="41.391625" lon="0.95055"><ele>633.0</ele><time>2026-04-24T15:47:58.923Z</time></trkpt><trkpt lat="41.3914417" lon="0.9505017"><ele>633.0</ele><time>2026-04-24T15:47:59.923Z</time></trkpt><trkpt lat="41.3912483" lon="0.9504467"><ele>633.0</ele><time>2026-04-24T15:48:00.923Z</time></trkpt><trkpt lat="41.3910483" lon="0.9503917"><ele>633.0</ele><time>2026-04-24T15:48:01.923Z</time></trkpt><trkpt lat="41.39085" lon="0.9503333"><ele>633.0</ele><time>2026-04-24T15:48:02.922Z</time></trkpt><trkpt lat="41.3906467" lon="0.9502817"><ele>633.0</ele><time>2026-04-24T15:48:03.923Z</time></trkpt><trkpt lat="41.3904467" lon="0.9502283"><ele>633.3333333333334</ele><time>2026-04-24T15:48:04.923Z</time></trkpt><trkpt lat="41.3902483" lon="0.95016"><ele>633.6666666666667</ele><time>2026-04-24T15:48:05.922Z</time></trkpt><trkpt lat="41.3900467" lon="0.950105"><ele>634.0</ele><time>2026-04-24T15:48:06.922Z</time></trkpt><trkpt lat="41.389835" lon="0.9500467"><ele>635.0</ele><time>2026-04-24T15:48:07.922Z</time></trkpt><trkpt lat="41.389625" lon="0.949985"><ele>636.0</ele><time>2026-04-24T15:48:08.923Z</time></trkpt><trkpt lat="41.38942" lon="0.9499267"><ele>637.0</ele><time>2026-04-24T15:48:09.922Z</time></trkpt><trkpt lat="41.3892083" lon="0.9498667"><ele>637.0</ele><time>2026-04-24T15:48:10.922Z</time></trkpt><trkpt lat="41.3890017" lon="0.9498117"><ele>637.0</ele><time>2026-04-24T15:48:11.923Z</time></trkpt><trkpt lat="41.3887967" lon="0.9497583"><ele>637.0</ele><time>2026-04-24T15:48:12.922Z</time></trkpt><trkpt lat="41.3885917" lon="0.9497"><ele>638.0</ele><time>2026-04-24T15:48:13.923Z</time></trkpt><trkpt lat="41.3883817" lon="0.9496417"><ele>639.0</ele><time>2026-04-24T15:48:14.923Z</time></trkpt><trkpt lat="41.3881767" lon="0.949585"><ele>640.0</ele><time>2026-04-24T15:48:15.923Z</time></trkpt><trkpt lat="41.38797" lon="0.9495217"><ele>640.6666666666667</ele><time>2026-04-24T15:48:16.923Z</time></trkpt><trkpt lat="41.3877633" lon="0.94947"><ele>641.3333333333334</ele><time>2026-04-24T15:48:17.922Z</time></trkpt><trkpt lat="41.3875617" lon="0.94941"><ele>642.0</ele><time>2026-04-24T15:48:18.923Z</time></trkpt><trkpt lat="41.387355" lon="0.9493483"><ele>642.6666666666666</ele><time>2026-04-24T15:48:19.922Z</time></trkpt><trkpt lat="41.3871583" lon="0.9492917"><ele>643.3333333333333</ele><time>2026-04-24T15:48:20.922Z</time></trkpt><trkpt lat="41.3869567" lon="0.94923"><ele>644.0</ele><time>2026-04-24T15:48:21.923Z</time></trkpt><trkpt lat="41.3867617" lon="0.9491733"><ele>644.0</ele><time>2026-04-24T15:48:22.922Z</time></trkpt><trkpt lat="41.38657" lon="0.9491233"><ele>644.0</ele><time>2026-04-24T15:48:23.922Z</time></trkpt><trkpt lat="41.3863983" lon="0.94907"><ele>644.0</ele><time>2026-04-24T15:48:24.923Z</time></trkpt><trkpt lat="41.3862317" lon="0.9490317"><ele>645.3333333333333</ele><time>2026-04-24T15:48:25.922Z</time></trkpt><trkpt lat="41.3860583" lon="0.9489817"><ele>646.6666666666666</ele><time>2026-04-24T15:48:26.923Z</time></trkpt><trkpt lat="41.3858883" lon="0.9489317"><ele>648.0</ele><time>2026-04-24T15:48:27.923Z</time></trkpt><trkpt lat="41.3857233" lon="0.9488867"><ele>648.0</ele><time>2026-04-24T15:48:28.923Z</time></trkpt><trkpt lat="41.3855633" lon="0.9488417"><ele>648.0</ele><time>2026-04-24T15:48:29.923Z</time></trkpt><trkpt lat="41.3854083" lon="0.9487983"><ele>648.0</ele><time>2026-04-24T15:48:30.923Z</time></trkpt><trkpt lat="41.3852583" lon="0.9487533"><ele>649.0</ele><time>2026-04-24T15:48:31.923Z</time></trkpt><trkpt lat="41.3851233" lon="0.9487117"><ele>650.0</ele><time>2026-04-24T15:48:32.922Z</time></trkpt><trkpt lat="41.384995" lon="0.9486717"><ele>651.0</ele><time>2026-04-24T15:48:33.922Z</time></trkpt><trkpt lat="41.3848683" lon="0.94864"><ele>652.0</ele><time>2026-04-24T15:48:34.923Z</time></trkpt><trkpt lat="41.3847433" lon="0.94861"><ele>652.5</ele><time>2026-04-24T15:48:35.922Z</time></trkpt><trkpt lat="41.3846217" lon="0.9485833"><ele>653.0</ele><time>2026-04-24T15:48:36.922Z</time></trkpt><trkpt lat="41.3845017" lon="0.94855"><ele>653.5</ele><time>2026-04-24T15:48:37.922Z</time></trkpt><trkpt lat="41.38438" lon="0.9485167"><ele>654.0</ele><time>2026-04-24T15:48:38.922Z</time></trkpt><trkpt lat="41.3842667" lon="0.9484817"><ele>654.0</ele><time>2026-04-24T15:48:39.923Z</time></trkpt><trkpt lat="41.3841533" lon="0.948445"><ele>654.0</ele><time>2026-04-24T15:48:40.922Z</time></trkpt><trkpt lat="41.38404" lon="0.9484117"><ele>654.0</ele><time>2026-04-24T15:48:41.923Z</time></trkpt><trkpt lat="41.3839267" lon="0.948375"><ele>654.0</ele><time>2026-04-24T15:48:42.923Z</time></trkpt><trkpt lat="41.3838283" lon="0.9483367"><ele>654.2</ele><time>2026-04-24T15:48:43.923Z</time></trkpt><trkpt lat="41.3837333" lon="0.9482717"><ele>654.4000000000001</ele><time>2026-04-24T15:48:44.923Z</time></trkpt><trkpt lat="41.3836517" lon="0.948175"><ele>654.6</ele><time>2026-04-24T15:48:45.922Z</time></trkpt><trkpt lat="41.3835833" lon="0.94806"><ele>654.8</ele><time>2026-04-24T15:48:46.922Z</time></trkpt><trkpt lat="41.3835267" lon="0.9479483"><ele>655.0</ele><time>2026-04-24T15:48:47.922Z</time></trkpt><trkpt lat="41.38348" lon="0.94784"><ele>655.0</ele><time>2026-04-24T15:48:48.923Z</time></trkpt><trkpt lat="41.3834233" lon="0.94773"><ele>655.0</ele><time>2026-04-24T15:48:49.923Z</time></trkpt><trkpt lat="41.3833633" lon="0.9476083"><ele>655.0</ele><time>2026-04-24T15:48:50.923Z</time></trkpt><trkpt lat="41.3832917" lon="0.947495"><ele>655.0</ele><time>2026-04-24T15:48:51.922Z</time></trkpt><trkpt lat="41.3832417" lon="0.947395"><ele>655.0</ele><time>2026-04-24T15:48:52.923Z</time></trkpt><trkpt lat="41.383195" lon="0.9473183"><ele>654.8571428571429</ele><time>2026-04-24T15:48:53.923Z</time></trkpt><trkpt lat="41.3831533" lon="0.9472467"><ele>654.7142857142857</ele><time>2026-04-24T15:48:54.922Z</time></trkpt><trkpt lat="41.3831183" lon="0.94717"><ele>654.5714285714286</ele><time>2026-04-24T15:48:55.922Z</time></trkpt><trkpt lat="41.3830783" lon="0.947095"><ele>654.4285714285714</ele><time>2026-04-24T15:48:56.922Z</time></trkpt><trkpt lat="41.3830433" lon="0.9470017"><ele>654.2857142857143</ele><time>2026-04-24T15:48:57.922Z</time></trkpt><trkpt lat="41.3830183" lon="0.9469033"><ele>654.1428571428571</ele><time>2026-04-24T15:48:58.922Z</time></trkpt><trkpt lat="41.3829917" lon="0.9468067"><ele>654.0</ele><time>2026-04-24T15:48:59.922Z</time></trkpt><trkpt lat="41.382975" lon="0.9467183"><ele>654.0</ele><time>2026-04-24T15:49:00.923Z</time></trkpt><trkpt lat="41.3829167" lon="0.946595"><ele>654.0</ele><time>2026-04-24T15:49:02.923Z</time></trkpt><trkpt lat="41.3828217" lon="0.9465783"><ele>654.0</ele><time>2026-04-24T15:49:04.923Z</time></trkpt><trkpt lat="41.382755" lon="0.9466183"><ele>654.0</ele><time>2026-04-24T15:49:05.922Z</time></trkpt><trkpt lat="41.38267" lon="0.94668"><ele>654.0</ele><time>2026-04-24T15:49:06.923Z</time></trkpt><trkpt lat="41.3825817" lon="0.94673"><ele>654.0</ele><time>2026-04-24T15:49:07.923Z</time></trkpt><trkpt lat="41.3825017" lon="0.94678"><ele>654.0</ele><time>2026-04-24T15:49:08.923Z</time></trkpt><trkpt lat="41.3824317" lon="0.9468183"><ele>654.0</ele><time>2026-04-24T15:49:09.922Z</time></trkpt><trkpt lat="41.3823567" lon="0.9468667"><ele>654.0</ele><time>2026-04-24T15:49:10.922Z</time></trkpt><trkpt lat="41.382285" lon="0.9469133"><ele>654.0</ele><time>2026-04-24T15:49:11.922Z</time></trkpt><trkpt lat="41.3822217" lon="0.94698"><ele>654.0</ele><time>2026-04-24T15:49:12.923Z</time></trkpt><trkpt lat="41.38218" lon="0.9470683"><ele>654.4000000000001</ele><time>2026-04-24T15:49:13.923Z</time></trkpt><trkpt lat="41.3821633" lon="0.9471717"><ele>654.8</ele><time>2026-04-24T15:49:14.922Z</time></trkpt><trkpt lat="41.3821683" lon="0.947295"><ele>655.2</ele><time>2026-04-24T15:49:15.922Z</time></trkpt><trkpt lat="41.382175" lon="0.9474167"><ele>655.5999999999999</ele><time>2026-04-24T15:49:16.923Z</time></trkpt><trkpt lat="41.3821567" lon="0.9475433"><ele>656.0</ele><time>2026-04-24T15:49:17.923Z</time></trkpt><trkpt lat="41.3821333" lon="0.9476717"><ele>656.75</ele><time>2026-04-24T15:49:18.922Z</time></trkpt><trkpt lat="41.3820967" lon="0.947805"><ele>657.5</ele><time>2026-04-24T15:49:19.923Z</time></trkpt><trkpt lat="41.3820567" lon="0.9479733"><ele>658.25</ele><time>2026-04-24T15:49:20.923Z</time></trkpt><trkpt lat="41.38202" lon="0.94814"><ele>659.0</ele><time>2026-04-24T15:49:21.922Z</time></trkpt><trkpt lat="41.381985" lon="0.9482967"><ele>659.25</ele><time>2026-04-24T15:49:22.922Z</time></trkpt><trkpt lat="41.3819433" lon="0.9484483"><ele>659.5</ele><time>2026-04-24T15:49:23.923Z</time></trkpt><trkpt lat="41.381905" lon="0.9485933"><ele>659.75</ele><time>2026-04-24T15:49:24.923Z</time></trkpt><trkpt lat="41.3818783" lon="0.9487483"><ele>660.0</ele><time>2026-04-24T15:49:25.923Z</time></trkpt><trkpt lat="41.3818683" lon="0.94891"><ele>660.0</ele><time>2026-04-24T15:49:26.923Z</time></trkpt><trkpt lat="41.3818717" lon="0.9490633"><ele>660.0</ele><time>2026-04-24T15:49:27.922Z</time></trkpt><trkpt lat="41.3818983" lon="0.94922"><ele>660.0</ele><time>2026-04-24T15:49:28.922Z</time></trkpt><trkpt lat="41.3819433" lon="0.9493567"><ele>660.0</ele><time>2026-04-24T15:49:29.923Z</time></trkpt><trkpt lat="41.382015" lon="0.949475"><ele>660.0</ele><time>2026-04-24T15:49:30.922Z</time></trkpt><trkpt lat="41.3820967" lon="0.949585"><ele>660.0</ele><time>2026-04-24T15:49:31.922Z</time></trkpt><trkpt lat="41.382175" lon="0.9497133"><ele>660.0</ele><time>2026-04-24T15:49:32.923Z</time></trkpt><trkpt lat="41.3822317" lon="0.9498717"><ele>660.0</ele><time>2026-04-24T15:49:33.922Z</time></trkpt><trkpt lat="41.382275" lon="0.9500517"><ele>660.0</ele><time>2026-04-24T15:49:34.922Z</time></trkpt><trkpt lat="41.3823017" lon="0.9502433"><ele>660.0</ele><time>2026-04-24T15:49:35.922Z</time></trkpt><trkpt lat="41.3823233" lon="0.950435"><ele>660.0</ele><time>2026-04-24T15:49:36.922Z</time></trkpt><trkpt lat="41.382325" lon="0.9506267"><ele>660.0</ele><time>2026-04-24T15:49:37.923Z</time></trkpt><trkpt lat="41.3823317" lon="0.95081"><ele>660.0</ele><time>2026-04-24T15:49:38.923Z</time></trkpt><trkpt lat="41.3823417" lon="0.9509983"><ele>660.0</ele><time>2026-04-24T15:49:39.922Z</time></trkpt><trkpt lat="41.3823467" lon="0.9511983"><ele>660.0</ele><time>2026-04-24T15:49:40.923Z</time></trkpt><trkpt lat="41.382355" lon="0.9514083"><ele>660.0</ele><time>2026-04-24T15:49:41.922Z</time></trkpt><trkpt lat="41.38236" lon="0.95162"><ele>660.0</ele><time>2026-04-24T15:49:42.922Z</time></trkpt><trkpt lat="41.3823683" lon="0.9518233"><ele>660.0</ele><time>2026-04-24T15:49:43.922Z</time></trkpt><trkpt lat="41.3823733" lon="0.9520167"><ele>659.75</ele><time>2026-04-24T15:49:44.923Z</time></trkpt><trkpt lat="41.382365" lon="0.9522033"><ele>659.5</ele><time>2026-04-24T15:49:45.923Z</time></trkpt><trkpt lat="41.3823383" lon="0.952375"><ele>659.25</ele><time>2026-04-24T15:49:46.923Z</time></trkpt><trkpt lat="41.382295" lon="0.952525"><ele>659.0</ele><time>2026-04-24T15:49:47.923Z</time></trkpt><trkpt lat="41.38222" lon="0.9526633"><ele>659.25</ele><time>2026-04-24T15:49:48.922Z</time></trkpt><trkpt lat="41.3821217" lon="0.952775"><ele>659.5</ele><time>2026-04-24T15:49:49.922Z</time></trkpt><trkpt lat="41.3820033" lon="0.952875"><ele>659.75</ele><time>2026-04-24T15:49:50.922Z</time></trkpt><trkpt lat="41.3818817" lon="0.9529817"><ele>660.0</ele><time>2026-04-24T15:49:51.922Z</time></trkpt><trkpt lat="41.3817583" lon="0.9530983"><ele>660.0</ele><time>2026-04-24T15:49:52.922Z</time></trkpt><trkpt lat="41.381635" lon="0.9532083"><ele>660.0</ele><time>2026-04-24T15:49:53.923Z</time></trkpt><trkpt lat="41.3815267" lon="0.9533383"><ele>660.0</ele><time>2026-04-24T15:49:54.923Z</time></trkpt><trkpt lat="41.3814233" lon="0.9534933"><ele>661.6666666666666</ele><time>2026-04-24T15:49:55.923Z</time></trkpt><trkpt lat="41.3813217" lon="0.953665"><ele>663.3333333333333</ele><time>2026-04-24T15:49:56.923Z</time></trkpt><trkpt lat="41.3812333" lon="0.95384"><ele>665.0</ele><time>2026-04-24T15:49:57.922Z</time></trkpt><trkpt lat="41.3811533" lon="0.9540133"><ele>665.0</ele><time>2026-04-24T15:49:58.923Z</time></trkpt><trkpt lat="41.3810817" lon="0.95418"><ele>665.0</ele><time>2026-04-24T15:49:59.922Z</time></trkpt><trkpt lat="41.38103" lon="0.9543367"><ele>665.0</ele><time>2026-04-24T15:50:00.923Z</time></trkpt><trkpt lat="41.380985" lon="0.9545033"><ele>665.0</ele><time>2026-04-24T15:50:01.923Z</time></trkpt><trkpt lat="41.3809583" lon="0.9546867"><ele>664.3333333333333</ele><time>2026-04-24T15:50:02.922Z</time></trkpt><trkpt lat="41.38095" lon="0.95489"><ele>663.6666666666666</ele><time>2026-04-24T15:50:03.922Z</time></trkpt><trkpt lat="41.380935" lon="0.9551033"><ele>663.0</ele><time>2026-04-24T15:50:04.923Z</time></trkpt><trkpt lat="41.38092" lon="0.9553067"><ele>662.5</ele><time>2026-04-24T15:50:05.922Z</time></trkpt><trkpt lat="41.3808967" lon="0.95551"><ele>662.0</ele><time>2026-04-24T15:50:06.922Z</time></trkpt><trkpt lat="41.3808583" lon="0.9557"><ele>661.5</ele><time>2026-04-24T15:50:07.922Z</time></trkpt><trkpt lat="41.3808" lon="0.95586"><ele>661.0</ele><time>2026-04-24T15:50:08.922Z</time></trkpt><trkpt lat="41.38072" lon="0.956"><ele>661.0</ele><time>2026-04-24T15:50:09.923Z</time></trkpt><trkpt lat="41.3806217" lon="0.9561017"><ele>661.0</ele><time>2026-04-24T15:50:10.922Z</time></trkpt><trkpt lat="41.38051" lon="0.9561867"><ele>661.0</ele><time>2026-04-24T15:50:11.923Z</time></trkpt><trkpt lat="41.3803967" lon="0.9562583"><ele>661.0</ele><time>2026-04-24T15:50:12.923Z</time></trkpt><trkpt lat="41.3802883" lon="0.9563283"><ele>660.5</ele><time>2026-04-24T15:50:13.923Z</time></trkpt><trkpt lat="41.3801883" lon="0.9564083"><ele>660.0</ele><time>2026-04-24T15:50:14.922Z</time></trkpt><trkpt lat="41.3801017" lon="0.9565017"><ele>659.5</ele><time>2026-04-24T15:50:15.923Z</time></trkpt><trkpt lat="41.3800383" lon="0.9566183"><ele>659.0</ele><time>2026-04-24T15:50:16.923Z</time></trkpt><trkpt lat="41.3799933" lon="0.9567617"><ele>658.75</ele><time>2026-04-24T15:50:17.923Z</time></trkpt><trkpt lat="41.3799717" lon="0.9569233"><ele>658.5</ele><time>2026-04-24T15:50:18.922Z</time></trkpt><trkpt lat="41.379965" lon="0.9570983"><ele>658.25</ele><time>2026-04-24T15:50:19.923Z</time></trkpt><trkpt lat="41.3799667" lon="0.9572917"><ele>658.0</ele><time>2026-04-24T15:50:20.923Z</time></trkpt><trkpt lat="41.37997" lon="0.957495"><ele>657.6666666666667</ele><time>2026-04-24T15:50:21.922Z</time></trkpt><trkpt lat="41.3799833" lon="0.95771"><ele>657.3333333333334</ele><time>2026-04-24T15:50:22.923Z</time></trkpt><trkpt lat="41.3799933" lon="0.957935"><ele>657.0</ele><time>2026-04-24T15:50:23.922Z</time></trkpt><trkpt lat="41.3800083" lon="0.9581667"><ele>658.6666666666666</ele><time>2026-04-24T15:50:24.922Z</time></trkpt><trkpt lat="41.380035" lon="0.9583867"><ele>660.3333333333333</ele><time>2026-04-24T15:50:25.923Z</time></trkpt><trkpt lat="41.380075" lon="0.9586167"><ele>662.0</ele><time>2026-04-24T15:50:26.922Z</time></trkpt><trkpt lat="41.3801217" lon="0.9588417"><ele>662.0</ele><time>2026-04-24T15:50:27.923Z</time></trkpt><trkpt lat="41.3801567" lon="0.9590633"><ele>662.0</ele><time>2026-04-24T15:50:28.922Z</time></trkpt><trkpt lat="41.3801983" lon="0.9592983"><ele>662.0</ele><time>2026-04-24T15:50:29.923Z</time></trkpt><trkpt lat="41.380235" lon="0.9595383"><ele>661.6666666666666</ele><time>2026-04-24T15:50:30.922Z</time></trkpt><trkpt lat="41.3802583" lon="0.959785"><ele>661.3333333333334</ele><time>2026-04-24T15:50:31.923Z</time></trkpt><trkpt lat="41.3802867" lon="0.9600333"><ele>661.0</ele><time>2026-04-24T15:50:32.922Z</time></trkpt><trkpt lat="41.3803283" lon="0.9602733"><ele>659.6666666666667</ele><time>2026-04-24T15:50:33.923Z</time></trkpt><trkpt lat="41.3803617" lon="0.960515"><ele>658.3333333333334</ele><time>2026-04-24T15:50:34.922Z</time></trkpt><trkpt lat="41.3804" lon="0.9607433"><ele>657.0</ele><time>2026-04-24T15:50:35.923Z</time></trkpt><trkpt lat="41.38043" lon="0.960975"><ele>657.0</ele><time>2026-04-24T15:50:36.923Z</time></trkpt><trkpt lat="41.3804683" lon="0.9612067"><ele>657.0</ele><time>2026-04-24T15:50:37.922Z</time></trkpt><trkpt lat="41.3805017" lon="0.9614367"><ele>657.0</ele><time>2026-04-24T15:50:38.922Z</time></trkpt><trkpt lat="41.380525" lon="0.9616717"><ele>658.3333333333334</ele><time>2026-04-24T15:50:39.922Z</time></trkpt><trkpt lat="41.3805517" lon="0.9618983"><ele>659.6666666666667</ele><time>2026-04-24T15:50:40.923Z</time></trkpt><trkpt lat="41.3805817" lon="0.9621133"><ele>661.0</ele><time>2026-04-24T15:50:41.922Z</time></trkpt><trkpt lat="41.3806117" lon="0.9623183"><ele>663.0</ele><time>2026-04-24T15:50:42.922Z</time></trkpt><trkpt lat="41.3806433" lon="0.9625333"><ele>665.0</ele><time>2026-04-24T15:50:43.923Z</time></trkpt><trkpt lat="41.3806667" lon="0.9627333"><ele>667.0</ele><time>2026-04-24T15:50:44.922Z</time></trkpt><trkpt lat="41.3806867" lon="0.9629217"><ele>667.0</ele><time>2026-04-24T15:50:45.923Z</time></trkpt><trkpt lat="41.3806867" lon="0.9631067"><ele>667.0</ele><time>2026-04-24T15:50:46.923Z</time></trkpt><trkpt lat="41.3806733" lon="0.96329"><ele>667.0</ele><time>2026-04-24T15:50:47.922Z</time></trkpt><trkpt lat="41.3806617" lon="0.9634833"><ele>667.0</ele><time>2026-04-24T15:50:48.922Z</time></trkpt><trkpt lat="41.38064" lon="0.9636717"><ele>666.6666666666667</ele><time>2026-04-24T15:50:49.922Z</time></trkpt><trkpt lat="41.3806133" lon="0.963875"><ele>666.3333333333334</ele><time>2026-04-24T15:50:50.923Z</time></trkpt><trkpt lat="41.38059" lon="0.9640883"><ele>666.0</ele><time>2026-04-24T15:50:51.923Z</time></trkpt><trkpt lat="41.38056" lon="0.9642983"><ele>664.6666666666666</ele><time>2026-04-24T15:50:52.923Z</time></trkpt><trkpt lat="41.38054" lon="0.9645033"><ele>663.3333333333333</ele><time>2026-04-24T15:50:53.922Z</time></trkpt><trkpt lat="41.3805217" lon="0.96471"><ele>662.0</ele><time>2026-04-24T15:50:54.923Z</time></trkpt><trkpt lat="41.3804967" lon="0.96492"><ele>664.0</ele><time>2026-04-24T15:50:55.923Z</time></trkpt><trkpt lat="41.3804683" lon="0.965125"><ele>666.0</ele><time>2026-04-24T15:50:56.923Z</time></trkpt><trkpt lat="41.3804383" lon="0.9653333"><ele>668.0</ele><time>2026-04-24T15:50:57.923Z</time></trkpt><trkpt lat="41.3803883" lon="0.9655433"><ele>668.0</ele><time>2026-04-24T15:50:58.922Z</time></trkpt><trkpt lat="41.3803233" lon="0.9657517"><ele>668.0</ele><time>2026-04-24T15:50:59.923Z</time></trkpt><trkpt lat="41.3802383" lon="0.9659583"><ele>668.0</ele><time>2026-04-24T15:51:00.923Z</time></trkpt><trkpt lat="41.3801483" lon="0.966145"><ele>665.6666666666666</ele><time>2026-04-24T15:51:01.922Z</time></trkpt><trkpt lat="41.380055" lon="0.9663283"><ele>663.3333333333334</ele><time>2026-04-24T15:51:02.923Z</time></trkpt><trkpt lat="41.3799483" lon="0.9665033"><ele>661.0</ele><time>2026-04-24T15:51:03.922Z</time></trkpt><trkpt lat="41.3798283" lon="0.9666533"><ele>659.6666666666667</ele><time>2026-04-24T15:51:04.923Z</time></trkpt><trkpt lat="41.3796983" lon="0.9667967"><ele>658.3333333333334</ele><time>2026-04-24T15:51:05.922Z</time></trkpt><trkpt lat="41.3795617" lon="0.96694"><ele>657.0</ele><time>2026-04-24T15:51:06.923Z</time></trkpt><trkpt lat="41.3794167" lon="0.9670867"><ele>659.6666666666666</ele><time>2026-04-24T15:51:07.922Z</time></trkpt><trkpt lat="41.3792717" lon="0.9672333"><ele>662.3333333333333</ele><time>2026-04-24T15:51:08.922Z</time></trkpt><trkpt lat="41.3791283" lon="0.9673767"><ele>665.0</ele><time>2026-04-24T15:51:09.922Z</time></trkpt><trkpt lat="41.3789917" lon="0.967525"><ele>664.6666666666666</ele><time>2026-04-24T15:51:10.923Z</time></trkpt><trkpt lat="41.3788567" lon="0.9676667"><ele>664.3333333333334</ele><time>2026-04-24T15:51:11.923Z</time></trkpt><trkpt lat="41.3787083" lon="0.9678067"><ele>664.0</ele><time>2026-04-24T15:51:12.923Z</time></trkpt><trkpt lat="41.3785583" lon="0.9679367"><ele>664.0</ele><time>2026-04-24T15:51:13.922Z</time></trkpt><trkpt lat="41.3784083" lon="0.9680667"><ele>664.0</ele><time>2026-04-24T15:51:14.922Z</time></trkpt><trkpt lat="41.3782533" lon="0.9681917"><ele>664.0</ele><time>2026-04-24T15:51:15.922Z</time></trkpt><trkpt lat="41.378095" lon="0.9683217"><ele>663.3333333333334</ele><time>2026-04-24T15:51:16.923Z</time></trkpt><trkpt lat="41.3779367" lon="0.9684583"><ele>662.6666666666666</ele><time>2026-04-24T15:51:17.923Z</time></trkpt><trkpt lat="41.3777767" lon="0.968595"><ele>662.0</ele><time>2026-04-24T15:51:18.922Z</time></trkpt><trkpt lat="41.3776183" lon="0.9687333"><ele>662.0</ele><time>2026-04-24T15:51:19.922Z</time></trkpt><trkpt lat="41.3774633" lon="0.9688733"><ele>662.0</ele><time>2026-04-24T15:51:20.923Z</time></trkpt><trkpt lat="41.3773183" lon="0.9690067"><ele>662.0</ele><time>2026-04-24T15:51:21.923Z</time></trkpt><trkpt lat="41.3771933" lon="0.9691217"><ele>663.0</ele><time>2026-04-24T15:51:22.923Z</time></trkpt><trkpt lat="41.377085" lon="0.9692283"><ele>664.0</ele><time>2026-04-24T15:51:23.922Z</time></trkpt><trkpt lat="41.3770017" lon="0.96935"><ele>665.0</ele><time>2026-04-24T15:51:24.922Z</time></trkpt><trkpt lat="41.37694" lon="0.9694933"><ele>666.0</ele><time>2026-04-24T15:51:25.922Z</time></trkpt><trkpt lat="41.3768917" lon="0.9696667"><ele>666.0</ele><time>2026-04-24T15:51:26.923Z</time></trkpt><trkpt lat="41.3768583" lon="0.9698633"><ele>666.0</ele><time>2026-04-24T15:51:27.922Z</time></trkpt><trkpt lat="41.3768317" lon="0.970085"><ele>666.0</ele><time>2026-04-24T15:51:28.922Z</time></trkpt><trkpt lat="41.37681" lon="0.97031"><ele>667.0</ele><time>2026-04-24T15:51:29.922Z</time></trkpt><trkpt lat="41.3767817" lon="0.9705283"><ele>668.0</ele><time>2026-04-24T15:51:30.923Z</time></trkpt><trkpt lat="41.3767483" lon="0.970755"><ele>669.0</ele><time>2026-04-24T15:51:31.923Z</time></trkpt><trkpt lat="41.3767217" lon="0.9709783"><ele>670.6666666666666</ele><time>2026-04-24T15:51:32.923Z</time></trkpt><trkpt lat="41.3766933" lon="0.9712133"><ele>672.3333333333333</ele><time>2026-04-24T15:51:33.923Z</time></trkpt><trkpt lat="41.376655" lon="0.971445"><ele>674.0</ele><time>2026-04-24T15:51:34.922Z</time></trkpt><trkpt lat="41.3766283" lon="0.9716817"><ele>674.6666666666666</ele><time>2026-04-24T15:51:35.923Z</time></trkpt><trkpt lat="41.3766017" lon="0.97193"><ele>675.3333333333334</ele><time>2026-04-24T15:51:36.923Z</time></trkpt><trkpt lat="41.3765833" lon="0.9721733"><ele>676.0</ele><time>2026-04-24T15:51:37.922Z</time></trkpt><trkpt lat="41.3765517" lon="0.97242"><ele>676.6666666666667</ele><time>2026-04-24T15:51:38.923Z</time></trkpt><trkpt lat="41.3765167" lon="0.972665"><ele>677.3333333333334</ele><time>2026-04-24T15:51:39.922Z</time></trkpt><trkpt lat="41.3764817" lon="0.972905"><ele>678.0</ele><time>2026-04-24T15:51:40.923Z</time></trkpt><trkpt lat="41.376455" lon="0.9731433"><ele>677.6666666666666</ele><time>2026-04-24T15:51:41.922Z</time></trkpt><trkpt lat="41.37642" lon="0.97337"><ele>677.3333333333333</ele><time>2026-04-24T15:51:42.923Z</time></trkpt><trkpt lat="41.376385" lon="0.9735817"><ele>677.0</ele><time>2026-04-24T15:51:43.923Z</time></trkpt><trkpt lat="41.3763567" lon="0.9737883"><ele>675.75</ele><time>2026-04-24T15:51:44.922Z</time></trkpt><trkpt lat="41.37633" lon="0.9739867"><ele>674.5</ele><time>2026-04-24T15:51:45.922Z</time></trkpt><trkpt lat="41.37629" lon="0.9741767"><ele>673.25</ele><time>2026-04-24T15:51:46.922Z</time></trkpt><trkpt lat="41.376255" lon="0.974345"><ele>672.0</ele><time>2026-04-24T15:51:47.923Z</time></trkpt><trkpt lat="41.376215" lon="0.9744967"><ele>670.5</ele><time>2026-04-24T15:51:48.922Z</time></trkpt><trkpt lat="41.376175" lon="0.97464"><ele>669.0</ele><time>2026-04-24T15:51:49.922Z</time></trkpt><trkpt lat="41.37615" lon="0.974795"><ele>667.5</ele><time>2026-04-24T15:51:50.923Z</time></trkpt><trkpt lat="41.3761567" lon="0.9749617"><ele>666.0</ele><time>2026-04-24T15:51:51.923Z</time></trkpt><trkpt lat="41.3761783" lon="0.97514"><ele>665.25</ele><time>2026-04-24T15:51:52.923Z</time></trkpt><trkpt lat="41.376195" lon="0.9753267"><ele>664.5</ele><time>2026-04-24T15:51:53.923Z</time></trkpt><trkpt lat="41.3761817" lon="0.9755"><ele>663.75</ele><time>2026-04-24T15:51:54.923Z</time></trkpt><trkpt lat="41.376145" lon="0.975675"><ele>663.0</ele><time>2026-04-24T15:51:55.923Z</time></trkpt><trkpt lat="41.3760717" lon="0.9758267"><ele>661.5</ele><time>2026-04-24T15:51:56.923Z</time></trkpt><trkpt lat="41.3759783" lon="0.975965"><ele>660.0</ele><time>2026-04-24T15:51:57.923Z</time></trkpt><trkpt lat="41.3758833" lon="0.9761033"><ele>658.5</ele><time>2026-04-24T15:51:58.922Z</time></trkpt><trkpt lat="41.3757867" lon="0.9762383"><ele>657.0</ele><time>2026-04-24T15:51:59.922Z</time></trkpt><trkpt lat="41.37569" lon="0.9763683"><ele>657.0</ele><time>2026-04-24T15:52:00.923Z</time></trkpt><trkpt lat="41.3755967" lon="0.976505"><ele>657.0</ele><time>2026-04-24T15:52:01.923Z</time></trkpt><trkpt lat="41.3755133" lon="0.976645"><ele>657.0</ele><time>2026-04-24T15:52:02.923Z</time></trkpt><trkpt lat="41.3754417" lon="0.976795"><ele>657.0</ele><time>2026-04-24T15:52:03.922Z</time></trkpt><trkpt lat="41.3753933" lon="0.9769567"><ele>656.5</ele><time>2026-04-24T15:52:04.922Z</time></trkpt><trkpt lat="41.37536" lon="0.9771083"><ele>656.0</ele><time>2026-04-24T15:52:05.922Z</time></trkpt><trkpt lat="41.3753333" lon="0.97722"><ele>655.5</ele><time>2026-04-24T15:52:06.923Z</time></trkpt><trkpt lat="41.3752917" lon="0.9773667"><ele>655.0</ele><time>2026-04-24T15:52:08.923Z</time></trkpt><trkpt lat="41.375175" lon="0.97743"><ele>655.0</ele><time>2026-04-24T15:52:10.922Z</time></trkpt><trkpt lat="41.375075" lon="0.9774433"><ele>655.0</ele><time>2026-04-24T15:52:11.922Z</time></trkpt><trkpt lat="41.3749533" lon="0.9774683"><ele>655.0</ele><time>2026-04-24T15:52:12.923Z</time></trkpt><trkpt lat="41.3748233" lon="0.9774933"><ele>655.0</ele><time>2026-04-24T15:52:13.922Z</time></trkpt><trkpt lat="41.374685" lon="0.9775283"><ele>654.3333333333334</ele><time>2026-04-24T15:52:14.923Z</time></trkpt><trkpt lat="41.374535" lon="0.9775583"><ele>653.6666666666666</ele><time>2026-04-24T15:52:15.922Z</time></trkpt><trkpt lat="41.374375" lon="0.9775817"><ele>653.0</ele><time>2026-04-24T15:52:16.923Z</time></trkpt><trkpt lat="41.3742117" lon="0.9775933"><ele>653.0</ele><time>2026-04-24T15:52:17.923Z</time></trkpt><trkpt lat="41.3740433" lon="0.9775783"><ele>653.0</ele><time>2026-04-24T15:52:18.923Z</time></trkpt><trkpt lat="41.3738783" lon="0.97753"><ele>653.0</ele><time>2026-04-24T15:52:19.922Z</time></trkpt><trkpt lat="41.37371" lon="0.9774333"><ele>653.3333333333333</ele><time>2026-04-24T15:52:20.922Z</time></trkpt><trkpt lat="41.3735417" lon="0.9773067"><ele>653.6666666666666</ele><time>2026-04-24T15:52:21.923Z</time></trkpt><trkpt lat="41.37339" lon="0.97714"><ele>654.0</ele><time>2026-04-24T15:52:22.922Z</time></trkpt><trkpt lat="41.37325" lon="0.9769533"><ele>654.0</ele><time>2026-04-24T15:52:23.923Z</time></trkpt><trkpt lat="41.373105" lon="0.97677"><ele>654.0</ele><time>2026-04-24T15:52:24.922Z</time></trkpt><trkpt lat="41.3729567" lon="0.9765817"><ele>654.0</ele><time>2026-04-24T15:52:25.923Z</time></trkpt><trkpt lat="41.3728167" lon="0.9763917"><ele>655.3333333333334</ele><time>2026-04-24T15:52:26.922Z</time></trkpt><trkpt lat="41.37267" lon="0.97621"><ele>656.6666666666667</ele><time>2026-04-24T15:52:27.922Z</time></trkpt><trkpt lat="41.3725117" lon="0.97603"><ele>658.0</ele><time>2026-04-24T15:52:28.923Z</time></trkpt><trkpt lat="41.3723467" lon="0.9758717"><ele>660.6666666666667</ele><time>2026-04-24T15:52:29.923Z</time></trkpt><trkpt lat="41.37218" lon="0.9757417"><ele>663.3333333333334</ele><time>2026-04-24T15:52:30.922Z</time></trkpt><trkpt lat="41.3720033" lon="0.9756417"><ele>666.0</ele><time>2026-04-24T15:52:31.922Z</time></trkpt><trkpt lat="41.3718083" lon="0.97558"><ele>666.0</ele><time>2026-04-24T15:52:32.923Z</time></trkpt><trkpt lat="41.371605" lon="0.9755333"><ele>666.0</ele><time>2026-04-24T15:52:33.923Z</time></trkpt><trkpt lat="41.3713833" lon="0.9755"><ele>666.0</ele><time>2026-04-24T15:52:34.922Z</time></trkpt><trkpt lat="41.3711583" lon="0.9754683"><ele>668.0</ele><time>2026-04-24T15:52:35.923Z</time></trkpt><trkpt lat="41.3709283" lon="0.975435"><ele>670.0</ele><time>2026-04-24T15:52:36.922Z</time></trkpt><trkpt lat="41.370705" lon="0.97539"><ele>672.5</ele><time>2026-04-24T15:52:37.923Z</time></trkpt><trkpt lat="41.37048" lon="0.975345"><ele>675.0</ele><time>2026-04-24T15:52:38.922Z</time></trkpt><trkpt lat="41.3702583" lon="0.9753117"><ele>675.0</ele><time>2026-04-24T15:52:39.922Z</time></trkpt><trkpt lat="41.3700367" lon="0.9752783"><ele>675.0</ele><time>2026-04-24T15:52:40.922Z</time></trkpt><trkpt lat="41.369815" lon="0.9752483"><ele>675.0</ele><time>2026-04-24T15:52:41.922Z</time></trkpt><trkpt lat="41.3695883" lon="0.9752217"><ele>678.0</ele><time>2026-04-24T15:52:42.923Z</time></trkpt><trkpt lat="41.369365" lon="0.9751817"><ele>681.0</ele><time>2026-04-24T15:52:43.922Z</time></trkpt><trkpt lat="41.3691367" lon="0.9751417"><ele>681.0</ele><time>2026-04-24T15:52:44.922Z</time></trkpt><trkpt lat="41.3689067" lon="0.9750983"><ele>681.0</ele><time>2026-04-24T15:52:45.923Z</time></trkpt><trkpt lat="41.3686767" lon="0.9750533"><ele>683.5</ele><time>2026-04-24T15:52:46.923Z</time></trkpt><trkpt lat="41.368455" lon="0.975025"><ele>686.0</ele><time>2026-04-24T15:52:47.922Z</time></trkpt><trkpt lat="41.36822" lon="0.97501"><ele>689.5</ele><time>2026-04-24T15:52:48.923Z</time></trkpt><trkpt lat="41.367985" lon="0.9750233"><ele>693.0</ele><time>2026-04-24T15:52:49.923Z</time></trkpt><trkpt lat="41.3677517" lon="0.9750583"><ele>693.0</ele><time>2026-04-24T15:52:50.923Z</time></trkpt><trkpt lat="41.3675167" lon="0.9751083"><ele>693.0</ele><time>2026-04-24T15:52:51.922Z</time></trkpt><trkpt lat="41.3672817" lon="0.9751783"><ele>697.0</ele><time>2026-04-24T15:52:52.923Z</time></trkpt><trkpt lat="41.3670483" lon="0.97525"><ele>701.0</ele><time>2026-04-24T15:52:53.923Z</time></trkpt><trkpt lat="41.3668217" lon="0.9753167"><ele>701.0</ele><time>2026-04-24T15:52:54.923Z</time></trkpt><trkpt lat="41.3665933" lon="0.9753817"><ele>701.0</ele><time>2026-04-24T15:52:55.922Z</time></trkpt><trkpt lat="41.36636" lon="0.9754467"><ele>706.0</ele><time>2026-04-24T15:52:56.922Z</time></trkpt><trkpt lat="41.3661367" lon="0.9755083"><ele>711.0</ele><time>2026-04-24T15:52:57.922Z</time></trkpt><trkpt lat="41.3659133" lon="0.9755767"><ele>711.0</ele><time>2026-04-24T15:52:58.922Z</time></trkpt><trkpt lat="41.36569" lon="0.9756367"><ele>711.0</ele><time>2026-04-24T15:52:59.922Z</time></trkpt><trkpt lat="41.3654783" lon="0.9756967"><ele>711.0</ele><time>2026-04-24T15:53:00.922Z</time></trkpt><trkpt lat="41.3652667" lon="0.9757567"><ele>714.0</ele><time>2026-04-24T15:53:01.923Z</time></trkpt><trkpt lat="41.3650533" lon="0.9758167"><ele>717.0</ele><time>2026-04-24T15:53:02.923Z</time></trkpt><trkpt lat="41.36485" lon="0.975875"><ele>720.0</ele><time>2026-04-24T15:53:03.923Z</time></trkpt><trkpt lat="41.3646433" lon="0.9759383"><ele>722.0</ele><time>2026-04-24T15:53:04.923Z</time></trkpt><trkpt lat="41.3644517" lon="0.976025"><ele>724.0</ele><time>2026-04-24T15:53:05.923Z</time></trkpt><trkpt lat="41.3642817" lon="0.9761467"><ele>726.0</ele><time>2026-04-24T15:53:06.923Z</time></trkpt><trkpt lat="41.364125" lon="0.9763133"><ele>726.0</ele><time>2026-04-24T15:53:07.923Z</time></trkpt><trkpt lat="41.363975" lon="0.9765067"><ele>726.0</ele><time>2026-04-24T15:53:08.922Z</time></trkpt><trkpt lat="41.363845" lon="0.976735"><ele>726.0</ele><time>2026-04-24T15:53:09.923Z</time></trkpt><trkpt lat="41.36372" lon="0.9769817"><ele>728.0</ele><time>2026-04-24T15:53:10.923Z</time></trkpt><trkpt lat="41.3635883" lon="0.977225"><ele>730.0</ele><time>2026-04-24T15:53:11.923Z</time></trkpt><trkpt lat="41.3634533" lon="0.9774683"><ele>728.0</ele><time>2026-04-24T15:53:12.923Z</time></trkpt><trkpt lat="41.3633183" lon="0.97771"><ele>726.0</ele><time>2026-04-24T15:53:13.923Z</time></trkpt><trkpt lat="41.36318" lon="0.9779533"><ele>726.0</ele><time>2026-04-24T15:53:14.922Z</time></trkpt><trkpt lat="41.3630483" lon="0.9782"><ele>726.0</ele><time>2026-04-24T15:53:15.923Z</time></trkpt><trkpt lat="41.3629167" lon="0.9784367"><ele>726.0</ele><time>2026-04-24T15:53:16.923Z</time></trkpt><trkpt lat="41.3627917" lon="0.97866"><ele>726.3333333333334</ele><time>2026-04-24T15:53:17.923Z</time></trkpt><trkpt lat="41.3626517" lon="0.9788617"><ele>726.6666666666667</ele><time>2026-04-24T15:53:18.923Z</time></trkpt><trkpt lat="41.3625" lon="0.97903"><ele>727.0</ele><time>2026-04-24T15:53:19.923Z</time></trkpt><trkpt lat="41.362335" lon="0.9791533"><ele>726.0</ele><time>2026-04-24T15:53:20.923Z</time></trkpt><trkpt lat="41.3621433" lon="0.9792233"><ele>725.0</ele><time>2026-04-24T15:53:21.922Z</time></trkpt><trkpt lat="41.3619467" lon="0.9792933"><ele>724.0</ele><time>2026-04-24T15:53:22.923Z</time></trkpt><trkpt lat="41.3617383" lon="0.9793633"><ele>724.0</ele><time>2026-04-24T15:53:23.922Z</time></trkpt><trkpt lat="41.3615333" lon="0.97944"><ele>724.0</ele><time>2026-04-24T15:53:24.923Z</time></trkpt><trkpt lat="41.3613317" lon="0.9795183"><ele>724.0</ele><time>2026-04-24T15:53:25.922Z</time></trkpt><trkpt lat="41.361145" lon="0.9795883"><ele>728.6666666666667</ele><time>2026-04-24T15:53:26.922Z</time></trkpt><trkpt lat="41.3609633" lon="0.9796567"><ele>733.3333333333334</ele><time>2026-04-24T15:53:27.922Z</time></trkpt><trkpt lat="41.360805" lon="0.9797233"><ele>738.0</ele><time>2026-04-24T15:53:28.922Z</time></trkpt><trkpt lat="41.3606633" lon="0.9798117"><ele>738.0</ele><time>2026-04-24T15:53:29.923Z</time></trkpt><trkpt lat="41.3605583" lon="0.9799417"><ele>738.0</ele><time>2026-04-24T15:53:30.922Z</time></trkpt><trkpt lat="41.36049" lon="0.9800983"><ele>738.0</ele><time>2026-04-24T15:53:31.922Z</time></trkpt><trkpt lat="41.36045" lon="0.9803033"><ele>738.0</ele><time>2026-04-24T15:53:32.923Z</time></trkpt><trkpt lat="41.3604417" lon="0.980515"><ele>739.0</ele><time>2026-04-24T15:53:33.923Z</time></trkpt><trkpt lat="41.3604533" lon="0.9807433"><ele>740.0</ele><time>2026-04-24T15:53:34.922Z</time></trkpt><trkpt lat="41.3604517" lon="0.98096"><ele>741.0</ele><time>2026-04-24T15:53:35.923Z</time></trkpt><trkpt lat="41.36042" lon="0.9811733"><ele>741.0</ele><time>2026-04-24T15:53:36.922Z</time></trkpt><trkpt lat="41.3603533" lon="0.9813783"><ele>741.0</ele><time>2026-04-24T15:53:37.922Z</time></trkpt><trkpt lat="41.3602583" lon="0.98158"><ele>741.0</ele><time>2026-04-24T15:53:38.922Z</time></trkpt><trkpt lat="41.3601433" lon="0.9817283"><ele>737.0</ele><time>2026-04-24T15:53:39.922Z</time></trkpt><trkpt lat="41.3600167" lon="0.9818317"><ele>733.0</ele><time>2026-04-24T15:53:40.922Z</time></trkpt><trkpt lat="41.3598967" lon="0.98188"><ele>729.0</ele><time>2026-04-24T15:53:41.923Z</time></trkpt><trkpt lat="41.3598133" lon="0.9818683"><ele>725.0</ele><time>2026-04-24T15:53:42.922Z</time></trkpt><trkpt lat="41.359735" lon="0.981805"><ele>721.0</ele><time>2026-04-24T15:53:43.923Z</time></trkpt><trkpt lat="41.3596717" lon="0.9817267"><ele>722.0</ele><time>2026-04-24T15:53:44.923Z</time></trkpt><trkpt lat="41.35962" lon="0.9815717"><ele>723.0</ele><time>2026-04-24T15:53:45.922Z</time></trkpt><trkpt lat="41.3595767" lon="0.9813667"><ele>724.0</ele><time>2026-04-24T15:53:46.923Z</time></trkpt><trkpt lat="41.3595133" lon="0.9811733"><ele>725.0</ele><time>2026-04-24T15:53:47.923Z</time></trkpt><trkpt lat="41.3594333" lon="0.9809667"><ele>730.6666666666666</ele><time>2026-04-24T15:53:48.922Z</time></trkpt><trkpt lat="41.35936" lon="0.98076"><ele>736.3333333333334</ele><time>2026-04-24T15:53:49.923Z</time></trkpt><trkpt lat="41.3592883" lon="0.9805483"><ele>742.0</ele><time>2026-04-24T15:53:50.922Z</time></trkpt><trkpt lat="41.3592133" lon="0.98032"><ele>742.0</ele><time>2026-04-24T15:53:51.923Z</time></trkpt><trkpt lat="41.3591383" lon="0.9800883"><ele>742.0</ele><time>2026-04-24T15:53:52.922Z</time></trkpt><trkpt lat="41.3590833" lon="0.9798433"><ele>742.0</ele><time>2026-04-24T15:53:53.923Z</time></trkpt><trkpt lat="41.359035" lon="0.979585"><ele>747.6666666666667</ele><time>2026-04-24T15:53:54.923Z</time></trkpt><trkpt lat="41.35901" lon="0.9793133"><ele>753.3333333333334</ele><time>2026-04-24T15:53:55.923Z</time></trkpt><trkpt lat="41.3589933" lon="0.9790367"><ele>759.0</ele><time>2026-04-24T15:53:56.923Z</time></trkpt><trkpt lat="41.3589867" lon="0.9787483"><ele>762.6666666666667</ele><time>2026-04-24T15:53:57.923Z</time></trkpt><trkpt lat="41.35897" lon="0.9784667"><ele>766.3333333333334</ele><time>2026-04-24T15:53:58.923Z</time></trkpt><trkpt lat="41.3589483" lon="0.9781817"><ele>770.0</ele><time>2026-04-24T15:53:59.922Z</time></trkpt><trkpt lat="41.3589367" lon="0.977905"><ele>771.3333333333334</ele><time>2026-04-24T15:54:00.923Z</time></trkpt><trkpt lat="41.35893" lon="0.97763"><ele>772.6666666666667</ele><time>2026-04-24T15:54:01.923Z</time></trkpt><trkpt lat="41.3589317" lon="0.977345"><ele>774.0</ele><time>2026-04-24T15:54:02.923Z</time></trkpt><trkpt lat="41.3589367" lon="0.9770617"><ele>774.6666666666667</ele><time>2026-04-24T15:54:03.923Z</time></trkpt><trkpt lat="41.3589467" lon="0.9767783"><ele>775.3333333333334</ele><time>2026-04-24T15:54:04.922Z</time></trkpt><trkpt lat="41.3589617" lon="0.9764967"><ele>776.0</ele><time>2026-04-24T15:54:05.923Z</time></trkpt><trkpt lat="41.3589717" lon="0.9762267"><ele>776.6666666666667</ele><time>2026-04-24T15:54:06.922Z</time></trkpt><trkpt lat="41.35897" lon="0.97596"><ele>777.3333333333333</ele><time>2026-04-24T15:54:07.923Z</time></trkpt><trkpt lat="41.3589733" lon="0.9756833"><ele>778.0</ele><time>2026-04-24T15:54:08.923Z</time></trkpt><trkpt lat="41.358975" lon="0.97542"><ele>778.0</ele><time>2026-04-24T15:54:09.923Z</time></trkpt><trkpt lat="41.3589883" lon="0.9751733"><ele>778.0</ele><time>2026-04-24T15:54:10.923Z</time></trkpt><trkpt lat="41.359015" lon="0.9749467"><ele>778.0</ele><time>2026-04-24T15:54:11.923Z</time></trkpt><trkpt lat="41.3590417" lon="0.974745"><ele>778.0</ele><time>2026-04-24T15:54:12.923Z</time></trkpt><trkpt lat="41.35907" lon="0.974555"><ele>778.0</ele><time>2026-04-24T15:54:13.922Z</time></trkpt><trkpt lat="41.3590833" lon="0.974375"><ele>778.0</ele><time>2026-04-24T15:54:14.923Z</time></trkpt><trkpt lat="41.35907" lon="0.9742"><ele>778.0</ele><time>2026-04-24T15:54:15.922Z</time></trkpt><trkpt lat="41.35902" lon="0.9740433"><ele>778.5</ele><time>2026-04-24T15:54:16.923Z</time></trkpt><trkpt lat="41.35895" lon="0.9739"><ele>779.0</ele><time>2026-04-24T15:54:17.923Z</time></trkpt><trkpt lat="41.3588533" lon="0.97378"><ele>779.5</ele><time>2026-04-24T15:54:18.923Z</time></trkpt><trkpt lat="41.35871" lon="0.9736583"><ele>780.0</ele><time>2026-04-24T15:54:19.922Z</time></trkpt><trkpt lat="41.358565" lon="0.9735333"><ele>774.0</ele><time>2026-04-24T15:54:20.923Z</time></trkpt><trkpt lat="41.3584633" lon="0.9733783"><ele>768.0</ele><time>2026-04-24T15:54:21.922Z</time></trkpt><trkpt lat="41.3584083" lon="0.973185"><ele>762.0</ele><time>2026-04-24T15:54:22.922Z</time></trkpt><trkpt lat="41.3583817" lon="0.9729817"><ele>762.0</ele><time>2026-04-24T15:54:23.923Z</time></trkpt><trkpt lat="41.3583733" lon="0.97275"><ele>762.0</ele><time>2026-04-24T15:54:24.923Z</time></trkpt><trkpt lat="41.3583683" lon="0.97251"><ele>762.0</ele><time>2026-04-24T15:54:25.922Z</time></trkpt><trkpt lat="41.358365" lon="0.9722733"><ele>765.0</ele><time>2026-04-24T15:54:26.922Z</time></trkpt><trkpt lat="41.3583617" lon="0.9720233"><ele>768.0</ele><time>2026-04-24T15:54:27.923Z</time></trkpt><trkpt lat="41.358355" lon="0.97178"><ele>771.0</ele><time>2026-04-24T15:54:28.923Z</time></trkpt><trkpt lat="41.3583267" lon="0.9715483"><ele>773.0</ele><time>2026-04-24T15:54:29.922Z</time></trkpt><trkpt lat="41.3582883" lon="0.97133"><ele>775.0</ele><time>2026-04-24T15:54:30.923Z</time></trkpt><trkpt lat="41.3582367" lon="0.97111"><ele>777.0</ele><time>2026-04-24T15:54:31.922Z</time></trkpt><trkpt lat="41.3581567" lon="0.97092"><ele>780.3333333333333</ele><time>2026-04-24T15:54:32.922Z</time></trkpt><trkpt lat="41.35805" lon="0.9707483"><ele>783.6666666666666</ele><time>2026-04-24T15:54:33.923Z</time></trkpt><trkpt lat="41.3579217" lon="0.970585"><ele>787.0</ele><time>2026-04-24T15:54:34.922Z</time></trkpt><trkpt lat="41.3577717" lon="0.9704433"><ele>780.3333333333333</ele><time>2026-04-24T15:54:35.922Z</time></trkpt><trkpt lat="41.357605" lon="0.97035"><ele>773.6666666666666</ele><time>2026-04-24T15:54:36.922Z</time></trkpt><trkpt lat="41.35743" lon="0.9703117"><ele>767.0</ele><time>2026-04-24T15:54:37.923Z</time></trkpt><trkpt lat="41.3572617" lon="0.9703067"><ele>771.0</ele><time>2026-04-24T15:54:38.922Z</time></trkpt><trkpt lat="41.3570817" lon="0.9703367"><ele>775.0</ele><time>2026-04-24T15:54:39.922Z</time></trkpt><trkpt lat="41.356905" lon="0.9704117"><ele>779.0</ele><time>2026-04-24T15:54:40.923Z</time></trkpt><trkpt lat="41.3567333" lon="0.9705383"><ele>779.0</ele><time>2026-04-24T15:54:41.922Z</time></trkpt><trkpt lat="41.3565833" lon="0.9707017"><ele>779.0</ele><time>2026-04-24T15:54:42.922Z</time></trkpt><trkpt lat="41.3564583" lon="0.9709083"><ele>779.0</ele><time>2026-04-24T15:54:43.923Z</time></trkpt><trkpt lat="41.3563467" lon="0.9711333"><ele>783.0</ele><time>2026-04-24T15:54:44.923Z</time></trkpt><trkpt lat="41.3562517" lon="0.9713617"><ele>787.0</ele><time>2026-04-24T15:54:45.923Z</time></trkpt><trkpt lat="41.3561683" lon="0.9715983"><ele>791.0</ele><time>2026-04-24T15:54:46.923Z</time></trkpt><trkpt lat="41.356085" lon="0.971825"><ele>791.0</ele><time>2026-04-24T15:54:47.922Z</time></trkpt><trkpt lat="41.35598" lon="0.9720067"><ele>791.0</ele><time>2026-04-24T15:54:48.923Z</time></trkpt><trkpt lat="41.3558583" lon="0.9721533"><ele>791.0</ele><time>2026-04-24T15:54:49.922Z</time></trkpt><trkpt lat="41.3557233" lon="0.97228"><ele>791.0</ele><time>2026-04-24T15:54:50.923Z</time></trkpt><trkpt lat="41.3555717" lon="0.9723633"><ele>791.0</ele><time>2026-04-24T15:54:51.922Z</time></trkpt><trkpt lat="41.3554033" lon="0.97243"><ele>791.0</ele><time>2026-04-24T15:54:52.922Z</time></trkpt><trkpt lat="41.3552333" lon="0.9724867"><ele>793.6666666666667</ele><time>2026-04-24T15:54:53.923Z</time></trkpt><trkpt lat="41.3550783" lon="0.972555"><ele>796.3333333333333</ele><time>2026-04-24T15:54:54.923Z</time></trkpt><trkpt lat="41.354945" lon="0.972675"><ele>799.0</ele><time>2026-04-24T15:54:55.922Z</time></trkpt><trkpt lat="41.3548417" lon="0.972825"><ele>799.0</ele><time>2026-04-24T15:54:56.922Z</time></trkpt><trkpt lat="41.3547717" lon="0.973015"><ele>799.0</ele><time>2026-04-24T15:54:57.923Z</time></trkpt><trkpt lat="41.3547283" lon="0.973215"><ele>799.0</ele><time>2026-04-24T15:54:58.922Z</time></trkpt><trkpt lat="41.3547067" lon="0.9734133"><ele>805.0</ele><time>2026-04-24T15:54:59.923Z</time></trkpt><trkpt lat="41.3546833" lon="0.9735917"><ele>811.0</ele><time>2026-04-24T15:55:00.922Z</time></trkpt><trkpt lat="41.3546467" lon="0.9737633"><ele>817.0</ele><time>2026-04-24T15:55:01.923Z</time></trkpt><trkpt lat="41.3545867" lon="0.9739067"><ele>823.0</ele><time>2026-04-24T15:55:02.922Z</time></trkpt><trkpt lat="41.3545133" lon="0.9740083"><ele>823.0</ele><time>2026-04-24T15:55:03.923Z</time></trkpt><trkpt lat="41.3544133" lon="0.974075"><ele>823.0</ele><time>2026-04-24T15:55:04.922Z</time></trkpt><trkpt lat="41.3543133" lon="0.9740883"><ele>823.0</ele><time>2026-04-24T15:55:05.923Z</time></trkpt><trkpt lat="41.3542033" lon="0.97404"><ele>823.0</ele><time>2026-04-24T15:55:06.922Z</time></trkpt><trkpt lat="41.3541067" lon="0.9739433"><ele>823.0</ele><time>2026-04-24T15:55:07.923Z</time></trkpt><trkpt lat="41.3540233" lon="0.9738167"><ele>823.0</ele><time>2026-04-24T15:55:08.922Z</time></trkpt><trkpt lat="41.35397" lon="0.9736567"><ele>823.0</ele><time>2026-04-24T15:55:09.923Z</time></trkpt><trkpt lat="41.353915" lon="0.973465"><ele>823.0</ele><time>2026-04-24T15:55:10.922Z</time></trkpt><trkpt lat="41.35386" lon="0.9732667"><ele>823.0</ele><time>2026-04-24T15:55:11.922Z</time></trkpt><trkpt lat="41.353805" lon="0.97303"><ele>823.6666666666666</ele><time>2026-04-24T15:55:12.923Z</time></trkpt><trkpt lat="41.35375" lon="0.9727983"><ele>824.3333333333333</ele><time>2026-04-24T15:55:13.923Z</time></trkpt><trkpt lat="41.3536967" lon="0.97257"><ele>825.0</ele><time>2026-04-24T15:55:14.922Z</time></trkpt><trkpt lat="41.3536417" lon="0.9723417"><ele>827.6666666666667</ele><time>2026-04-24T15:55:15.922Z</time></trkpt><trkpt lat="41.353585" lon="0.9720967"><ele>830.3333333333334</ele><time>2026-04-24T15:55:16.923Z</time></trkpt><trkpt lat="41.3535283" lon="0.9718383"><ele>833.0</ele><time>2026-04-24T15:55:17.923Z</time></trkpt><trkpt lat="41.35346" lon="0.9715817"><ele>834.6666666666667</ele><time>2026-04-24T15:55:18.922Z</time></trkpt><trkpt lat="41.3533883" lon="0.97131"><ele>836.3333333333333</ele><time>2026-04-24T15:55:19.922Z</time></trkpt><trkpt lat="41.3533133" lon="0.9710417"><ele>838.0</ele><time>2026-04-24T15:55:20.923Z</time></trkpt><trkpt lat="41.35324" lon="0.970775"><ele>840.6666666666666</ele><time>2026-04-24T15:55:21.922Z</time></trkpt><trkpt lat="41.3531483" lon="0.9705133"><ele>843.3333333333333</ele><time>2026-04-24T15:55:22.923Z</time></trkpt><trkpt lat="41.3530583" lon="0.970235"><ele>846.0</ele><time>2026-04-24T15:55:23.923Z</time></trkpt><trkpt lat="41.352955" lon="0.9699683"><ele>834.0</ele><time>2026-04-24T15:55:24.923Z</time></trkpt><trkpt lat="41.3528467" lon="0.9696967"><ele>822.0</ele><time>2026-04-24T15:55:25.922Z</time></trkpt><trkpt lat="41.3527467" lon="0.9694217"><ele>830.0</ele><time>2026-04-24T15:55:26.923Z</time></trkpt><trkpt lat="41.3526483" lon="0.9691333"><ele>838.0</ele><time>2026-04-24T15:55:27.922Z</time></trkpt><trkpt lat="41.3525467" lon="0.9688533"><ele>838.0</ele><time>2026-04-24T15:55:28.923Z</time></trkpt><trkpt lat="41.3524483" lon="0.968565"><ele>838.0</ele><time>2026-04-24T15:55:29.923Z</time></trkpt><trkpt lat="41.3523517" lon="0.9682833"><ele>832.5</ele><time>2026-04-24T15:55:30.922Z</time></trkpt><trkpt lat="41.3522633" lon="0.9679917"><ele>827.0</ele><time>2026-04-24T15:55:31.922Z</time></trkpt><trkpt lat="41.3521767" lon="0.9677017"><ele>830.0</ele><time>2026-04-24T15:55:32.922Z</time></trkpt><trkpt lat="41.3520967" lon="0.9673917"><ele>833.0</ele><time>2026-04-24T15:55:33.922Z</time></trkpt><trkpt lat="41.35203" lon="0.967075"><ele>833.0</ele><time>2026-04-24T15:55:34.923Z</time></trkpt><trkpt lat="41.351965" lon="0.9667617"><ele>833.0</ele><time>2026-04-24T15:55:35.923Z</time></trkpt><trkpt lat="41.3518967" lon="0.9664583"><ele>839.5</ele><time>2026-04-24T15:55:36.923Z</time></trkpt><trkpt lat="41.351825" lon="0.96616"><ele>846.0</ele><time>2026-04-24T15:55:37.922Z</time></trkpt><trkpt lat="41.3517633" lon="0.96587"><ele>848.3333333333333</ele><time>2026-04-24T15:55:38.922Z</time></trkpt><trkpt lat="41.3517" lon="0.965585"><ele>850.6666666666666</ele><time>2026-04-24T15:55:39.922Z</time></trkpt><trkpt lat="41.3516383" lon="0.965315"><ele>853.0</ele><time>2026-04-24T15:55:40.923Z</time></trkpt><trkpt lat="41.35157" lon="0.9650617"><ele>853.6666666666666</ele><time>2026-04-24T15:55:41.922Z</time></trkpt><trkpt lat="41.3514883" lon="0.9648383"><ele>854.3333333333333</ele><time>2026-04-24T15:55:42.923Z</time></trkpt><trkpt lat="41.3513733" lon="0.9646367"><ele>855.0</ele><time>2026-04-24T15:55:43.922Z</time></trkpt><trkpt lat="41.35123" lon="0.964465"><ele>855.0</ele><time>2026-04-24T15:55:44.923Z</time></trkpt><trkpt lat="41.351065" lon="0.9643367"><ele>855.0</ele><time>2026-04-24T15:55:45.923Z</time></trkpt><trkpt lat="41.3508817" lon="0.96422"><ele>855.0</ele><time>2026-04-24T15:55:46.923Z</time></trkpt><trkpt lat="41.3506917" lon="0.9640883"><ele>858.0</ele><time>2026-04-24T15:55:47.922Z</time></trkpt><trkpt lat="41.3505033" lon="0.9639283"><ele>861.0</ele><time>2026-04-24T15:55:48.921Z</time></trkpt><trkpt lat="41.3503333" lon="0.9637417"><ele>864.0</ele><time>2026-04-24T15:55:49.922Z</time></trkpt><trkpt lat="41.3501767" lon="0.9635217"><ele>866.6666666666667</ele><time>2026-04-24T15:55:50.922Z</time></trkpt><trkpt lat="41.350035" lon="0.963305"><ele>869.3333333333334</ele><time>2026-04-24T15:55:51.921Z</time></trkpt><trkpt lat="41.3499017" lon="0.9630717"><ele>872.0</ele><time>2026-04-24T15:55:52.921Z</time></trkpt><trkpt lat="41.34978" lon="0.9628467"><ele>873.0</ele><time>2026-04-24T15:55:53.921Z</time></trkpt><trkpt lat="41.3496883" lon="0.962635"><ele>874.0</ele><time>2026-04-24T15:55:54.921Z</time></trkpt><trkpt lat="41.3496183" lon="0.96242"><ele>875.0</ele><time>2026-04-24T15:55:55.921Z</time></trkpt><trkpt lat="41.3495683" lon="0.9621933"><ele>875.0</ele><time>2026-04-24T15:55:56.922Z</time></trkpt><trkpt lat="41.3495467" lon="0.96197"><ele>875.0</ele><time>2026-04-24T15:55:57.921Z</time></trkpt><trkpt lat="41.349525" lon="0.9617317"><ele>875.0</ele><time>2026-04-24T15:55:58.921Z</time></trkpt><trkpt lat="41.34951" lon="0.9615083"><ele>877.5</ele><time>2026-04-24T15:55:59.921Z</time></trkpt><trkpt lat="41.3495" lon="0.961305"><ele>880.0</ele><time>2026-04-24T15:56:00.921Z</time></trkpt><trkpt lat="41.3494867" lon="0.9611033"><ele>882.5</ele><time>2026-04-24T15:56:01.922Z</time></trkpt><trkpt lat="41.3494617" lon="0.96092"><ele>885.0</ele><time>2026-04-24T15:56:02.921Z</time></trkpt><trkpt lat="41.34942" lon="0.960735"><ele>886.25</ele><time>2026-04-24T15:56:03.922Z</time></trkpt><trkpt lat="41.34937" lon="0.96056"><ele>887.5</ele><time>2026-04-24T15:56:04.922Z</time></trkpt><trkpt lat="41.3493117" lon="0.9604083"><ele>888.75</ele><time>2026-04-24T15:56:05.921Z</time></trkpt><trkpt lat="41.349255" lon="0.9602667"><ele>890.0</ele><time>2026-04-24T15:56:06.918Z</time></trkpt><trkpt lat="41.3492017" lon="0.9601367"><ele>890.3333333333334</ele><time>2026-04-24T15:56:07.921Z</time></trkpt><trkpt lat="41.3491533" lon="0.9600133"><ele>890.6666666666667</ele><time>2026-04-24T15:56:08.921Z</time></trkpt><trkpt lat="41.349115" lon="0.9598983"><ele>891.0</ele><time>2026-04-24T15:56:09.921Z</time></trkpt><trkpt lat="41.3490783" lon="0.9598"><ele>891.3333333333333</ele><time>2026-04-24T15:56:10.922Z</time></trkpt><trkpt lat="41.3490483" lon="0.9597067"><ele>891.6666666666666</ele><time>2026-04-24T15:56:11.922Z</time></trkpt><trkpt lat="41.3490167" lon="0.9596183"><ele>892.0</ele><time>2026-04-24T15:56:12.922Z</time></trkpt><trkpt lat="41.3489783" lon="0.95954"><ele>891.9999999999999</ele><time>2026-04-24T15:56:13.922Z</time></trkpt><trkpt lat="41.3488767" lon="0.9594583"><ele>892.0</ele><time>2026-04-24T15:56:15.922Z</time></trkpt><trkpt lat="41.3488083" lon="0.95946"><ele>892.0</ele><time>2026-04-24T15:56:16.921Z</time></trkpt><trkpt lat="41.3487417" lon="0.959515"><ele>892.0</ele><time>2026-04-24T15:56:17.921Z</time></trkpt><trkpt lat="41.34869" lon="0.959605"><ele>891.9999999999999</ele><time>2026-04-24T15:56:18.922Z</time></trkpt><trkpt lat="41.348625" lon="0.9597017"><ele>892.0</ele><time>2026-04-24T15:56:19.921Z</time></trkpt><trkpt lat="41.34855" lon="0.9598"><ele>891.8</ele><time>2026-04-24T15:56:20.921Z</time></trkpt><trkpt lat="41.3484583" lon="0.9598867"><ele>891.6</ele><time>2026-04-24T15:56:21.922Z</time></trkpt><trkpt lat="41.3483667" lon="0.9599633"><ele>891.3999999999999</ele><time>2026-04-24T15:56:22.922Z</time></trkpt><trkpt lat="41.3482817" lon="0.96003"><ele>891.1999999999999</ele><time>2026-04-24T15:56:23.922Z</time></trkpt><trkpt lat="41.3482067" lon="0.9601033"><ele>891.0</ele><time>2026-04-24T15:56:24.921Z</time></trkpt><trkpt lat="41.348105" lon="0.9601833"><ele>893.0</ele><time>2026-04-24T15:56:25.922Z</time></trkpt><trkpt lat="41.347985" lon="0.9602567"><ele>895.0</ele><time>2026-04-24T15:56:26.921Z</time></trkpt><trkpt lat="41.3478867" lon="0.9603517"><ele>897.0</ele><time>2026-04-24T15:56:27.922Z</time></trkpt><trkpt lat="41.3478217" lon="0.9604667"><ele>899.0</ele><time>2026-04-24T15:56:28.922Z</time></trkpt><trkpt lat="41.3477733" lon="0.960615"><ele>899.0</ele><time>2026-04-24T15:56:29.921Z</time></trkpt><trkpt lat="41.3477467" lon="0.9607933"><ele>899.0</ele><time>2026-04-24T15:56:30.921Z</time></trkpt><trkpt lat="41.3477383" lon="0.9609933"><ele>899.0</ele><time>2026-04-24T15:56:31.922Z</time></trkpt><trkpt lat="41.3477467" lon="0.96121"><ele>900.0</ele><time>2026-04-24T15:56:32.922Z</time></trkpt><trkpt lat="41.34776" lon="0.9614333"><ele>901.0</ele><time>2026-04-24T15:56:33.921Z</time></trkpt><trkpt lat="41.347775" lon="0.96164"><ele>902.0</ele><time>2026-04-24T15:56:34.922Z</time></trkpt><trkpt lat="41.3477867" lon="0.9618383"><ele>902.5</ele><time>2026-04-24T15:56:35.922Z</time></trkpt><trkpt lat="41.3478033" lon="0.9620233"><ele>903.0</ele><time>2026-04-24T15:56:36.922Z</time></trkpt><trkpt lat="41.3477983" lon="0.96218"><ele>903.5</ele><time>2026-04-24T15:56:37.922Z</time></trkpt><trkpt lat="41.3477633" lon="0.96231"><ele>904.0</ele><time>2026-04-24T15:56:38.921Z</time></trkpt><trkpt lat="41.3476933" lon="0.96239"><ele>904.0</ele><time>2026-04-24T15:56:39.921Z</time></trkpt><trkpt lat="41.3475967" lon="0.962415"><ele>904.0</ele><time>2026-04-24T15:56:40.921Z</time></trkpt><trkpt lat="41.3474917" lon="0.9624"><ele>904.0</ele><time>2026-04-24T15:56:41.921Z</time></trkpt><trkpt lat="41.3473817" lon="0.9623283"><ele>904.0</ele><time>2026-04-24T15:56:42.921Z</time></trkpt><trkpt lat="41.34725" lon="0.9621733"><ele>908.3333333333333</ele><time>2026-04-24T15:56:43.921Z</time></trkpt><trkpt lat="41.3471167" lon="0.96201"><ele>912.6666666666667</ele><time>2026-04-24T15:56:44.921Z</time></trkpt><trkpt lat="41.34698" lon="0.96185"><ele>917.0</ele><time>2026-04-24T15:56:45.922Z</time></trkpt><trkpt lat="41.3468483" lon="0.96171"><ele>915.3333333333334</ele><time>2026-04-24T15:56:46.922Z</time></trkpt><trkpt lat="41.34671" lon="0.9615567"><ele>913.6666666666667</ele><time>2026-04-24T15:56:47.921Z</time></trkpt><trkpt lat="41.3465833" lon="0.9614017"><ele>912.0</ele><time>2026-04-24T15:56:48.921Z</time></trkpt><trkpt lat="41.3464833" lon="0.9612383"><ele>912.0</ele><time>2026-04-24T15:56:49.922Z</time></trkpt><trkpt lat="41.3463917" lon="0.9610467"><ele>912.0</ele><time>2026-04-24T15:56:50.921Z</time></trkpt><trkpt lat="41.34631" lon="0.96085"><ele>912.0</ele><time>2026-04-24T15:56:51.921Z</time></trkpt><trkpt lat="41.3462417" lon="0.9606733"><ele>914.4000000000001</ele><time>2026-04-24T15:56:52.922Z</time></trkpt><trkpt lat="41.346175" lon="0.960535"><ele>916.8000000000001</ele><time>2026-04-24T15:56:53.921Z</time></trkpt><trkpt lat="41.3461" lon="0.9604333"><ele>919.2</ele><time>2026-04-24T15:56:54.922Z</time></trkpt><trkpt lat="41.3460133" lon="0.9603683"><ele>921.6</ele><time>2026-04-24T15:56:55.922Z</time></trkpt><trkpt lat="41.34592" lon="0.9603683"><ele>924.0</ele><time>2026-04-24T15:56:56.921Z</time></trkpt><trkpt lat="41.3458383" lon="0.960415"><ele>924.0</ele><time>2026-04-24T15:56:57.922Z</time></trkpt><trkpt lat="41.345765" lon="0.9605017"><ele>924.0</ele><time>2026-04-24T15:56:58.922Z</time></trkpt><trkpt lat="41.3457317" lon="0.960635"><ele>924.0</ele><time>2026-04-24T15:56:59.922Z</time></trkpt><trkpt lat="41.3457467" lon="0.9608167"><ele>924.0</ele><time>2026-04-24T15:57:00.921Z</time></trkpt><trkpt lat="41.3458017" lon="0.961015"><ele>927.0</ele><time>2026-04-24T15:57:01.921Z</time></trkpt><trkpt lat="41.3458583" lon="0.9612033"><ele>930.0</ele><time>2026-04-24T15:57:02.922Z</time></trkpt><trkpt lat="41.3459167" lon="0.9614033"><ele>933.0</ele><time>2026-04-24T15:57:03.921Z</time></trkpt><trkpt lat="41.3459683" lon="0.9616133"><ele>935.0</ele><time>2026-04-24T15:57:04.921Z</time></trkpt><trkpt lat="41.3460183" lon="0.9618217"><ele>937.0</ele><time>2026-04-24T15:57:05.922Z</time></trkpt><trkpt lat="41.3460633" lon="0.9620267"><ele>939.0</ele><time>2026-04-24T15:57:06.922Z</time></trkpt><trkpt lat="41.3461067" lon="0.9622367"><ele>939.0</ele><time>2026-04-24T15:57:07.922Z</time></trkpt><trkpt lat="41.3461517" lon="0.962445"><ele>939.0</ele><time>2026-04-24T15:57:08.922Z</time></trkpt><trkpt lat="41.346185" lon="0.9626467"><ele>939.0</ele><time>2026-04-24T15:57:09.921Z</time></trkpt><trkpt lat="41.3462083" lon="0.9628583"><ele>939.0</ele><time>2026-04-24T15:57:10.921Z</time></trkpt><trkpt lat="41.3462133" lon="0.9630833"><ele>939.0</ele><time>2026-04-24T15:57:11.921Z</time></trkpt><trkpt lat="41.3462083" lon="0.9633183"><ele>939.0</ele><time>2026-04-24T15:57:12.921Z</time></trkpt><trkpt lat="41.3461733" lon="0.9635467"><ele>939.0</ele><time>2026-04-24T15:57:13.922Z</time></trkpt><trkpt lat="41.3461183" lon="0.96376"><ele>939.0</ele><time>2026-04-24T15:57:14.922Z</time></trkpt><trkpt lat="41.34603" lon="0.9639467"><ele>939.0</ele><time>2026-04-24T15:57:15.922Z</time></trkpt><trkpt lat="41.3459133" lon="0.9641133"><ele>935.3333333333333</ele><time>2026-04-24T15:57:16.922Z</time></trkpt><trkpt lat="41.3457867" lon="0.9642717"><ele>931.6666666666666</ele><time>2026-04-24T15:57:17.922Z</time></trkpt><trkpt lat="41.3456733" lon="0.9644317"><ele>928.0</ele><time>2026-04-24T15:57:18.922Z</time></trkpt><trkpt lat="41.3455717" lon="0.9646083"><ele>940.3333333333333</ele><time>2026-04-24T15:57:19.922Z</time></trkpt><trkpt lat="41.3454833" lon="0.9648067"><ele>952.6666666666667</ele><time>2026-04-24T15:57:20.922Z</time></trkpt><trkpt lat="41.3454033" lon="0.965035"><ele>965.0</ele><time>2026-04-24T15:57:21.921Z</time></trkpt><trkpt lat="41.34533" lon="0.9652783"><ele>965.0</ele><time>2026-04-24T15:57:22.922Z</time></trkpt><trkpt lat="41.3452633" lon="0.9655233"><ele>965.0</ele><time>2026-04-24T15:57:23.921Z</time></trkpt><trkpt lat="41.3452" lon="0.965775"><ele>965.0</ele><time>2026-04-24T15:57:24.921Z</time></trkpt><trkpt lat="41.345135" lon="0.9660267"><ele>961.0</ele><time>2026-04-24T15:57:25.921Z</time></trkpt><trkpt lat="41.3450717" lon="0.9662817"><ele>957.0</ele><time>2026-04-24T15:57:26.921Z</time></trkpt><trkpt lat="41.345" lon="0.9665317"><ele>953.0</ele><time>2026-04-24T15:57:27.921Z</time></trkpt><trkpt lat="41.3449183" lon="0.9667767"><ele>947.6666666666667</ele><time>2026-04-24T15:57:28.921Z</time></trkpt><trkpt lat="41.3448267" lon="0.9670183"><ele>942.3333333333333</ele><time>2026-04-24T15:57:29.922Z</time></trkpt><trkpt lat="41.3447317" lon="0.9672633"><ele>937.0</ele><time>2026-04-24T15:57:30.922Z</time></trkpt><trkpt lat="41.34464" lon="0.9675167"><ele>950.3333333333333</ele><time>2026-04-24T15:57:31.921Z</time></trkpt><trkpt lat="41.3445533" lon="0.967775"><ele>963.6666666666667</ele><time>2026-04-24T15:57:32.922Z</time></trkpt><trkpt lat="41.3444583" lon="0.968025"><ele>977.0</ele><time>2026-04-24T15:57:33.921Z</time></trkpt><trkpt lat="41.3443617" lon="0.968275"><ele>974.3333333333334</ele><time>2026-04-24T15:57:34.922Z</time></trkpt><trkpt lat="41.3442733" lon="0.9685283"><ele>971.6666666666667</ele><time>2026-04-24T15:57:35.921Z</time></trkpt><trkpt lat="41.344195" lon="0.96879"><ele>969.0</ele><time>2026-04-24T15:57:36.921Z</time></trkpt><trkpt lat="41.3441333" lon="0.96906"><ele>966.3333333333333</ele><time>2026-04-24T15:57:37.921Z</time></trkpt><trkpt lat="41.3440833" lon="0.9693333"><ele>963.6666666666666</ele><time>2026-04-24T15:57:38.922Z</time></trkpt><trkpt lat="41.3440183" lon="0.9695917"><ele>961.0</ele><time>2026-04-24T15:57:39.922Z</time></trkpt><trkpt lat="41.3439517" lon="0.9698483"><ele>958.3333333333333</ele><time>2026-04-24T15:57:40.922Z</time></trkpt><trkpt lat="41.3438817" lon="0.9701117"><ele>955.6666666666667</ele><time>2026-04-24T15:57:41.921Z</time></trkpt><trkpt lat="41.3438267" lon="0.97037"><ele>953.0</ele><time>2026-04-24T15:57:42.922Z</time></trkpt><trkpt lat="41.34376" lon="0.9706267"><ele>962.6666666666667</ele><time>2026-04-24T15:57:43.921Z</time></trkpt><trkpt lat="41.3437017" lon="0.9708683"><ele>972.3333333333333</ele><time>2026-04-24T15:57:44.922Z</time></trkpt><trkpt lat="41.3436617" lon="0.9711017"><ele>982.0</ele><time>2026-04-24T15:57:45.921Z</time></trkpt><trkpt lat="41.3436383" lon="0.9713267"><ele>982.0</ele><time>2026-04-24T15:57:46.922Z</time></trkpt><trkpt lat="41.3436117" lon="0.9715433"><ele>982.0</ele><time>2026-04-24T15:57:47.921Z</time></trkpt><trkpt lat="41.34356" lon="0.9717517"><ele>982.0</ele><time>2026-04-24T15:57:48.921Z</time></trkpt><trkpt lat="41.3434967" lon="0.9719483"><ele>981.3333333333333</ele><time>2026-04-24T15:57:49.922Z</time></trkpt><trkpt lat="41.3434" lon="0.97213"><ele>980.6666666666667</ele><time>2026-04-24T15:57:50.921Z</time></trkpt><trkpt lat="41.343295" lon="0.9723117"><ele>980.0</ele><time>2026-04-24T15:57:51.921Z</time></trkpt><trkpt lat="41.3431983" lon="0.9725167"><ele>981.0</ele><time>2026-04-24T15:57:52.922Z</time></trkpt><trkpt lat="41.343115" lon="0.9727483"><ele>982.0</ele><time>2026-04-24T15:57:53.921Z</time></trkpt><trkpt lat="41.3430583" lon="0.973005"><ele>983.0</ele><time>2026-04-24T15:57:54.921Z</time></trkpt><trkpt lat="41.3430017" lon="0.9732683"><ele>987.6666666666667</ele><time>2026-04-24T15:57:55.922Z</time></trkpt><trkpt lat="41.342945" lon="0.9735217"><ele>992.3333333333333</ele><time>2026-04-24T15:57:56.921Z</time></trkpt><trkpt lat="41.3428767" lon="0.9737767"><ele>997.0</ele><time>2026-04-24T15:57:57.922Z</time></trkpt><trkpt lat="41.34281" lon="0.9740083"><ele>999.3333333333333</ele><time>2026-04-24T15:57:58.922Z</time></trkpt><trkpt lat="41.3427383" lon="0.9742283"><ele>1001.6666666666667</ele><time>2026-04-24T15:57:59.921Z</time></trkpt><trkpt lat="41.3426517" lon="0.97444"><ele>1004.0</ele><time>2026-04-24T15:58:00.921Z</time></trkpt><trkpt lat="41.34255" lon="0.9746517"><ele>1004.0</ele><time>2026-04-24T15:58:01.921Z</time></trkpt><trkpt lat="41.3424333" lon="0.9748617"><ele>1004.0</ele><time>2026-04-24T15:58:02.922Z</time></trkpt><trkpt lat="41.3423233" lon="0.975075"><ele>1004.0</ele><time>2026-04-24T15:58:03.921Z</time></trkpt><trkpt lat="41.3422167" lon="0.9752867"><ele>1002.6666666666667</ele><time>2026-04-24T15:58:04.921Z</time></trkpt><trkpt lat="41.342115" lon="0.9755"><ele>1001.3333333333333</ele><time>2026-04-24T15:58:05.921Z</time></trkpt><trkpt lat="41.3420117" lon="0.9757067"><ele>1000.0</ele><time>2026-04-24T15:58:06.921Z</time></trkpt><trkpt lat="41.3419283" lon="0.9759"><ele>1000.0</ele><time>2026-04-24T15:58:07.922Z</time></trkpt><trkpt lat="41.3418567" lon="0.9760733"><ele>1000.0</ele><time>2026-04-24T15:58:08.921Z</time></trkpt><trkpt lat="41.3417683" lon="0.97621"><ele>1000.0</ele><time>2026-04-24T15:58:09.921Z</time></trkpt><trkpt lat="41.3416517" lon="0.9763317"><ele>1000.0</ele><time>2026-04-24T15:58:10.922Z</time></trkpt><trkpt lat="41.341505" lon="0.9764333"><ele>1005.6666666666666</ele><time>2026-04-24T15:58:11.921Z</time></trkpt><trkpt lat="41.3413367" lon="0.97651"><ele>1011.3333333333333</ele><time>2026-04-24T15:58:12.922Z</time></trkpt><trkpt lat="41.3411667" lon="0.97657"><ele>1017.0</ele><time>2026-04-24T15:58:13.921Z</time></trkpt><trkpt lat="41.3409933" lon="0.9766267"><ele>1017.0</ele><time>2026-04-24T15:58:14.921Z</time></trkpt><trkpt lat="41.3408317" lon="0.9766633"><ele>1017.0</ele><time>2026-04-24T15:58:15.922Z</time></trkpt><trkpt lat="41.3406967" lon="0.976695"><ele>1017.0</ele><time>2026-04-24T15:58:16.921Z</time></trkpt><trkpt lat="41.3405867" lon="0.9767217"><ele>1017.0</ele><time>2026-04-24T15:58:17.922Z</time></trkpt><trkpt lat="41.3405017" lon="0.9767817"><ele>1017.8</ele><time>2026-04-24T15:58:18.921Z</time></trkpt><trkpt lat="41.3404483" lon="0.976875"><ele>1018.6</ele><time>2026-04-24T15:58:19.922Z</time></trkpt><trkpt lat="41.3404183" lon="0.9770067"><ele>1019.3999999999999</ele><time>2026-04-24T15:58:20.921Z</time></trkpt><trkpt lat="41.34041" lon="0.9771583"><ele>1020.1999999999999</ele><time>2026-04-24T15:58:21.921Z</time></trkpt><trkpt lat="41.3404133" lon="0.9773217"><ele>1021.0</ele><time>2026-04-24T15:58:22.921Z</time></trkpt><trkpt lat="41.3404183" lon="0.977505"><ele>1019.75</ele><time>2026-04-24T15:58:23.922Z</time></trkpt><trkpt lat="41.34037" lon="0.9776767"><ele>1018.5</ele><time>2026-04-24T15:58:24.922Z</time></trkpt><trkpt lat="41.34032" lon="0.9778633"><ele>1017.25</ele><time>2026-04-24T15:58:25.922Z</time></trkpt><trkpt lat="41.3402567" lon="0.978035"><ele>1016.0</ele><time>2026-04-24T15:58:26.921Z</time></trkpt><trkpt lat="41.3401967" lon="0.9781817"><ele>1016.0</ele><time>2026-04-24T15:58:27.921Z</time></trkpt><trkpt lat="41.34014" lon="0.9783283"><ele>1016.0</ele><time>2026-04-24T15:58:28.922Z</time></trkpt><trkpt lat="41.34011" lon="0.9784967"><ele>1016.0</ele><time>2026-04-24T15:58:29.922Z</time></trkpt><trkpt lat="41.3400867" lon="0.9786767"><ele>1016.0</ele><time>2026-04-24T15:58:30.922Z</time></trkpt><trkpt lat="41.3400817" lon="0.9788917"><ele>1015.0</ele><time>2026-04-24T15:58:31.921Z</time></trkpt><trkpt lat="41.3401017" lon="0.9791117"><ele>1014.0</ele><time>2026-04-24T15:58:32.921Z</time></trkpt><trkpt lat="41.3401267" lon="0.9793317"><ele>1013.0</ele><time>2026-04-24T15:58:33.921Z</time></trkpt><trkpt lat="41.3401483" lon="0.9795433"><ele>1012.5</ele><time>2026-04-24T15:58:34.922Z</time></trkpt><trkpt lat="41.3401383" lon="0.97973"><ele>1012.0</ele><time>2026-04-24T15:58:35.921Z</time></trkpt><trkpt lat="41.3400967" lon="0.9799167"><ele>1011.5</ele><time>2026-04-24T15:58:36.922Z</time></trkpt><trkpt lat="41.3400317" lon="0.9801083"><ele>1011.0</ele><time>2026-04-24T15:58:37.922Z</time></trkpt><trkpt lat="41.33997" lon="0.9802933"><ele>1011.0</ele><time>2026-04-24T15:58:38.921Z</time></trkpt><trkpt lat="41.33991" lon="0.9804867"><ele>1011.0</ele><time>2026-04-24T15:58:39.921Z</time></trkpt><trkpt lat="41.3398767" lon="0.98069"><ele>1011.0</ele><time>2026-04-24T15:58:40.922Z</time></trkpt><trkpt lat="41.3398583" lon="0.9809"><ele>1010.0</ele><time>2026-04-24T15:58:41.922Z</time></trkpt><trkpt lat="41.3398567" lon="0.981115"><ele>1009.0</ele><time>2026-04-24T15:58:42.921Z</time></trkpt><trkpt lat="41.339895" lon="0.9813133"><ele>1008.0</ele><time>2026-04-24T15:58:43.921Z</time></trkpt><trkpt lat="41.3399383" lon="0.98152"><ele>1006.0</ele><time>2026-04-24T15:58:44.921Z</time></trkpt><trkpt lat="41.3399833" lon="0.98173"><ele>1004.0</ele><time>2026-04-24T15:58:45.922Z</time></trkpt><trkpt lat="41.3399833" lon="0.9819367"><ele>1002.0</ele><time>2026-04-24T15:58:46.922Z</time></trkpt><trkpt lat="41.339965" lon="0.982135"><ele>1002.0</ele><time>2026-04-24T15:58:47.921Z</time></trkpt><trkpt lat="41.3399283" lon="0.9823133"><ele>1002.0</ele><time>2026-04-24T15:58:48.921Z</time></trkpt><trkpt lat="41.3398717" lon="0.9824733"><ele>1002.0</ele><time>2026-04-24T15:58:49.921Z</time></trkpt><trkpt lat="41.3397783" lon="0.98259"><ele>1002.0</ele><time>2026-04-24T15:58:50.922Z</time></trkpt><trkpt lat="41.3396667" lon="0.9826683"><ele>1002.25</ele><time>2026-04-24T15:58:51.921Z</time></trkpt><trkpt lat="41.339525" lon="0.9827017"><ele>1002.5</ele><time>2026-04-24T15:58:52.921Z</time></trkpt><trkpt lat="41.3393783" lon="0.9827017"><ele>1002.75</ele><time>2026-04-24T15:58:53.921Z</time></trkpt><trkpt lat="41.3392383" lon="0.9826683"><ele>1003.0</ele><time>2026-04-24T15:58:54.922Z</time></trkpt><trkpt lat="41.3391017" lon="0.9826117"><ele>1003.0</ele><time>2026-04-24T15:58:55.922Z</time></trkpt><trkpt lat="41.3389867" lon="0.9825367"><ele>1003.0</ele><time>2026-04-24T15:58:56.921Z</time></trkpt><trkpt lat="41.338865" lon="0.9824667"><ele>1003.0</ele><time>2026-04-24T15:58:57.922Z</time></trkpt><trkpt lat="41.33874" lon="0.9824283"><ele>1003.0</ele><time>2026-04-24T15:58:58.922Z</time></trkpt><trkpt lat="41.3386167" lon="0.9824383"><ele>1001.8</ele><time>2026-04-24T15:58:59.921Z</time></trkpt><trkpt lat="41.3385083" lon="0.98249"><ele>1000.5999999999999</ele><time>2026-04-24T15:59:00.921Z</time></trkpt><trkpt lat="41.338445" lon="0.9825967"><ele>999.4000000000001</ele><time>2026-04-24T15:59:01.922Z</time></trkpt><trkpt lat="41.33841" lon="0.98273"><ele>998.2</ele><time>2026-04-24T15:59:02.921Z</time></trkpt><trkpt lat="41.338425" lon="0.9828833"><ele>997.0</ele><time>2026-04-24T15:59:03.921Z</time></trkpt><trkpt lat="41.3384867" lon="0.9830433"><ele>996.0</ele><time>2026-04-24T15:59:04.921Z</time></trkpt><trkpt lat="41.33857" lon="0.9832217"><ele>995.0</ele><time>2026-04-24T15:59:05.921Z</time></trkpt><trkpt lat="41.33865" lon="0.9834067"><ele>994.0</ele><time>2026-04-24T15:59:06.922Z</time></trkpt><trkpt lat="41.33872" lon="0.98358"><ele>990.3333333333333</ele><time>2026-04-24T15:59:07.922Z</time></trkpt><trkpt lat="41.33877" lon="0.9837617"><ele>986.6666666666667</ele><time>2026-04-24T15:59:08.921Z</time></trkpt><trkpt lat="41.3387767" lon="0.98395"><ele>983.0</ele><time>2026-04-24T15:59:09.921Z</time></trkpt><trkpt lat="41.338765" lon="0.9841667"><ele>982.6666666666667</ele><time>2026-04-24T15:59:10.922Z</time></trkpt><trkpt lat="41.3387683" lon="0.9843817"><ele>982.3333333333333</ele><time>2026-04-24T15:59:11.922Z</time></trkpt><trkpt lat="41.3387833" lon="0.9846067"><ele>982.0</ele><time>2026-04-24T15:59:12.922Z</time></trkpt><trkpt lat="41.33881" lon="0.98481"><ele>982.0</ele><time>2026-04-24T15:59:13.921Z</time></trkpt><trkpt lat="41.3388067" lon="0.984995"><ele>982.0</ele><time>2026-04-24T15:59:14.922Z</time></trkpt><trkpt lat="41.33876" lon="0.9851783"><ele>982.0</ele><time>2026-04-24T15:59:15.922Z</time></trkpt><trkpt lat="41.3386817" lon="0.98536"><ele>982.0</ele><time>2026-04-24T15:59:16.922Z</time></trkpt><trkpt lat="41.338575" lon="0.9855217"><ele>981.6666666666666</ele><time>2026-04-24T15:59:17.921Z</time></trkpt><trkpt lat="41.338475" lon="0.9856783"><ele>981.3333333333333</ele><time>2026-04-24T15:59:18.921Z</time></trkpt><trkpt lat="41.338385" lon="0.9858483"><ele>981.0</ele><time>2026-04-24T15:59:19.921Z</time></trkpt><trkpt lat="41.3383133" lon="0.9860533"><ele>981.0</ele><time>2026-04-24T15:59:20.922Z</time></trkpt><trkpt lat="41.3382567" lon="0.9862733"><ele>981.0</ele><time>2026-04-24T15:59:21.922Z</time></trkpt><trkpt lat="41.338205" lon="0.9865"><ele>981.0</ele><time>2026-04-24T15:59:22.921Z</time></trkpt><trkpt lat="41.3381583" lon="0.986735"><ele>981.0</ele><time>2026-04-24T15:59:23.921Z</time></trkpt><trkpt lat="41.3381033" lon="0.9869567"><ele>981.0</ele><time>2026-04-24T15:59:24.922Z</time></trkpt><trkpt lat="41.338015" lon="0.9871667"><ele>981.0</ele><time>2026-04-24T15:59:25.921Z</time></trkpt><trkpt lat="41.3379117" lon="0.987375"><ele>983.6666666666667</ele><time>2026-04-24T15:59:26.921Z</time></trkpt><trkpt lat="41.337805" lon="0.9875833"><ele>986.3333333333334</ele><time>2026-04-24T15:59:27.921Z</time></trkpt><trkpt lat="41.3376983" lon="0.9877967"><ele>989.0</ele><time>2026-04-24T15:59:28.922Z</time></trkpt><trkpt lat="41.33759" lon="0.9879983"><ele>989.0</ele><time>2026-04-24T15:59:29.921Z</time></trkpt><trkpt lat="41.3374817" lon="0.9881817"><ele>989.0</ele><time>2026-04-24T15:59:30.922Z</time></trkpt><trkpt lat="41.3373717" lon="0.988345"><ele>989.0</ele><time>2026-04-24T15:59:31.921Z</time></trkpt><trkpt lat="41.3372467" lon="0.9884867"><ele>990.0</ele><time>2026-04-24T15:59:32.922Z</time></trkpt><trkpt lat="41.3371133" lon="0.9885983"><ele>991.0</ele><time>2026-04-24T15:59:33.922Z</time></trkpt><trkpt lat="41.3370033" lon="0.9886867"><ele>992.0</ele><time>2026-04-24T15:59:34.921Z</time></trkpt><trkpt lat="41.33692" lon="0.9887783"><ele>993.0</ele><time>2026-04-24T15:59:35.922Z</time></trkpt><trkpt lat="41.3368617" lon="0.9889033"><ele>993.0</ele><time>2026-04-24T15:59:36.922Z</time></trkpt><trkpt lat="41.3368217" lon="0.9890483"><ele>993.0</ele><time>2026-04-24T15:59:37.922Z</time></trkpt><trkpt lat="41.3367917" lon="0.9892267"><ele>993.0</ele><time>2026-04-24T15:59:38.922Z</time></trkpt><trkpt lat="41.3368" lon="0.989425"><ele>993.0</ele><time>2026-04-24T15:59:39.921Z</time></trkpt><trkpt lat="41.336825" lon="0.9896283"><ele>993.75</ele><time>2026-04-24T15:59:40.921Z</time></trkpt><trkpt lat="41.336855" lon="0.9898167"><ele>994.5</ele><time>2026-04-24T15:59:41.921Z</time></trkpt><trkpt lat="41.3368883" lon="0.9899983"><ele>995.25</ele><time>2026-04-24T15:59:42.922Z</time></trkpt><trkpt lat="41.3369517" lon="0.9901683"><ele>996.0</ele><time>2026-04-24T15:59:43.921Z</time></trkpt><trkpt lat="41.3370267" lon="0.9903033"><ele>997.25</ele><time>2026-04-24T15:59:44.921Z</time></trkpt><trkpt lat="41.3371083" lon="0.9904417"><ele>998.5</ele><time>2026-04-24T15:59:45.921Z</time></trkpt><trkpt lat="41.3371567" lon="0.99058"><ele>999.75</ele><time>2026-04-24T15:59:46.922Z</time></trkpt><trkpt lat="41.3371733" lon="0.99075"><ele>1001.0</ele><time>2026-04-24T15:59:47.922Z</time></trkpt><trkpt lat="41.33717" lon="0.99093"><ele>1003.0</ele><time>2026-04-24T15:59:48.921Z</time></trkpt><trkpt lat="41.337165" lon="0.9911167"><ele>1005.0</ele><time>2026-04-24T15:59:49.922Z</time></trkpt><trkpt lat="41.33716" lon="0.9913033"><ele>1007.0</ele><time>2026-04-24T15:59:50.921Z</time></trkpt><trkpt lat="41.3371667" lon="0.9914983"><ele>1009.0</ele><time>2026-04-24T15:59:51.922Z</time></trkpt><trkpt lat="41.3371867" lon="0.991695"><ele>1011.8000000000001</ele><time>2026-04-24T15:59:52.921Z</time></trkpt><trkpt lat="41.3371983" lon="0.991845"><ele>1014.6000000000001</ele><time>2026-04-24T15:59:53.922Z</time></trkpt><trkpt lat="41.3371983" lon="0.9919867"><ele>1017.4</ele><time>2026-04-24T15:59:54.921Z</time></trkpt><trkpt lat="41.3371717" lon="0.9921117"><ele>1020.2</ele><time>2026-04-24T15:59:55.922Z</time></trkpt><trkpt lat="41.3371367" lon="0.9921883"><ele>1023.0</ele><time>2026-04-24T15:59:56.921Z</time></trkpt><trkpt lat="41.3370833" lon="0.9922517"><ele>1023.0</ele><time>2026-04-24T15:59:58.922Z</time></trkpt><trkpt lat="41.33696" lon="0.9921933"><ele>1023.0</ele><time>2026-04-24T16:00:00.921Z</time></trkpt><trkpt lat="41.336855" lon="0.9921317"><ele>1023.0</ele><time>2026-04-24T16:00:01.921Z</time></trkpt><trkpt lat="41.33672" lon="0.992055"><ele>1023.0</ele><time>2026-04-24T16:00:02.921Z</time></trkpt><trkpt lat="41.336585" lon="0.9919817"><ele>1023.0</ele><time>2026-04-24T16:00:03.921Z</time></trkpt><trkpt lat="41.3364433" lon="0.9919033"><ele>1023.0</ele><time>2026-04-24T16:00:04.922Z</time></trkpt><trkpt lat="41.336275" lon="0.991825"><ele>1023.0</ele><time>2026-04-24T16:00:05.922Z</time></trkpt><trkpt lat="41.3361083" lon="0.9917567"><ele>1025.3333333333333</ele><time>2026-04-24T16:00:06.922Z</time></trkpt><trkpt lat="41.3359317" lon="0.9917017"><ele>1027.6666666666665</ele><time>2026-04-24T16:00:07.921Z</time></trkpt><trkpt lat="41.3357567" lon="0.991665"><ele>1030.0</ele><time>2026-04-24T16:00:08.922Z</time></trkpt><trkpt lat="41.3355917" lon="0.9916467"><ele>1029.25</ele><time>2026-04-24T16:00:09.921Z</time></trkpt><trkpt lat="41.3354433" lon="0.9916267"><ele>1028.5</ele><time>2026-04-24T16:00:10.921Z</time></trkpt><trkpt lat="41.3353" lon="0.99162"><ele>1027.75</ele><time>2026-04-24T16:00:11.921Z</time></trkpt><trkpt lat="41.3351817" lon="0.991655"><ele>1027.0</ele><time>2026-04-24T16:00:12.922Z</time></trkpt><trkpt lat="41.3350617" lon="0.9917383"><ele>1027.0</ele><time>2026-04-24T16:00:13.921Z</time></trkpt><trkpt lat="41.3349317" lon="0.991855"><ele>1027.0</ele><time>2026-04-24T16:00:14.922Z</time></trkpt><trkpt lat="41.3348033" lon="0.99198"><ele>1027.0</ele><time>2026-04-24T16:00:15.921Z</time></trkpt><trkpt lat="41.3346733" lon="0.99211"><ele>1027.5</ele><time>2026-04-24T16:00:16.922Z</time></trkpt><trkpt lat="41.334545" lon="0.9922367"><ele>1028.0</ele><time>2026-04-24T16:00:17.922Z</time></trkpt><trkpt lat="41.33443" lon="0.99234"><ele>1028.5</ele><time>2026-04-24T16:00:18.921Z</time></trkpt><trkpt lat="41.334345" lon="0.9924567"><ele>1029.0</ele><time>2026-04-24T16:00:19.921Z</time></trkpt><trkpt lat="41.334285" lon="0.9926083"><ele>1029.0</ele><time>2026-04-24T16:00:20.921Z</time></trkpt><trkpt lat="41.3342417" lon="0.9927633"><ele>1029.0</ele><time>2026-04-24T16:00:21.921Z</time></trkpt><trkpt lat="41.3341983" lon="0.9928983"><ele>1029.0</ele><time>2026-04-24T16:00:22.922Z</time></trkpt><trkpt lat="41.3341333" lon="0.9930117"><ele>1029.0</ele><time>2026-04-24T16:00:23.922Z</time></trkpt><trkpt lat="41.334035" lon="0.9930883"><ele>1029.0</ele><time>2026-04-24T16:00:24.921Z</time></trkpt><trkpt lat="41.3339217" lon="0.9931683"><ele>1029.0</ele><time>2026-04-24T16:00:25.921Z</time></trkpt><trkpt lat="41.3338033" lon="0.993275"><ele>1029.0</ele><time>2026-04-24T16:00:26.921Z</time></trkpt><trkpt lat="41.3337" lon="0.9934167"><ele>1029.0</ele><time>2026-04-24T16:00:27.922Z</time></trkpt><trkpt lat="41.3335983" lon="0.9935467"><ele>1030.5</ele><time>2026-04-24T16:00:28.922Z</time></trkpt><trkpt lat="41.3334967" lon="0.9936383"><ele>1032.0</ele><time>2026-04-24T16:00:29.921Z</time></trkpt><trkpt lat="41.3333833" lon="0.99369"><ele>1033.5</ele><time>2026-04-24T16:00:30.922Z</time></trkpt><trkpt lat="41.3332717" lon="0.993685"><ele>1035.0</ele><time>2026-04-24T16:00:31.922Z</time></trkpt><trkpt lat="41.3331617" lon="0.993625"><ele>1035.0</ele><time>2026-04-24T16:00:32.922Z</time></trkpt><trkpt lat="41.3330567" lon="0.9935567"><ele>1035.0</ele><time>2026-04-24T16:00:33.922Z</time></trkpt><trkpt lat="41.3329417" lon="0.993485"><ele>1035.0</ele><time>2026-04-24T16:00:34.921Z</time></trkpt><trkpt lat="41.332815" lon="0.9934167"><ele>1035.0</ele><time>2026-04-24T16:00:35.921Z</time></trkpt><trkpt lat="41.3326933" lon="0.99334"><ele>1034.5</ele><time>2026-04-24T16:00:36.922Z</time></trkpt><trkpt lat="41.3325617" lon="0.9932667"><ele>1034.0</ele><time>2026-04-24T16:00:37.922Z</time></trkpt><trkpt lat="41.33242" lon="0.9932183"><ele>1033.5</ele><time>2026-04-24T16:00:38.921Z</time></trkpt><trkpt lat="41.3322667" lon="0.99322"><ele>1033.0</ele><time>2026-04-24T16:00:39.922Z</time></trkpt><trkpt lat="41.3321" lon="0.9932467"><ele>1035.3333333333333</ele><time>2026-04-24T16:00:40.921Z</time></trkpt><trkpt lat="41.3319233" lon="0.9932717"><ele>1037.6666666666667</ele><time>2026-04-24T16:00:41.922Z</time></trkpt><trkpt lat="41.3317433" lon="0.9932833"><ele>1040.0</ele><time>2026-04-24T16:00:42.921Z</time></trkpt><trkpt lat="41.33155" lon="0.9932933"><ele>1040.6666666666667</ele><time>2026-04-24T16:00:43.922Z</time></trkpt><trkpt lat="41.331365" lon="0.9933033"><ele>1041.3333333333333</ele><time>2026-04-24T16:00:44.922Z</time></trkpt><trkpt lat="41.33119" lon="0.99333"><ele>1042.0</ele><time>2026-04-24T16:00:45.921Z</time></trkpt><trkpt lat="41.331025" lon="0.9933517"><ele>1043.0</ele><time>2026-04-24T16:00:46.921Z</time></trkpt><trkpt lat="41.3308517" lon="0.9933683"><ele>1044.0</ele><time>2026-04-24T16:00:47.921Z</time></trkpt><trkpt lat="41.33068" lon="0.9933917"><ele>1045.0</ele><time>2026-04-24T16:00:48.921Z</time></trkpt><trkpt lat="41.3305017" lon="0.9934067"><ele>1045.0</ele><time>2026-04-24T16:00:49.921Z</time></trkpt><trkpt lat="41.3303383" lon="0.99342"><ele>1045.0</ele><time>2026-04-24T16:00:50.921Z</time></trkpt><trkpt lat="41.330205" lon="0.99342"><ele>1045.0</ele><time>2026-04-24T16:00:51.922Z</time></trkpt><trkpt lat="41.33009" lon="0.9933817"><ele>1045.0</ele><time>2026-04-24T16:00:52.922Z</time></trkpt><trkpt lat="41.3299783" lon="0.993295"><ele>1043.75</ele><time>2026-04-24T16:00:53.922Z</time></trkpt><trkpt lat="41.329875" lon="0.9931767"><ele>1042.5</ele><time>2026-04-24T16:00:54.922Z</time></trkpt><trkpt lat="41.3297783" lon="0.9930567"><ele>1041.25</ele><time>2026-04-24T16:00:55.922Z</time></trkpt><trkpt lat="41.32968" lon="0.9929133"><ele>1040.0</ele><time>2026-04-24T16:00:56.921Z</time></trkpt><trkpt lat="41.3295833" lon="0.9927433"><ele>1038.0</ele><time>2026-04-24T16:00:57.921Z</time></trkpt><trkpt lat="41.329495" lon="0.9925833"><ele>1036.0</ele><time>2026-04-24T16:00:58.922Z</time></trkpt><trkpt lat="41.3293917" lon="0.9924483"><ele>1034.0</ele><time>2026-04-24T16:00:59.922Z</time></trkpt><trkpt lat="41.3292683" lon="0.992335"><ele>1032.0</ele><time>2026-04-24T16:01:00.921Z</time></trkpt><trkpt lat="41.329135" lon="0.99225"><ele>1032.0</ele><time>2026-04-24T16:01:01.922Z</time></trkpt><trkpt lat="41.329005" lon="0.9921867"><ele>1032.0</ele><time>2026-04-24T16:01:02.922Z</time></trkpt><trkpt lat="41.32889" lon="0.9921183"><ele>1032.0</ele><time>2026-04-24T16:01:03.922Z</time></trkpt><trkpt lat="41.328785" lon="0.992015"><ele>1032.0</ele><time>2026-04-24T16:01:04.921Z</time></trkpt><trkpt lat="41.32871" lon="0.9918867"><ele>1030.0</ele><time>2026-04-24T16:01:05.922Z</time></trkpt><trkpt lat="41.3286333" lon="0.9917533"><ele>1028.0</ele><time>2026-04-24T16:01:06.922Z</time></trkpt><trkpt lat="41.32853" lon="0.991635"><ele>1026.0</ele><time>2026-04-24T16:01:07.921Z</time></trkpt><trkpt lat="41.3284083" lon="0.99156"><ele>1024.0</ele><time>2026-04-24T16:01:08.922Z</time></trkpt><trkpt lat="41.32826" lon="0.9915067"><ele>1024.0</ele><time>2026-04-24T16:01:09.922Z</time></trkpt><trkpt lat="41.328115" lon="0.9914633"><ele>1024.0</ele><time>2026-04-24T16:01:10.921Z</time></trkpt><trkpt lat="41.3279917" lon="0.9914067"><ele>1024.0</ele><time>2026-04-24T16:01:11.922Z</time></trkpt><trkpt lat="41.3279" lon="0.9913083"><ele>1024.0</ele><time>2026-04-24T16:01:12.921Z</time></trkpt><trkpt lat="41.3278633" lon="0.9911667"><ele>1025.0</ele><time>2026-04-24T16:01:13.922Z</time></trkpt><trkpt lat="41.3278633" lon="0.9910083"><ele>1026.0</ele><time>2026-04-24T16:01:14.921Z</time></trkpt><trkpt lat="41.3278433" lon="0.9908383"><ele>1027.0</ele><time>2026-04-24T16:01:15.921Z</time></trkpt><trkpt lat="41.32779" lon="0.9906733"><ele>1028.0</ele><time>2026-04-24T16:01:16.922Z</time></trkpt><trkpt lat="41.32773" lon="0.9905067"><ele>1028.0</ele><time>2026-04-24T16:01:17.921Z</time></trkpt><trkpt lat="41.3276433" lon="0.9903233"><ele>1028.0</ele><time>2026-04-24T16:01:18.921Z</time></trkpt><trkpt lat="41.32755" lon="0.99014"><ele>1028.0</ele><time>2026-04-24T16:01:19.921Z</time></trkpt><trkpt lat="41.3274667" lon="0.98995"><ele>1024.6666666666667</ele><time>2026-04-24T16:01:20.922Z</time></trkpt><trkpt lat="41.3273967" lon="0.9897367"><ele>1021.3333333333333</ele><time>2026-04-24T16:01:21.921Z</time></trkpt><trkpt lat="41.3273367" lon="0.9895033"><ele>1018.0</ele><time>2026-04-24T16:01:22.921Z</time></trkpt><trkpt lat="41.32728" lon="0.9892683"><ele>1020.3333333333333</ele><time>2026-04-24T16:01:23.921Z</time></trkpt><trkpt lat="41.3272117" lon="0.98902"><ele>1022.6666666666667</ele><time>2026-04-24T16:01:24.922Z</time></trkpt><trkpt lat="41.327145" lon="0.9887767"><ele>1025.0</ele><time>2026-04-24T16:01:25.922Z</time></trkpt><trkpt lat="41.3270883" lon="0.9885517"><ele>1025.0</ele><time>2026-04-24T16:01:26.921Z</time></trkpt><trkpt lat="41.3270333" lon="0.9883783"><ele>1025.0</ele><time>2026-04-24T16:01:27.921Z</time></trkpt><trkpt lat="41.326985" lon="0.9882233"><ele>1025.0</ele><time>2026-04-24T16:01:28.921Z</time></trkpt><trkpt lat="41.3269167" lon="0.9881017"><ele>1025.0</ele><time>2026-04-24T16:01:29.921Z</time></trkpt><trkpt lat="41.3268083" lon="0.9880167"><ele>1023.3333333333334</ele><time>2026-04-24T16:01:30.921Z</time></trkpt><trkpt lat="41.3266783" lon="0.98797"><ele>1021.6666666666667</ele><time>2026-04-24T16:01:31.922Z</time></trkpt><trkpt lat="41.326525" lon="0.9879467"><ele>1020.0</ele><time>2026-04-24T16:01:32.922Z</time></trkpt><trkpt lat="41.32636" lon="0.98794"><ele>1020.0</ele><time>2026-04-24T16:01:33.921Z</time></trkpt><trkpt lat="41.3261983" lon="0.9879217"><ele>1020.0</ele><time>2026-04-24T16:01:34.921Z</time></trkpt><trkpt lat="41.3260483" lon="0.9879033"><ele>1020.0</ele><time>2026-04-24T16:01:35.921Z</time></trkpt><trkpt lat="41.3258933" lon="0.9878733"><ele>1020.0</ele><time>2026-04-24T16:01:36.922Z</time></trkpt><trkpt lat="41.3257417" lon="0.9878267"><ele>1020.0</ele><time>2026-04-24T16:01:37.921Z</time></trkpt><trkpt lat="41.3256067" lon="0.98779"><ele>1020.0</ele><time>2026-04-24T16:01:38.921Z</time></trkpt><trkpt lat="41.3254817" lon="0.9877933"><ele>1020.0</ele><time>2026-04-24T16:01:39.922Z</time></trkpt><trkpt lat="41.32536" lon="0.98784"><ele>1017.5</ele><time>2026-04-24T16:01:40.921Z</time></trkpt><trkpt lat="41.3252633" lon="0.98793"><ele>1015.0</ele><time>2026-04-24T16:01:41.921Z</time></trkpt><trkpt lat="41.3251783" lon="0.9880733"><ele>1012.5</ele><time>2026-04-24T16:01:42.921Z</time></trkpt><trkpt lat="41.3251183" lon="0.9882633"><ele>1010.0</ele><time>2026-04-24T16:01:43.922Z</time></trkpt><trkpt lat="41.325075" lon="0.9884733"><ele>1010.0</ele><time>2026-04-24T16:01:44.921Z</time></trkpt><trkpt lat="41.3250317" lon="0.9886967"><ele>1010.0</ele><time>2026-04-24T16:01:45.922Z</time></trkpt><trkpt lat="41.3249867" lon="0.9889167"><ele>1010.0</ele><time>2026-04-24T16:01:46.921Z</time></trkpt><trkpt lat="41.32494" lon="0.9891217"><ele>1011.75</ele><time>2026-04-24T16:01:47.921Z</time></trkpt><trkpt lat="41.3248917" lon="0.9893117"><ele>1013.5</ele><time>2026-04-24T16:01:48.921Z</time></trkpt><trkpt lat="41.32485" lon="0.98949"><ele>1015.25</ele><time>2026-04-24T16:01:49.921Z</time></trkpt><trkpt lat="41.3247983" lon="0.98966"><ele>1017.0</ele><time>2026-04-24T16:01:50.922Z</time></trkpt><trkpt lat="41.32473" lon="0.9897933"><ele>1013.75</ele><time>2026-04-24T16:01:51.921Z</time></trkpt><trkpt lat="41.324625" lon="0.98989"><ele>1010.5</ele><time>2026-04-24T16:01:52.921Z</time></trkpt><trkpt lat="41.32449" lon="0.989935"><ele>1007.25</ele><time>2026-04-24T16:01:53.922Z</time></trkpt><trkpt lat="41.3243483" lon="0.98997"><ele>1004.0</ele><time>2026-04-24T16:01:54.921Z</time></trkpt><trkpt lat="41.3241933" lon="0.9900033"><ele>1003.3333333333334</ele><time>2026-04-24T16:01:55.921Z</time></trkpt><trkpt lat="41.3240233" lon="0.9900667"><ele>1002.6666666666667</ele><time>2026-04-24T16:01:56.921Z</time></trkpt><trkpt lat="41.32386" lon="0.990165"><ele>1002.0</ele><time>2026-04-24T16:01:57.921Z</time></trkpt><trkpt lat="41.3237083" lon="0.9902733"><ele>1002.0</ele><time>2026-04-24T16:01:58.922Z</time></trkpt><trkpt lat="41.32356" lon="0.9903717"><ele>1002.0</ele><time>2026-04-24T16:01:59.922Z</time></trkpt><trkpt lat="41.323435" lon="0.990445"><ele>1002.0</ele><time>2026-04-24T16:02:00.921Z</time></trkpt><trkpt lat="41.32331" lon="0.9904917"><ele>1002.0</ele><time>2026-04-24T16:02:01.921Z</time></trkpt><trkpt lat="41.3232117" lon="0.9905667"><ele>1002.0</ele><time>2026-04-24T16:02:02.922Z</time></trkpt><trkpt lat="41.32313" lon="0.9906917"><ele>1002.0</ele><time>2026-04-24T16:02:03.921Z</time></trkpt><trkpt lat="41.3230733" lon="0.99084"><ele>1002.0</ele><time>2026-04-24T16:02:04.922Z</time></trkpt><trkpt lat="41.323045" lon="0.991005"><ele>1002.0</ele><time>2026-04-24T16:02:05.922Z</time></trkpt><trkpt lat="41.3230517" lon="0.99116"><ele>1003.25</ele><time>2026-04-24T16:02:06.921Z</time></trkpt><trkpt lat="41.3230983" lon="0.9913217"><ele>1004.5</ele><time>2026-04-24T16:02:07.921Z</time></trkpt><trkpt lat="41.3231467" lon="0.99148"><ele>1005.75</ele><time>2026-04-24T16:02:08.922Z</time></trkpt><trkpt lat="41.323185" lon="0.99166"><ele>1007.0</ele><time>2026-04-24T16:02:09.922Z</time></trkpt><trkpt lat="41.3231783" lon="0.99184"><ele>1008.6666666666667</ele><time>2026-04-24T16:02:10.922Z</time></trkpt><trkpt lat="41.3231233" lon="0.992025"><ele>1010.3333333333333</ele><time>2026-04-24T16:02:11.922Z</time></trkpt><trkpt lat="41.32305" lon="0.992215"><ele>1012.0</ele><time>2026-04-24T16:02:12.921Z</time></trkpt><trkpt lat="41.3229683" lon="0.9924117"><ele>1005.6666666666666</ele><time>2026-04-24T16:02:13.922Z</time></trkpt><trkpt lat="41.3228733" lon="0.9926067"><ele>999.3333333333333</ele><time>2026-04-24T16:02:14.921Z</time></trkpt><trkpt lat="41.3227767" lon="0.9927817"><ele>993.0</ele><time>2026-04-24T16:02:15.922Z</time></trkpt><trkpt lat="41.3226617" lon="0.9929317"><ele>993.0</ele><time>2026-04-24T16:02:16.922Z</time></trkpt><trkpt lat="41.322585" lon="0.9931083"><ele>993.0</ele><time>2026-04-24T16:02:17.922Z</time></trkpt><trkpt lat="41.32252" lon="0.9932833"><ele>993.0</ele><time>2026-04-24T16:02:18.922Z</time></trkpt><trkpt lat="41.3224833" lon="0.993475"><ele>993.0</ele><time>2026-04-24T16:02:19.921Z</time></trkpt><trkpt lat="41.3224567" lon="0.9936783"><ele>992.3333333333333</ele><time>2026-04-24T16:02:20.922Z</time></trkpt><trkpt lat="41.3224417" lon="0.9938917"><ele>991.6666666666666</ele><time>2026-04-24T16:02:21.921Z</time></trkpt><trkpt lat="41.32247" lon="0.9941167"><ele>991.0</ele><time>2026-04-24T16:02:22.921Z</time></trkpt><trkpt lat="41.3225017" lon="0.994335"><ele>991.5</ele><time>2026-04-24T16:02:23.922Z</time></trkpt><trkpt lat="41.322535" lon="0.9945417"><ele>992.0</ele><time>2026-04-24T16:02:24.922Z</time></trkpt><trkpt lat="41.3225533" lon="0.9947233"><ele>992.5</ele><time>2026-04-24T16:02:25.921Z</time></trkpt><trkpt lat="41.3225517" lon="0.9948817"><ele>993.0</ele><time>2026-04-24T16:02:26.922Z</time></trkpt><trkpt lat="41.322525" lon="0.995035"><ele>993.0</ele><time>2026-04-24T16:02:27.921Z</time></trkpt><trkpt lat="41.3224583" lon="0.9951733"><ele>993.0</ele><time>2026-04-24T16:02:28.922Z</time></trkpt><trkpt lat="41.3223817" lon="0.99525"><ele>993.0</ele><time>2026-04-24T16:02:29.922Z</time></trkpt><trkpt lat="41.3222917" lon="0.9952883"><ele>993.0</ele><time>2026-04-24T16:02:30.921Z</time></trkpt><trkpt lat="41.3222033" lon="0.9952883"><ele>993.0</ele><time>2026-04-24T16:02:31.921Z</time></trkpt><trkpt lat="41.3221267" lon="0.9952567"><ele>992.5</ele><time>2026-04-24T16:02:32.922Z</time></trkpt><trkpt lat="41.322045" lon="0.9952033"><ele>992.0</ele><time>2026-04-24T16:02:33.922Z</time></trkpt><trkpt lat="41.3219367" lon="0.995105"><ele>991.5</ele><time>2026-04-24T16:02:34.922Z</time></trkpt><trkpt lat="41.3218167" lon="0.9949883"><ele>991.0</ele><time>2026-04-24T16:02:35.922Z</time></trkpt><trkpt lat="41.3216917" lon="0.99487"><ele>991.0</ele><time>2026-04-24T16:02:36.922Z</time></trkpt><trkpt lat="41.3215817" lon="0.9947367"><ele>991.0</ele><time>2026-04-24T16:02:37.922Z</time></trkpt><trkpt lat="41.321465" lon="0.99459"><ele>991.0</ele><time>2026-04-24T16:02:38.921Z</time></trkpt><trkpt lat="41.3213517" lon="0.99442"><ele>990.3333333333333</ele><time>2026-04-24T16:02:39.921Z</time></trkpt><trkpt lat="41.3212383" lon="0.9942583"><ele>989.6666666666667</ele><time>2026-04-24T16:02:40.922Z</time></trkpt><trkpt lat="41.3211283" lon="0.9941133"><ele>989.0</ele><time>2026-04-24T16:02:41.922Z</time></trkpt><trkpt lat="41.32102" lon="0.9939833"><ele>989.0</ele><time>2026-04-24T16:02:42.921Z</time></trkpt><trkpt lat="41.32091" lon="0.9938717"><ele>989.0</ele><time>2026-04-24T16:02:43.921Z</time></trkpt><trkpt lat="41.3208" lon="0.993765"><ele>989.0</ele><time>2026-04-24T16:02:44.921Z</time></trkpt><trkpt lat="41.3207183" lon="0.9936317"><ele>989.0</ele><time>2026-04-24T16:02:45.922Z</time></trkpt><trkpt lat="41.3206867" lon="0.9934633"><ele>986.3333333333334</ele><time>2026-04-24T16:02:46.921Z</time></trkpt><trkpt lat="41.3206617" lon="0.9932667"><ele>983.6666666666667</ele><time>2026-04-24T16:02:47.921Z</time></trkpt><trkpt lat="41.3206183" lon="0.9930583"><ele>981.0</ele><time>2026-04-24T16:02:48.921Z</time></trkpt><trkpt lat="41.320545" lon="0.9928583"><ele>983.6666666666667</ele><time>2026-04-24T16:02:49.922Z</time></trkpt><trkpt lat="41.3204417" lon="0.9926633"><ele>986.3333333333334</ele><time>2026-04-24T16:02:50.921Z</time></trkpt><trkpt lat="41.3203317" lon="0.9924967"><ele>989.0</ele><time>2026-04-24T16:02:51.921Z</time></trkpt><trkpt lat="41.3202017" lon="0.992325"><ele>989.0</ele><time>2026-04-24T16:02:52.921Z</time></trkpt><trkpt lat="41.3200867" lon="0.992175"><ele>989.0</ele><time>2026-04-24T16:02:53.922Z</time></trkpt><trkpt lat="41.3199783" lon="0.9920283"><ele>989.0</ele><time>2026-04-24T16:02:54.921Z</time></trkpt><trkpt lat="41.3198867" lon="0.9918667"><ele>992.0</ele><time>2026-04-24T16:02:55.921Z</time></trkpt><trkpt lat="41.31982" lon="0.991665"><ele>995.0</ele><time>2026-04-24T16:02:56.921Z</time></trkpt><trkpt lat="41.319755" lon="0.9914717"><ele>998.0</ele><time>2026-04-24T16:02:57.921Z</time></trkpt><trkpt lat="41.3196817" lon="0.9912783"><ele>998.0</ele><time>2026-04-24T16:02:58.922Z</time></trkpt><trkpt lat="41.3195783" lon="0.99111"><ele>998.0</ele><time>2026-04-24T16:02:59.922Z</time></trkpt><trkpt lat="41.3194617" lon="0.9909483"><ele>998.0</ele><time>2026-04-24T16:03:00.922Z</time></trkpt><trkpt lat="41.319345" lon="0.9908017"><ele>993.5</ele><time>2026-04-24T16:03:01.921Z</time></trkpt><trkpt lat="41.3192333" lon="0.99065"><ele>989.0</ele><time>2026-04-24T16:03:02.921Z</time></trkpt><trkpt lat="41.3191417" lon="0.9905067"><ele>984.5</ele><time>2026-04-24T16:03:03.922Z</time></trkpt><trkpt lat="41.3190733" lon="0.9903383"><ele>980.0</ele><time>2026-04-24T16:03:04.922Z</time></trkpt><trkpt lat="41.3190067" lon="0.9901667"><ele>979.25</ele><time>2026-04-24T16:03:05.921Z</time></trkpt><trkpt lat="41.3189267" lon="0.9900067"><ele>978.5</ele><time>2026-04-24T16:03:06.921Z</time></trkpt><trkpt lat="41.3188217" lon="0.9898567"><ele>977.75</ele><time>2026-04-24T16:03:07.922Z</time></trkpt><trkpt lat="41.3187133" lon="0.98972"><ele>977.0</ele><time>2026-04-24T16:03:08.921Z</time></trkpt><trkpt lat="41.3185867" lon="0.9895983"><ele>977.0</ele><time>2026-04-24T16:03:09.921Z</time></trkpt><trkpt lat="41.31846" lon="0.9894867"><ele>977.0</ele><time>2026-04-24T16:03:10.922Z</time></trkpt><trkpt lat="41.3183517" lon="0.9893817"><ele>977.0</ele><time>2026-04-24T16:03:11.922Z</time></trkpt><trkpt lat="41.3182467" lon="0.9893"><ele>977.0</ele><time>2026-04-24T16:03:12.922Z</time></trkpt><trkpt lat="41.318145" lon="0.9892333"><ele>977.75</ele><time>2026-04-24T16:03:13.921Z</time></trkpt><trkpt lat="41.31803" lon="0.9891967"><ele>978.5</ele><time>2026-04-24T16:03:14.922Z</time></trkpt><trkpt lat="41.317905" lon="0.9891983"><ele>979.25</ele><time>2026-04-24T16:03:15.921Z</time></trkpt><trkpt lat="41.31779" lon="0.9892333"><ele>980.0</ele><time>2026-04-24T16:03:16.922Z</time></trkpt><trkpt lat="41.3176767" lon="0.9892383"><ele>980.0</ele><time>2026-04-24T16:03:17.921Z</time></trkpt><trkpt lat="41.3175833" lon="0.98919"><ele>980.0</ele><time>2026-04-24T16:03:18.922Z</time></trkpt><trkpt lat="41.3174967" lon="0.9890833"><ele>980.0</ele><time>2026-04-24T16:03:19.921Z</time></trkpt><trkpt lat="41.3174383" lon="0.9889417"><ele>980.0</ele><time>2026-04-24T16:03:20.921Z</time></trkpt><trkpt lat="41.317395" lon="0.9887783"><ele>977.75</ele><time>2026-04-24T16:03:21.921Z</time></trkpt><trkpt lat="41.3173317" lon="0.9886267"><ele>975.5</ele><time>2026-04-24T16:03:22.921Z</time></trkpt><trkpt lat="41.31725" lon="0.98848"><ele>973.25</ele><time>2026-04-24T16:03:23.922Z</time></trkpt><trkpt lat="41.3171567" lon="0.9883683"><ele>971.0</ele><time>2026-04-24T16:03:24.921Z</time></trkpt><trkpt lat="41.31705" lon="0.9882633"><ele>971.0</ele><time>2026-04-24T16:03:25.922Z</time></trkpt><trkpt lat="41.31694" lon="0.98817"><ele>971.0</ele><time>2026-04-24T16:03:26.921Z</time></trkpt><trkpt lat="41.3168217" lon="0.9880783"><ele>971.0</ele><time>2026-04-24T16:03:27.922Z</time></trkpt><trkpt lat="41.316695" lon="0.9880017"><ele>971.0</ele><time>2026-04-24T16:03:28.921Z</time></trkpt><trkpt lat="41.316555" lon="0.987955"><ele>971.0</ele><time>2026-04-24T16:03:29.922Z</time></trkpt><trkpt lat="41.31642" lon="0.98793"><ele>971.0</ele><time>2026-04-24T16:03:30.922Z</time></trkpt><trkpt lat="41.31627" lon="0.9879067"><ele>971.0</ele><time>2026-04-24T16:03:31.921Z</time></trkpt><trkpt lat="41.3161267" lon="0.9878867"><ele>971.0</ele><time>2026-04-24T16:03:32.921Z</time></trkpt><trkpt lat="41.3159917" lon="0.9878667"><ele>971.5999999999999</ele><time>2026-04-24T16:03:33.922Z</time></trkpt><trkpt lat="41.3158983" lon="0.987875"><ele>972.1999999999999</ele><time>2026-04-24T16:03:34.921Z</time></trkpt><trkpt lat="41.3157917" lon="0.9878783"><ele>972.8000000000001</ele><time>2026-04-24T16:03:35.921Z</time></trkpt><trkpt lat="41.3156867" lon="0.987905"><ele>973.4000000000001</ele><time>2026-04-24T16:03:36.921Z</time></trkpt><trkpt lat="41.3155767" lon="0.987955"><ele>974.0</ele><time>2026-04-24T16:03:37.922Z</time></trkpt><trkpt lat="41.3154667" lon="0.9880183"><ele>970.25</ele><time>2026-04-24T16:03:38.922Z</time></trkpt><trkpt lat="41.315355" lon="0.9880917"><ele>966.5</ele><time>2026-04-24T16:03:39.921Z</time></trkpt><trkpt lat="41.315255" lon="0.9881767"><ele>962.75</ele><time>2026-04-24T16:03:40.922Z</time></trkpt><trkpt lat="41.3151633" lon="0.98825"><ele>959.0</ele><time>2026-04-24T16:03:41.922Z</time></trkpt><trkpt lat="41.31506" lon="0.9883117"><ele>959.0</ele><time>2026-04-24T16:03:42.922Z</time></trkpt><trkpt lat="41.314945" lon="0.9883667"><ele>959.0</ele><time>2026-04-24T16:03:43.922Z</time></trkpt><trkpt lat="41.31482" lon="0.9883917"><ele>959.0</ele><time>2026-04-24T16:03:44.921Z</time></trkpt><trkpt lat="41.3147033" lon="0.9883683"><ele>959.0</ele><time>2026-04-24T16:03:45.921Z</time></trkpt><trkpt lat="41.314585" lon="0.9883"><ele>959.0</ele><time>2026-04-24T16:03:46.922Z</time></trkpt><trkpt lat="41.314485" lon="0.9881883"><ele>959.0</ele><time>2026-04-24T16:03:47.922Z</time></trkpt><trkpt lat="41.3143917" lon="0.9880683"><ele>959.0</ele><time>2026-04-24T16:03:48.921Z</time></trkpt><trkpt lat="41.314305" lon="0.9879567"><ele>959.0</ele><time>2026-04-24T16:03:49.922Z</time></trkpt><trkpt lat="41.3142317" lon="0.98785"><ele>959.0</ele><time>2026-04-24T16:03:50.921Z</time></trkpt><trkpt lat="41.3141467" lon="0.9877433"><ele>959.0</ele><time>2026-04-24T16:03:51.921Z</time></trkpt><trkpt lat="41.3140617" lon="0.9876217"><ele>959.0</ele><time>2026-04-24T16:03:52.922Z</time></trkpt><trkpt lat="41.3139717" lon="0.9875033"><ele>959.0</ele><time>2026-04-24T16:03:53.921Z</time></trkpt><trkpt lat="41.3138783" lon="0.98738"><ele>958.25</ele><time>2026-04-24T16:03:54.921Z</time></trkpt><trkpt lat="41.3137933" lon="0.98727"><ele>957.5</ele><time>2026-04-24T16:03:55.922Z</time></trkpt><trkpt lat="41.313705" lon="0.987145"><ele>956.75</ele><time>2026-04-24T16:03:56.921Z</time></trkpt><trkpt lat="41.3136133" lon="0.9870217"><ele>956.0</ele><time>2026-04-24T16:03:57.922Z</time></trkpt><trkpt lat="41.31352" lon="0.986905"><ele>956.0</ele><time>2026-04-24T16:03:58.921Z</time></trkpt><trkpt lat="41.31343" lon="0.9868"><ele>955.9999999999999</ele><time>2026-04-24T16:03:59.921Z</time></trkpt><trkpt lat="41.3133333" lon="0.98674"><ele>955.9999999999999</ele><time>2026-04-24T16:04:00.922Z</time></trkpt><trkpt lat="41.3132383" lon="0.986705"><ele>956.0</ele><time>2026-04-24T16:04:01.921Z</time></trkpt><trkpt lat="41.3131533" lon="0.986715"><ele>956.0</ele><time>2026-04-24T16:04:02.922Z</time></trkpt><trkpt lat="41.313075" lon="0.9867517"><ele>955.0000000000001</ele><time>2026-04-24T16:04:03.921Z</time></trkpt><trkpt lat="41.31301" lon="0.9868033"><ele>954.0</ele><time>2026-04-24T16:04:04.922Z</time></trkpt><trkpt lat="41.31295" lon="0.98687"><ele>953.0</ele><time>2026-04-24T16:04:05.922Z</time></trkpt><trkpt lat="41.312895" lon="0.9869483"><ele>952.0</ele><time>2026-04-24T16:04:06.921Z</time></trkpt><trkpt lat="41.3128367" lon="0.987025"><ele>951.0000000000001</ele><time>2026-04-24T16:04:07.921Z</time></trkpt><trkpt lat="41.3127717" lon="0.9871033"><ele>950.0</ele><time>2026-04-24T16:04:08.922Z</time></trkpt><trkpt lat="41.3127" lon="0.9871883"><ele>950.0000000000001</ele><time>2026-04-24T16:04:09.921Z</time></trkpt><trkpt lat="41.3126367" lon="0.9872683"><ele>950.0</ele><time>2026-04-24T16:04:10.921Z</time></trkpt><trkpt lat="41.3125833" lon="0.9873533"><ele>950.0</ele><time>2026-04-24T16:04:11.921Z</time></trkpt><trkpt lat="41.3125233" lon="0.9874183"><ele>950.0</ele><time>2026-04-24T16:04:12.921Z</time></trkpt><trkpt lat="41.3124683" lon="0.9874717"><ele>950.0000000000001</ele><time>2026-04-24T16:04:13.921Z</time></trkpt><trkpt lat="41.312395" lon="0.9874817"><ele>950.0</ele><time>2026-04-24T16:04:15.921Z</time></trkpt><trkpt lat="41.312375" lon="0.9873767"><ele>950.0000000000001</ele><time>2026-04-24T16:04:17.921Z</time></trkpt><trkpt lat="41.3124233" lon="0.9872567"><ele>950.0</ele><time>2026-04-24T16:04:19.921Z</time></trkpt><trkpt lat="41.3124683" lon="0.9871617"><ele>950.0</ele><time>2026-04-24T16:04:21.922Z</time></trkpt><trkpt lat="41.31247" lon="0.98706"><ele>950.0</ele><time>2026-04-24T16:04:24.921Z</time></trkpt><trkpt lat="41.312485" lon="0.9869483"><ele>950.0000000000001</ele><time>2026-04-24T16:06:54.922Z</time></trkpt><trkpt lat="41.312485" lon="0.9868367"><ele>950.0</ele><time>2026-04-24T16:06:56.922Z</time></trkpt><trkpt lat="41.3124317" lon="0.9867883"><ele>950.0000000000001</ele><time>2026-04-24T16:06:58.921Z</time></trkpt><trkpt lat="41.31238" lon="0.986915"><ele>950.0</ele><time>2026-04-24T16:09:16.922Z</time></trkpt><trkpt lat="41.312405" lon="0.9870033"><ele>950.0</ele><time>2026-04-24T16:09:17.921Z</time></trkpt><trkpt lat="41.3124333" lon="0.9871"><ele>950.0</ele><time>2026-04-24T16:09:18.921Z</time></trkpt><trkpt lat="41.3124167" lon="0.987245"><ele>950.0000000000001</ele><time>2026-04-24T16:09:20.922Z</time></trkpt><trkpt lat="41.312385" lon="0.98732"><ele>950.0</ele><time>2026-04-24T16:09:21.921Z</time></trkpt><trkpt lat="41.31236" lon="0.9874117"><ele>950.0000000000001</ele><time>2026-04-24T16:09:22.921Z</time></trkpt><trkpt lat="41.3123433" lon="0.9874933"><ele>950.0</ele><time>2026-04-24T16:09:23.922Z</time></trkpt><trkpt lat="41.312315" lon="0.98761"><ele>950.0</ele><time>2026-04-24T16:09:25.922Z</time></trkpt><trkpt lat="41.3122767" lon="0.9876833"><ele>950.0</ele><time>2026-04-24T16:09:26.921Z</time></trkpt><trkpt lat="41.31221" lon="0.9877683"><ele>950.0000000000001</ele><time>2026-04-24T16:09:27.922Z</time></trkpt><trkpt lat="41.31213" lon="0.9878533"><ele>950.0</ele><time>2026-04-24T16:09:28.921Z</time></trkpt><trkpt lat="41.31205" lon="0.9879533"><ele>950.0</ele><time>2026-04-24T16:09:29.922Z</time></trkpt><trkpt lat="41.3119717" lon="0.9880533"><ele>950.0</ele><time>2026-04-24T16:09:30.921Z</time></trkpt><trkpt lat="41.3119" lon="0.9881433"><ele>950.0</ele><time>2026-04-24T16:09:31.922Z</time></trkpt><trkpt lat="41.3118333" lon="0.9882233"><ele>950.0</ele><time>2026-04-24T16:09:32.922Z</time></trkpt><trkpt lat="41.3117717" lon="0.9883083"><ele>950.0</ele><time>2026-04-24T16:09:33.921Z</time></trkpt><trkpt lat="41.31171" lon="0.9883767"><ele>950.0000000000001</ele><time>2026-04-24T16:09:34.922Z</time></trkpt><trkpt lat="41.3116567" lon="0.98845"><ele>950.0</ele><time>2026-04-24T16:09:35.922Z</time></trkpt><trkpt lat="41.3115983" lon="0.9885117"><ele>950.0</ele><time>2026-04-24T16:09:36.921Z</time></trkpt><trkpt lat="41.3115417" lon="0.9885733"><ele>950.0</ele><time>2026-04-24T16:09:37.922Z</time></trkpt><trkpt lat="41.3114817" lon="0.9886233"><ele>950.0000000000001</ele><time>2026-04-24T16:09:38.922Z</time></trkpt><trkpt lat="41.3114067" lon="0.9886683"><ele>950.0</ele><time>2026-04-24T16:09:39.921Z</time></trkpt><trkpt lat="41.3113217" lon="0.9886883"><ele>949.5000000000001</ele><time>2026-04-24T16:09:40.921Z</time></trkpt><trkpt lat="41.3112283" lon="0.9886933"><ele>949.0</ele><time>2026-04-24T16:09:41.922Z</time></trkpt><trkpt lat="41.3111333" lon="0.9886917"><ele>948.5</ele><time>2026-04-24T16:09:42.921Z</time></trkpt><trkpt lat="41.3110533" lon="0.9886883"><ele>948.0</ele><time>2026-04-24T16:09:43.922Z</time></trkpt><trkpt lat="41.310975" lon="0.9886867"><ele>947.5000000000001</ele><time>2026-04-24T16:09:44.921Z</time></trkpt><trkpt lat="41.3109067" lon="0.9886867"><ele>947.0</ele><time>2026-04-24T16:09:45.921Z</time></trkpt><trkpt lat="41.3107917" lon="0.9886867"><ele>947.0</ele><time>2026-04-24T16:09:47.922Z</time></trkpt><trkpt lat="41.3107" lon="0.9886817"><ele>947.0</ele><time>2026-04-24T16:09:49.921Z</time></trkpt><trkpt lat="41.3106183" lon="0.9886733"><ele>947.0</ele><time>2026-04-24T16:09:51.922Z</time></trkpt><trkpt lat="41.3104967" lon="0.9886817"><ele>947.0</ele><time>2026-04-24T16:09:53.921Z</time></trkpt><trkpt lat="41.3104167" lon="0.988675"><ele>947.0</ele><time>2026-04-24T16:09:54.921Z</time></trkpt><trkpt lat="41.31033" lon="0.9886783"><ele>949.2</ele><time>2026-04-24T16:09:55.921Z</time></trkpt><trkpt lat="41.3102317" lon="0.9886717"><ele>951.4000000000001</ele><time>2026-04-24T16:09:56.921Z</time></trkpt><trkpt lat="41.3101467" lon="0.9886667"><ele>953.5999999999999</ele><time>2026-04-24T16:09:57.922Z</time></trkpt><trkpt lat="41.3100533" lon="0.9886617"><ele>955.8</ele><time>2026-04-24T16:09:58.921Z</time></trkpt><trkpt lat="41.3099533" lon="0.9886517"><ele>958.0</ele><time>2026-04-24T16:09:59.921Z</time></trkpt><trkpt lat="41.309855" lon="0.9886433"><ele>957.9999999999999</ele><time>2026-04-24T16:10:00.922Z</time></trkpt><trkpt lat="41.30976" lon="0.9886583"><ele>958.0</ele><time>2026-04-24T16:10:01.922Z</time></trkpt><trkpt lat="41.3096617" lon="0.9886617"><ele>958.0</ele><time>2026-04-24T16:10:02.922Z</time></trkpt><trkpt lat="41.309575" lon="0.9886717"><ele>958.0</ele><time>2026-04-24T16:10:03.921Z</time></trkpt><trkpt lat="41.3094917" lon="0.9886533"><ele>957.9999999999999</ele><time>2026-04-24T16:10:04.922Z</time></trkpt><trkpt lat="41.3094267" lon="0.9886067"><ele>958.0</ele><time>2026-04-24T16:10:05.921Z</time></trkpt><trkpt lat="41.30936" lon="0.9885333"><ele>957.2</ele><time>2026-04-24T16:10:06.922Z</time></trkpt><trkpt lat="41.3092983" lon="0.9884383"><ele>956.4</ele><time>2026-04-24T16:10:07.922Z</time></trkpt><trkpt lat="41.3092367" lon="0.9883483"><ele>955.6000000000001</ele><time>2026-04-24T16:10:08.921Z</time></trkpt><trkpt lat="41.3091733" lon="0.98827"><ele>954.8000000000001</ele><time>2026-04-24T16:10:09.921Z</time></trkpt><trkpt lat="41.3091117" lon="0.9881833"><ele>954.0</ele><time>2026-04-24T16:10:10.921Z</time></trkpt><trkpt lat="41.3090483" lon="0.988095"><ele>954.0</ele><time>2026-04-24T16:10:11.922Z</time></trkpt><trkpt lat="41.308985" lon="0.9880167"><ele>954.0</ele><time>2026-04-24T16:10:12.922Z</time></trkpt><trkpt lat="41.3089267" lon="0.9879333"><ele>954.0</ele><time>2026-04-24T16:10:13.922Z</time></trkpt><trkpt lat="41.3089" lon="0.9878383"><ele>954.0</ele><time>2026-04-24T16:10:14.922Z</time></trkpt><trkpt lat="41.308885" lon="0.987715"><ele>954.0</ele><time>2026-04-24T16:10:15.921Z</time></trkpt><trkpt lat="41.3088867" lon="0.9875833"><ele>954.0</ele><time>2026-04-24T16:10:16.921Z</time></trkpt><trkpt lat="41.308895" lon="0.987455"><ele>954.0</ele><time>2026-04-24T16:10:17.922Z</time></trkpt><trkpt lat="41.3089033" lon="0.98733"><ele>954.0000000000001</ele><time>2026-04-24T16:10:18.922Z</time></trkpt><trkpt lat="41.3089117" lon="0.987205"><ele>954.0000000000001</ele><time>2026-04-24T16:10:19.921Z</time></trkpt><trkpt lat="41.3089167" lon="0.9870817"><ele>954.0</ele><time>2026-04-24T16:10:20.922Z</time></trkpt><trkpt lat="41.3089283" lon="0.986955"><ele>954.0</ele><time>2026-04-24T16:10:21.921Z</time></trkpt><trkpt lat="41.308935" lon="0.9868283"><ele>954.0</ele><time>2026-04-24T16:10:22.922Z</time></trkpt><trkpt lat="41.3089467" lon="0.9866967"><ele>954.0000000000001</ele><time>2026-04-24T16:10:23.921Z</time></trkpt><trkpt lat="41.3089533" lon="0.9865517"><ele>954.0000000000001</ele><time>2026-04-24T16:10:24.922Z</time></trkpt><trkpt lat="41.3089567" lon="0.9863967"><ele>954.0</ele><time>2026-04-24T16:10:25.921Z</time></trkpt><trkpt lat="41.3089517" lon="0.9862417"><ele>954.0</ele><time>2026-04-24T16:10:26.921Z</time></trkpt><trkpt lat="41.3089417" lon="0.9860833"><ele>953.75</ele><time>2026-04-24T16:10:27.921Z</time></trkpt><trkpt lat="41.308925" lon="0.9859217"><ele>953.5</ele><time>2026-04-24T16:10:28.922Z</time></trkpt><trkpt lat="41.3088983" lon="0.9857667"><ele>953.25</ele><time>2026-04-24T16:10:29.922Z</time></trkpt><trkpt lat="41.308875" lon="0.98561"><ele>953.0</ele><time>2026-04-24T16:10:30.922Z</time></trkpt><trkpt lat="41.30885" lon="0.985455"><ele>949.75</ele><time>2026-04-24T16:10:31.922Z</time></trkpt><trkpt lat="41.3088233" lon="0.9853017"><ele>946.5</ele><time>2026-04-24T16:10:32.921Z</time></trkpt><trkpt lat="41.3087983" lon="0.9851483"><ele>943.25</ele><time>2026-04-24T16:10:33.921Z</time></trkpt><trkpt lat="41.3087717" lon="0.9849917"><ele>940.0</ele><time>2026-04-24T16:10:34.921Z</time></trkpt><trkpt lat="41.3087517" lon="0.98482"><ele>939.25</ele><time>2026-04-24T16:10:35.921Z</time></trkpt><trkpt lat="41.3087567" lon="0.98465"><ele>938.5</ele><time>2026-04-24T16:10:36.921Z</time></trkpt><trkpt lat="41.3087883" lon="0.984495"><ele>937.75</ele><time>2026-04-24T16:10:37.922Z</time></trkpt><trkpt lat="41.308845" lon="0.9843367"><ele>937.0</ele><time>2026-04-24T16:10:38.922Z</time></trkpt><trkpt lat="41.308925" lon="0.9841933"><ele>937.25</ele><time>2026-04-24T16:10:39.921Z</time></trkpt><trkpt lat="41.309025" lon="0.984065"><ele>937.5</ele><time>2026-04-24T16:10:40.921Z</time></trkpt><trkpt lat="41.309155" lon="0.9839833"><ele>937.75</ele><time>2026-04-24T16:10:41.921Z</time></trkpt><trkpt lat="41.3092983" lon="0.98393"><ele>938.0</ele><time>2026-04-24T16:10:42.921Z</time></trkpt><trkpt lat="41.30945" lon="0.9838967"><ele>938.0</ele><time>2026-04-24T16:10:43.921Z</time></trkpt><trkpt lat="41.3095933" lon="0.98385"><ele>938.0</ele><time>2026-04-24T16:10:44.922Z</time></trkpt><trkpt lat="41.3097333" lon="0.9837967"><ele>938.0</ele><time>2026-04-24T16:10:45.922Z</time></trkpt><trkpt lat="41.3098683" lon="0.983735"><ele>938.0</ele><time>2026-04-24T16:10:46.922Z</time></trkpt><trkpt lat="41.3099967" lon="0.98365"><ele>938.0</ele><time>2026-04-24T16:10:47.922Z</time></trkpt><trkpt lat="41.310125" lon="0.9835633"><ele>938.0</ele><time>2026-04-24T16:10:48.921Z</time></trkpt><trkpt lat="41.3102433" lon="0.983445"><ele>938.0</ele><time>2026-04-24T16:10:49.921Z</time></trkpt><trkpt lat="41.3103367" lon="0.9832917"><ele>938.0</ele><time>2026-04-24T16:10:50.922Z</time></trkpt><trkpt lat="41.310415" lon="0.9831017"><ele>936.3333333333334</ele><time>2026-04-24T16:10:51.922Z</time></trkpt><trkpt lat="41.310475" lon="0.9829"><ele>934.6666666666667</ele><time>2026-04-24T16:10:52.921Z</time></trkpt><trkpt lat="41.310515" lon="0.9826833"><ele>933.0</ele><time>2026-04-24T16:10:53.922Z</time></trkpt><trkpt lat="41.3105583" lon="0.9824633"><ele>931.3333333333333</ele><time>2026-04-24T16:10:54.922Z</time></trkpt><trkpt lat="41.310605" lon="0.9822467"><ele>929.6666666666666</ele><time>2026-04-24T16:10:55.922Z</time></trkpt><trkpt lat="41.31066" lon="0.982025"><ele>928.0</ele><time>2026-04-24T16:10:56.922Z</time></trkpt><trkpt lat="41.310715" lon="0.9818033"><ele>927.6666666666666</ele><time>2026-04-24T16:10:57.921Z</time></trkpt><trkpt lat="41.3107667" lon="0.9815917"><ele>927.3333333333333</ele><time>2026-04-24T16:10:58.922Z</time></trkpt><trkpt lat="41.3108217" lon="0.9813933"><ele>927.0</ele><time>2026-04-24T16:10:59.922Z</time></trkpt><trkpt lat="41.3108683" lon="0.9811917"><ele>927.0</ele><time>2026-04-24T16:11:00.921Z</time></trkpt><trkpt lat="41.3109133" lon="0.981"><ele>927.0</ele><time>2026-04-24T16:11:01.921Z</time></trkpt><trkpt lat="41.3109533" lon="0.9808283"><ele>927.0</ele><time>2026-04-24T16:11:02.921Z</time></trkpt><trkpt lat="41.3109833" lon="0.98066"><ele>927.0</ele><time>2026-04-24T16:11:03.921Z</time></trkpt><trkpt lat="41.31099" lon="0.9804967"><ele>926.75</ele><time>2026-04-24T16:11:04.921Z</time></trkpt><trkpt lat="41.3109617" lon="0.98034"><ele>926.5</ele><time>2026-04-24T16:11:05.922Z</time></trkpt><trkpt lat="41.310935" lon="0.9801867"><ele>926.25</ele><time>2026-04-24T16:11:06.921Z</time></trkpt><trkpt lat="41.310935" lon="0.980045"><ele>926.0</ele><time>2026-04-24T16:11:07.921Z</time></trkpt><trkpt lat="41.310975" lon="0.9798983"><ele>925.75</ele><time>2026-04-24T16:11:08.921Z</time></trkpt><trkpt lat="41.3110533" lon="0.97977"><ele>925.5</ele><time>2026-04-24T16:11:09.922Z</time></trkpt><trkpt lat="41.3111567" lon="0.9796617"><ele>925.25</ele><time>2026-04-24T16:11:10.922Z</time></trkpt><trkpt lat="41.31128" lon="0.9795633"><ele>925.0</ele><time>2026-04-24T16:11:11.922Z</time></trkpt><trkpt lat="41.3114183" lon="0.9794633"><ele>925.0</ele><time>2026-04-24T16:11:12.921Z</time></trkpt><trkpt lat="41.311565" lon="0.9793467"><ele>925.0</ele><time>2026-04-24T16:11:13.922Z</time></trkpt><trkpt lat="41.311705" lon="0.9792067"><ele>925.0</ele><time>2026-04-24T16:11:14.922Z</time></trkpt><trkpt lat="41.311835" lon="0.9790433"><ele>924.6666666666666</ele><time>2026-04-24T16:11:15.921Z</time></trkpt><trkpt lat="41.311965" lon="0.9788617"><ele>924.3333333333333</ele><time>2026-04-24T16:11:16.921Z</time></trkpt><trkpt lat="41.3120967" lon="0.97867"><ele>924.0</ele><time>2026-04-24T16:11:17.922Z</time></trkpt><trkpt lat="41.312245" lon="0.9784817"><ele>926.0</ele><time>2026-04-24T16:11:18.922Z</time></trkpt><trkpt lat="41.3123783" lon="0.9783133"><ele>928.0</ele><time>2026-04-24T16:11:19.922Z</time></trkpt><trkpt lat="41.3124917" lon="0.9781567"><ele>930.0</ele><time>2026-04-24T16:11:20.922Z</time></trkpt><trkpt lat="41.3126033" lon="0.978"><ele>930.0</ele><time>2026-04-24T16:11:21.921Z</time></trkpt><trkpt lat="41.3127217" lon="0.9778317"><ele>930.0</ele><time>2026-04-24T16:11:22.922Z</time></trkpt><trkpt lat="41.3128483" lon="0.97766"><ele>930.0</ele><time>2026-04-24T16:11:23.922Z</time></trkpt><trkpt lat="41.31297" lon="0.9774683"><ele>927.6666666666667</ele><time>2026-04-24T16:11:24.922Z</time></trkpt><trkpt lat="41.3131" lon="0.9772783"><ele>925.3333333333334</ele><time>2026-04-24T16:11:25.921Z</time></trkpt><trkpt lat="41.3132317" lon="0.9770933"><ele>923.0</ele><time>2026-04-24T16:11:26.921Z</time></trkpt><trkpt lat="41.3133633" lon="0.9769117"><ele>923.0</ele><time>2026-04-24T16:11:27.922Z</time></trkpt><trkpt lat="41.31349" lon="0.976745"><ele>923.0</ele><time>2026-04-24T16:11:28.921Z</time></trkpt><trkpt lat="41.313605" lon="0.976575"><ele>923.0</ele><time>2026-04-24T16:11:29.921Z</time></trkpt><trkpt lat="41.3136983" lon="0.9763967"><ele>925.6666666666667</ele><time>2026-04-24T16:11:30.922Z</time></trkpt><trkpt lat="41.31377" lon="0.9762"><ele>928.3333333333333</ele><time>2026-04-24T16:11:31.922Z</time></trkpt><trkpt lat="41.313825" lon="0.9759683"><ele>931.0</ele><time>2026-04-24T16:11:32.922Z</time></trkpt><trkpt lat="41.3138683" lon="0.9757233"><ele>929.6666666666666</ele><time>2026-04-24T16:11:33.921Z</time></trkpt><trkpt lat="41.3139117" lon="0.975465"><ele>928.3333333333333</ele><time>2026-04-24T16:11:34.921Z</time></trkpt><trkpt lat="41.3139517" lon="0.9752083"><ele>927.0</ele><time>2026-04-24T16:11:35.921Z</time></trkpt><trkpt lat="41.3139833" lon="0.974945"><ele>927.0</ele><time>2026-04-24T16:11:36.921Z</time></trkpt><trkpt lat="41.314015" lon="0.974675"><ele>927.0</ele><time>2026-04-24T16:11:37.922Z</time></trkpt><trkpt lat="41.3140317" lon="0.9743883"><ele>927.0</ele><time>2026-04-24T16:11:38.921Z</time></trkpt><trkpt lat="41.31403" lon="0.9741"><ele>927.0</ele><time>2026-04-24T16:11:39.921Z</time></trkpt><trkpt lat="41.3140183" lon="0.9738083"><ele>927.0</ele><time>2026-04-24T16:11:40.921Z</time></trkpt><trkpt lat="41.3139983" lon="0.9735067"><ele>927.0</ele><time>2026-04-24T16:11:41.922Z</time></trkpt><trkpt lat="41.3139867" lon="0.9732067"><ele>928.0</ele><time>2026-04-24T16:11:42.922Z</time></trkpt><trkpt lat="41.313975" lon="0.97291"><ele>929.0</ele><time>2026-04-24T16:11:43.921Z</time></trkpt><trkpt lat="41.3139683" lon="0.97262"><ele>930.0</ele><time>2026-04-24T16:11:44.922Z</time></trkpt><trkpt lat="41.313965" lon="0.972345"><ele>930.0</ele><time>2026-04-24T16:11:45.921Z</time></trkpt><trkpt lat="41.31396" lon="0.9720817"><ele>930.0</ele><time>2026-04-24T16:11:46.922Z</time></trkpt><trkpt lat="41.313955" lon="0.97183"><ele>930.0</ele><time>2026-04-24T16:11:47.921Z</time></trkpt><trkpt lat="41.31395" lon="0.9715833"><ele>930.0</ele><time>2026-04-24T16:11:48.921Z</time></trkpt><trkpt lat="41.3139367" lon="0.9713433"><ele>930.0</ele><time>2026-04-24T16:11:49.921Z</time></trkpt><trkpt lat="41.313905" lon="0.97111"><ele>930.0</ele><time>2026-04-24T16:11:50.921Z</time></trkpt><trkpt lat="41.3138417" lon="0.9708833"><ele>936.3333333333333</ele><time>2026-04-24T16:11:51.922Z</time></trkpt><trkpt lat="41.3137583" lon="0.9706483"><ele>942.6666666666666</ele><time>2026-04-24T16:11:52.922Z</time></trkpt><trkpt lat="41.3136567" lon="0.9704167"><ele>949.0</ele><time>2026-04-24T16:11:53.921Z</time></trkpt><trkpt lat="41.3135483" lon="0.9702"><ele>946.0</ele><time>2026-04-24T16:11:54.921Z</time></trkpt><trkpt lat="41.3134583" lon="0.9700133"><ele>943.0</ele><time>2026-04-24T16:11:55.922Z</time></trkpt><trkpt lat="41.3133833" lon="0.9698333"><ele>940.0</ele><time>2026-04-24T16:11:56.922Z</time></trkpt><trkpt lat="41.3133567" lon="0.969665"><ele>940.0</ele><time>2026-04-24T16:11:57.921Z</time></trkpt><trkpt lat="41.31336" lon="0.96946"><ele>940.0</ele><time>2026-04-24T16:11:58.921Z</time></trkpt><trkpt lat="41.3133833" lon="0.969235"><ele>940.0</ele><time>2026-04-24T16:11:59.922Z</time></trkpt><trkpt lat="41.313415" lon="0.969005"><ele>939.6666666666666</ele><time>2026-04-24T16:12:00.922Z</time></trkpt><trkpt lat="41.3134417" lon="0.9687633"><ele>939.3333333333333</ele><time>2026-04-24T16:12:01.922Z</time></trkpt><trkpt lat="41.3134667" lon="0.96851"><ele>939.0</ele><time>2026-04-24T16:12:02.921Z</time></trkpt><trkpt lat="41.3134933" lon="0.96825"><ele>939.6666666666667</ele><time>2026-04-24T16:12:03.922Z</time></trkpt><trkpt lat="41.31352" lon="0.9679867"><ele>940.3333333333334</ele><time>2026-04-24T16:12:04.922Z</time></trkpt><trkpt lat="41.3135533" lon="0.96773"><ele>941.0</ele><time>2026-04-24T16:12:05.921Z</time></trkpt><trkpt lat="41.3135883" lon="0.9674733"><ele>942.3333333333334</ele><time>2026-04-24T16:12:06.922Z</time></trkpt><trkpt lat="41.313625" lon="0.9672217"><ele>943.6666666666667</ele><time>2026-04-24T16:12:07.921Z</time></trkpt><trkpt lat="41.3136483" lon="0.9669867"><ele>945.0</ele><time>2026-04-24T16:12:08.921Z</time></trkpt><trkpt lat="41.3136633" lon="0.9667717"><ele>946.3333333333333</ele><time>2026-04-24T16:12:09.921Z</time></trkpt><trkpt lat="41.3136717" lon="0.966565"><ele>947.6666666666666</ele><time>2026-04-24T16:12:10.921Z</time></trkpt><trkpt lat="41.3136583" lon="0.9663567"><ele>949.0</ele><time>2026-04-24T16:12:11.921Z</time></trkpt><trkpt lat="41.3136167" lon="0.96615"><ele>949.0</ele><time>2026-04-24T16:12:12.921Z</time></trkpt><trkpt lat="41.3135783" lon="0.9659333"><ele>949.0</ele><time>2026-04-24T16:12:13.922Z</time></trkpt><trkpt lat="41.3135317" lon="0.9657183"><ele>949.0</ele><time>2026-04-24T16:12:14.921Z</time></trkpt><trkpt lat="41.31348" lon="0.9655017"><ele>950.0</ele><time>2026-04-24T16:12:15.922Z</time></trkpt><trkpt lat="41.3134317" lon="0.96531"><ele>951.0</ele><time>2026-04-24T16:12:16.921Z</time></trkpt><trkpt lat="41.3133667" lon="0.9651333"><ele>952.0</ele><time>2026-04-24T16:12:17.921Z</time></trkpt><trkpt lat="41.31327" lon="0.9649483"><ele>952.0</ele><time>2026-04-24T16:12:18.922Z</time></trkpt><trkpt lat="41.3131633" lon="0.9647717"><ele>952.0</ele><time>2026-04-24T16:12:19.922Z</time></trkpt><trkpt lat="41.3130583" lon="0.9646017"><ele>952.0</ele><time>2026-04-24T16:12:20.921Z</time></trkpt><trkpt lat="41.312955" lon="0.9644267"><ele>953.0</ele><time>2026-04-24T16:12:21.921Z</time></trkpt><trkpt lat="41.31285" lon="0.964245"><ele>954.0</ele><time>2026-04-24T16:12:22.921Z</time></trkpt><trkpt lat="41.3127333" lon="0.9640483"><ele>955.0</ele><time>2026-04-24T16:12:23.921Z</time></trkpt><trkpt lat="41.31261" lon="0.9638483"><ele>955.0</ele><time>2026-04-24T16:12:24.922Z</time></trkpt><trkpt lat="41.312475" lon="0.9636483"><ele>955.0</ele><time>2026-04-24T16:12:25.921Z</time></trkpt><trkpt lat="41.3123433" lon="0.96344"><ele>955.0</ele><time>2026-04-24T16:12:26.922Z</time></trkpt><trkpt lat="41.3122" lon="0.9632233"><ele>953.3333333333333</ele><time>2026-04-24T16:12:27.921Z</time></trkpt><trkpt lat="41.3120633" lon="0.9630117"><ele>951.6666666666667</ele><time>2026-04-24T16:12:28.922Z</time></trkpt><trkpt lat="41.3119283" lon="0.9628017"><ele>950.0</ele><time>2026-04-24T16:12:29.921Z</time></trkpt><trkpt lat="41.311795" lon="0.96259"><ele>949.0</ele><time>2026-04-24T16:12:30.922Z</time></trkpt><trkpt lat="41.31166" lon="0.9623783"><ele>948.0</ele><time>2026-04-24T16:12:31.922Z</time></trkpt><trkpt lat="41.3115217" lon="0.9621517"><ele>947.0</ele><time>2026-04-24T16:12:32.921Z</time></trkpt><trkpt lat="41.3113933" lon="0.9619333"><ele>946.6666666666667</ele><time>2026-04-24T16:12:33.921Z</time></trkpt><trkpt lat="41.3112517" lon="0.9617283"><ele>946.3333333333333</ele><time>2026-04-24T16:12:34.922Z</time></trkpt><trkpt lat="41.3111383" lon="0.9615417"><ele>946.0</ele><time>2026-04-24T16:12:35.922Z</time></trkpt><trkpt lat="41.3110333" lon="0.9613383"><ele>945.0</ele><time>2026-04-24T16:12:36.921Z</time></trkpt><trkpt lat="41.31094" lon="0.9610983"><ele>944.0</ele><time>2026-04-24T16:12:37.921Z</time></trkpt><trkpt lat="41.3108567" lon="0.96086"><ele>943.0</ele><time>2026-04-24T16:12:38.921Z</time></trkpt><trkpt lat="41.3107667" lon="0.960625"><ele>941.3333333333333</ele><time>2026-04-24T16:12:39.921Z</time></trkpt><trkpt lat="41.3106633" lon="0.9604183"><ele>939.6666666666667</ele><time>2026-04-24T16:12:40.921Z</time></trkpt><trkpt lat="41.310545" lon="0.96024"><ele>938.0</ele><time>2026-04-24T16:12:41.922Z</time></trkpt><trkpt lat="41.31044" lon="0.9600867"><ele>935.6666666666667</ele><time>2026-04-24T16:12:42.922Z</time></trkpt><trkpt lat="41.3103517" lon="0.9599367"><ele>933.3333333333333</ele><time>2026-04-24T16:12:43.921Z</time></trkpt><trkpt lat="41.3102917" lon="0.9597333"><ele>931.0</ele><time>2026-04-24T16:12:44.921Z</time></trkpt><trkpt lat="41.31025" lon="0.9595183"><ele>931.0</ele><time>2026-04-24T16:12:45.921Z</time></trkpt><trkpt lat="41.3101983" lon="0.9592833"><ele>931.0</ele><time>2026-04-24T16:12:46.922Z</time></trkpt><trkpt lat="41.3101383" lon="0.95905"><ele>931.0</ele><time>2026-04-24T16:12:47.921Z</time></trkpt><trkpt lat="41.3100767" lon="0.9588183"><ele>930.3333333333333</ele><time>2026-04-24T16:12:48.921Z</time></trkpt><trkpt lat="41.310015" lon="0.9586"><ele>929.6666666666667</ele><time>2026-04-24T16:12:49.922Z</time></trkpt><trkpt lat="41.3099633" lon="0.9583967"><ele>929.0</ele><time>2026-04-24T16:12:50.921Z</time></trkpt><trkpt lat="41.3099283" lon="0.958195"><ele>928.0</ele><time>2026-04-24T16:12:51.921Z</time></trkpt><trkpt lat="41.3098983" lon="0.9579917"><ele>927.0</ele><time>2026-04-24T16:12:52.921Z</time></trkpt><trkpt lat="41.30989" lon="0.9577817"><ele>926.0</ele><time>2026-04-24T16:12:53.922Z</time></trkpt><trkpt lat="41.309895" lon="0.9575783"><ele>926.0</ele><time>2026-04-24T16:12:54.921Z</time></trkpt><trkpt lat="41.309895" lon="0.9573767"><ele>926.0</ele><time>2026-04-24T16:12:55.921Z</time></trkpt><trkpt lat="41.3098817" lon="0.957185"><ele>926.0</ele><time>2026-04-24T16:12:56.921Z</time></trkpt><trkpt lat="41.30984" lon="0.95699"><ele>926.0</ele><time>2026-04-24T16:12:57.922Z</time></trkpt><trkpt lat="41.3097917" lon="0.9567917"><ele>929.3333333333334</ele><time>2026-04-24T16:12:58.922Z</time></trkpt><trkpt lat="41.3097383" lon="0.956585"><ele>932.6666666666667</ele><time>2026-04-24T16:12:59.921Z</time></trkpt><trkpt lat="41.3096867" lon="0.9563783"><ele>936.0</ele><time>2026-04-24T16:13:00.921Z</time></trkpt><trkpt lat="41.3096283" lon="0.9561667"><ele>936.0</ele><time>2026-04-24T16:13:01.921Z</time></trkpt><trkpt lat="41.309575" lon="0.9559733"><ele>936.0</ele><time>2026-04-24T16:13:02.921Z</time></trkpt><trkpt lat="41.3095317" lon="0.9557933"><ele>936.0</ele><time>2026-04-24T16:13:03.921Z</time></trkpt><trkpt lat="41.3094883" lon="0.9556383"><ele>936.0</ele><time>2026-04-24T16:13:04.922Z</time></trkpt><trkpt lat="41.30944" lon="0.9554883"><ele>934.25</ele><time>2026-04-24T16:13:05.922Z</time></trkpt><trkpt lat="41.3093683" lon="0.95538"><ele>932.5</ele><time>2026-04-24T16:13:06.921Z</time></trkpt><trkpt lat="41.30927" lon="0.9553083"><ele>930.75</ele><time>2026-04-24T16:13:07.921Z</time></trkpt><trkpt lat="41.30915" lon="0.9552767"><ele>929.0</ele><time>2026-04-24T16:13:08.921Z</time></trkpt><trkpt lat="41.3090167" lon="0.9552717"><ele>928.0</ele><time>2026-04-24T16:13:09.922Z</time></trkpt><trkpt lat="41.308875" lon="0.95526"><ele>927.0</ele><time>2026-04-24T16:13:10.922Z</time></trkpt><trkpt lat="41.3087367" lon="0.9552317"><ele>926.0</ele><time>2026-04-24T16:13:11.921Z</time></trkpt><trkpt lat="41.308635" lon="0.9551533"><ele>925.0</ele><time>2026-04-24T16:13:12.922Z</time></trkpt><trkpt lat="41.3085733" lon="0.9550283"><ele>924.25</ele><time>2026-04-24T16:13:13.921Z</time></trkpt><trkpt lat="41.3085467" lon="0.9548867"><ele>923.5</ele><time>2026-04-24T16:13:14.921Z</time></trkpt><trkpt lat="41.3085617" lon="0.95474"><ele>922.75</ele><time>2026-04-24T16:13:15.922Z</time></trkpt><trkpt lat="41.3086267" lon="0.95462"><ele>922.0</ele><time>2026-04-24T16:13:16.922Z</time></trkpt><trkpt lat="41.3087267" lon="0.9545133"><ele>922.0</ele><time>2026-04-24T16:13:17.921Z</time></trkpt><trkpt lat="41.3088267" lon="0.9544017"><ele>922.0</ele><time>2026-04-24T16:13:18.921Z</time></trkpt><trkpt lat="41.3089333" lon="0.9542867"><ele>922.0</ele><time>2026-04-24T16:13:19.921Z</time></trkpt><trkpt lat="41.30902" lon="0.9541683"><ele>922.0</ele><time>2026-04-24T16:13:20.921Z</time></trkpt><trkpt lat="41.309075" lon="0.954025"><ele>920.5</ele><time>2026-04-24T16:13:21.922Z</time></trkpt><trkpt lat="41.309095" lon="0.95385"><ele>919.0</ele><time>2026-04-24T16:13:22.922Z</time></trkpt><trkpt lat="41.3090683" lon="0.9536533"><ele>917.5</ele><time>2026-04-24T16:13:23.922Z</time></trkpt><trkpt lat="41.3090317" lon="0.9534583"><ele>916.0</ele><time>2026-04-24T16:13:24.922Z</time></trkpt><trkpt lat="41.3090183" lon="0.9532583"><ele>916.0</ele><time>2026-04-24T16:13:25.921Z</time></trkpt><trkpt lat="41.3090317" lon="0.9530517"><ele>916.0</ele><time>2026-04-24T16:13:26.921Z</time></trkpt><trkpt lat="41.309075" lon="0.9528283"><ele>916.0</ele><time>2026-04-24T16:13:27.921Z</time></trkpt><trkpt lat="41.3091167" lon="0.9526017"><ele>916.6666666666666</ele><time>2026-04-24T16:13:28.921Z</time></trkpt><trkpt lat="41.3091617" lon="0.952365"><ele>917.3333333333333</ele><time>2026-04-24T16:13:29.921Z</time></trkpt><trkpt lat="41.3091867" lon="0.9521267"><ele>918.0</ele><time>2026-04-24T16:13:30.922Z</time></trkpt><trkpt lat="41.309195" lon="0.9518733"><ele>918.0</ele><time>2026-04-24T16:13:31.921Z</time></trkpt><trkpt lat="41.30919" lon="0.9516133"><ele>918.0</ele><time>2026-04-24T16:13:32.921Z</time></trkpt><trkpt lat="41.309185" lon="0.9513467"><ele>918.0</ele><time>2026-04-24T16:13:33.922Z</time></trkpt><trkpt lat="41.3091817" lon="0.95109"><ele>916.6666666666667</ele><time>2026-04-24T16:13:34.921Z</time></trkpt><trkpt lat="41.3091833" lon="0.950835"><ele>915.3333333333334</ele><time>2026-04-24T16:13:35.922Z</time></trkpt><trkpt lat="41.3091767" lon="0.9505817"><ele>914.0</ele><time>2026-04-24T16:13:36.921Z</time></trkpt><trkpt lat="41.3091883" lon="0.95034"><ele>914.0</ele><time>2026-04-24T16:13:37.921Z</time></trkpt><trkpt lat="41.3092" lon="0.9500967"><ele>914.0</ele><time>2026-04-24T16:13:38.922Z</time></trkpt><trkpt lat="41.3092233" lon="0.9498683"><ele>914.0</ele><time>2026-04-24T16:13:39.922Z</time></trkpt><trkpt lat="41.3092433" lon="0.9496483"><ele>911.0</ele><time>2026-04-24T16:13:40.921Z</time></trkpt><trkpt lat="41.309235" lon="0.94943"><ele>908.0</ele><time>2026-04-24T16:13:41.922Z</time></trkpt><trkpt lat="41.3092133" lon="0.9492283"><ele>905.0</ele><time>2026-04-24T16:13:42.921Z</time></trkpt><trkpt lat="41.3092217" lon="0.9490383"><ele>904.5</ele><time>2026-04-24T16:13:43.921Z</time></trkpt><trkpt lat="41.3092683" lon="0.948875"><ele>904.0</ele><time>2026-04-24T16:13:44.921Z</time></trkpt><trkpt lat="41.309345" lon="0.9487317"><ele>903.5</ele><time>2026-04-24T16:13:45.922Z</time></trkpt><trkpt lat="41.309425" lon="0.9486117"><ele>903.0</ele><time>2026-04-24T16:13:46.921Z</time></trkpt><trkpt lat="41.309465" lon="0.94847"><ele>901.25</ele><time>2026-04-24T16:13:47.921Z</time></trkpt><trkpt lat="41.3094567" lon="0.94831"><ele>899.5</ele><time>2026-04-24T16:13:48.922Z</time></trkpt><trkpt lat="41.3094033" lon="0.94813"><ele>897.75</ele><time>2026-04-24T16:13:49.921Z</time></trkpt><trkpt lat="41.3093617" lon="0.9479567"><ele>896.0</ele><time>2026-04-24T16:13:50.922Z</time></trkpt><trkpt lat="41.3093667" lon="0.9477917"><ele>896.0</ele><time>2026-04-24T16:13:51.922Z</time></trkpt><trkpt lat="41.3094067" lon="0.9476617"><ele>895.9999999999999</ele><time>2026-04-24T16:13:52.922Z</time></trkpt><trkpt lat="41.3094367" lon="0.9475267"><ele>895.9999999999999</ele><time>2026-04-24T16:13:53.922Z</time></trkpt><trkpt lat="41.3094267" lon="0.947385"><ele>896.0</ele><time>2026-04-24T16:13:54.922Z</time></trkpt><trkpt lat="41.30938" lon="0.9472617"><ele>896.0</ele><time>2026-04-24T16:13:55.921Z</time></trkpt><trkpt lat="41.30927" lon="0.9471567"><ele>895.0</ele><time>2026-04-24T16:13:56.921Z</time></trkpt><trkpt lat="41.3091367" lon="0.9470567"><ele>894.0</ele><time>2026-04-24T16:13:57.922Z</time></trkpt><trkpt lat="41.3090033" lon="0.9469533"><ele>893.0</ele><time>2026-04-24T16:13:58.922Z</time></trkpt><trkpt lat="41.30889" lon="0.946845"><ele>892.0</ele><time>2026-04-24T16:13:59.921Z</time></trkpt><trkpt lat="41.30881" lon="0.94672"><ele>890.0</ele><time>2026-04-24T16:14:00.922Z</time></trkpt><trkpt lat="41.30877" lon="0.94657"><ele>888.0</ele><time>2026-04-24T16:14:01.922Z</time></trkpt><trkpt lat="41.3087783" lon="0.9463983"><ele>886.0</ele><time>2026-04-24T16:14:02.921Z</time></trkpt><trkpt lat="41.30883" lon="0.94623"><ele>884.0</ele><time>2026-04-24T16:14:03.922Z</time></trkpt><trkpt lat="41.3089083" lon="0.9460717"><ele>886.25</ele><time>2026-04-24T16:14:04.922Z</time></trkpt><trkpt lat="41.3089717" lon="0.9459133"><ele>888.5</ele><time>2026-04-24T16:14:05.922Z</time></trkpt><trkpt lat="41.309005" lon="0.9457383"><ele>890.75</ele><time>2026-04-24T16:14:06.922Z</time></trkpt><trkpt lat="41.3090083" lon="0.94555"><ele>893.0</ele><time>2026-04-24T16:14:07.922Z</time></trkpt><trkpt lat="41.3090167" lon="0.9453683"><ele>893.0</ele><time>2026-04-24T16:14:08.921Z</time></trkpt><trkpt lat="41.30904" lon="0.945205"><ele>893.0</ele><time>2026-04-24T16:14:09.922Z</time></trkpt><trkpt lat="41.3090867" lon="0.945065"><ele>893.0</ele><time>2026-04-24T16:14:10.921Z</time></trkpt><trkpt lat="41.309175" lon="0.9449483"><ele>893.0</ele><time>2026-04-24T16:14:11.922Z</time></trkpt><trkpt lat="41.3092767" lon="0.94483"><ele>890.0</ele><time>2026-04-24T16:14:12.922Z</time></trkpt><trkpt lat="41.3093867" lon="0.9446967"><ele>887.0</ele><time>2026-04-24T16:14:13.921Z</time></trkpt><trkpt lat="41.3095067" lon="0.9445517"><ele>884.0</ele><time>2026-04-24T16:14:14.921Z</time></trkpt><trkpt lat="41.3096267" lon="0.9444067"><ele>884.3333333333334</ele><time>2026-04-24T16:14:15.922Z</time></trkpt><trkpt lat="41.309755" lon="0.9442583"><ele>884.6666666666667</ele><time>2026-04-24T16:14:16.921Z</time></trkpt><trkpt lat="41.3098683" lon="0.94412"><ele>885.0</ele><time>2026-04-24T16:14:17.921Z</time></trkpt><trkpt lat="41.3099683" lon="0.9439683"><ele>885.0</ele><time>2026-04-24T16:14:18.922Z</time></trkpt><trkpt lat="41.3100283" lon="0.9437883"><ele>885.0</ele><time>2026-04-24T16:14:19.921Z</time></trkpt><trkpt lat="41.3100567" lon="0.9435783"><ele>885.0</ele><time>2026-04-24T16:14:20.921Z</time></trkpt><trkpt lat="41.3100633" lon="0.9433417"><ele>883.3333333333333</ele><time>2026-04-24T16:14:21.921Z</time></trkpt><trkpt lat="41.3100667" lon="0.9430983"><ele>881.6666666666666</ele><time>2026-04-24T16:14:22.922Z</time></trkpt><trkpt lat="41.3100783" lon="0.9428517"><ele>880.0</ele><time>2026-04-24T16:14:23.921Z</time></trkpt><trkpt lat="41.3100917" lon="0.9426067"><ele>877.0</ele><time>2026-04-24T16:14:24.921Z</time></trkpt><trkpt lat="41.3101217" lon="0.9423733"><ele>874.0</ele><time>2026-04-24T16:14:25.921Z</time></trkpt><trkpt lat="41.310175" lon="0.9421417"><ele>871.0</ele><time>2026-04-24T16:14:26.922Z</time></trkpt><trkpt lat="41.31025" lon="0.9419133"><ele>871.0</ele><time>2026-04-24T16:14:27.922Z</time></trkpt><trkpt lat="41.310345" lon="0.9417383"><ele>871.0</ele><time>2026-04-24T16:14:28.921Z</time></trkpt><trkpt lat="41.31045" lon="0.9416"><ele>871.0</ele><time>2026-04-24T16:14:29.922Z</time></trkpt><trkpt lat="41.310525" lon="0.9414717"><ele>871.0</ele><time>2026-04-24T16:14:30.921Z</time></trkpt><trkpt lat="41.3105667" lon="0.9413033"><ele>870.6666666666666</ele><time>2026-04-24T16:14:31.922Z</time></trkpt><trkpt lat="41.3105767" lon="0.941085"><ele>870.3333333333333</ele><time>2026-04-24T16:14:32.922Z</time></trkpt><trkpt lat="41.31058" lon="0.9408417"><ele>870.0</ele><time>2026-04-24T16:14:33.921Z</time></trkpt><trkpt lat="41.31058" lon="0.9405883"><ele>867.6666666666667</ele><time>2026-04-24T16:14:34.921Z</time></trkpt><trkpt lat="41.3105933" lon="0.94034"><ele>865.3333333333334</ele><time>2026-04-24T16:14:35.921Z</time></trkpt><trkpt lat="41.3106167" lon="0.940085"><ele>863.0</ele><time>2026-04-24T16:14:36.921Z</time></trkpt><trkpt lat="41.310655" lon="0.9398283"><ele>861.3333333333334</ele><time>2026-04-24T16:14:37.921Z</time></trkpt><trkpt lat="41.3106917" lon="0.9395667"><ele>859.6666666666667</ele><time>2026-04-24T16:14:38.922Z</time></trkpt><trkpt lat="41.310725" lon="0.939305"><ele>858.0</ele><time>2026-04-24T16:14:39.922Z</time></trkpt><trkpt lat="41.3107517" lon="0.93906"><ele>856.0</ele><time>2026-04-24T16:14:40.921Z</time></trkpt><trkpt lat="41.3107917" lon="0.93884"><ele>854.0</ele><time>2026-04-24T16:14:41.922Z</time></trkpt><trkpt lat="41.3108583" lon="0.9386417"><ele>852.0</ele><time>2026-04-24T16:14:42.922Z</time></trkpt><trkpt lat="41.3109567" lon="0.938465"><ele>850.3333333333333</ele><time>2026-04-24T16:14:43.922Z</time></trkpt><trkpt lat="41.3110617" lon="0.93828"><ele>848.6666666666666</ele><time>2026-04-24T16:14:44.921Z</time></trkpt><trkpt lat="41.3111667" lon="0.938095"><ele>847.0</ele><time>2026-04-24T16:14:45.922Z</time></trkpt><trkpt lat="41.3112633" lon="0.93791"><ele>847.0</ele><time>2026-04-24T16:14:46.921Z</time></trkpt><trkpt lat="41.31135" lon="0.937725"><ele>847.0</ele><time>2026-04-24T16:14:47.921Z</time></trkpt><trkpt lat="41.3114117" lon="0.93752"><ele>847.0</ele><time>2026-04-24T16:14:48.922Z</time></trkpt><trkpt lat="41.31145" lon="0.9373267"><ele>847.75</ele><time>2026-04-24T16:14:49.921Z</time></trkpt><trkpt lat="41.31145" lon="0.937145"><ele>848.5</ele><time>2026-04-24T16:14:50.921Z</time></trkpt><trkpt lat="41.3114083" lon="0.9369533"><ele>849.25</ele><time>2026-04-24T16:14:51.921Z</time></trkpt><trkpt lat="41.3113483" lon="0.9367533"><ele>850.0</ele><time>2026-04-24T16:14:52.922Z</time></trkpt><trkpt lat="41.3112817" lon="0.936545"><ele>846.0</ele><time>2026-04-24T16:14:53.922Z</time></trkpt><trkpt lat="41.311215" lon="0.9363317"><ele>842.0</ele><time>2026-04-24T16:14:54.921Z</time></trkpt><trkpt lat="41.3111367" lon="0.9361367"><ele>838.0</ele><time>2026-04-24T16:14:55.921Z</time></trkpt><trkpt lat="41.3110467" lon="0.9359683"><ele>836.75</ele><time>2026-04-24T16:14:56.921Z</time></trkpt><trkpt lat="41.3109483" lon="0.9358283"><ele>835.5</ele><time>2026-04-24T16:14:57.921Z</time></trkpt><trkpt lat="41.3108517" lon="0.9356933"><ele>834.25</ele><time>2026-04-24T16:14:58.921Z</time></trkpt><trkpt lat="41.3107917" lon="0.9355483"><ele>833.0</ele><time>2026-04-24T16:14:59.921Z</time></trkpt><trkpt lat="41.3107733" lon="0.935395"><ele>833.0</ele><time>2026-04-24T16:15:00.921Z</time></trkpt><trkpt lat="41.3107967" lon="0.9352433"><ele>833.0</ele><time>2026-04-24T16:15:01.922Z</time></trkpt><trkpt lat="41.31085" lon="0.9350867"><ele>833.0</ele><time>2026-04-24T16:15:02.922Z</time></trkpt><trkpt lat="41.3109133" lon="0.9349167"><ele>833.0</ele><time>2026-04-24T16:15:03.921Z</time></trkpt><trkpt lat="41.3109817" lon="0.9347233"><ele>833.6666666666667</ele><time>2026-04-24T16:15:04.922Z</time></trkpt><trkpt lat="41.311045" lon="0.934505"><ele>834.3333333333333</ele><time>2026-04-24T16:15:05.921Z</time></trkpt><trkpt lat="41.3111033" lon="0.9342867"><ele>835.0</ele><time>2026-04-24T16:15:06.922Z</time></trkpt><trkpt lat="41.3111533" lon="0.9340567"><ele>837.3333333333333</ele><time>2026-04-24T16:15:07.922Z</time></trkpt><trkpt lat="41.3111883" lon="0.9338133"><ele>839.6666666666667</ele><time>2026-04-24T16:15:08.922Z</time></trkpt><trkpt lat="41.31122" lon="0.93356"><ele>842.0</ele><time>2026-04-24T16:15:09.921Z</time></trkpt><trkpt lat="41.31124" lon="0.933295"><ele>842.6666666666667</ele><time>2026-04-24T16:15:10.921Z</time></trkpt><trkpt lat="41.3112517" lon="0.9330167"><ele>843.3333333333333</ele><time>2026-04-24T16:15:11.922Z</time></trkpt><trkpt lat="41.3112517" lon="0.932745"><ele>844.0</ele><time>2026-04-24T16:15:12.921Z</time></trkpt><trkpt lat="41.31124" lon="0.9324567"><ele>844.0</ele><time>2026-04-24T16:15:13.921Z</time></trkpt><trkpt lat="41.311235" lon="0.9321683"><ele>844.0</ele><time>2026-04-24T16:15:14.921Z</time></trkpt><trkpt lat="41.3112433" lon="0.9318717"><ele>844.0</ele><time>2026-04-24T16:15:15.922Z</time></trkpt><trkpt lat="41.31124" lon="0.9315717"><ele>843.6666666666666</ele><time>2026-04-24T16:15:16.921Z</time></trkpt><trkpt lat="41.3112333" lon="0.9312717"><ele>843.3333333333333</ele><time>2026-04-24T16:15:17.921Z</time></trkpt><trkpt lat="41.31123" lon="0.93098"><ele>843.0</ele><time>2026-04-24T16:15:18.921Z</time></trkpt><trkpt lat="41.3112317" lon="0.9306917"><ele>842.0</ele><time>2026-04-24T16:15:19.921Z</time></trkpt><trkpt lat="41.311235" lon="0.9304133"><ele>841.0</ele><time>2026-04-24T16:15:20.921Z</time></trkpt><trkpt lat="41.311245" lon="0.9301517"><ele>840.0</ele><time>2026-04-24T16:15:21.921Z</time></trkpt><trkpt lat="41.3112717" lon="0.92989"><ele>838.3333333333333</ele><time>2026-04-24T16:15:22.922Z</time></trkpt><trkpt lat="41.3113083" lon="0.929625"><ele>836.6666666666666</ele><time>2026-04-24T16:15:23.922Z</time></trkpt><trkpt lat="41.31135" lon="0.92936"><ele>835.0</ele><time>2026-04-24T16:15:24.922Z</time></trkpt><trkpt lat="41.311395" lon="0.9291017"><ele>837.0</ele><time>2026-04-24T16:15:25.921Z</time></trkpt><trkpt lat="41.31144" lon="0.9288567"><ele>839.0</ele><time>2026-04-24T16:15:26.921Z</time></trkpt><trkpt lat="41.3114783" lon="0.928625"><ele>841.0</ele><time>2026-04-24T16:15:27.922Z</time></trkpt><trkpt lat="41.311505" lon="0.9284117"><ele>839.0</ele><time>2026-04-24T16:15:28.921Z</time></trkpt><trkpt lat="41.3114983" lon="0.9282033"><ele>837.0</ele><time>2026-04-24T16:15:29.921Z</time></trkpt><trkpt lat="41.3114483" lon="0.92799"><ele>835.0</ele><time>2026-04-24T16:15:30.921Z</time></trkpt><trkpt lat="41.311385" lon="0.92777"><ele>828.0</ele><time>2026-04-24T16:15:31.921Z</time></trkpt><trkpt lat="41.31131" lon="0.9275533"><ele>821.0</ele><time>2026-04-24T16:15:32.921Z</time></trkpt><trkpt lat="41.3112417" lon="0.9273467"><ele>814.0</ele><time>2026-04-24T16:15:33.922Z</time></trkpt><trkpt lat="41.3112017" lon="0.92716"><ele>814.0</ele><time>2026-04-24T16:15:34.921Z</time></trkpt><trkpt lat="41.3111883" lon="0.9269733"><ele>814.0</ele><time>2026-04-24T16:15:35.921Z</time></trkpt><trkpt lat="41.3112033" lon="0.9267633"><ele>814.0</ele><time>2026-04-24T16:15:36.921Z</time></trkpt><trkpt lat="41.3112317" lon="0.9265417"><ele>813.3333333333333</ele><time>2026-04-24T16:15:37.921Z</time></trkpt><trkpt lat="41.3112567" lon="0.926305"><ele>812.6666666666667</ele><time>2026-04-24T16:15:38.922Z</time></trkpt><trkpt lat="41.3112833" lon="0.9260583"><ele>812.0</ele><time>2026-04-24T16:15:39.921Z</time></trkpt><trkpt lat="41.3113083" lon="0.9257933"><ele>812.0</ele><time>2026-04-24T16:15:40.921Z</time></trkpt><trkpt lat="41.31134" lon="0.9255333"><ele>812.0</ele><time>2026-04-24T16:15:41.921Z</time></trkpt><trkpt lat="41.311365" lon="0.9252683"><ele>812.0</ele><time>2026-04-24T16:15:42.921Z</time></trkpt><trkpt lat="41.3113933" lon="0.925005"><ele>812.6666666666667</ele><time>2026-04-24T16:15:43.921Z</time></trkpt><trkpt lat="41.3114217" lon="0.92474"><ele>813.3333333333333</ele><time>2026-04-24T16:15:44.921Z</time></trkpt><trkpt lat="41.311455" lon="0.9244717"><ele>814.0</ele><time>2026-04-24T16:15:45.922Z</time></trkpt><trkpt lat="41.3114867" lon="0.9242017"><ele>814.0</ele><time>2026-04-24T16:15:46.921Z</time></trkpt><trkpt lat="41.3115167" lon="0.9239383"><ele>814.0</ele><time>2026-04-24T16:15:47.922Z</time></trkpt><trkpt lat="41.3115467" lon="0.92368"><ele>814.0</ele><time>2026-04-24T16:15:48.921Z</time></trkpt><trkpt lat="41.311575" lon="0.9234167"><ele>811.6666666666666</ele><time>2026-04-24T16:15:49.921Z</time></trkpt><trkpt lat="41.311595" lon="0.9231517"><ele>809.3333333333333</ele><time>2026-04-24T16:15:50.921Z</time></trkpt><trkpt lat="41.3116067" lon="0.9228817"><ele>807.0</ele><time>2026-04-24T16:15:51.922Z</time></trkpt><trkpt lat="41.3116083" lon="0.9226083"><ele>806.0</ele><time>2026-04-24T16:15:52.922Z</time></trkpt><trkpt lat="41.311605" lon="0.922335"><ele>805.0</ele><time>2026-04-24T16:15:53.922Z</time></trkpt><trkpt lat="41.3115983" lon="0.9220617"><ele>804.0</ele><time>2026-04-24T16:15:54.921Z</time></trkpt><trkpt lat="41.3115817" lon="0.9218017"><ele>802.0</ele><time>2026-04-24T16:15:55.922Z</time></trkpt><trkpt lat="41.3115533" lon="0.9215617"><ele>800.0</ele><time>2026-04-24T16:15:56.922Z</time></trkpt><trkpt lat="41.3114917" lon="0.9213333"><ele>798.0</ele><time>2026-04-24T16:15:57.921Z</time></trkpt><trkpt lat="41.3114233" lon="0.9211183"><ele>798.0</ele><time>2026-04-24T16:15:58.921Z</time></trkpt><trkpt lat="41.3113433" lon="0.9209"><ele>798.0</ele><time>2026-04-24T16:15:59.921Z</time></trkpt><trkpt lat="41.3112683" lon="0.9206867"><ele>798.0</ele><time>2026-04-24T16:16:00.922Z</time></trkpt><trkpt lat="41.3111867" lon="0.9204833"><ele>796.6666666666667</ele><time>2026-04-24T16:16:01.922Z</time></trkpt><trkpt lat="41.311115" lon="0.920285"><ele>795.3333333333334</ele><time>2026-04-24T16:16:02.921Z</time></trkpt><trkpt lat="41.3110533" lon="0.9200867"><ele>794.0</ele><time>2026-04-24T16:16:03.922Z</time></trkpt><trkpt lat="41.3110033" lon="0.9198817"><ele>793.3333333333334</ele><time>2026-04-24T16:16:04.922Z</time></trkpt><trkpt lat="41.3109767" lon="0.9196633"><ele>792.6666666666667</ele><time>2026-04-24T16:16:05.922Z</time></trkpt><trkpt lat="41.3109633" lon="0.919435"><ele>792.0</ele><time>2026-04-24T16:16:06.921Z</time></trkpt><trkpt lat="41.3109533" lon="0.9191983"><ele>791.6666666666667</ele><time>2026-04-24T16:16:07.922Z</time></trkpt><trkpt lat="41.310945" lon="0.918945"><ele>791.3333333333334</ele><time>2026-04-24T16:16:08.922Z</time></trkpt><trkpt lat="41.310935" lon="0.9186883"><ele>791.0</ele><time>2026-04-24T16:16:09.921Z</time></trkpt><trkpt lat="41.3109283" lon="0.9184333"><ele>790.3333333333334</ele><time>2026-04-24T16:16:10.922Z</time></trkpt><trkpt lat="41.310925" lon="0.9181817"><ele>789.6666666666667</ele><time>2026-04-24T16:16:11.921Z</time></trkpt><trkpt lat="41.3109183" lon="0.91794"><ele>789.0</ele><time>2026-04-24T16:16:12.922Z</time></trkpt><trkpt lat="41.310915" lon="0.9177183"><ele>789.25</ele><time>2026-04-24T16:16:13.921Z</time></trkpt><trkpt lat="41.3109033" lon="0.9175233"><ele>789.5</ele><time>2026-04-24T16:16:14.922Z</time></trkpt><trkpt lat="41.310865" lon="0.9173517"><ele>789.75</ele><time>2026-04-24T16:16:15.921Z</time></trkpt><trkpt lat="41.3107933" lon="0.917215"><ele>790.0</ele><time>2026-04-24T16:16:16.921Z</time></trkpt><trkpt lat="41.310685" lon="0.9171233"><ele>789.6666666666666</ele><time>2026-04-24T16:16:17.922Z</time></trkpt><trkpt lat="41.3105433" lon="0.9170783"><ele>789.3333333333333</ele><time>2026-04-24T16:16:18.922Z</time></trkpt><trkpt lat="41.3103817" lon="0.91707"><ele>789.0</ele><time>2026-04-24T16:16:19.922Z</time></trkpt><trkpt lat="41.3102067" lon="0.9170783"><ele>789.0</ele><time>2026-04-24T16:16:20.921Z</time></trkpt><trkpt lat="41.3100283" lon="0.9170967"><ele>789.0</ele><time>2026-04-24T16:16:21.922Z</time></trkpt><trkpt lat="41.3098483" lon="0.917115"><ele>789.0</ele><time>2026-04-24T16:16:22.921Z</time></trkpt><trkpt lat="41.3096633" lon="0.9171317"><ele>789.6666666666667</ele><time>2026-04-24T16:16:23.921Z</time></trkpt><trkpt lat="41.30948" lon="0.9171633"><ele>790.3333333333334</ele><time>2026-04-24T16:16:24.922Z</time></trkpt><trkpt lat="41.3092967" lon="0.91721"><ele>791.0</ele><time>2026-04-24T16:16:25.922Z</time></trkpt><trkpt lat="41.30911" lon="0.9172833"><ele>791.0</ele><time>2026-04-24T16:16:26.921Z</time></trkpt><trkpt lat="41.30894" lon="0.9173567"><ele>791.0</ele><time>2026-04-24T16:16:27.921Z</time></trkpt><trkpt lat="41.308795" lon="0.9174333"><ele>791.0</ele><time>2026-04-24T16:16:28.922Z</time></trkpt><trkpt lat="41.3086583" lon="0.91749"><ele>792.0</ele><time>2026-04-24T16:16:29.921Z</time></trkpt><trkpt lat="41.3085183" lon="0.9175117"><ele>793.0</ele><time>2026-04-24T16:16:30.921Z</time></trkpt><trkpt lat="41.3083733" lon="0.9174817"><ele>794.0</ele><time>2026-04-24T16:16:31.922Z</time></trkpt><trkpt lat="41.3082217" lon="0.9174417"><ele>795.0</ele><time>2026-04-24T16:16:32.921Z</time></trkpt><trkpt lat="41.308065" lon="0.91745"><ele>796.0</ele><time>2026-04-24T16:16:33.921Z</time></trkpt><trkpt lat="41.3079033" lon="0.9174933"><ele>797.0</ele><time>2026-04-24T16:16:34.922Z</time></trkpt><trkpt lat="41.307735" lon="0.9175483"><ele>798.0</ele><time>2026-04-24T16:16:35.921Z</time></trkpt><trkpt lat="41.3075783" lon="0.9175983"><ele>798.25</ele><time>2026-04-24T16:16:36.922Z</time></trkpt><trkpt lat="41.307425" lon="0.9176367"><ele>798.5</ele><time>2026-04-24T16:16:37.921Z</time></trkpt><trkpt lat="41.3072917" lon="0.91767"><ele>798.75</ele><time>2026-04-24T16:16:38.922Z</time></trkpt><trkpt lat="41.30717" lon="0.9177033"><ele>799.0</ele><time>2026-04-24T16:16:39.921Z</time></trkpt><trkpt lat="41.307065" lon="0.917765"><ele>799.0</ele><time>2026-04-24T16:16:40.922Z</time></trkpt><trkpt lat="41.30699" lon="0.9178717"><ele>799.0</ele><time>2026-04-24T16:16:41.922Z</time></trkpt><trkpt lat="41.306945" lon="0.918025"><ele>799.0</ele><time>2026-04-24T16:16:42.922Z</time></trkpt><trkpt lat="41.3069317" lon="0.9182033"><ele>799.0</ele><time>2026-04-24T16:16:43.921Z</time></trkpt><trkpt lat="41.3069367" lon="0.91839"><ele>797.0</ele><time>2026-04-24T16:16:44.922Z</time></trkpt><trkpt lat="41.3069183" lon="0.91856"><ele>795.0</ele><time>2026-04-24T16:16:45.922Z</time></trkpt><trkpt lat="41.306855" lon="0.9187033"><ele>793.0</ele><time>2026-04-24T16:16:46.922Z</time></trkpt><trkpt lat="41.3067517" lon="0.918795"><ele>791.0</ele><time>2026-04-24T16:16:47.921Z</time></trkpt><trkpt lat="41.30663" lon="0.918855"><ele>791.0</ele><time>2026-04-24T16:16:48.922Z</time></trkpt><trkpt lat="41.3064833" lon="0.9188917"><ele>791.0</ele><time>2026-04-24T16:16:49.922Z</time></trkpt><trkpt lat="41.306315" lon="0.91891"><ele>791.0</ele><time>2026-04-24T16:16:50.921Z</time></trkpt><trkpt lat="41.3061433" lon="0.91892"><ele>792.0</ele><time>2026-04-24T16:16:51.921Z</time></trkpt><trkpt lat="41.3059683" lon="0.9189367"><ele>793.0</ele><time>2026-04-24T16:16:52.921Z</time></trkpt><trkpt lat="41.3057933" lon="0.9189517"><ele>794.0</ele><time>2026-04-24T16:16:53.921Z</time></trkpt><trkpt lat="41.3056183" lon="0.91897"><ele>795.0</ele><time>2026-04-24T16:16:54.922Z</time></trkpt><trkpt lat="41.3054517" lon="0.91898"><ele>796.0</ele><time>2026-04-24T16:16:55.921Z</time></trkpt><trkpt lat="41.3052967" lon="0.918985"><ele>797.0</ele><time>2026-04-24T16:16:56.922Z</time></trkpt><trkpt lat="41.3051517" lon="0.9189483"><ele>797.0</ele><time>2026-04-24T16:16:57.922Z</time></trkpt><trkpt lat="41.3050133" lon="0.918865"><ele>797.0</ele><time>2026-04-24T16:16:58.922Z</time></trkpt><trkpt lat="41.304875" lon="0.918755"><ele>797.0</ele><time>2026-04-24T16:16:59.921Z</time></trkpt><trkpt lat="41.304735" lon="0.9186367"><ele>795.6666666666667</ele><time>2026-04-24T16:17:00.921Z</time></trkpt><trkpt lat="41.3046017" lon="0.9185117"><ele>794.3333333333333</ele><time>2026-04-24T16:17:01.922Z</time></trkpt><trkpt lat="41.304475" lon="0.9183733"><ele>793.0</ele><time>2026-04-24T16:17:02.921Z</time></trkpt><trkpt lat="41.3043667" lon="0.9182167"><ele>792.75</ele><time>2026-04-24T16:17:03.922Z</time></trkpt><trkpt lat="41.3042583" lon="0.9180617"><ele>792.5</ele><time>2026-04-24T16:17:04.922Z</time></trkpt><trkpt lat="41.304155" lon="0.9179267"><ele>792.25</ele><time>2026-04-24T16:17:05.921Z</time></trkpt><trkpt lat="41.3040617" lon="0.9178367"><ele>792.0</ele><time>2026-04-24T16:17:06.922Z</time></trkpt><trkpt lat="41.30395" lon="0.917785"><ele>790.0</ele><time>2026-04-24T16:17:07.921Z</time></trkpt><trkpt lat="41.3038233" lon="0.9177933"><ele>788.0</ele><time>2026-04-24T16:17:08.921Z</time></trkpt><trkpt lat="41.3036817" lon="0.917855"><ele>786.0</ele><time>2026-04-24T16:17:09.921Z</time></trkpt><trkpt lat="41.3035417" lon="0.917945"><ele>784.0</ele><time>2026-04-24T16:17:10.921Z</time></trkpt><trkpt lat="41.303405" lon="0.91803"><ele>784.0</ele><time>2026-04-24T16:17:11.922Z</time></trkpt><trkpt lat="41.30327" lon="0.918095"><ele>784.0</ele><time>2026-04-24T16:17:12.922Z</time></trkpt><trkpt lat="41.3031317" lon="0.9181017"><ele>784.0</ele><time>2026-04-24T16:17:13.921Z</time></trkpt><trkpt lat="41.3030017" lon="0.91809"><ele>784.0</ele><time>2026-04-24T16:17:14.921Z</time></trkpt><trkpt lat="41.3029017" lon="0.9180183"><ele>781.0</ele><time>2026-04-24T16:17:15.921Z</time></trkpt><trkpt lat="41.3028383" lon="0.9178967"><ele>778.0</ele><time>2026-04-24T16:17:16.921Z</time></trkpt><trkpt lat="41.3028067" lon="0.9177517"><ele>775.0</ele><time>2026-04-24T16:17:17.922Z</time></trkpt><trkpt lat="41.3027967" lon="0.917575"><ele>772.0</ele><time>2026-04-24T16:17:18.922Z</time></trkpt><trkpt lat="41.3027917" lon="0.9173817"><ele>771.25</ele><time>2026-04-24T16:17:19.921Z</time></trkpt><trkpt lat="41.3028017" lon="0.9171883"><ele>770.5</ele><time>2026-04-24T16:17:20.922Z</time></trkpt><trkpt lat="41.3028167" lon="0.9169933"><ele>769.75</ele><time>2026-04-24T16:17:21.921Z</time></trkpt><trkpt lat="41.3028483" lon="0.9168017"><ele>769.0</ele><time>2026-04-24T16:17:22.921Z</time></trkpt><trkpt lat="41.30289" lon="0.9166117"><ele>767.3333333333333</ele><time>2026-04-24T16:17:23.921Z</time></trkpt><trkpt lat="41.302925" lon="0.9164167"><ele>765.6666666666666</ele><time>2026-04-24T16:17:24.921Z</time></trkpt><trkpt lat="41.3029433" lon="0.91622"><ele>764.0</ele><time>2026-04-24T16:17:25.922Z</time></trkpt><trkpt lat="41.30295" lon="0.91602"><ele>764.8000000000001</ele><time>2026-04-24T16:17:26.922Z</time></trkpt><trkpt lat="41.3029617" lon="0.9158417"><ele>765.6</ele><time>2026-04-24T16:17:27.921Z</time></trkpt><trkpt lat="41.3029667" lon="0.9156733"><ele>766.4</ele><time>2026-04-24T16:17:28.922Z</time></trkpt><trkpt lat="41.3029733" lon="0.915535"><ele>767.2</ele><time>2026-04-24T16:17:29.922Z</time></trkpt><trkpt lat="41.3029783" lon="0.9154333"><ele>768.0</ele><time>2026-04-24T16:17:30.921Z</time></trkpt><trkpt lat="41.3029933" lon="0.915285"><ele>768.0</ele><time>2026-04-24T16:17:32.922Z</time></trkpt><trkpt lat="41.3030317" lon="0.9152017"><ele>768.0</ele><time>2026-04-24T16:17:33.921Z</time></trkpt><trkpt lat="41.3031083" lon="0.9151267"><ele>768.0</ele><time>2026-04-24T16:17:34.922Z</time></trkpt><trkpt lat="41.3032067" lon="0.9150367"><ele>768.0</ele><time>2026-04-24T16:17:35.922Z</time></trkpt><trkpt lat="41.3033217" lon="0.9149383"><ele>768.0</ele><time>2026-04-24T16:17:36.922Z</time></trkpt><trkpt lat="41.3034417" lon="0.9148317"><ele>770.6666666666667</ele><time>2026-04-24T16:17:37.921Z</time></trkpt><trkpt lat="41.303575" lon="0.9147117"><ele>773.3333333333334</ele><time>2026-04-24T16:17:38.921Z</time></trkpt><trkpt lat="41.3037167" lon="0.914585"><ele>776.0</ele><time>2026-04-24T16:17:39.921Z</time></trkpt><trkpt lat="41.3038583" lon="0.9144583"><ele>777.6666666666667</ele><time>2026-04-24T16:17:40.922Z</time></trkpt><trkpt lat="41.3040033" lon="0.9143233"><ele>779.3333333333333</ele><time>2026-04-24T16:17:41.921Z</time></trkpt><trkpt lat="41.3041433" lon="0.9141967"><ele>781.0</ele><time>2026-04-24T16:17:42.922Z</time></trkpt><trkpt lat="41.30428" lon="0.9140783"><ele>778.5</ele><time>2026-04-24T16:17:43.921Z</time></trkpt><trkpt lat="41.3044067" lon="0.913955"><ele>776.0</ele><time>2026-04-24T16:17:44.921Z</time></trkpt><trkpt lat="41.3045033" lon="0.9138167"><ele>773.5</ele><time>2026-04-24T16:17:45.921Z</time></trkpt><trkpt lat="41.304585" lon="0.91368"><ele>771.0</ele><time>2026-04-24T16:17:46.921Z</time></trkpt><trkpt lat="41.3046267" lon="0.9135067"><ele>769.0</ele><time>2026-04-24T16:17:47.921Z</time></trkpt><trkpt lat="41.30464" lon="0.9133183"><ele>767.0</ele><time>2026-04-24T16:17:48.921Z</time></trkpt><trkpt lat="41.3046483" lon="0.9131033"><ele>765.0</ele><time>2026-04-24T16:17:49.922Z</time></trkpt><trkpt lat="41.304645" lon="0.9128817"><ele>765.0</ele><time>2026-04-24T16:17:50.921Z</time></trkpt><trkpt lat="41.3046467" lon="0.9126583"><ele>765.0</ele><time>2026-04-24T16:17:51.921Z</time></trkpt><trkpt lat="41.3046517" lon="0.9124383"><ele>765.0</ele><time>2026-04-24T16:17:52.922Z</time></trkpt><trkpt lat="41.3046533" lon="0.912235"><ele>765.75</ele><time>2026-04-24T16:17:53.921Z</time></trkpt><trkpt lat="41.3046583" lon="0.912045"><ele>766.5</ele><time>2026-04-24T16:17:54.922Z</time></trkpt><trkpt lat="41.3046833" lon="0.9118683"><ele>767.25</ele><time>2026-04-24T16:17:55.921Z</time></trkpt><trkpt lat="41.3047267" lon="0.911695"><ele>768.0</ele><time>2026-04-24T16:17:56.921Z</time></trkpt><trkpt lat="41.3047917" lon="0.9115433"><ele>768.0</ele><time>2026-04-24T16:17:57.922Z</time></trkpt><trkpt lat="41.3048417" lon="0.9113767"><ele>768.0</ele><time>2026-04-24T16:17:58.922Z</time></trkpt><trkpt lat="41.3048617" lon="0.9111983"><ele>768.0</ele><time>2026-04-24T16:17:59.921Z</time></trkpt><trkpt lat="41.3048433" lon="0.911005"><ele>768.0</ele><time>2026-04-24T16:18:00.921Z</time></trkpt><trkpt lat="41.3047983" lon="0.9108117"><ele>761.3333333333334</ele><time>2026-04-24T16:18:01.922Z</time></trkpt><trkpt lat="41.3047433" lon="0.9106217"><ele>754.6666666666667</ele><time>2026-04-24T16:18:02.922Z</time></trkpt><trkpt lat="41.3046933" lon="0.9104117"><ele>748.0</ele><time>2026-04-24T16:18:03.922Z</time></trkpt><trkpt lat="41.30466" lon="0.910185"><ele>746.3333333333334</ele><time>2026-04-24T16:18:04.922Z</time></trkpt><trkpt lat="41.30464" lon="0.9099617"><ele>744.6666666666666</ele><time>2026-04-24T16:18:05.921Z</time></trkpt><trkpt lat="41.3046183" lon="0.9097417"><ele>743.0</ele><time>2026-04-24T16:18:06.921Z</time></trkpt><trkpt lat="41.3046033" lon="0.9095317"><ele>743.0</ele><time>2026-04-24T16:18:07.921Z</time></trkpt><trkpt lat="41.3045917" lon="0.9093267"><ele>743.0</ele><time>2026-04-24T16:18:08.921Z</time></trkpt><trkpt lat="41.3045767" lon="0.9091367"><ele>743.0</ele><time>2026-04-24T16:18:09.921Z</time></trkpt><trkpt lat="41.3045717" lon="0.908975"><ele>743.0</ele><time>2026-04-24T16:18:10.922Z</time></trkpt><trkpt lat="41.3045883" lon="0.908835"><ele>742.0</ele><time>2026-04-24T16:18:11.921Z</time></trkpt><trkpt lat="41.3046467" lon="0.9087033"><ele>741.0</ele><time>2026-04-24T16:18:12.922Z</time></trkpt><trkpt lat="41.3047467" lon="0.9086017"><ele>740.0</ele><time>2026-04-24T16:18:13.922Z</time></trkpt><trkpt lat="41.3048683" lon="0.9085283"><ele>739.0</ele><time>2026-04-24T16:18:14.921Z</time></trkpt><trkpt lat="41.3049633" lon="0.90844"><ele>742.0</ele><time>2026-04-24T16:18:15.921Z</time></trkpt><trkpt lat="41.3050233" lon="0.9083133"><ele>745.0</ele><time>2026-04-24T16:18:16.921Z</time></trkpt><trkpt lat="41.3050483" lon="0.9081583"><ele>748.0</ele><time>2026-04-24T16:18:17.921Z</time></trkpt><trkpt lat="41.3050183" lon="0.9079783"><ele>751.0</ele><time>2026-04-24T16:18:18.922Z</time></trkpt><trkpt lat="41.30497" lon="0.90779"><ele>751.0</ele><time>2026-04-24T16:18:19.921Z</time></trkpt><trkpt lat="41.304925" lon="0.907625"><ele>751.0</ele><time>2026-04-24T16:18:20.922Z</time></trkpt><trkpt lat="41.3048867" lon="0.9074417"><ele>751.0</ele><time>2026-04-24T16:18:21.922Z</time></trkpt><trkpt lat="41.3048733" lon="0.907275"><ele>751.0</ele><time>2026-04-24T16:18:22.922Z</time></trkpt><trkpt lat="41.30491" lon="0.9071167"><ele>749.75</ele><time>2026-04-24T16:18:23.922Z</time></trkpt><trkpt lat="41.3049783" lon="0.9070033"><ele>748.5</ele><time>2026-04-24T16:18:24.922Z</time></trkpt><trkpt lat="41.305085" lon="0.9069583"><ele>747.25</ele><time>2026-04-24T16:18:25.921Z</time></trkpt><trkpt lat="41.3052067" lon="0.9069767"><ele>746.0</ele><time>2026-04-24T16:18:26.921Z</time></trkpt><trkpt lat="41.305335" lon="0.9070017"><ele>746.0</ele><time>2026-04-24T16:18:27.921Z</time></trkpt><trkpt lat="41.30546" lon="0.9069967"><ele>746.0</ele><time>2026-04-24T16:18:28.922Z</time></trkpt><trkpt lat="41.3055633" lon="0.906935"><ele>746.0</ele><time>2026-04-24T16:18:29.921Z</time></trkpt><trkpt lat="41.3056233" lon="0.9068417"><ele>746.0</ele><time>2026-04-24T16:18:30.921Z</time></trkpt><trkpt lat="41.305655" lon="0.9067017"><ele>746.0</ele><time>2026-04-24T16:18:31.921Z</time></trkpt><trkpt lat="41.305655" lon="0.9065233"><ele>744.75</ele><time>2026-04-24T16:18:32.922Z</time></trkpt><trkpt lat="41.3056517" lon="0.9063233"><ele>743.5</ele><time>2026-04-24T16:18:33.921Z</time></trkpt><trkpt lat="41.305675" lon="0.9061367"><ele>742.25</ele><time>2026-04-24T16:18:34.921Z</time></trkpt><trkpt lat="41.305715" lon="0.90595"><ele>741.0</ele><time>2026-04-24T16:18:35.921Z</time></trkpt><trkpt lat="41.3057883" lon="0.90581"><ele>738.75</ele><time>2026-04-24T16:18:36.922Z</time></trkpt><trkpt lat="41.305885" lon="0.9057283"><ele>736.5</ele><time>2026-04-24T16:18:37.922Z</time></trkpt><trkpt lat="41.3060133" lon="0.9057017"><ele>734.25</ele><time>2026-04-24T16:18:38.922Z</time></trkpt><trkpt lat="41.3061567" lon="0.9057367"><ele>732.0</ele><time>2026-04-24T16:18:39.921Z</time></trkpt><trkpt lat="41.3063067" lon="0.9057717"><ele>731.75</ele><time>2026-04-24T16:18:40.922Z</time></trkpt><trkpt lat="41.3064483" lon="0.90577"><ele>731.5</ele><time>2026-04-24T16:18:41.922Z</time></trkpt><trkpt lat="41.3065733" lon="0.9057067"><ele>731.25</ele><time>2026-04-24T16:18:42.922Z</time></trkpt><trkpt lat="41.3066667" lon="0.9056017"><ele>731.0</ele><time>2026-04-24T16:18:43.922Z</time></trkpt><trkpt lat="41.30674" lon="0.9054533"><ele>731.0</ele><time>2026-04-24T16:18:44.922Z</time></trkpt><trkpt lat="41.3068133" lon="0.9052667"><ele>731.0</ele><time>2026-04-24T16:18:45.922Z</time></trkpt><trkpt lat="41.30689" lon="0.9050617"><ele>731.0</ele><time>2026-04-24T16:18:46.921Z</time></trkpt><trkpt lat="41.3069767" lon="0.9048533"><ele>729.0</ele><time>2026-04-24T16:18:47.921Z</time></trkpt><trkpt lat="41.3070733" lon="0.9046383"><ele>727.0</ele><time>2026-04-24T16:18:48.921Z</time></trkpt><trkpt lat="41.3071833" lon="0.904415"><ele>725.0</ele><time>2026-04-24T16:18:49.921Z</time></trkpt><trkpt lat="41.3072817" lon="0.9041917"><ele>723.6666666666666</ele><time>2026-04-24T16:18:50.921Z</time></trkpt><trkpt lat="41.30738" lon="0.9039517"><ele>722.3333333333334</ele><time>2026-04-24T16:18:51.922Z</time></trkpt><trkpt lat="41.3074733" lon="0.903715"><ele>721.0</ele><time>2026-04-24T16:18:52.921Z</time></trkpt><trkpt lat="41.3075767" lon="0.9034833"><ele>718.3333333333334</ele><time>2026-04-24T16:18:53.922Z</time></trkpt><trkpt lat="41.3076767" lon="0.90325"><ele>715.6666666666666</ele><time>2026-04-24T16:18:54.921Z</time></trkpt><trkpt lat="41.3077767" lon="0.9030183"><ele>713.0</ele><time>2026-04-24T16:18:55.922Z</time></trkpt><trkpt lat="41.30787" lon="0.9027917"><ele>713.3333333333333</ele><time>2026-04-24T16:18:56.922Z</time></trkpt><trkpt lat="41.30796" lon="0.9025567"><ele>713.6666666666666</ele><time>2026-04-24T16:18:57.921Z</time></trkpt><trkpt lat="41.30804" lon="0.9023233"><ele>714.0</ele><time>2026-04-24T16:18:58.922Z</time></trkpt><trkpt lat="41.30809" lon="0.9020817"><ele>714.0</ele><time>2026-04-24T16:18:59.921Z</time></trkpt><trkpt lat="41.3081217" lon="0.9018183"><ele>714.0</ele><time>2026-04-24T16:19:00.922Z</time></trkpt><trkpt lat="41.3081333" lon="0.9015483"><ele>714.0</ele><time>2026-04-24T16:19:01.922Z</time></trkpt><trkpt lat="41.3081417" lon="0.90127"><ele>713.3333333333334</ele><time>2026-04-24T16:19:02.922Z</time></trkpt><trkpt lat="41.3081533" lon="0.9010067"><ele>712.6666666666667</ele><time>2026-04-24T16:19:03.922Z</time></trkpt><trkpt lat="41.3081533" lon="0.9007633"><ele>712.0</ele><time>2026-04-24T16:19:04.922Z</time></trkpt><trkpt lat="41.3081417" lon="0.900535"><ele>711.0</ele><time>2026-04-24T16:19:05.922Z</time></trkpt><trkpt lat="41.3081033" lon="0.9003117"><ele>710.0</ele><time>2026-04-24T16:19:06.921Z</time></trkpt><trkpt lat="41.3080383" lon="0.9000883"><ele>709.0</ele><time>2026-04-24T16:19:07.922Z</time></trkpt><trkpt lat="41.3079533" lon="0.8998583"><ele>703.6666666666667</ele><time>2026-04-24T16:19:08.922Z</time></trkpt><trkpt lat="41.3078667" lon="0.8996333"><ele>698.3333333333334</ele><time>2026-04-24T16:19:09.922Z</time></trkpt><trkpt lat="41.30778" lon="0.8994133"><ele>693.0</ele><time>2026-04-24T16:19:10.922Z</time></trkpt><trkpt lat="41.307715" lon="0.8992017"><ele>692.6666666666666</ele><time>2026-04-24T16:19:11.922Z</time></trkpt><trkpt lat="41.3076817" lon="0.8990017"><ele>692.3333333333333</ele><time>2026-04-24T16:19:12.921Z</time></trkpt><trkpt lat="41.30768" lon="0.89879"><ele>692.0</ele><time>2026-04-24T16:19:13.922Z</time></trkpt><trkpt lat="41.3077017" lon="0.89859"><ele>691.75</ele><time>2026-04-24T16:19:14.922Z</time></trkpt><trkpt lat="41.307695" lon="0.8984067"><ele>691.5</ele><time>2026-04-24T16:19:15.921Z</time></trkpt><trkpt lat="41.3076433" lon="0.8982317"><ele>691.25</ele><time>2026-04-24T16:19:16.921Z</time></trkpt><trkpt lat="41.3075633" lon="0.898055"><ele>691.0</ele><time>2026-04-24T16:19:17.921Z</time></trkpt><trkpt lat="41.3074867" lon="0.8978867"><ele>691.0</ele><time>2026-04-24T16:19:18.921Z</time></trkpt><trkpt lat="41.3074233" lon="0.8977167"><ele>691.0</ele><time>2026-04-24T16:19:19.921Z</time></trkpt><trkpt lat="41.307395" lon="0.8975483"><ele>691.0</ele><time>2026-04-24T16:19:20.922Z</time></trkpt><trkpt lat="41.307415" lon="0.8973883"><ele>691.0</ele><time>2026-04-24T16:19:21.921Z</time></trkpt><trkpt lat="41.3074767" lon="0.8972333"><ele>691.3333333333334</ele><time>2026-04-24T16:19:22.922Z</time></trkpt><trkpt lat="41.3075733" lon="0.89708"><ele>691.6666666666666</ele><time>2026-04-24T16:19:23.921Z</time></trkpt><trkpt lat="41.307685" lon="0.8969333"><ele>692.0</ele><time>2026-04-24T16:19:24.921Z</time></trkpt><trkpt lat="41.3077833" lon="0.89676"><ele>688.6666666666666</ele><time>2026-04-24T16:19:25.922Z</time></trkpt><trkpt lat="41.307865" lon="0.8965617"><ele>685.3333333333334</ele><time>2026-04-24T16:19:26.921Z</time></trkpt><trkpt lat="41.3079283" lon="0.8963567"><ele>682.0</ele><time>2026-04-24T16:19:27.921Z</time></trkpt><trkpt lat="41.307985" lon="0.8961417"><ele>682.0</ele><time>2026-04-24T16:19:28.921Z</time></trkpt><trkpt lat="41.3080567" lon="0.8959517"><ele>682.0</ele><time>2026-04-24T16:19:29.921Z</time></trkpt><trkpt lat="41.3081533" lon="0.8957967"><ele>682.0</ele><time>2026-04-24T16:19:30.922Z</time></trkpt><trkpt lat="41.3082767" lon="0.8956983"><ele>682.0</ele><time>2026-04-24T16:19:31.922Z</time></trkpt><trkpt lat="41.3084283" lon="0.895625"><ele>682.0</ele><time>2026-04-24T16:19:32.922Z</time></trkpt><trkpt lat="41.3085917" lon="0.8955567"><ele>682.0</ele><time>2026-04-24T16:19:33.922Z</time></trkpt><trkpt lat="41.3087517" lon="0.8954833"><ele>682.0</ele><time>2026-04-24T16:19:34.921Z</time></trkpt><trkpt lat="41.3089167" lon="0.89544"><ele>682.0</ele><time>2026-04-24T16:19:35.922Z</time></trkpt><trkpt lat="41.309085" lon="0.8954367"><ele>682.0</ele><time>2026-04-24T16:19:36.922Z</time></trkpt><trkpt lat="41.3092583" lon="0.8954617"><ele>682.0</ele><time>2026-04-24T16:19:37.921Z</time></trkpt><trkpt lat="41.3094383" lon="0.895495"><ele>682.0</ele><time>2026-04-24T16:19:38.921Z</time></trkpt><trkpt lat="41.3096283" lon="0.895525"><ele>682.0</ele><time>2026-04-24T16:19:39.922Z</time></trkpt><trkpt lat="41.30982" lon="0.89556"><ele>679.6666666666667</ele><time>2026-04-24T16:19:40.921Z</time></trkpt><trkpt lat="41.3100133" lon="0.895595"><ele>677.3333333333334</ele><time>2026-04-24T16:19:41.921Z</time></trkpt><trkpt lat="41.3102017" lon="0.895625"><ele>675.0</ele><time>2026-04-24T16:19:42.922Z</time></trkpt><trkpt lat="41.3103867" lon="0.8956533"><ele>675.0</ele><time>2026-04-24T16:19:43.921Z</time></trkpt><trkpt lat="41.31055" lon="0.895685"><ele>675.0</ele><time>2026-04-24T16:19:44.921Z</time></trkpt><trkpt lat="41.310705" lon="0.895715"><ele>675.0</ele><time>2026-04-24T16:19:45.921Z</time></trkpt><trkpt lat="41.3108417" lon="0.8957233"><ele>675.0</ele><time>2026-04-24T16:19:46.922Z</time></trkpt><trkpt lat="41.3109683" lon="0.8956867"><ele>675.0</ele><time>2026-04-24T16:19:47.922Z</time></trkpt><trkpt lat="41.3110933" lon="0.895605"><ele>675.0</ele><time>2026-04-24T16:19:48.921Z</time></trkpt><trkpt lat="41.3112" lon="0.8954733"><ele>675.0</ele><time>2026-04-24T16:19:49.921Z</time></trkpt><trkpt lat="41.31131" lon="0.8953217"><ele>675.6666666666666</ele><time>2026-04-24T16:19:50.922Z</time></trkpt><trkpt lat="41.31143" lon="0.8951567"><ele>676.3333333333333</ele><time>2026-04-24T16:19:51.921Z</time></trkpt><trkpt lat="41.3115617" lon="0.8949983"><ele>677.0</ele><time>2026-04-24T16:19:52.921Z</time></trkpt><trkpt lat="41.3116933" lon="0.894825"><ele>675.6666666666666</ele><time>2026-04-24T16:19:53.922Z</time></trkpt><trkpt lat="41.311825" lon="0.8946533"><ele>674.3333333333334</ele><time>2026-04-24T16:19:54.921Z</time></trkpt><trkpt lat="41.3119583" lon="0.8944733"><ele>673.0</ele><time>2026-04-24T16:19:55.921Z</time></trkpt><trkpt lat="41.3121" lon="0.8942983"><ele>673.0</ele><time>2026-04-24T16:19:56.921Z</time></trkpt><trkpt lat="41.3122417" lon="0.894115"><ele>673.0</ele><time>2026-04-24T16:19:57.922Z</time></trkpt><trkpt lat="41.31239" lon="0.8939267"><ele>673.0</ele><time>2026-04-24T16:19:58.922Z</time></trkpt><trkpt lat="41.3125283" lon="0.89374"><ele>673.0</ele><time>2026-04-24T16:19:59.922Z</time></trkpt><trkpt lat="41.3126717" lon="0.8935583"><ele>673.0</ele><time>2026-04-24T16:20:00.921Z</time></trkpt><trkpt lat="41.3128017" lon="0.89339"><ele>673.0</ele><time>2026-04-24T16:20:01.921Z</time></trkpt><trkpt lat="41.312915" lon="0.89323"><ele>672.5</ele><time>2026-04-24T16:20:02.921Z</time></trkpt><trkpt lat="41.3130083" lon="0.8930783"><ele>672.0</ele><time>2026-04-24T16:20:03.922Z</time></trkpt><trkpt lat="41.3130917" lon="0.89293"><ele>671.5</ele><time>2026-04-24T16:20:04.922Z</time></trkpt><trkpt lat="41.313145" lon="0.8927417"><ele>671.0</ele><time>2026-04-24T16:20:05.922Z</time></trkpt><trkpt lat="41.31317" lon="0.89254"><ele>670.0</ele><time>2026-04-24T16:20:06.921Z</time></trkpt><trkpt lat="41.3131917" lon="0.8923283"><ele>669.0</ele><time>2026-04-24T16:20:07.922Z</time></trkpt><trkpt lat="41.3132283" lon="0.892135"><ele>668.0</ele><time>2026-04-24T16:20:08.922Z</time></trkpt><trkpt lat="41.3133017" lon="0.8919583"><ele>668.0</ele><time>2026-04-24T16:20:09.921Z</time></trkpt><trkpt lat="41.3133983" lon="0.8917933"><ele>668.0</ele><time>2026-04-24T16:20:10.921Z</time></trkpt><trkpt lat="41.3135033" lon="0.89162"><ele>668.0</ele><time>2026-04-24T16:20:11.921Z</time></trkpt><trkpt lat="41.3136167" lon="0.8914633"><ele>665.75</ele><time>2026-04-24T16:20:12.922Z</time></trkpt><trkpt lat="41.3137133" lon="0.8913083"><ele>663.5</ele><time>2026-04-24T16:20:13.921Z</time></trkpt><trkpt lat="41.31379" lon="0.8911567"><ele>661.25</ele><time>2026-04-24T16:20:14.922Z</time></trkpt><trkpt lat="41.3138333" lon="0.891"><ele>659.0</ele><time>2026-04-24T16:20:15.922Z</time></trkpt><trkpt lat="41.3138367" lon="0.8908467"><ele>658.5</ele><time>2026-04-24T16:20:16.922Z</time></trkpt><trkpt lat="41.3137883" lon="0.890695"><ele>658.0</ele><time>2026-04-24T16:20:17.922Z</time></trkpt><trkpt lat="41.3137" lon="0.8905683"><ele>657.5</ele><time>2026-04-24T16:20:18.921Z</time></trkpt><trkpt lat="41.3135917" lon="0.8904517"><ele>657.0</ele><time>2026-04-24T16:20:19.922Z</time></trkpt><trkpt lat="41.3134783" lon="0.8903283"><ele>657.0</ele><time>2026-04-24T16:20:20.921Z</time></trkpt><trkpt lat="41.3133533" lon="0.890185"><ele>657.0</ele><time>2026-04-24T16:20:21.921Z</time></trkpt><trkpt lat="41.3132283" lon="0.8900417"><ele>657.0</ele><time>2026-04-24T16:20:22.921Z</time></trkpt><trkpt lat="41.3130933" lon="0.8899033"><ele>654.3333333333334</ele><time>2026-04-24T16:20:23.922Z</time></trkpt><trkpt lat="41.3129633" lon="0.88977"><ele>651.6666666666667</ele><time>2026-04-24T16:20:24.922Z</time></trkpt><trkpt lat="41.3128417" lon="0.8896417"><ele>649.0</ele><time>2026-04-24T16:20:25.922Z</time></trkpt><trkpt lat="41.3127283" lon="0.8895083"><ele>649.0</ele><time>2026-04-24T16:20:26.921Z</time></trkpt><trkpt lat="41.3126217" lon="0.889385"><ele>649.0</ele><time>2026-04-24T16:20:27.921Z</time></trkpt><trkpt lat="41.3125233" lon="0.8892617"><ele>649.0</ele><time>2026-04-24T16:20:28.921Z</time></trkpt><trkpt lat="41.3124517" lon="0.8891183"><ele>649.0</ele><time>2026-04-24T16:20:29.922Z</time></trkpt><trkpt lat="41.3124183" lon="0.8889533"><ele>651.75</ele><time>2026-04-24T16:20:30.922Z</time></trkpt><trkpt lat="41.3124117" lon="0.8887783"><ele>654.5</ele><time>2026-04-24T16:20:31.921Z</time></trkpt><trkpt lat="41.3124233" lon="0.8885767"><ele>657.25</ele><time>2026-04-24T16:20:32.922Z</time></trkpt><trkpt lat="41.31245" lon="0.888385"><ele>660.0</ele><time>2026-04-24T16:20:33.922Z</time></trkpt><trkpt lat="41.3124733" lon="0.8882"><ele>660.0</ele><time>2026-04-24T16:20:34.922Z</time></trkpt><trkpt lat="41.312495" lon="0.8880183"><ele>660.0</ele><time>2026-04-24T16:20:35.922Z</time></trkpt><trkpt lat="41.3125417" lon="0.8878467"><ele>660.0</ele><time>2026-04-24T16:20:36.921Z</time></trkpt><trkpt lat="41.3126183" lon="0.8876867"><ele>660.0</ele><time>2026-04-24T16:20:37.921Z</time></trkpt><trkpt lat="41.312725" lon="0.8875367"><ele>658.25</ele><time>2026-04-24T16:20:38.922Z</time></trkpt><trkpt lat="41.3128367" lon="0.8874067"><ele>656.5</ele><time>2026-04-24T16:20:39.921Z</time></trkpt><trkpt lat="41.3129267" lon="0.887265"><ele>654.75</ele><time>2026-04-24T16:20:40.921Z</time></trkpt><trkpt lat="41.312985" lon="0.8871117"><ele>653.0</ele><time>2026-04-24T16:20:41.921Z</time></trkpt><trkpt lat="41.313" lon="0.88694"><ele>651.6666666666666</ele><time>2026-04-24T16:20:42.922Z</time></trkpt><trkpt lat="41.3129733" lon="0.88675"><ele>650.3333333333334</ele><time>2026-04-24T16:20:43.921Z</time></trkpt><trkpt lat="41.3129233" lon="0.8865483"><ele>649.0</ele><time>2026-04-24T16:20:44.921Z</time></trkpt><trkpt lat="41.3128667" lon="0.8863333"><ele>649.0</ele><time>2026-04-24T16:20:45.921Z</time></trkpt><trkpt lat="41.3128067" lon="0.8861383"><ele>649.0</ele><time>2026-04-24T16:20:46.921Z</time></trkpt><trkpt lat="41.3127467" lon="0.8859617"><ele>649.0</ele><time>2026-04-24T16:20:47.921Z</time></trkpt><trkpt lat="41.3127083" lon="0.8857917"><ele>649.0</ele><time>2026-04-24T16:20:48.921Z</time></trkpt><trkpt lat="41.3127" lon="0.8856333"><ele>649.0</ele><time>2026-04-24T16:20:49.922Z</time></trkpt><trkpt lat="41.3127367" lon="0.88547"><ele>649.0</ele><time>2026-04-24T16:20:50.922Z</time></trkpt><trkpt lat="41.3128083" lon="0.8853233"><ele>649.0</ele><time>2026-04-24T16:20:51.922Z</time></trkpt><trkpt lat="41.31291" lon="0.8852133"><ele>649.0</ele><time>2026-04-24T16:20:52.921Z</time></trkpt><trkpt lat="41.313025" lon="0.8851167"><ele>650.25</ele><time>2026-04-24T16:20:53.922Z</time></trkpt><trkpt lat="41.3131117" lon="0.88501"><ele>651.5</ele><time>2026-04-24T16:20:54.922Z</time></trkpt><trkpt lat="41.3131667" lon="0.884875"><ele>652.75</ele><time>2026-04-24T16:20:55.922Z</time></trkpt><trkpt lat="41.3131717" lon="0.88471"><ele>654.0</ele><time>2026-04-24T16:20:56.922Z</time></trkpt><trkpt lat="41.31315" lon="0.8845233"><ele>654.0</ele><time>2026-04-24T16:20:57.922Z</time></trkpt><trkpt lat="41.3131383" lon="0.8843367"><ele>654.0</ele><time>2026-04-24T16:20:58.922Z</time></trkpt><trkpt lat="41.3131667" lon="0.8841533"><ele>654.0</ele><time>2026-04-24T16:20:59.921Z</time></trkpt><trkpt lat="41.3132283" lon="0.88397"><ele>654.0</ele><time>2026-04-24T16:21:00.922Z</time></trkpt><trkpt lat="41.3133067" lon="0.8837967"><ele>652.5</ele><time>2026-04-24T16:21:01.922Z</time></trkpt><trkpt lat="41.313405" lon="0.88366"><ele>651.0</ele><time>2026-04-24T16:21:02.921Z</time></trkpt><trkpt lat="41.313515" lon="0.88359"><ele>649.5</ele><time>2026-04-24T16:21:03.921Z</time></trkpt><trkpt lat="41.313615" lon="0.8835917"><ele>648.0</ele><time>2026-04-24T16:21:04.922Z</time></trkpt><trkpt lat="41.3137217" lon="0.8836583"><ele>648.0</ele><time>2026-04-24T16:21:05.922Z</time></trkpt><trkpt lat="41.3138183" lon="0.883755"><ele>648.0</ele><time>2026-04-24T16:21:06.921Z</time></trkpt><trkpt lat="41.313935" lon="0.88387"><ele>648.0</ele><time>2026-04-24T16:21:07.921Z</time></trkpt><trkpt lat="41.3140667" lon="0.883985"><ele>648.0</ele><time>2026-04-24T16:21:08.921Z</time></trkpt><trkpt lat="41.3142033" lon="0.8841017"><ele>648.3333333333334</ele><time>2026-04-24T16:21:09.922Z</time></trkpt><trkpt lat="41.314335" lon="0.8842217"><ele>648.6666666666667</ele><time>2026-04-24T16:21:10.921Z</time></trkpt><trkpt lat="41.3144733" lon="0.8843467"><ele>649.0</ele><time>2026-04-24T16:21:11.921Z</time></trkpt><trkpt lat="41.3146033" lon="0.884455"><ele>650.5</ele><time>2026-04-24T16:21:12.921Z</time></trkpt><trkpt lat="41.3147217" lon="0.884545"><ele>652.0</ele><time>2026-04-24T16:21:13.921Z</time></trkpt><trkpt lat="41.314835" lon="0.8846067"><ele>653.5</ele><time>2026-04-24T16:21:14.922Z</time></trkpt><trkpt lat="41.314955" lon="0.8846183"><ele>655.0</ele><time>2026-04-24T16:21:15.921Z</time></trkpt><trkpt lat="41.3150567" lon="0.884565"><ele>655.0</ele><time>2026-04-24T16:21:16.922Z</time></trkpt><trkpt lat="41.3151383" lon="0.8844633"><ele>655.0</ele><time>2026-04-24T16:21:17.922Z</time></trkpt><trkpt lat="41.3151867" lon="0.8843133"><ele>655.0</ele><time>2026-04-24T16:21:18.922Z</time></trkpt><trkpt lat="41.3152033" lon="0.8841267"><ele>655.0</ele><time>2026-04-24T16:21:19.921Z</time></trkpt><trkpt lat="41.3152033" lon="0.88392"><ele>653.3333333333334</ele><time>2026-04-24T16:21:20.922Z</time></trkpt><trkpt lat="41.3151783" lon="0.8836933"><ele>651.6666666666666</ele><time>2026-04-24T16:21:21.921Z</time></trkpt><trkpt lat="41.3151317" lon="0.8834683"><ele>650.0</ele><time>2026-04-24T16:21:22.922Z</time></trkpt><trkpt lat="41.31507" lon="0.883245"><ele>649.6666666666666</ele><time>2026-04-24T16:21:23.921Z</time></trkpt><trkpt lat="41.3150017" lon="0.8830183"><ele>649.3333333333334</ele><time>2026-04-24T16:21:24.921Z</time></trkpt><trkpt lat="41.314935" lon="0.882795"><ele>649.0</ele><time>2026-04-24T16:21:25.922Z</time></trkpt><trkpt lat="41.3148783" lon="0.88259"><ele>649.0</ele><time>2026-04-24T16:21:26.921Z</time></trkpt><trkpt lat="41.3148417" lon="0.8824117"><ele>649.0</ele><time>2026-04-24T16:21:27.922Z</time></trkpt><trkpt lat="41.3148267" lon="0.8822483"><ele>649.0</ele><time>2026-04-24T16:21:28.922Z</time></trkpt><trkpt lat="41.3148533" lon="0.8820933"><ele>649.0</ele><time>2026-04-24T16:21:29.922Z</time></trkpt><trkpt lat="41.3149117" lon="0.8819367"><ele>649.0</ele><time>2026-04-24T16:21:30.922Z</time></trkpt><trkpt lat="41.3150133" lon="0.8818183"><ele>649.0</ele><time>2026-04-24T16:21:31.921Z</time></trkpt><trkpt lat="41.31516" lon="0.8817467"><ele>649.0</ele><time>2026-04-24T16:21:32.922Z</time></trkpt><trkpt lat="41.3153167" lon="0.8816917"><ele>648.6666666666667</ele><time>2026-04-24T16:21:33.921Z</time></trkpt><trkpt lat="41.315475" lon="0.8816433"><ele>648.3333333333334</ele><time>2026-04-24T16:21:34.922Z</time></trkpt><trkpt lat="41.3156333" lon="0.8815933"><ele>648.0</ele><time>2026-04-24T16:21:35.921Z</time></trkpt><trkpt lat="41.315795" lon="0.8815383"><ele>648.6666666666666</ele><time>2026-04-24T16:21:36.922Z</time></trkpt><trkpt lat="41.3159533" lon="0.88148"><ele>649.3333333333333</ele><time>2026-04-24T16:21:37.921Z</time></trkpt><trkpt lat="41.3161133" lon="0.8814267"><ele>650.0</ele><time>2026-04-24T16:21:38.922Z</time></trkpt><trkpt lat="41.316275" lon="0.8813733"><ele>649.6666666666666</ele><time>2026-04-24T16:21:39.922Z</time></trkpt><trkpt lat="41.31643" lon="0.8813217"><ele>649.3333333333334</ele><time>2026-04-24T16:21:40.921Z</time></trkpt><trkpt lat="41.316585" lon="0.881265"><ele>649.0</ele><time>2026-04-24T16:21:41.921Z</time></trkpt><trkpt lat="41.3167367" lon="0.8812067"><ele>649.0</ele><time>2026-04-24T16:21:42.922Z</time></trkpt><trkpt lat="41.31689" lon="0.881155"><ele>649.0</ele><time>2026-04-24T16:21:43.921Z</time></trkpt><trkpt lat="41.31704" lon="0.88111"><ele>649.0</ele><time>2026-04-24T16:21:44.921Z</time></trkpt><trkpt lat="41.3171917" lon="0.881055"><ele>649.3333333333334</ele><time>2026-04-24T16:21:45.921Z</time></trkpt><trkpt lat="41.3173433" lon="0.8809967"><ele>649.6666666666666</ele><time>2026-04-24T16:21:46.921Z</time></trkpt><trkpt lat="41.3174917" lon="0.8809383"><ele>650.0</ele><time>2026-04-24T16:21:47.922Z</time></trkpt><trkpt lat="41.3176367" lon="0.8808917"><ele>650.6666666666666</ele><time>2026-04-24T16:21:48.921Z</time></trkpt><trkpt lat="41.3177817" lon="0.8808383"><ele>651.3333333333334</ele><time>2026-04-24T16:21:49.921Z</time></trkpt><trkpt lat="41.31793" lon="0.8807917"><ele>652.0</ele><time>2026-04-24T16:21:50.921Z</time></trkpt><trkpt lat="41.318085" lon="0.8807417"><ele>652.0</ele><time>2026-04-24T16:21:51.921Z</time></trkpt><trkpt lat="41.3182233" lon="0.8807067"><ele>652.0</ele><time>2026-04-24T16:21:52.922Z</time></trkpt><trkpt lat="41.3183517" lon="0.8806667"><ele>652.0</ele><time>2026-04-24T16:21:53.921Z</time></trkpt><trkpt lat="41.318475" lon="0.880635"><ele>652.0</ele><time>2026-04-24T16:21:54.921Z</time></trkpt><trkpt lat="41.3186017" lon="0.8806317"><ele>652.0</ele><time>2026-04-24T16:21:55.922Z</time></trkpt><trkpt lat="41.3187167" lon="0.8806733"><ele>652.0</ele><time>2026-04-24T16:21:56.922Z</time></trkpt><trkpt lat="41.318825" lon="0.88076"><ele>652.0</ele><time>2026-04-24T16:21:57.922Z</time></trkpt><trkpt lat="41.3189167" lon="0.880875"><ele>652.0</ele><time>2026-04-24T16:21:58.921Z</time></trkpt><trkpt lat="41.319005" lon="0.8810183"><ele>651.25</ele><time>2026-04-24T16:21:59.922Z</time></trkpt><trkpt lat="41.31909" lon="0.8811533"><ele>650.5</ele><time>2026-04-24T16:22:00.921Z</time></trkpt><trkpt lat="41.31917" lon="0.8812883"><ele>649.75</ele><time>2026-04-24T16:22:01.921Z</time></trkpt><trkpt lat="41.3192583" lon="0.881415"><ele>649.0</ele><time>2026-04-24T16:22:02.922Z</time></trkpt><trkpt lat="41.3193617" lon="0.8815183"><ele>649.0</ele><time>2026-04-24T16:22:03.921Z</time></trkpt><trkpt lat="41.31948" lon="0.8815833"><ele>649.0</ele><time>2026-04-24T16:22:04.921Z</time></trkpt><trkpt lat="41.319615" lon="0.8816017"><ele>649.0</ele><time>2026-04-24T16:22:05.921Z</time></trkpt><trkpt lat="41.3197467" lon="0.8815567"><ele>649.0</ele><time>2026-04-24T16:22:06.922Z</time></trkpt><trkpt lat="41.31987" lon="0.8814867"><ele>649.0</ele><time>2026-04-24T16:22:07.921Z</time></trkpt><trkpt lat="41.3200117" lon="0.8813917"><ele>649.0</ele><time>2026-04-24T16:22:08.921Z</time></trkpt><trkpt lat="41.320135" lon="0.8813"><ele>649.0</ele><time>2026-04-24T16:22:09.921Z</time></trkpt><trkpt lat="41.3202633" lon="0.8812183"><ele>649.0</ele><time>2026-04-24T16:22:10.922Z</time></trkpt><trkpt lat="41.3203883" lon="0.8811467"><ele>649.0</ele><time>2026-04-24T16:22:11.922Z</time></trkpt><trkpt lat="41.3205183" lon="0.8810883"><ele>649.0</ele><time>2026-04-24T16:22:12.922Z</time></trkpt><trkpt lat="41.32064" lon="0.8810183"><ele>649.0</ele><time>2026-04-24T16:22:13.922Z</time></trkpt><trkpt lat="41.320755" lon="0.880945"><ele>649.0</ele><time>2026-04-24T16:22:14.921Z</time></trkpt><trkpt lat="41.3208717" lon="0.8808683"><ele>649.5</ele><time>2026-04-24T16:22:15.917Z</time></trkpt><trkpt lat="41.3209933" lon="0.8808083"><ele>650.0</ele><time>2026-04-24T16:22:16.922Z</time></trkpt><trkpt lat="41.3211167" lon="0.8807517"><ele>650.5</ele><time>2026-04-24T16:22:17.921Z</time></trkpt><trkpt lat="41.321245" lon="0.880685"><ele>651.0</ele><time>2026-04-24T16:22:18.922Z</time></trkpt><trkpt lat="41.32137" lon="0.8806083"><ele>648.75</ele><time>2026-04-24T16:22:19.922Z</time></trkpt><trkpt lat="41.3214933" lon="0.88051"><ele>646.5</ele><time>2026-04-24T16:22:20.921Z</time></trkpt><trkpt lat="41.3216083" lon="0.8803867"><ele>644.25</ele><time>2026-04-24T16:22:21.921Z</time></trkpt><trkpt lat="41.3217167" lon="0.8802533"><ele>642.0</ele><time>2026-04-24T16:22:22.922Z</time></trkpt><trkpt lat="41.3218183" lon="0.8801067"><ele>643.3333333333334</ele><time>2026-04-24T16:22:23.921Z</time></trkpt><trkpt lat="41.3219067" lon="0.8799467"><ele>644.6666666666667</ele><time>2026-04-24T16:22:24.922Z</time></trkpt><trkpt lat="41.3219767" lon="0.8797617"><ele>646.0</ele><time>2026-04-24T16:22:25.922Z</time></trkpt><trkpt lat="41.322035" lon="0.879575"><ele>646.0</ele><time>2026-04-24T16:22:26.922Z</time></trkpt><trkpt lat="41.32209" lon="0.87939"><ele>646.0</ele><time>2026-04-24T16:22:27.921Z</time></trkpt><trkpt lat="41.32214" lon="0.879215"><ele>646.0</ele><time>2026-04-24T16:22:28.921Z</time></trkpt><trkpt lat="41.3222" lon="0.87904"><ele>646.0</ele><time>2026-04-24T16:22:29.922Z</time></trkpt><trkpt lat="41.322255" lon="0.878875"><ele>643.0</ele><time>2026-04-24T16:22:30.921Z</time></trkpt><trkpt lat="41.322295" lon="0.8787017"><ele>640.0</ele><time>2026-04-24T16:22:31.921Z</time></trkpt><trkpt lat="41.3223367" lon="0.87854"><ele>637.0</ele><time>2026-04-24T16:22:32.921Z</time></trkpt><trkpt lat="41.3223783" lon="0.87839"><ele>634.0</ele><time>2026-04-24T16:22:33.921Z</time></trkpt><trkpt lat="41.32243" lon="0.8782417"><ele>634.0</ele><time>2026-04-24T16:22:34.921Z</time></trkpt><trkpt lat="41.32249" lon="0.8781033"><ele>634.0</ele><time>2026-04-24T16:22:35.921Z</time></trkpt><trkpt lat="41.3225617" lon="0.8779667"><ele>634.0</ele><time>2026-04-24T16:22:36.921Z</time></trkpt><trkpt lat="41.32265" lon="0.8778517"><ele>634.0</ele><time>2026-04-24T16:22:37.921Z</time></trkpt><trkpt lat="41.32276" lon="0.877755"><ele>634.0</ele><time>2026-04-24T16:22:38.921Z</time></trkpt><trkpt lat="41.322875" lon="0.877685"><ele>634.0</ele><time>2026-04-24T16:22:39.921Z</time></trkpt><trkpt lat="41.3229933" lon="0.8776317"><ele>634.0</ele><time>2026-04-24T16:22:40.921Z</time></trkpt><trkpt lat="41.32311" lon="0.8776183"><ele>634.0</ele><time>2026-04-24T16:22:41.922Z</time></trkpt><trkpt lat="41.3232267" lon="0.8776433"><ele>632.4</ele><time>2026-04-24T16:22:42.922Z</time></trkpt><trkpt lat="41.323325" lon="0.8776867"><ele>630.8</ele><time>2026-04-24T16:22:43.921Z</time></trkpt><trkpt lat="41.3234233" lon="0.8777467"><ele>629.2</ele><time>2026-04-24T16:22:44.921Z</time></trkpt><trkpt lat="41.32352" lon="0.8778267"><ele>627.6</ele><time>2026-04-24T16:22:45.921Z</time></trkpt><trkpt lat="41.3236167" lon="0.877925"><ele>626.0</ele><time>2026-04-24T16:22:46.922Z</time></trkpt><trkpt lat="41.3237117" lon="0.8780233"><ele>626.0</ele><time>2026-04-24T16:22:47.921Z</time></trkpt><trkpt lat="41.3238183" lon="0.8781383"><ele>626.0</ele><time>2026-04-24T16:22:48.922Z</time></trkpt><trkpt lat="41.3239333" lon="0.87826"><ele>626.0</ele><time>2026-04-24T16:22:49.921Z</time></trkpt><trkpt lat="41.3240433" lon="0.87838"><ele>626.0</ele><time>2026-04-24T16:22:50.921Z</time></trkpt><trkpt lat="41.3241517" lon="0.8784967"><ele>623.75</ele><time>2026-04-24T16:22:51.921Z</time></trkpt><trkpt lat="41.3242483" lon="0.87859"><ele>621.5</ele><time>2026-04-24T16:22:52.922Z</time></trkpt><trkpt lat="41.324345" lon="0.8786583"><ele>619.25</ele><time>2026-04-24T16:22:53.921Z</time></trkpt><trkpt lat="41.3244567" lon="0.8786867"><ele>617.0</ele><time>2026-04-24T16:22:54.921Z</time></trkpt><trkpt lat="41.3245767" lon="0.8786667"><ele>617.0</ele><time>2026-04-24T16:22:55.921Z</time></trkpt><trkpt lat="41.3246883" lon="0.8785983"><ele>617.0</ele><time>2026-04-24T16:22:56.921Z</time></trkpt><trkpt lat="41.32479" lon="0.878485"><ele>617.0</ele><time>2026-04-24T16:22:57.921Z</time></trkpt><trkpt lat="41.3248867" lon="0.878345"><ele>617.0</ele><time>2026-04-24T16:22:58.921Z</time></trkpt><trkpt lat="41.3249817" lon="0.878205"><ele>616.5</ele><time>2026-04-24T16:22:59.921Z</time></trkpt><trkpt lat="41.3250683" lon="0.8780633"><ele>616.0</ele><time>2026-04-24T16:23:00.921Z</time></trkpt><trkpt lat="41.3251483" lon="0.8779267"><ele>615.5</ele><time>2026-04-24T16:23:01.921Z</time></trkpt><trkpt lat="41.32521" lon="0.8777717"><ele>615.0</ele><time>2026-04-24T16:23:02.921Z</time></trkpt><trkpt lat="41.32526" lon="0.8775983"><ele>615.0</ele><time>2026-04-24T16:23:03.922Z</time></trkpt><trkpt lat="41.3252983" lon="0.87741"><ele>615.0</ele><time>2026-04-24T16:23:04.922Z</time></trkpt><trkpt lat="41.3253283" lon="0.8772133"><ele>615.0</ele><time>2026-04-24T16:23:05.921Z</time></trkpt><trkpt lat="41.32536" lon="0.8770183"><ele>615.0</ele><time>2026-04-24T16:23:06.922Z</time></trkpt><trkpt lat="41.3253933" lon="0.8768267"><ele>615.0</ele><time>2026-04-24T16:23:07.922Z</time></trkpt><trkpt lat="41.32544" lon="0.8766517"><ele>615.0</ele><time>2026-04-24T16:23:08.921Z</time></trkpt><trkpt lat="41.3255083" lon="0.8764717"><ele>615.0</ele><time>2026-04-24T16:23:09.921Z</time></trkpt><trkpt lat="41.3255917" lon="0.8762967"><ele>615.0</ele><time>2026-04-24T16:23:10.922Z</time></trkpt><trkpt lat="41.3256983" lon="0.8761283"><ele>611.6666666666666</ele><time>2026-04-24T16:23:11.922Z</time></trkpt><trkpt lat="41.3258117" lon="0.8759583"><ele>608.3333333333333</ele><time>2026-04-24T16:23:12.921Z</time></trkpt><trkpt lat="41.3259283" lon="0.8757967"><ele>605.0</ele><time>2026-04-24T16:23:13.922Z</time></trkpt><trkpt lat="41.3260483" lon="0.8756267"><ele>604.6666666666666</ele><time>2026-04-24T16:23:14.922Z</time></trkpt><trkpt lat="41.3261667" lon="0.875455"><ele>604.3333333333334</ele><time>2026-04-24T16:23:15.922Z</time></trkpt><trkpt lat="41.32629" lon="0.8752867"><ele>604.0</ele><time>2026-04-24T16:23:16.922Z</time></trkpt><trkpt lat="41.3264033" lon="0.8751233"><ele>602.3333333333334</ele><time>2026-04-24T16:23:17.922Z</time></trkpt><trkpt lat="41.32652" lon="0.87497"><ele>600.6666666666666</ele><time>2026-04-24T16:23:18.921Z</time></trkpt><trkpt lat="41.3266383" lon="0.8748233"><ele>599.0</ele><time>2026-04-24T16:23:19.922Z</time></trkpt><trkpt lat="41.3267433" lon="0.8746733"><ele>599.0</ele><time>2026-04-24T16:23:20.921Z</time></trkpt><trkpt lat="41.32683" lon="0.8745317"><ele>599.0</ele><time>2026-04-24T16:23:21.921Z</time></trkpt><trkpt lat="41.326895" lon="0.8743867"><ele>599.0</ele><time>2026-04-24T16:23:22.922Z</time></trkpt><trkpt lat="41.3269367" lon="0.874215"><ele>599.0</ele><time>2026-04-24T16:23:23.921Z</time></trkpt><trkpt lat="41.3269583" lon="0.8740283"><ele>597.6666666666666</ele><time>2026-04-24T16:23:24.921Z</time></trkpt><trkpt lat="41.3269483" lon="0.8738283"><ele>596.3333333333334</ele><time>2026-04-24T16:23:25.922Z</time></trkpt><trkpt lat="41.3269183" lon="0.8736217"><ele>595.0</ele><time>2026-04-24T16:23:26.922Z</time></trkpt><trkpt lat="41.326875" lon="0.87342"><ele>594.5</ele><time>2026-04-24T16:23:27.921Z</time></trkpt><trkpt lat="41.3268333" lon="0.8732283"><ele>594.0</ele><time>2026-04-24T16:23:28.922Z</time></trkpt><trkpt lat="41.3268067" lon="0.8730633"><ele>593.5</ele><time>2026-04-24T16:23:29.921Z</time></trkpt><trkpt lat="41.32681" lon="0.8729"><ele>593.0</ele><time>2026-04-24T16:23:30.921Z</time></trkpt><trkpt lat="41.3268517" lon="0.87275"><ele>593.0</ele><time>2026-04-24T16:23:31.922Z</time></trkpt><trkpt lat="41.3269483" lon="0.872615"><ele>593.0</ele><time>2026-04-24T16:23:32.922Z</time></trkpt><trkpt lat="41.327065" lon="0.872505"><ele>593.0</ele><time>2026-04-24T16:23:33.921Z</time></trkpt><trkpt lat="41.3272" lon="0.8724267"><ele>593.0</ele><time>2026-04-24T16:23:34.921Z</time></trkpt><trkpt lat="41.3273367" lon="0.872365"><ele>590.5</ele><time>2026-04-24T16:23:35.921Z</time></trkpt><trkpt lat="41.3274783" lon="0.8723117"><ele>588.0</ele><time>2026-04-24T16:23:36.922Z</time></trkpt><trkpt lat="41.3276217" lon="0.872265"><ele>585.5</ele><time>2026-04-24T16:23:37.921Z</time></trkpt><trkpt lat="41.327765" lon="0.8722117"><ele>583.0</ele><time>2026-04-24T16:23:38.922Z</time></trkpt><trkpt lat="41.3279083" lon="0.87216"><ele>583.0</ele><time>2026-04-24T16:23:39.922Z</time></trkpt><trkpt lat="41.3280533" lon="0.8721067"><ele>583.0</ele><time>2026-04-24T16:23:40.921Z</time></trkpt><trkpt lat="41.3281983" lon="0.87205"><ele>583.0</ele><time>2026-04-24T16:23:41.921Z</time></trkpt><trkpt lat="41.328345" lon="0.8719883"><ele>582.0</ele><time>2026-04-24T16:23:42.921Z</time></trkpt><trkpt lat="41.32849" lon="0.8719317"><ele>581.0</ele><time>2026-04-24T16:23:43.922Z</time></trkpt><trkpt lat="41.328635" lon="0.8718717"><ele>580.0</ele><time>2026-04-24T16:23:44.921Z</time></trkpt><trkpt lat="41.3287767" lon="0.8718133"><ele>580.0</ele><time>2026-04-24T16:23:45.922Z</time></trkpt><trkpt lat="41.3289183" lon="0.8717617"><ele>580.0</ele><time>2026-04-24T16:23:46.921Z</time></trkpt><trkpt lat="41.32906" lon="0.8717117"><ele>580.0</ele><time>2026-04-24T16:23:47.922Z</time></trkpt><trkpt lat="41.3292033" lon="0.8716567"><ele>580.0</ele><time>2026-04-24T16:23:48.921Z</time></trkpt><trkpt lat="41.3293417" lon="0.8716067"><ele>580.0</ele><time>2026-04-24T16:23:49.921Z</time></trkpt><trkpt lat="41.32947" lon="0.8715567"><ele>580.0</ele><time>2026-04-24T16:23:50.921Z</time></trkpt><trkpt lat="41.3295967" lon="0.8715067"><ele>580.0</ele><time>2026-04-24T16:23:51.922Z</time></trkpt><trkpt lat="41.3297283" lon="0.871455"><ele>580.0</ele><time>2026-04-24T16:23:52.922Z</time></trkpt><trkpt lat="41.3298667" lon="0.871395"><ele>583.0</ele><time>2026-04-24T16:23:53.921Z</time></trkpt><trkpt lat="41.3300167" lon="0.871335"><ele>586.0</ele><time>2026-04-24T16:23:54.922Z</time></trkpt><trkpt lat="41.3301783" lon="0.87128"><ele>589.0</ele><time>2026-04-24T16:23:55.921Z</time></trkpt><trkpt lat="41.3303367" lon="0.871215"><ele>589.0</ele><time>2026-04-24T16:23:56.922Z</time></trkpt><trkpt lat="41.3304917" lon="0.8711517"><ele>589.0</ele><time>2026-04-24T16:23:57.922Z</time></trkpt><trkpt lat="41.330645" lon="0.8710967"><ele>589.0</ele><time>2026-04-24T16:23:58.922Z</time></trkpt><trkpt lat="41.33079" lon="0.87103"><ele>590.3333333333334</ele><time>2026-04-24T16:23:59.922Z</time></trkpt><trkpt lat="41.330925" lon="0.8709433"><ele>591.6666666666666</ele><time>2026-04-24T16:24:00.922Z</time></trkpt><trkpt lat="41.3310467" lon="0.8708183"><ele>593.0</ele><time>2026-04-24T16:24:01.921Z</time></trkpt><trkpt lat="41.3311517" lon="0.870675"><ele>593.0</ele><time>2026-04-24T16:24:02.922Z</time></trkpt><trkpt lat="41.3312567" lon="0.87052"><ele>593.0</ele><time>2026-04-24T16:24:03.922Z</time></trkpt><trkpt lat="41.3313567" lon="0.8703683"><ele>593.0</ele><time>2026-04-24T16:24:04.921Z</time></trkpt><trkpt lat="41.3314517" lon="0.8702117"><ele>595.75</ele><time>2026-04-24T16:24:05.922Z</time></trkpt><trkpt lat="41.3315367" lon="0.8700617"><ele>598.5</ele><time>2026-04-24T16:24:06.922Z</time></trkpt><trkpt lat="41.3316" lon="0.8698983"><ele>601.25</ele><time>2026-04-24T16:24:07.921Z</time></trkpt><trkpt lat="41.3316467" lon="0.86972"><ele>604.0</ele><time>2026-04-24T16:24:08.921Z</time></trkpt><trkpt lat="41.3316667" lon="0.8695367"><ele>604.0</ele><time>2026-04-24T16:24:09.922Z</time></trkpt><trkpt lat="41.3316483" lon="0.8693317"><ele>604.0</ele><time>2026-04-24T16:24:10.922Z</time></trkpt><trkpt lat="41.3316083" lon="0.8691233"><ele>604.0</ele><time>2026-04-24T16:24:11.922Z</time></trkpt><trkpt lat="41.3315733" lon="0.8689183"><ele>604.25</ele><time>2026-04-24T16:24:12.922Z</time></trkpt><trkpt lat="41.331545" lon="0.8687283"><ele>604.5</ele><time>2026-04-24T16:24:13.922Z</time></trkpt><trkpt lat="41.3315583" lon="0.868555"><ele>604.75</ele><time>2026-04-24T16:24:14.922Z</time></trkpt><trkpt lat="41.33161" lon="0.8684017"><ele>605.0</ele><time>2026-04-24T16:24:15.922Z</time></trkpt><trkpt lat="41.3317067" lon="0.8682783"><ele>605.75</ele><time>2026-04-24T16:24:16.922Z</time></trkpt><trkpt lat="41.3318283" lon="0.86818"><ele>606.5</ele><time>2026-04-24T16:24:17.921Z</time></trkpt><trkpt lat="41.331965" lon="0.8680817"><ele>607.25</ele><time>2026-04-24T16:24:18.921Z</time></trkpt><trkpt lat="41.3320933" lon="0.86798"><ele>608.0</ele><time>2026-04-24T16:24:19.921Z</time></trkpt><trkpt lat="41.33221" lon="0.8678867"><ele>610.25</ele><time>2026-04-24T16:24:20.921Z</time></trkpt><trkpt lat="41.332305" lon="0.8677817"><ele>612.5</ele><time>2026-04-24T16:24:21.921Z</time></trkpt><trkpt lat="41.3323683" lon="0.8676583"><ele>614.75</ele><time>2026-04-24T16:24:22.922Z</time></trkpt><trkpt lat="41.3323917" lon="0.8675017"><ele>617.0</ele><time>2026-04-24T16:24:23.921Z</time></trkpt><trkpt lat="41.3323883" lon="0.8673267"><ele>617.3333333333333</ele><time>2026-04-24T16:24:24.922Z</time></trkpt><trkpt lat="41.3323633" lon="0.867125"><ele>617.6666666666666</ele><time>2026-04-24T16:24:25.921Z</time></trkpt><trkpt lat="41.3323267" lon="0.8669117"><ele>618.0</ele><time>2026-04-24T16:24:26.921Z</time></trkpt><trkpt lat="41.332285" lon="0.8666933"><ele>621.6666666666666</ele><time>2026-04-24T16:24:27.922Z</time></trkpt><trkpt lat="41.3322433" lon="0.8664783"><ele>625.3333333333333</ele><time>2026-04-24T16:24:28.922Z</time></trkpt><trkpt lat="41.3321983" lon="0.8662583"><ele>629.0</ele><time>2026-04-24T16:24:29.921Z</time></trkpt><trkpt lat="41.3321583" lon="0.8660417"><ele>624.0</ele><time>2026-04-24T16:24:30.922Z</time></trkpt><trkpt lat="41.3321217" lon="0.865835"><ele>619.0</ele><time>2026-04-24T16:24:31.921Z</time></trkpt><trkpt lat="41.3320867" lon="0.8656383"><ele>614.0</ele><time>2026-04-24T16:24:32.922Z</time></trkpt><trkpt lat="41.33206" lon="0.865465"><ele>609.0</ele><time>2026-04-24T16:24:33.921Z</time></trkpt><trkpt lat="41.3320483" lon="0.8652933"><ele>609.0</ele><time>2026-04-24T16:24:34.921Z</time></trkpt><trkpt lat="41.3320767" lon="0.8651283"><ele>609.0</ele><time>2026-04-24T16:24:35.921Z</time></trkpt><trkpt lat="41.3321567" lon="0.8649917"><ele>609.0</ele><time>2026-04-24T16:24:36.921Z</time></trkpt><trkpt lat="41.3322683" lon="0.8649067"><ele>609.0</ele><time>2026-04-24T16:24:37.921Z</time></trkpt><trkpt lat="41.3323867" lon="0.86488"><ele>613.75</ele><time>2026-04-24T16:24:38.922Z</time></trkpt><trkpt lat="41.3325033" lon="0.86492"><ele>618.5</ele><time>2026-04-24T16:24:39.922Z</time></trkpt><trkpt lat="41.3326133" lon="0.865015"><ele>623.25</ele><time>2026-04-24T16:24:40.922Z</time></trkpt><trkpt lat="41.3326983" lon="0.8651483"><ele>628.0</ele><time>2026-04-24T16:24:41.922Z</time></trkpt><trkpt lat="41.3327817" lon="0.8653033"><ele>629.5</ele><time>2026-04-24T16:24:42.922Z</time></trkpt><trkpt lat="41.3328733" lon="0.8654567"><ele>631.0</ele><time>2026-04-24T16:24:43.921Z</time></trkpt><trkpt lat="41.33298" lon="0.8655967"><ele>632.5</ele><time>2026-04-24T16:24:44.921Z</time></trkpt><trkpt lat="41.3330983" lon="0.865715"><ele>634.0</ele><time>2026-04-24T16:24:45.921Z</time></trkpt><trkpt lat="41.33324" lon="0.8658283"><ele>635.0</ele><time>2026-04-24T16:24:46.921Z</time></trkpt><trkpt lat="41.3333867" lon="0.8659417"><ele>636.0</ele><time>2026-04-24T16:24:47.921Z</time></trkpt><trkpt lat="41.3335417" lon="0.8660483"><ele>637.0</ele><time>2026-04-24T16:24:48.921Z</time></trkpt><trkpt lat="41.3337" lon="0.8661667"><ele>641.0</ele><time>2026-04-24T16:24:49.921Z</time></trkpt><trkpt lat="41.333855" lon="0.866285"><ele>645.0</ele><time>2026-04-24T16:24:50.921Z</time></trkpt><trkpt lat="41.3340117" lon="0.8664033"><ele>649.0</ele><time>2026-04-24T16:24:51.922Z</time></trkpt><trkpt lat="41.3341517" lon="0.8664917"><ele>649.5</ele><time>2026-04-24T16:24:52.922Z</time></trkpt><trkpt lat="41.3342833" lon="0.8665533"><ele>650.0</ele><time>2026-04-24T16:24:53.922Z</time></trkpt><trkpt lat="41.3344333" lon="0.8665733"><ele>650.5</ele><time>2026-04-24T16:24:54.922Z</time></trkpt><trkpt lat="41.334585" lon="0.86656"><ele>651.0</ele><time>2026-04-24T16:24:55.922Z</time></trkpt><trkpt lat="41.3347267" lon="0.8665467"><ele>651.0</ele><time>2026-04-24T16:24:56.922Z</time></trkpt><trkpt lat="41.334845" lon="0.8665417"><ele>651.0</ele><time>2026-04-24T16:24:57.922Z</time></trkpt><trkpt lat="41.3349417" lon="0.8665867"><ele>651.0</ele><time>2026-04-24T16:24:58.922Z</time></trkpt><trkpt lat="41.335025" lon="0.8666933"><ele>651.0</ele><time>2026-04-24T16:24:59.921Z</time></trkpt><trkpt lat="41.3351067" lon="0.8668383"><ele>654.3333333333334</ele><time>2026-04-24T16:25:00.922Z</time></trkpt><trkpt lat="41.3351867" lon="0.8670167"><ele>657.6666666666667</ele><time>2026-04-24T16:25:01.921Z</time></trkpt><trkpt lat="41.3352733" lon="0.8671883"><ele>661.0</ele><time>2026-04-24T16:25:02.921Z</time></trkpt><trkpt lat="41.33536" lon="0.8673433"><ele>661.0</ele><time>2026-04-24T16:25:03.921Z</time></trkpt><trkpt lat="41.335435" lon="0.867475"><ele>661.0</ele><time>2026-04-24T16:25:04.922Z</time></trkpt><trkpt lat="41.3355217" lon="0.8675683"><ele>661.0</ele><time>2026-04-24T16:25:05.921Z</time></trkpt><trkpt lat="41.3356167" lon="0.8676167"><ele>661.0</ele><time>2026-04-24T16:25:06.921Z</time></trkpt><trkpt lat="41.3357167" lon="0.8676217"><ele>661.0</ele><time>2026-04-24T16:25:07.921Z</time></trkpt><trkpt lat="41.3358133" lon="0.8675817"><ele>662.25</ele><time>2026-04-24T16:25:08.922Z</time></trkpt><trkpt lat="41.3359033" lon="0.86752"><ele>663.5</ele><time>2026-04-24T16:25:09.922Z</time></trkpt><trkpt lat="41.336" lon="0.86741"><ele>664.75</ele><time>2026-04-24T16:25:10.921Z</time></trkpt><trkpt lat="41.336075" lon="0.86726"><ele>666.0</ele><time>2026-04-24T16:25:11.922Z</time></trkpt><trkpt lat="41.336115" lon="0.86707"><ele>666.0</ele><time>2026-04-24T16:25:12.921Z</time></trkpt><trkpt lat="41.33614" lon="0.866855"><ele>666.0</ele><time>2026-04-24T16:25:13.921Z</time></trkpt><trkpt lat="41.3361517" lon="0.8666417"><ele>666.0</ele><time>2026-04-24T16:25:14.921Z</time></trkpt><trkpt lat="41.3361383" lon="0.86643"><ele>665.75</ele><time>2026-04-24T16:25:15.922Z</time></trkpt><trkpt lat="41.3360967" lon="0.8662183"><ele>665.5</ele><time>2026-04-24T16:25:16.922Z</time></trkpt><trkpt lat="41.3360567" lon="0.8660233"><ele>665.25</ele><time>2026-04-24T16:25:17.921Z</time></trkpt><trkpt lat="41.3360417" lon="0.8658517"><ele>665.0</ele><time>2026-04-24T16:25:18.921Z</time></trkpt><trkpt lat="41.336065" lon="0.8656867"><ele>665.0</ele><time>2026-04-24T16:25:19.921Z</time></trkpt><trkpt lat="41.3361133" lon="0.8655317"><ele>665.0</ele><time>2026-04-24T16:25:20.921Z</time></trkpt><trkpt lat="41.3361733" lon="0.865395"><ele>665.0</ele><time>2026-04-24T16:25:21.922Z</time></trkpt><trkpt lat="41.3361783" lon="0.8652467"><ele>665.0</ele><time>2026-04-24T16:25:22.921Z</time></trkpt><trkpt lat="41.336125" lon="0.865075"><ele>667.6666666666666</ele><time>2026-04-24T16:25:23.921Z</time></trkpt><trkpt lat="41.3360383" lon="0.8648983"><ele>670.3333333333334</ele><time>2026-04-24T16:25:24.921Z</time></trkpt><trkpt lat="41.3359483" lon="0.86472"><ele>673.0</ele><time>2026-04-24T16:25:25.921Z</time></trkpt><trkpt lat="41.3358733" lon="0.8645467"><ele>673.0</ele><time>2026-04-24T16:25:26.921Z</time></trkpt><trkpt lat="41.3357817" lon="0.8643517"><ele>673.0</ele><time>2026-04-24T16:25:27.921Z</time></trkpt><trkpt lat="41.3356817" lon="0.8641533"><ele>673.0</ele><time>2026-04-24T16:25:28.921Z</time></trkpt><trkpt lat="41.3355983" lon="0.8639767"><ele>672.75</ele><time>2026-04-24T16:25:29.921Z</time></trkpt><trkpt lat="41.33555" lon="0.8638033"><ele>672.5</ele><time>2026-04-24T16:25:30.921Z</time></trkpt><trkpt lat="41.335535" lon="0.8636417"><ele>672.25</ele><time>2026-04-24T16:25:31.921Z</time></trkpt><trkpt lat="41.335535" lon="0.8634817"><ele>672.0</ele><time>2026-04-24T16:25:32.922Z</time></trkpt><trkpt lat="41.3355167" lon="0.8633167"><ele>672.0</ele><time>2026-04-24T16:25:33.921Z</time></trkpt><trkpt lat="41.3354533" lon="0.8631717"><ele>672.0</ele><time>2026-04-24T16:25:34.922Z</time></trkpt><trkpt lat="41.3353617" lon="0.8630367"><ele>672.0</ele><time>2026-04-24T16:25:35.922Z</time></trkpt><trkpt lat="41.3352467" lon="0.86291"><ele>672.0</ele><time>2026-04-24T16:25:36.921Z</time></trkpt><trkpt lat="41.335155" lon="0.8627583"><ele>676.5</ele><time>2026-04-24T16:25:37.921Z</time></trkpt><trkpt lat="41.3350983" lon="0.862595"><ele>681.0</ele><time>2026-04-24T16:25:38.922Z</time></trkpt><trkpt lat="41.335095" lon="0.8624183"><ele>685.5</ele><time>2026-04-24T16:25:39.922Z</time></trkpt><trkpt lat="41.3351067" lon="0.862245"><ele>690.0</ele><time>2026-04-24T16:25:40.921Z</time></trkpt><trkpt lat="41.33512" lon="0.86206"><ele>690.0</ele><time>2026-04-24T16:25:41.922Z</time></trkpt><trkpt lat="41.3350767" lon="0.8618833"><ele>690.0</ele><time>2026-04-24T16:25:42.922Z</time></trkpt><trkpt lat="41.3350083" lon="0.8617333"><ele>690.0</ele><time>2026-04-24T16:25:43.921Z</time></trkpt><trkpt lat="41.33496" lon="0.861585"><ele>690.0</ele><time>2026-04-24T16:25:44.921Z</time></trkpt><trkpt lat="41.33497" lon="0.8614283"><ele>691.75</ele><time>2026-04-24T16:25:45.922Z</time></trkpt><trkpt lat="41.3350167" lon="0.861265"><ele>693.5</ele><time>2026-04-24T16:25:46.921Z</time></trkpt><trkpt lat="41.3350633" lon="0.8611117"><ele>695.25</ele><time>2026-04-24T16:25:47.922Z</time></trkpt><trkpt lat="41.335085" lon="0.86095"><ele>697.0</ele><time>2026-04-24T16:25:48.921Z</time></trkpt><trkpt lat="41.33505" lon="0.8607683"><ele>700.0</ele><time>2026-04-24T16:25:49.921Z</time></trkpt><trkpt lat="41.3349783" lon="0.8605883"><ele>703.0</ele><time>2026-04-24T16:25:50.922Z</time></trkpt><trkpt lat="41.3348883" lon="0.8604117"><ele>706.0</ele><time>2026-04-24T16:25:51.922Z</time></trkpt><trkpt lat="41.3347933" lon="0.86024"><ele>698.6666666666667</ele><time>2026-04-24T16:25:52.922Z</time></trkpt><trkpt lat="41.3346967" lon="0.8600717"><ele>691.3333333333334</ele><time>2026-04-24T16:25:53.922Z</time></trkpt><trkpt lat="41.3346033" lon="0.8599117"><ele>684.0</ele><time>2026-04-24T16:25:54.922Z</time></trkpt><trkpt lat="41.3345367" lon="0.8597433"><ele>684.0</ele><time>2026-04-24T16:25:55.921Z</time></trkpt><trkpt lat="41.3345017" lon="0.859565"><ele>684.0</ele><time>2026-04-24T16:25:56.922Z</time></trkpt><trkpt lat="41.3344817" lon="0.8593817"><ele>684.0</ele><time>2026-04-24T16:25:57.921Z</time></trkpt><trkpt lat="41.334445" lon="0.85919"><ele>684.0</ele><time>2026-04-24T16:25:58.921Z</time></trkpt><trkpt lat="41.3343933" lon="0.8589917"><ele>693.0</ele><time>2026-04-24T16:25:59.922Z</time></trkpt><trkpt lat="41.3343383" lon="0.8587933"><ele>702.0</ele><time>2026-04-24T16:26:00.922Z</time></trkpt><trkpt lat="41.3342817" lon="0.8586067"><ele>711.0</ele><time>2026-04-24T16:26:01.921Z</time></trkpt><trkpt lat="41.3342167" lon="0.858435"><ele>711.0</ele><time>2026-04-24T16:26:02.922Z</time></trkpt><trkpt lat="41.33414" lon="0.8583083"><ele>711.0</ele><time>2026-04-24T16:26:03.921Z</time></trkpt><trkpt lat="41.334035" lon="0.8582483"><ele>711.0</ele><time>2026-04-24T16:26:04.922Z</time></trkpt><trkpt lat="41.33392" lon="0.85824"><ele>711.0</ele><time>2026-04-24T16:26:05.922Z</time></trkpt><trkpt lat="41.3338017" lon="0.8582667"><ele>711.0</ele><time>2026-04-24T16:26:06.922Z</time></trkpt><trkpt lat="41.3336883" lon="0.858295"><ele>711.0</ele><time>2026-04-24T16:26:07.921Z</time></trkpt><trkpt lat="41.3335817" lon="0.858275"><ele>711.0</ele><time>2026-04-24T16:26:08.921Z</time></trkpt><trkpt lat="41.333485" lon="0.8581717"><ele>711.0</ele><time>2026-04-24T16:26:09.922Z</time></trkpt><trkpt lat="41.33341" lon="0.8580267"><ele>711.0</ele><time>2026-04-24T16:26:10.922Z</time></trkpt><trkpt lat="41.33332" lon="0.85788"><ele>711.0</ele><time>2026-04-24T16:26:11.921Z</time></trkpt><trkpt lat="41.33322" lon="0.8577517"><ele>711.0</ele><time>2026-04-24T16:26:12.921Z</time></trkpt><trkpt lat="41.3330883" lon="0.8576583"><ele>711.0</ele><time>2026-04-24T16:26:13.922Z</time></trkpt><trkpt lat="41.3329717" lon="0.8575317"><ele>710.3333333333334</ele><time>2026-04-24T16:26:14.921Z</time></trkpt><trkpt lat="41.3328783" lon="0.8573683"><ele>709.6666666666667</ele><time>2026-04-24T16:26:15.921Z</time></trkpt><trkpt lat="41.3327917" lon="0.857185"><ele>709.0</ele><time>2026-04-24T16:26:16.921Z</time></trkpt><trkpt lat="41.33271" lon="0.857"><ele>709.0</ele><time>2026-04-24T16:26:17.922Z</time></trkpt><trkpt lat="41.3326217" lon="0.8568233"><ele>709.0</ele><time>2026-04-24T16:26:18.922Z</time></trkpt><trkpt lat="41.332525" lon="0.85668"><ele>709.0</ele><time>2026-04-24T16:26:19.921Z</time></trkpt><trkpt lat="41.33242" lon="0.8565933"><ele>709.0</ele><time>2026-04-24T16:26:20.921Z</time></trkpt><trkpt lat="41.3322933" lon="0.8565633"><ele>713.75</ele><time>2026-04-24T16:26:21.922Z</time></trkpt><trkpt lat="41.33215" lon="0.856585"><ele>718.5</ele><time>2026-04-24T16:26:22.922Z</time></trkpt><trkpt lat="41.332025" lon="0.856655"><ele>723.25</ele><time>2026-04-24T16:26:23.922Z</time></trkpt><trkpt lat="41.33191" lon="0.856705"><ele>728.0</ele><time>2026-04-24T16:26:24.922Z</time></trkpt><trkpt lat="41.3318017" lon="0.8566817"><ele>728.0</ele><time>2026-04-24T16:26:25.921Z</time></trkpt><trkpt lat="41.3317033" lon="0.856595"><ele>728.0</ele><time>2026-04-24T16:26:26.921Z</time></trkpt><trkpt lat="41.3316133" lon="0.8564617"><ele>728.0</ele><time>2026-04-24T16:26:27.921Z</time></trkpt><trkpt lat="41.3315467" lon="0.8563"><ele>728.0</ele><time>2026-04-24T16:26:28.922Z</time></trkpt><trkpt lat="41.331495" lon="0.8561067"><ele>727.75</ele><time>2026-04-24T16:26:29.922Z</time></trkpt><trkpt lat="41.3314433" lon="0.855915"><ele>727.5</ele><time>2026-04-24T16:26:30.921Z</time></trkpt><trkpt lat="41.3313833" lon="0.8557467"><ele>727.25</ele><time>2026-04-24T16:26:31.921Z</time></trkpt><trkpt lat="41.3312917" lon="0.855625"><ele>727.0</ele><time>2026-04-24T16:26:32.921Z</time></trkpt><trkpt lat="41.3311767" lon="0.85553"><ele>727.0</ele><time>2026-04-24T16:26:33.922Z</time></trkpt><trkpt lat="41.33103" lon="0.8554717"><ele>727.0</ele><time>2026-04-24T16:26:34.922Z</time></trkpt><trkpt lat="41.330865" lon="0.8554167"><ele>727.0</ele><time>2026-04-24T16:26:35.922Z</time></trkpt><trkpt lat="41.330695" lon="0.8553667"><ele>721.3333333333334</ele><time>2026-04-24T16:26:36.922Z</time></trkpt><trkpt lat="41.33054" lon="0.8553033"><ele>715.6666666666666</ele><time>2026-04-24T16:26:37.921Z</time></trkpt><trkpt lat="41.3303933" lon="0.8552117"><ele>710.0</ele><time>2026-04-24T16:26:38.922Z</time></trkpt><trkpt lat="41.3302583" lon="0.8551033"><ele>719.75</ele><time>2026-04-24T16:26:39.922Z</time></trkpt><trkpt lat="41.3301233" lon="0.8550367"><ele>729.5</ele><time>2026-04-24T16:26:40.922Z</time></trkpt><trkpt lat="41.3299867" lon="0.85503"><ele>739.25</ele><time>2026-04-24T16:26:41.922Z</time></trkpt><trkpt lat="41.3298583" lon="0.855005"><ele>749.0</ele><time>2026-04-24T16:26:42.922Z</time></trkpt><trkpt lat="41.329735" lon="0.854945"><ele>741.75</ele><time>2026-04-24T16:26:43.921Z</time></trkpt><trkpt lat="41.3296267" lon="0.8548283"><ele>734.5</ele><time>2026-04-24T16:26:44.921Z</time></trkpt><trkpt lat="41.32955" lon="0.8546717"><ele>727.25</ele><time>2026-04-24T16:26:45.921Z</time></trkpt><trkpt lat="41.3294867" lon="0.854515"><ele>720.0</ele><time>2026-04-24T16:26:46.921Z</time></trkpt><trkpt lat="41.3294317" lon="0.8543533"><ele>728.75</ele><time>2026-04-24T16:26:47.922Z</time></trkpt><trkpt lat="41.3293417" lon="0.8542383"><ele>737.5</ele><time>2026-04-24T16:26:48.921Z</time></trkpt><trkpt lat="41.3292317" lon="0.8541633"><ele>746.25</ele><time>2026-04-24T16:26:49.921Z</time></trkpt><trkpt lat="41.3291117" lon="0.8541167"><ele>755.0</ele><time>2026-04-24T16:26:50.922Z</time></trkpt><trkpt lat="41.3289983" lon="0.8540517"><ele>755.0</ele><time>2026-04-24T16:26:51.921Z</time></trkpt><trkpt lat="41.3289067" lon="0.85393"><ele>755.0</ele><time>2026-04-24T16:26:52.922Z</time></trkpt><trkpt lat="41.32882" lon="0.8537783"><ele>755.0</ele><time>2026-04-24T16:26:53.922Z</time></trkpt><trkpt lat="41.3287483" lon="0.853625"><ele>755.0</ele><time>2026-04-24T16:26:54.921Z</time></trkpt><trkpt lat="41.3286983" lon="0.8534583"><ele>756.25</ele><time>2026-04-24T16:26:55.922Z</time></trkpt><trkpt lat="41.3286517" lon="0.85331"><ele>757.5</ele><time>2026-04-24T16:26:56.922Z</time></trkpt><trkpt lat="41.3285783" lon="0.8531983"><ele>758.75</ele><time>2026-04-24T16:26:57.921Z</time></trkpt><trkpt lat="41.3284733" lon="0.8531417"><ele>760.0</ele><time>2026-04-24T16:26:58.921Z</time></trkpt><trkpt lat="41.32834" lon="0.8531217"><ele>760.0</ele><time>2026-04-24T16:26:59.922Z</time></trkpt><trkpt lat="41.328205" lon="0.8530917"><ele>760.0</ele><time>2026-04-24T16:27:00.922Z</time></trkpt><trkpt lat="41.328065" lon="0.8530333"><ele>760.0</ele><time>2026-04-24T16:27:01.921Z</time></trkpt><trkpt lat="41.3279267" lon="0.852955"><ele>760.0</ele><time>2026-04-24T16:27:02.922Z</time></trkpt><trkpt lat="41.3278017" lon="0.8528733"><ele>762.75</ele><time>2026-04-24T16:27:03.921Z</time></trkpt><trkpt lat="41.3276867" lon="0.852785"><ele>765.5</ele><time>2026-04-24T16:27:04.921Z</time></trkpt><trkpt lat="41.327585" lon="0.85267"><ele>768.25</ele><time>2026-04-24T16:27:05.922Z</time></trkpt><trkpt lat="41.3274833" lon="0.8525467"><ele>771.0</ele><time>2026-04-24T16:27:06.921Z</time></trkpt><trkpt lat="41.3273667" lon="0.8524517"><ele>771.0</ele><time>2026-04-24T16:27:07.922Z</time></trkpt><trkpt lat="41.32723" lon="0.8523867"><ele>771.0</ele><time>2026-04-24T16:27:08.922Z</time></trkpt><trkpt lat="41.3271033" lon="0.8523317"><ele>771.0</ele><time>2026-04-24T16:27:09.922Z</time></trkpt><trkpt lat="41.327" lon="0.8523133"><ele>771.0</ele><time>2026-04-24T16:27:10.922Z</time></trkpt><trkpt lat="41.326925" lon="0.8523083"><ele>769.3333333333334</ele><time>2026-04-24T16:27:11.922Z</time></trkpt><trkpt lat="41.326825" lon="0.852305"><ele>767.6666666666666</ele><time>2026-04-24T16:27:13.922Z</time></trkpt><trkpt lat="41.3267167" lon="0.8523183"><ele>766.0</ele><time>2026-04-24T16:27:23.921Z</time></trkpt><trkpt lat="41.326655" lon="0.8523717"><ele>764.3333333333333</ele><time>2026-04-24T16:27:25.921Z</time></trkpt><trkpt lat="41.326585" lon="0.8524117"><ele>762.6666666666666</ele><time>2026-04-24T16:27:27.922Z</time></trkpt><trkpt lat="41.32665" lon="0.8523867"><ele>761.0</ele><time>2026-04-24T16:39:34.921Z</time></trkpt><trkpt lat="41.3267067" lon="0.85233"><ele>761.0</ele><time>2026-04-24T16:39:36.922Z</time></trkpt><trkpt lat="41.3267483" lon="0.8522567"><ele>761.0</ele><time>2026-04-24T16:39:39.921Z</time></trkpt><trkpt lat="41.3267533" lon="0.852145"><ele>761.0</ele><time>2026-04-24T16:39:41.922Z</time></trkpt><trkpt lat="41.3267433" lon="0.8520467"><ele>761.0</ele><time>2026-04-24T16:39:42.921Z</time></trkpt><trkpt lat="41.3267267" lon="0.85194"><ele>761.0</ele><time>2026-04-24T16:39:43.921Z</time></trkpt><trkpt lat="41.3267267" lon="0.8518367"><ele>761.0</ele><time>2026-04-24T16:39:44.922Z</time></trkpt><trkpt lat="41.3267567" lon="0.8517283"><ele>761.8</ele><time>2026-04-24T16:39:45.921Z</time></trkpt><trkpt lat="41.32679" lon="0.8516267"><ele>762.5999999999999</ele><time>2026-04-24T16:39:46.922Z</time></trkpt><trkpt lat="41.3268633" lon="0.8515567"><ele>763.4</ele><time>2026-04-24T16:39:47.922Z</time></trkpt><trkpt lat="41.3269733" lon="0.851525"><ele>764.2</ele><time>2026-04-24T16:39:48.921Z</time></trkpt><trkpt lat="41.3271217" lon="0.85154"><ele>765.0</ele><time>2026-04-24T16:39:49.921Z</time></trkpt><trkpt lat="41.3273133" lon="0.85164"><ele>767.0</ele><time>2026-04-24T16:39:50.921Z</time></trkpt><trkpt lat="41.3274867" lon="0.8517117"><ele>769.0</ele><time>2026-04-24T16:39:51.922Z</time></trkpt><trkpt lat="41.327665" lon="0.8517767"><ele>771.0</ele><time>2026-04-24T16:39:52.921Z</time></trkpt><trkpt lat="41.32782" lon="0.8518183"><ele>771.0</ele><time>2026-04-24T16:39:53.922Z</time></trkpt><trkpt lat="41.3279583" lon="0.8518617"><ele>771.0</ele><time>2026-04-24T16:39:54.922Z</time></trkpt><trkpt lat="41.32808" lon="0.8518617"><ele>771.0</ele><time>2026-04-24T16:39:55.921Z</time></trkpt><trkpt lat="41.328185" lon="0.85185"><ele>771.0</ele><time>2026-04-24T16:39:56.92Z</time></trkpt><trkpt lat="41.3282817" lon="0.8517917"><ele>773.0</ele><time>2026-04-24T16:39:57.92Z</time></trkpt><trkpt lat="41.3283433" lon="0.85169"><ele>775.0</ele><time>2026-04-24T16:39:58.921Z</time></trkpt><trkpt lat="41.3283783" lon="0.8515683"><ele>777.0</ele><time>2026-04-24T16:39:59.921Z</time></trkpt><trkpt lat="41.32838" lon="0.85142"><ele>779.0</ele><time>2026-04-24T16:40:00.92Z</time></trkpt><trkpt lat="41.3283817" lon="0.851255"><ele>781.0</ele><time>2026-04-24T16:40:01.921Z</time></trkpt><trkpt lat="41.3283867" lon="0.851065"><ele>779.75</ele><time>2026-04-24T16:40:02.92Z</time></trkpt><trkpt lat="41.3283933" lon="0.8508717"><ele>778.5</ele><time>2026-04-24T16:40:03.921Z</time></trkpt><trkpt lat="41.328395" lon="0.850685"><ele>777.25</ele><time>2026-04-24T16:40:04.92Z</time></trkpt><trkpt lat="41.3283783" lon="0.8505"><ele>776.0</ele><time>2026-04-24T16:40:05.921Z</time></trkpt><trkpt lat="41.3283233" lon="0.8503033"><ele>774.6666666666667</ele><time>2026-04-24T16:40:06.921Z</time></trkpt><trkpt lat="41.3282517" lon="0.8500883"><ele>773.3333333333333</ele><time>2026-04-24T16:40:07.921Z</time></trkpt><trkpt lat="41.32818" lon="0.8498817"><ele>772.0</ele><time>2026-04-24T16:40:08.92Z</time></trkpt><trkpt lat="41.3281017" lon="0.8496683"><ele>772.3333333333333</ele><time>2026-04-24T16:40:09.92Z</time></trkpt><trkpt lat="41.328025" lon="0.8494617"><ele>772.6666666666667</ele><time>2026-04-24T16:40:10.921Z</time></trkpt><trkpt lat="41.3279467" lon="0.8492467"><ele>773.0</ele><time>2026-04-24T16:40:11.92Z</time></trkpt><trkpt lat="41.3278633" lon="0.8490217"><ele>774.6666666666667</ele><time>2026-04-24T16:40:12.921Z</time></trkpt><trkpt lat="41.327785" lon="0.848805"><ele>776.3333333333333</ele><time>2026-04-24T16:40:13.92Z</time></trkpt><trkpt lat="41.3276983" lon="0.8485917"><ele>778.0</ele><time>2026-04-24T16:40:14.921Z</time></trkpt><trkpt lat="41.327625" lon="0.848395"><ele>778.0</ele><time>2026-04-24T16:40:15.92Z</time></trkpt><trkpt lat="41.32758" lon="0.848185"><ele>778.0</ele><time>2026-04-24T16:40:16.921Z</time></trkpt><trkpt lat="41.3275533" lon="0.8479683"><ele>778.0</ele><time>2026-04-24T16:40:17.921Z</time></trkpt><trkpt lat="41.3275533" lon="0.8477417"><ele>777.6666666666666</ele><time>2026-04-24T16:40:18.92Z</time></trkpt><trkpt lat="41.3275733" lon="0.8475117"><ele>777.3333333333333</ele><time>2026-04-24T16:40:19.921Z</time></trkpt><trkpt lat="41.327605" lon="0.8472617"><ele>777.0</ele><time>2026-04-24T16:40:20.921Z</time></trkpt><trkpt lat="41.3276367" lon="0.8470083"><ele>775.6666666666667</ele><time>2026-04-24T16:40:21.921Z</time></trkpt><trkpt lat="41.327665" lon="0.846755"><ele>774.3333333333334</ele><time>2026-04-24T16:40:22.921Z</time></trkpt><trkpt lat="41.3277033" lon="0.8465117"><ele>773.0</ele><time>2026-04-24T16:40:23.92Z</time></trkpt><trkpt lat="41.3277517" lon="0.846275"><ele>773.0</ele><time>2026-04-24T16:40:24.92Z</time></trkpt><trkpt lat="41.3278133" lon="0.8460433"><ele>773.0</ele><time>2026-04-24T16:40:25.92Z</time></trkpt><trkpt lat="41.327915" lon="0.84581"><ele>773.0</ele><time>2026-04-24T16:40:26.92Z</time></trkpt><trkpt lat="41.3280433" lon="0.8455883"><ele>769.3333333333334</ele><time>2026-04-24T16:40:27.92Z</time></trkpt><trkpt lat="41.3281783" lon="0.84537"><ele>765.6666666666667</ele><time>2026-04-24T16:40:28.92Z</time></trkpt><trkpt lat="41.3283183" lon="0.8451383"><ele>762.0</ele><time>2026-04-24T16:40:29.921Z</time></trkpt><trkpt lat="41.3284683" lon="0.844895"><ele>761.0</ele><time>2026-04-24T16:40:30.92Z</time></trkpt><trkpt lat="41.32861" lon="0.8446533"><ele>760.0</ele><time>2026-04-24T16:40:31.921Z</time></trkpt><trkpt lat="41.328755" lon="0.8444117"><ele>761.0</ele><time>2026-04-24T16:40:32.92Z</time></trkpt><trkpt lat="41.3288967" lon="0.8441617"><ele>762.0</ele><time>2026-04-24T16:40:33.92Z</time></trkpt><trkpt lat="41.329045" lon="0.8439183"><ele>762.0</ele><time>2026-04-24T16:40:34.921Z</time></trkpt><trkpt lat="41.32919" lon="0.8436733"><ele>762.0</ele><time>2026-04-24T16:40:35.92Z</time></trkpt><trkpt lat="41.32933" lon="0.8434367"><ele>762.0</ele><time>2026-04-24T16:40:36.921Z</time></trkpt><trkpt lat="41.3294683" lon="0.8432"><ele>762.0</ele><time>2026-04-24T16:40:37.921Z</time></trkpt><trkpt lat="41.3295983" lon="0.84296"><ele>762.0</ele><time>2026-04-24T16:40:38.921Z</time></trkpt><trkpt lat="41.3297233" lon="0.84271"><ele>764.0</ele><time>2026-04-24T16:40:39.921Z</time></trkpt><trkpt lat="41.3298283" lon="0.8424533"><ele>766.0</ele><time>2026-04-24T16:40:40.921Z</time></trkpt><trkpt lat="41.329915" lon="0.8422"><ele>768.0</ele><time>2026-04-24T16:40:41.92Z</time></trkpt><trkpt lat="41.3299883" lon="0.8419567"><ele>766.6666666666666</ele><time>2026-04-24T16:40:42.921Z</time></trkpt><trkpt lat="41.3300617" lon="0.8417317"><ele>765.3333333333333</ele><time>2026-04-24T16:40:43.921Z</time></trkpt><trkpt lat="41.3301133" lon="0.8415183"><ele>764.0</ele><time>2026-04-24T16:40:44.92Z</time></trkpt><trkpt lat="41.3301367" lon="0.841295"><ele>764.0</ele><time>2026-04-24T16:40:45.92Z</time></trkpt><trkpt lat="41.3301283" lon="0.8410617"><ele>764.0</ele><time>2026-04-24T16:40:46.921Z</time></trkpt><trkpt lat="41.3300917" lon="0.840835"><ele>764.0</ele><time>2026-04-24T16:40:47.921Z</time></trkpt><trkpt lat="41.3300433" lon="0.840605"><ele>764.0</ele><time>2026-04-24T16:40:48.921Z</time></trkpt><trkpt lat="41.3300017" lon="0.840385"><ele>764.0</ele><time>2026-04-24T16:40:49.92Z</time></trkpt><trkpt lat="41.3299567" lon="0.840145"><ele>764.0</ele><time>2026-04-24T16:40:50.921Z</time></trkpt><trkpt lat="41.3299183" lon="0.8399167"><ele>764.0</ele><time>2026-04-24T16:40:51.92Z</time></trkpt><trkpt lat="41.32991" lon="0.8397"><ele>764.0</ele><time>2026-04-24T16:40:52.921Z</time></trkpt><trkpt lat="41.329935" lon="0.8394933"><ele>764.0</ele><time>2026-04-24T16:40:53.921Z</time></trkpt><trkpt lat="41.3300033" lon="0.8392967"><ele>764.0</ele><time>2026-04-24T16:40:54.92Z</time></trkpt><trkpt lat="41.3301167" lon="0.8391117"><ele>764.0</ele><time>2026-04-24T16:40:55.92Z</time></trkpt><trkpt lat="41.3302433" lon="0.8389183"><ele>764.0</ele><time>2026-04-24T16:40:56.921Z</time></trkpt><trkpt lat="41.3303733" lon="0.8387367"><ele>764.0</ele><time>2026-04-24T16:40:57.921Z</time></trkpt><trkpt lat="41.3304917" lon="0.8385583"><ele>764.0</ele><time>2026-04-24T16:40:58.921Z</time></trkpt><trkpt lat="41.3305867" lon="0.8383983"><ele>764.0</ele><time>2026-04-24T16:40:59.92Z</time></trkpt><trkpt lat="41.3306567" lon="0.83825"><ele>763.25</ele><time>2026-04-24T16:41:00.92Z</time></trkpt><trkpt lat="41.3307017" lon="0.8381067"><ele>762.5</ele><time>2026-04-24T16:41:01.92Z</time></trkpt><trkpt lat="41.3307017" lon="0.837965"><ele>761.75</ele><time>2026-04-24T16:41:02.921Z</time></trkpt><trkpt lat="41.330655" lon="0.8378217"><ele>761.0</ele><time>2026-04-24T16:41:03.921Z</time></trkpt><trkpt lat="41.3305933" lon="0.8376617"><ele>761.25</ele><time>2026-04-24T16:41:04.921Z</time></trkpt><trkpt lat="41.3305283" lon="0.8374967"><ele>761.5</ele><time>2026-04-24T16:41:05.921Z</time></trkpt><trkpt lat="41.3304617" lon="0.8373133"><ele>761.75</ele><time>2026-04-24T16:41:06.92Z</time></trkpt><trkpt lat="41.3303883" lon="0.8371317"><ele>762.0</ele><time>2026-04-24T16:41:07.92Z</time></trkpt><trkpt lat="41.3303267" lon="0.8369467"><ele>760.0</ele><time>2026-04-24T16:41:08.92Z</time></trkpt><trkpt lat="41.33029" lon="0.8367417"><ele>758.0</ele><time>2026-04-24T16:41:09.921Z</time></trkpt><trkpt lat="41.3302883" lon="0.8365217"><ele>756.0</ele><time>2026-04-24T16:41:10.921Z</time></trkpt><trkpt lat="41.3303033" lon="0.8363"><ele>756.0</ele><time>2026-04-24T16:41:11.921Z</time></trkpt><trkpt lat="41.3303333" lon="0.83608"><ele>756.0</ele><time>2026-04-24T16:41:12.92Z</time></trkpt><trkpt lat="41.3303483" lon="0.83587"><ele>756.0</ele><time>2026-04-24T16:41:13.92Z</time></trkpt><trkpt lat="41.3303283" lon="0.83568"><ele>753.6666666666666</ele><time>2026-04-24T16:41:14.92Z</time></trkpt><trkpt lat="41.3302633" lon="0.8355017"><ele>751.3333333333333</ele><time>2026-04-24T16:41:15.921Z</time></trkpt><trkpt lat="41.3301617" lon="0.835335"><ele>749.0</ele><time>2026-04-24T16:41:16.921Z</time></trkpt><trkpt lat="41.33003" lon="0.8351817"><ele>748.3333333333333</ele><time>2026-04-24T16:41:17.92Z</time></trkpt><trkpt lat="41.329885" lon="0.83503"><ele>747.6666666666666</ele><time>2026-04-24T16:41:18.92Z</time></trkpt><trkpt lat="41.3297383" lon="0.8348717"><ele>747.0</ele><time>2026-04-24T16:41:19.921Z</time></trkpt><trkpt lat="41.3295933" lon="0.8347117"><ele>747.0</ele><time>2026-04-24T16:41:20.92Z</time></trkpt><trkpt lat="41.3294533" lon="0.8345467"><ele>747.0</ele><time>2026-04-24T16:41:21.921Z</time></trkpt><trkpt lat="41.3293067" lon="0.834385"><ele>747.0</ele><time>2026-04-24T16:41:22.921Z</time></trkpt><trkpt lat="41.3291633" lon="0.83421"><ele>747.0</ele><time>2026-04-24T16:41:23.921Z</time></trkpt><trkpt lat="41.3290433" lon="0.834"><ele>747.0</ele><time>2026-04-24T16:41:24.92Z</time></trkpt><trkpt lat="41.32894" lon="0.8337917"><ele>747.0</ele><time>2026-04-24T16:41:25.92Z</time></trkpt><trkpt lat="41.3288367" lon="0.8336"><ele>746.3333333333334</ele><time>2026-04-24T16:41:26.92Z</time></trkpt><trkpt lat="41.328755" lon="0.8334083"><ele>745.6666666666667</ele><time>2026-04-24T16:41:27.921Z</time></trkpt><trkpt lat="41.3286817" lon="0.83322"><ele>745.0</ele><time>2026-04-24T16:41:28.921Z</time></trkpt><trkpt lat="41.32865" lon="0.83302"><ele>745.0</ele><time>2026-04-24T16:41:29.92Z</time></trkpt><trkpt lat="41.32867" lon="0.8328167"><ele>745.0</ele><time>2026-04-24T16:41:30.921Z</time></trkpt><trkpt lat="41.3287383" lon="0.8326033"><ele>745.0</ele><time>2026-04-24T16:41:31.92Z</time></trkpt><trkpt lat="41.3288267" lon="0.8324067"><ele>743.6666666666667</ele><time>2026-04-24T16:41:32.92Z</time></trkpt><trkpt lat="41.3289233" lon="0.8321967"><ele>742.3333333333334</ele><time>2026-04-24T16:41:33.92Z</time></trkpt><trkpt lat="41.3290183" lon="0.8319783"><ele>741.0</ele><time>2026-04-24T16:41:34.921Z</time></trkpt><trkpt lat="41.3291083" lon="0.8317483"><ele>741.0</ele><time>2026-04-24T16:41:35.921Z</time></trkpt><trkpt lat="41.329195" lon="0.8315133"><ele>741.0</ele><time>2026-04-24T16:41:36.921Z</time></trkpt><trkpt lat="41.32927" lon="0.8312733"><ele>741.0</ele><time>2026-04-24T16:41:37.92Z</time></trkpt><trkpt lat="41.3293267" lon="0.8310167"><ele>741.3333333333334</ele><time>2026-04-24T16:41:38.921Z</time></trkpt><trkpt lat="41.3293583" lon="0.8307433"><ele>741.6666666666667</ele><time>2026-04-24T16:41:39.92Z</time></trkpt><trkpt lat="41.3293733" lon="0.830475"><ele>742.0</ele><time>2026-04-24T16:41:40.921Z</time></trkpt><trkpt lat="41.32937" lon="0.83021"><ele>743.6666666666667</ele><time>2026-04-24T16:41:41.921Z</time></trkpt><trkpt lat="41.3293467" lon="0.8299633"><ele>745.3333333333334</ele><time>2026-04-24T16:41:42.921Z</time></trkpt><trkpt lat="41.3293" lon="0.8297383"><ele>747.0</ele><time>2026-04-24T16:41:43.921Z</time></trkpt><trkpt lat="41.3292167" lon="0.8295283"><ele>747.0</ele><time>2026-04-24T16:41:44.921Z</time></trkpt><trkpt lat="41.3291133" lon="0.829325"><ele>747.0</ele><time>2026-04-24T16:41:45.921Z</time></trkpt><trkpt lat="41.3289983" lon="0.8291217"><ele>747.0</ele><time>2026-04-24T16:41:46.92Z</time></trkpt><trkpt lat="41.3288917" lon="0.8289167"><ele>747.3333333333334</ele><time>2026-04-24T16:41:47.92Z</time></trkpt><trkpt lat="41.328785" lon="0.8287233"><ele>747.6666666666667</ele><time>2026-04-24T16:41:48.92Z</time></trkpt><trkpt lat="41.328685" lon="0.8285433"><ele>748.0</ele><time>2026-04-24T16:41:49.92Z</time></trkpt><trkpt lat="41.328585" lon="0.82839"><ele>749.5</ele><time>2026-04-24T16:41:50.92Z</time></trkpt><trkpt lat="41.328475" lon="0.8282867"><ele>751.0</ele><time>2026-04-24T16:41:51.92Z</time></trkpt><trkpt lat="41.32834" lon="0.8282317"><ele>752.5</ele><time>2026-04-24T16:41:52.92Z</time></trkpt><trkpt lat="41.328195" lon="0.828225"><ele>754.0</ele><time>2026-04-24T16:41:53.921Z</time></trkpt><trkpt lat="41.3280367" lon="0.8282433"><ele>754.0</ele><time>2026-04-24T16:41:54.92Z</time></trkpt><trkpt lat="41.3278683" lon="0.8282833"><ele>754.0</ele><time>2026-04-24T16:41:55.92Z</time></trkpt><trkpt lat="41.3277117" lon="0.8283233"><ele>754.0</ele><time>2026-04-24T16:41:56.92Z</time></trkpt><trkpt lat="41.3275683" lon="0.8283483"><ele>754.0</ele><time>2026-04-24T16:41:57.921Z</time></trkpt><trkpt lat="41.3274417" lon="0.8283033"><ele>754.0</ele><time>2026-04-24T16:41:58.92Z</time></trkpt><trkpt lat="41.327335" lon="0.8282183"><ele>754.0</ele><time>2026-04-24T16:41:59.92Z</time></trkpt><trkpt lat="41.32727" lon="0.8280917"><ele>754.0</ele><time>2026-04-24T16:42:00.92Z</time></trkpt><trkpt lat="41.3272717" lon="0.8279533"><ele>754.0</ele><time>2026-04-24T16:42:01.921Z</time></trkpt><trkpt lat="41.32732" lon="0.8278083"><ele>754.0</ele><time>2026-04-24T16:42:02.92Z</time></trkpt><trkpt lat="41.3273933" lon="0.82765"><ele>754.0</ele><time>2026-04-24T16:42:03.921Z</time></trkpt><trkpt lat="41.3274783" lon="0.8274717"><ele>754.0</ele><time>2026-04-24T16:42:04.921Z</time></trkpt><trkpt lat="41.32757" lon="0.8272783"><ele>755.3333333333334</ele><time>2026-04-24T16:42:05.92Z</time></trkpt><trkpt lat="41.3276567" lon="0.8270867"><ele>756.6666666666666</ele><time>2026-04-24T16:42:06.92Z</time></trkpt><trkpt lat="41.3277417" lon="0.8268833"><ele>758.0</ele><time>2026-04-24T16:42:07.921Z</time></trkpt><trkpt lat="41.3278117" lon="0.8266467"><ele>755.0</ele><time>2026-04-24T16:42:08.92Z</time></trkpt><trkpt lat="41.3278583" lon="0.8264"><ele>752.0</ele><time>2026-04-24T16:42:09.92Z</time></trkpt><trkpt lat="41.3278733" lon="0.826145"><ele>749.0</ele><time>2026-04-24T16:42:10.921Z</time></trkpt><trkpt lat="41.3278717" lon="0.8258917"><ele>748.6666666666666</ele><time>2026-04-24T16:42:11.921Z</time></trkpt><trkpt lat="41.32788" lon="0.8256583"><ele>748.3333333333334</ele><time>2026-04-24T16:42:12.92Z</time></trkpt><trkpt lat="41.32789" lon="0.825445"><ele>748.0</ele><time>2026-04-24T16:42:13.92Z</time></trkpt><trkpt lat="41.3279083" lon="0.8252667"><ele>748.0</ele><time>2026-04-24T16:42:14.92Z</time></trkpt><trkpt lat="41.3279517" lon="0.82512"><ele>748.0</ele><time>2026-04-24T16:42:15.92Z</time></trkpt><trkpt lat="41.3280483" lon="0.825015"><ele>748.0</ele><time>2026-04-24T16:42:16.921Z</time></trkpt><trkpt lat="41.32817" lon="0.8249567"><ele>748.0</ele><time>2026-04-24T16:42:17.92Z</time></trkpt><trkpt lat="41.3283083" lon="0.8249267"><ele>751.25</ele><time>2026-04-24T16:42:18.92Z</time></trkpt><trkpt lat="41.3284467" lon="0.8249217"><ele>754.5</ele><time>2026-04-24T16:42:19.921Z</time></trkpt><trkpt lat="41.32858" lon="0.8249083"><ele>757.75</ele><time>2026-04-24T16:42:20.921Z</time></trkpt><trkpt lat="41.3286867" lon="0.824865"><ele>761.0</ele><time>2026-04-24T16:42:21.92Z</time></trkpt><trkpt lat="41.328755" lon="0.8247633"><ele>761.0</ele><time>2026-04-24T16:42:22.92Z</time></trkpt><trkpt lat="41.3288" lon="0.8246317"><ele>761.0</ele><time>2026-04-24T16:42:23.92Z</time></trkpt><trkpt lat="41.3288233" lon="0.8244683"><ele>761.0</ele><time>2026-04-24T16:42:24.921Z</time></trkpt><trkpt lat="41.32884" lon="0.8242917"><ele>761.0</ele><time>2026-04-24T16:42:25.92Z</time></trkpt><trkpt lat="41.3288583" lon="0.8241"><ele>760.6666666666666</ele><time>2026-04-24T16:42:26.921Z</time></trkpt><trkpt lat="41.3288717" lon="0.8238967"><ele>760.3333333333334</ele><time>2026-04-24T16:42:27.921Z</time></trkpt><trkpt lat="41.3288867" lon="0.8236933"><ele>760.0</ele><time>2026-04-24T16:42:28.921Z</time></trkpt><trkpt lat="41.3288967" lon="0.8234817"><ele>757.0</ele><time>2026-04-24T16:42:29.92Z</time></trkpt><trkpt lat="41.3288833" lon="0.8232717"><ele>754.0</ele><time>2026-04-24T16:42:30.92Z</time></trkpt><trkpt lat="41.3288483" lon="0.8230633"><ele>751.0</ele><time>2026-04-24T16:42:31.92Z</time></trkpt><trkpt lat="41.3287967" lon="0.8228567"><ele>751.0</ele><time>2026-04-24T16:42:32.921Z</time></trkpt><trkpt lat="41.3287333" lon="0.8226583"><ele>751.0</ele><time>2026-04-24T16:42:33.92Z</time></trkpt><trkpt lat="41.3286633" lon="0.8224467"><ele>751.0</ele><time>2026-04-24T16:42:34.921Z</time></trkpt><trkpt lat="41.3285867" lon="0.8222433"><ele>754.0</ele><time>2026-04-24T16:42:35.921Z</time></trkpt><trkpt lat="41.328495" lon="0.8220583"><ele>757.0</ele><time>2026-04-24T16:42:36.92Z</time></trkpt><trkpt lat="41.3283917" lon="0.82188"><ele>760.0</ele><time>2026-04-24T16:42:37.92Z</time></trkpt><trkpt lat="41.32827" lon="0.8217017"><ele>758.5</ele><time>2026-04-24T16:42:38.921Z</time></trkpt><trkpt lat="41.3281583" lon="0.8215433"><ele>757.0</ele><time>2026-04-24T16:42:39.921Z</time></trkpt><trkpt lat="41.3280667" lon="0.8214"><ele>755.5</ele><time>2026-04-24T16:42:40.92Z</time></trkpt><trkpt lat="41.32797" lon="0.82127"><ele>754.0</ele><time>2026-04-24T16:42:41.921Z</time></trkpt><trkpt lat="41.3278733" lon="0.8211383"><ele>754.0</ele><time>2026-04-24T16:42:42.92Z</time></trkpt><trkpt lat="41.327785" lon="0.8210167"><ele>754.0</ele><time>2026-04-24T16:42:43.921Z</time></trkpt><trkpt lat="41.32771" lon="0.8209067"><ele>754.0</ele><time>2026-04-24T16:42:44.92Z</time></trkpt><trkpt lat="41.3276533" lon="0.8207867"><ele>754.0</ele><time>2026-04-24T16:42:45.921Z</time></trkpt><trkpt lat="41.3276283" lon="0.820655"><ele>754.0</ele><time>2026-04-24T16:42:46.92Z</time></trkpt><trkpt lat="41.3276583" lon="0.8205367"><ele>757.75</ele><time>2026-04-24T16:42:47.921Z</time></trkpt><trkpt lat="41.3277333" lon="0.8204367"><ele>761.5</ele><time>2026-04-24T16:42:48.92Z</time></trkpt><trkpt lat="41.32783" lon="0.8203467"><ele>765.25</ele><time>2026-04-24T16:42:49.921Z</time></trkpt><trkpt lat="41.3279433" lon="0.820265"><ele>769.0</ele><time>2026-04-24T16:42:50.921Z</time></trkpt><trkpt lat="41.3280617" lon="0.8201717"><ele>771.75</ele><time>2026-04-24T16:42:51.92Z</time></trkpt><trkpt lat="41.32817" lon="0.820055"><ele>774.5</ele><time>2026-04-24T16:42:52.921Z</time></trkpt><trkpt lat="41.32826" lon="0.819915"><ele>777.25</ele><time>2026-04-24T16:42:53.921Z</time></trkpt><trkpt lat="41.3283267" lon="0.8197683"><ele>780.0</ele><time>2026-04-24T16:42:54.92Z</time></trkpt><trkpt lat="41.32835" lon="0.81961"><ele>780.0</ele><time>2026-04-24T16:42:55.92Z</time></trkpt><trkpt lat="41.3283233" lon="0.8194467"><ele>780.0</ele><time>2026-04-24T16:42:56.92Z</time></trkpt><trkpt lat="41.328295" lon="0.8192967"><ele>780.0</ele><time>2026-04-24T16:42:57.92Z</time></trkpt><trkpt lat="41.3283" lon="0.8191583"><ele>780.0</ele><time>2026-04-24T16:42:58.921Z</time></trkpt><trkpt lat="41.3283383" lon="0.8190183"><ele>778.8</ele><time>2026-04-24T16:42:59.921Z</time></trkpt><trkpt lat="41.3283817" lon="0.8188767"><ele>777.6</ele><time>2026-04-24T16:43:00.92Z</time></trkpt><trkpt lat="41.3284117" lon="0.818735"><ele>776.4000000000001</ele><time>2026-04-24T16:43:01.92Z</time></trkpt><trkpt lat="41.3284167" lon="0.81859"><ele>775.2</ele><time>2026-04-24T16:43:02.92Z</time></trkpt><trkpt lat="41.3283983" lon="0.81846"><ele>774.0</ele><time>2026-04-24T16:43:03.92Z</time></trkpt><trkpt lat="41.3283583" lon="0.8183133"><ele>772.5</ele><time>2026-04-24T16:43:04.921Z</time></trkpt><trkpt lat="41.3283067" lon="0.81816"><ele>771.0</ele><time>2026-04-24T16:43:05.92Z</time></trkpt><trkpt lat="41.3282483" lon="0.81798"><ele>769.5</ele><time>2026-04-24T16:43:06.921Z</time></trkpt><trkpt lat="41.3281883" lon="0.8178"><ele>768.0</ele><time>2026-04-24T16:43:07.92Z</time></trkpt><trkpt lat="41.32813" lon="0.8176167"><ele>768.0</ele><time>2026-04-24T16:43:08.92Z</time></trkpt><trkpt lat="41.3280933" lon="0.81744"><ele>768.0</ele><time>2026-04-24T16:43:09.92Z</time></trkpt><trkpt lat="41.3280883" lon="0.817255"><ele>768.0</ele><time>2026-04-24T16:43:10.921Z</time></trkpt><trkpt lat="41.3280917" lon="0.817085"><ele>768.0</ele><time>2026-04-24T16:43:11.92Z</time></trkpt><trkpt lat="41.3280633" lon="0.816935"><ele>768.75</ele><time>2026-04-24T16:43:12.92Z</time></trkpt><trkpt lat="41.327985" lon="0.816795"><ele>769.5</ele><time>2026-04-24T16:43:13.921Z</time></trkpt><trkpt lat="41.3278917" lon="0.8166433"><ele>770.25</ele><time>2026-04-24T16:43:14.921Z</time></trkpt><trkpt lat="41.3277917" lon="0.8164933"><ele>771.0</ele><time>2026-04-24T16:43:15.92Z</time></trkpt><trkpt lat="41.3277017" lon="0.8163467"><ele>771.0</ele><time>2026-04-24T16:43:16.92Z</time></trkpt><trkpt lat="41.32763" lon="0.8161833"><ele>771.0</ele><time>2026-04-24T16:43:17.92Z</time></trkpt><trkpt lat="41.3275783" lon="0.8159917"><ele>771.0</ele><time>2026-04-24T16:43:18.92Z</time></trkpt><trkpt lat="41.3275533" lon="0.8157867"><ele>771.0</ele><time>2026-04-24T16:43:19.92Z</time></trkpt><trkpt lat="41.3275367" lon="0.8155883"><ele>771.0</ele><time>2026-04-24T16:43:20.92Z</time></trkpt><trkpt lat="41.3274933" lon="0.815405"><ele>771.0</ele><time>2026-04-24T16:43:21.92Z</time></trkpt><trkpt lat="41.3274233" lon="0.81525"><ele>771.0</ele><time>2026-04-24T16:43:22.92Z</time></trkpt><trkpt lat="41.3273283" lon="0.8151233"><ele>772.75</ele><time>2026-04-24T16:43:23.921Z</time></trkpt><trkpt lat="41.3272167" lon="0.815005"><ele>774.5</ele><time>2026-04-24T16:43:24.92Z</time></trkpt><trkpt lat="41.3271017" lon="0.8148883"><ele>776.25</ele><time>2026-04-24T16:43:25.92Z</time></trkpt><trkpt lat="41.3270167" lon="0.814745"><ele>778.0</ele><time>2026-04-24T16:43:26.921Z</time></trkpt><trkpt lat="41.3269767" lon="0.81459"><ele>778.0</ele><time>2026-04-24T16:43:27.92Z</time></trkpt><trkpt lat="41.3269817" lon="0.814415"><ele>778.0</ele><time>2026-04-24T16:43:28.921Z</time></trkpt><trkpt lat="41.3270317" lon="0.8142467"><ele>778.0</ele><time>2026-04-24T16:43:29.92Z</time></trkpt><trkpt lat="41.327095" lon="0.8140783"><ele>778.0</ele><time>2026-04-24T16:43:30.92Z</time></trkpt><trkpt lat="41.3271567" lon="0.8139"><ele>777.0</ele><time>2026-04-24T16:43:31.921Z</time></trkpt><trkpt lat="41.3272283" lon="0.8137233"><ele>776.0</ele><time>2026-04-24T16:43:32.921Z</time></trkpt><trkpt lat="41.327295" lon="0.81354"><ele>775.0</ele><time>2026-04-24T16:43:33.92Z</time></trkpt><trkpt lat="41.3273667" lon="0.8133667"><ele>775.0</ele><time>2026-04-24T16:43:34.921Z</time></trkpt><trkpt lat="41.3274283" lon="0.8131817"><ele>775.0</ele><time>2026-04-24T16:43:35.921Z</time></trkpt><trkpt lat="41.3274917" lon="0.8130033"><ele>775.0</ele><time>2026-04-24T16:43:36.921Z</time></trkpt><trkpt lat="41.3275567" lon="0.812835"><ele>775.0</ele><time>2026-04-24T16:43:37.92Z</time></trkpt><trkpt lat="41.3276433" lon="0.8126933"><ele>777.5</ele><time>2026-04-24T16:43:38.92Z</time></trkpt><trkpt lat="41.3277467" lon="0.8126033"><ele>780.0</ele><time>2026-04-24T16:43:39.92Z</time></trkpt><trkpt lat="41.3278617" lon="0.812545"><ele>782.5</ele><time>2026-04-24T16:43:40.92Z</time></trkpt><trkpt lat="41.3279967" lon="0.8125633"><ele>785.0</ele><time>2026-04-24T16:43:41.92Z</time></trkpt><trkpt lat="41.3281217" lon="0.8126567"><ele>779.5</ele><time>2026-04-24T16:43:42.92Z</time></trkpt><trkpt lat="41.328235" lon="0.8127767"><ele>774.0</ele><time>2026-04-24T16:43:43.92Z</time></trkpt><trkpt lat="41.32835" lon="0.8128883"><ele>768.5</ele><time>2026-04-24T16:43:44.92Z</time></trkpt><trkpt lat="41.328465" lon="0.8129367"><ele>763.0</ele><time>2026-04-24T16:43:45.92Z</time></trkpt><trkpt lat="41.328585" lon="0.8129383"><ele>763.0</ele><time>2026-04-24T16:43:46.92Z</time></trkpt><trkpt lat="41.3287033" lon="0.8128717"><ele>763.0</ele><time>2026-04-24T16:43:47.92Z</time></trkpt><trkpt lat="41.3288217" lon="0.8127633"><ele>763.0</ele><time>2026-04-24T16:43:48.92Z</time></trkpt><trkpt lat="41.3289017" lon="0.8126133"><ele>763.0</ele><time>2026-04-24T16:43:49.921Z</time></trkpt><trkpt lat="41.3289517" lon="0.8124283"><ele>763.75</ele><time>2026-04-24T16:43:50.92Z</time></trkpt><trkpt lat="41.3289917" lon="0.8122367"><ele>764.5</ele><time>2026-04-24T16:43:51.921Z</time></trkpt><trkpt lat="41.32903" lon="0.812075"><ele>765.25</ele><time>2026-04-24T16:43:52.921Z</time></trkpt><trkpt lat="41.3290767" lon="0.81195"><ele>766.0</ele><time>2026-04-24T16:43:53.921Z</time></trkpt><trkpt lat="41.3291317" lon="0.8118717"><ele>766.0</ele><time>2026-04-24T16:43:54.92Z</time></trkpt><trkpt lat="41.3292067" lon="0.8118283"><ele>766.0</ele><time>2026-04-24T16:43:55.92Z</time></trkpt><trkpt lat="41.3292967" lon="0.8118017"><ele>766.0</ele><time>2026-04-24T16:43:56.921Z</time></trkpt><trkpt lat="41.3294067" lon="0.81179"><ele>766.0</ele><time>2026-04-24T16:43:57.92Z</time></trkpt><trkpt lat="41.3295417" lon="0.81177"><ele>766.0</ele><time>2026-04-24T16:43:58.92Z</time></trkpt><trkpt lat="41.329685" lon="0.8117433"><ele>765.3333333333334</ele><time>2026-04-24T16:43:59.92Z</time></trkpt><trkpt lat="41.32983" lon="0.8117167"><ele>764.6666666666666</ele><time>2026-04-24T16:44:00.92Z</time></trkpt><trkpt lat="41.3299833" lon="0.8117117"><ele>764.0</ele><time>2026-04-24T16:44:01.92Z</time></trkpt><trkpt lat="41.3301383" lon="0.8117067"><ele>764.0</ele><time>2026-04-24T16:44:02.92Z</time></trkpt><trkpt lat="41.330275" lon="0.81171"><ele>764.0</ele><time>2026-04-24T16:44:03.921Z</time></trkpt><trkpt lat="41.330395" lon="0.8116917"><ele>764.0</ele><time>2026-04-24T16:44:04.921Z</time></trkpt><trkpt lat="41.3305017" lon="0.8116417"><ele>764.0</ele><time>2026-04-24T16:44:05.92Z</time></trkpt><trkpt lat="41.3306" lon="0.811535"><ele>760.0</ele><time>2026-04-24T16:44:06.92Z</time></trkpt><trkpt lat="41.3306983" lon="0.8113933"><ele>756.0</ele><time>2026-04-24T16:44:07.921Z</time></trkpt><trkpt lat="41.3308067" lon="0.8112417"><ele>752.0</ele><time>2026-04-24T16:44:08.92Z</time></trkpt><trkpt lat="41.330915" lon="0.811095"><ele>752.25</ele><time>2026-04-24T16:44:09.921Z</time></trkpt><trkpt lat="41.3310267" lon="0.8109767"><ele>752.5</ele><time>2026-04-24T16:44:10.92Z</time></trkpt><trkpt lat="41.3311433" lon="0.8108733"><ele>752.75</ele><time>2026-04-24T16:44:11.92Z</time></trkpt><trkpt lat="41.3312767" lon="0.8107867"><ele>753.0</ele><time>2026-04-24T16:44:12.92Z</time></trkpt><trkpt lat="41.331425" lon="0.8107183"><ele>752.0</ele><time>2026-04-24T16:44:13.921Z</time></trkpt><trkpt lat="41.3315733" lon="0.810645"><ele>751.0</ele><time>2026-04-24T16:44:14.92Z</time></trkpt><trkpt lat="41.3317217" lon="0.8105667"><ele>750.0</ele><time>2026-04-24T16:44:15.921Z</time></trkpt><trkpt lat="41.3318583" lon="0.8104983"><ele>750.0</ele><time>2026-04-24T16:44:16.921Z</time></trkpt><trkpt lat="41.3319833" lon="0.8104617"><ele>750.0</ele><time>2026-04-24T16:44:17.92Z</time></trkpt><trkpt lat="41.3320983" lon="0.810465"><ele>750.0</ele><time>2026-04-24T16:44:18.92Z</time></trkpt><trkpt lat="41.3322183" lon="0.810535"><ele>750.0</ele><time>2026-04-24T16:44:19.921Z</time></trkpt><trkpt lat="41.3323417" lon="0.8106183"><ele>749.25</ele><time>2026-04-24T16:44:20.921Z</time></trkpt><trkpt lat="41.3324767" lon="0.8106817"><ele>748.5</ele><time>2026-04-24T16:44:21.92Z</time></trkpt><trkpt lat="41.3326117" lon="0.8106867"><ele>747.75</ele><time>2026-04-24T16:44:22.921Z</time></trkpt><trkpt lat="41.332755" lon="0.8106533"><ele>747.0</ele><time>2026-04-24T16:44:23.921Z</time></trkpt><trkpt lat="41.3328983" lon="0.8105733"><ele>747.0</ele><time>2026-04-24T16:44:24.921Z</time></trkpt><trkpt lat="41.3330367" lon="0.810465"><ele>747.0</ele><time>2026-04-24T16:44:25.921Z</time></trkpt><trkpt lat="41.3331733" lon="0.8103417"><ele>747.0</ele><time>2026-04-24T16:44:26.921Z</time></trkpt><trkpt lat="41.33331" lon="0.810215"><ele>741.6666666666666</ele><time>2026-04-24T16:44:27.92Z</time></trkpt><trkpt lat="41.33345" lon="0.81008"><ele>736.3333333333333</ele><time>2026-04-24T16:44:28.921Z</time></trkpt><trkpt lat="41.3335983" lon="0.809955"><ele>731.0</ele><time>2026-04-24T16:44:29.92Z</time></trkpt><trkpt lat="41.333735" lon="0.80983"><ele>731.0</ele><time>2026-04-24T16:44:30.92Z</time></trkpt><trkpt lat="41.333865" lon="0.8096983"><ele>731.0</ele><time>2026-04-24T16:44:31.921Z</time></trkpt><trkpt lat="41.3339817" lon="0.8095717"><ele>731.0</ele><time>2026-04-24T16:44:32.921Z</time></trkpt><trkpt lat="41.334075" lon="0.80945"><ele>731.0</ele><time>2026-04-24T16:44:33.92Z</time></trkpt><trkpt lat="41.3341467" lon="0.8093183"><ele>730.75</ele><time>2026-04-24T16:44:34.921Z</time></trkpt><trkpt lat="41.3341767" lon="0.80915"><ele>730.5</ele><time>2026-04-24T16:44:35.92Z</time></trkpt><trkpt lat="41.33418" lon="0.8089633"><ele>730.25</ele><time>2026-04-24T16:44:36.92Z</time></trkpt><trkpt lat="41.3341783" lon="0.808765"><ele>730.0</ele><time>2026-04-24T16:44:37.921Z</time></trkpt><trkpt lat="41.3341667" lon="0.80858"><ele>728.75</ele><time>2026-04-24T16:44:38.921Z</time></trkpt><trkpt lat="41.3341583" lon="0.808425"><ele>727.5</ele><time>2026-04-24T16:44:39.92Z</time></trkpt><trkpt lat="41.33418" lon="0.8082883"><ele>726.25</ele><time>2026-04-24T16:44:40.92Z</time></trkpt><trkpt lat="41.33424" lon="0.8081667"><ele>725.0</ele><time>2026-04-24T16:44:41.921Z</time></trkpt><trkpt lat="41.3343383" lon="0.8080567"><ele>725.0</ele><time>2026-04-24T16:44:42.921Z</time></trkpt><trkpt lat="41.3344367" lon="0.8079533"><ele>725.0</ele><time>2026-04-24T16:44:43.92Z</time></trkpt><trkpt lat="41.3345267" lon="0.8078517"><ele>725.0</ele><time>2026-04-24T16:44:44.92Z</time></trkpt><trkpt lat="41.3346217" lon="0.8077883"><ele>725.0</ele><time>2026-04-24T16:44:45.92Z</time></trkpt><trkpt lat="41.33472" lon="0.8077833"><ele>725.0</ele><time>2026-04-24T16:44:46.921Z</time></trkpt><trkpt lat="41.3348133" lon="0.8078417"><ele>725.6</ele><time>2026-04-24T16:44:47.921Z</time></trkpt><trkpt lat="41.3348933" lon="0.8079567"><ele>726.2</ele><time>2026-04-24T16:44:48.921Z</time></trkpt><trkpt lat="41.3349833" lon="0.8080567"><ele>726.8</ele><time>2026-04-24T16:44:49.921Z</time></trkpt><trkpt lat="41.33508" lon="0.808105"><ele>727.4</ele><time>2026-04-24T16:44:50.92Z</time></trkpt><trkpt lat="41.3351883" lon="0.8081"><ele>728.0</ele><time>2026-04-24T16:44:51.92Z</time></trkpt><trkpt lat="41.3352883" lon="0.8080267"><ele>728.0</ele><time>2026-04-24T16:44:52.921Z</time></trkpt><trkpt lat="41.3353933" lon="0.8079533"><ele>728.0</ele><time>2026-04-24T16:44:53.92Z</time></trkpt><trkpt lat="41.335515" lon="0.8079033"><ele>728.0</ele><time>2026-04-24T16:44:54.921Z</time></trkpt><trkpt lat="41.335655" lon="0.8078717"><ele>728.0</ele><time>2026-04-24T16:44:55.92Z</time></trkpt><trkpt lat="41.335805" lon="0.8078567"><ele>727.5</ele><time>2026-04-24T16:44:56.92Z</time></trkpt><trkpt lat="41.335955" lon="0.8078683"><ele>727.0</ele><time>2026-04-24T16:44:57.921Z</time></trkpt><trkpt lat="41.3360967" lon="0.8078967"><ele>726.5</ele><time>2026-04-24T16:44:58.92Z</time></trkpt><trkpt lat="41.3362333" lon="0.8079017"><ele>726.0</ele><time>2026-04-24T16:44:59.92Z</time></trkpt><trkpt lat="41.3363783" lon="0.8078533"><ele>725.6666666666666</ele><time>2026-04-24T16:45:00.92Z</time></trkpt><trkpt lat="41.3365233" lon="0.80776"><ele>725.3333333333333</ele><time>2026-04-24T16:45:01.92Z</time></trkpt><trkpt lat="41.3366717" lon="0.8076533"><ele>725.0</ele><time>2026-04-24T16:45:02.92Z</time></trkpt><trkpt lat="41.3368183" lon="0.8075483"><ele>720.25</ele><time>2026-04-24T16:45:03.921Z</time></trkpt><trkpt lat="41.3369517" lon="0.8074583"><ele>715.5</ele><time>2026-04-24T16:45:04.92Z</time></trkpt><trkpt lat="41.337075" lon="0.8073783"><ele>710.75</ele><time>2026-04-24T16:45:05.92Z</time></trkpt><trkpt lat="41.33721" lon="0.80735"><ele>706.0</ele><time>2026-04-24T16:45:06.921Z</time></trkpt><trkpt lat="41.337355" lon="0.8073567"><ele>705.75</ele><time>2026-04-24T16:45:07.921Z</time></trkpt><trkpt lat="41.3374983" lon="0.8073917"><ele>705.5</ele><time>2026-04-24T16:45:08.92Z</time></trkpt><trkpt lat="41.3376283" lon="0.807455"><ele>705.25</ele><time>2026-04-24T16:45:09.921Z</time></trkpt><trkpt lat="41.3377467" lon="0.807555"><ele>705.0</ele><time>2026-04-24T16:45:10.92Z</time></trkpt><trkpt lat="41.3378433" lon="0.8076667"><ele>707.25</ele><time>2026-04-24T16:45:11.92Z</time></trkpt><trkpt lat="41.3379417" lon="0.80774"><ele>709.5</ele><time>2026-04-24T16:45:12.921Z</time></trkpt><trkpt lat="41.3380533" lon="0.807765"><ele>711.75</ele><time>2026-04-24T16:45:13.921Z</time></trkpt><trkpt lat="41.3381783" lon="0.807735"><ele>714.0</ele><time>2026-04-24T16:45:14.92Z</time></trkpt><trkpt lat="41.3383117" lon="0.80767"><ele>708.3333333333334</ele><time>2026-04-24T16:45:15.921Z</time></trkpt><trkpt lat="41.3384533" lon="0.807595"><ele>702.6666666666667</ele><time>2026-04-24T16:45:16.921Z</time></trkpt><trkpt lat="41.3385983" lon="0.807515"><ele>697.0</ele><time>2026-04-24T16:45:17.921Z</time></trkpt><trkpt lat="41.3387333" lon="0.8074333"><ele>697.0</ele><time>2026-04-24T16:45:18.921Z</time></trkpt><trkpt lat="41.3388633" lon="0.8073283"><ele>697.0</ele><time>2026-04-24T16:45:19.92Z</time></trkpt><trkpt lat="41.3389783" lon="0.8072017"><ele>697.0</ele><time>2026-04-24T16:45:20.92Z</time></trkpt><trkpt lat="41.33907" lon="0.80704"><ele>698.25</ele><time>2026-04-24T16:45:21.92Z</time></trkpt><trkpt lat="41.3391517" lon="0.80688"><ele>699.5</ele><time>2026-04-24T16:45:22.921Z</time></trkpt><trkpt lat="41.33923" lon="0.8067367"><ele>700.75</ele><time>2026-04-24T16:45:23.92Z</time></trkpt><trkpt lat="41.3393267" lon="0.806635"><ele>702.0</ele><time>2026-04-24T16:45:24.92Z</time></trkpt><trkpt lat="41.3394467" lon="0.8065683"><ele>702.0</ele><time>2026-04-24T16:45:25.92Z</time></trkpt><trkpt lat="41.3395817" lon="0.8065083"><ele>702.0</ele><time>2026-04-24T16:45:26.921Z</time></trkpt><trkpt lat="41.3397233" lon="0.8064617"><ele>702.0</ele><time>2026-04-24T16:45:27.92Z</time></trkpt><trkpt lat="41.3398633" lon="0.8064117"><ele>702.0</ele><time>2026-04-24T16:45:28.921Z</time></trkpt><trkpt lat="41.3400017" lon="0.8063417"><ele>702.0</ele><time>2026-04-24T16:45:29.92Z</time></trkpt><trkpt lat="41.3401467" lon="0.80625"><ele>702.0</ele><time>2026-04-24T16:45:30.921Z</time></trkpt><trkpt lat="41.3402967" lon="0.8061483"><ele>702.0</ele><time>2026-04-24T16:45:31.921Z</time></trkpt><trkpt lat="41.3404433" lon="0.8060283"><ele>702.3333333333334</ele><time>2026-04-24T16:45:32.92Z</time></trkpt><trkpt lat="41.3406067" lon="0.805935"><ele>702.6666666666667</ele><time>2026-04-24T16:45:33.92Z</time></trkpt><trkpt lat="41.3407917" lon="0.8058567"><ele>703.0</ele><time>2026-04-24T16:45:34.92Z</time></trkpt><trkpt lat="41.34097" lon="0.805775"><ele>703.0</ele><time>2026-04-24T16:45:35.92Z</time></trkpt><trkpt lat="41.3411267" lon="0.8057217"><ele>703.0</ele><time>2026-04-24T16:45:36.921Z</time></trkpt><trkpt lat="41.34127" lon="0.8057067"><ele>703.0</ele><time>2026-04-24T16:45:37.92Z</time></trkpt><trkpt lat="41.3413967" lon="0.80575"><ele>703.0</ele><time>2026-04-24T16:45:38.921Z</time></trkpt><trkpt lat="41.341505" lon="0.805805"><ele>704.0</ele><time>2026-04-24T16:45:39.92Z</time></trkpt><trkpt lat="41.3416033" lon="0.8058167"><ele>705.0</ele><time>2026-04-24T16:45:40.92Z</time></trkpt><trkpt lat="41.3416867" lon="0.8057683"><ele>706.0</ele><time>2026-04-24T16:45:41.92Z</time></trkpt><trkpt lat="41.3417533" lon="0.80566"><ele>707.0</ele><time>2026-04-24T16:45:42.921Z</time></trkpt><trkpt lat="41.3417967" lon="0.805495"><ele>708.0</ele><time>2026-04-24T16:45:43.921Z</time></trkpt><trkpt lat="41.3418067" lon="0.8053083"><ele>708.3333333333334</ele><time>2026-04-24T16:45:44.921Z</time></trkpt><trkpt lat="41.3418317" lon="0.80511"><ele>708.6666666666667</ele><time>2026-04-24T16:45:45.921Z</time></trkpt><trkpt lat="41.3418783" lon="0.8049117"><ele>709.0</ele><time>2026-04-24T16:45:46.92Z</time></trkpt><trkpt lat="41.34197" lon="0.8047417"><ele>709.0</ele><time>2026-04-24T16:45:47.92Z</time></trkpt><trkpt lat="41.3420867" lon="0.8046133"><ele>709.0</ele><time>2026-04-24T16:45:48.921Z</time></trkpt><trkpt lat="41.342225" lon="0.8045433"><ele>709.0</ele><time>2026-04-24T16:45:49.921Z</time></trkpt><trkpt lat="41.3423717" lon="0.8045133"><ele>709.0</ele><time>2026-04-24T16:45:50.92Z</time></trkpt><trkpt lat="41.3425217" lon="0.8045"><ele>706.0</ele><time>2026-04-24T16:45:51.921Z</time></trkpt><trkpt lat="41.3426883" lon="0.8044833"><ele>703.0</ele><time>2026-04-24T16:45:52.92Z</time></trkpt><trkpt lat="41.3428383" lon="0.8044333"><ele>700.0</ele><time>2026-04-24T16:45:53.921Z</time></trkpt><trkpt lat="41.3429883" lon="0.80435"><ele>700.3333333333334</ele><time>2026-04-24T16:45:54.921Z</time></trkpt><trkpt lat="41.34313" lon="0.8042617"><ele>700.6666666666666</ele><time>2026-04-24T16:45:55.921Z</time></trkpt><trkpt lat="41.343265" lon="0.804145"><ele>701.0</ele><time>2026-04-24T16:45:56.92Z</time></trkpt><trkpt lat="41.34338" lon="0.8040083"><ele>701.0</ele><time>2026-04-24T16:45:57.921Z</time></trkpt><trkpt lat="41.3434967" lon="0.803845"><ele>701.0</ele><time>2026-04-24T16:45:58.921Z</time></trkpt><trkpt lat="41.3436083" lon="0.8036617"><ele>701.0</ele><time>2026-04-24T16:45:59.92Z</time></trkpt><trkpt lat="41.3437233" lon="0.80348"><ele>703.3333333333333</ele><time>2026-04-24T16:46:00.921Z</time></trkpt><trkpt lat="41.3438367" lon="0.8032917"><ele>705.6666666666666</ele><time>2026-04-24T16:46:01.92Z</time></trkpt><trkpt lat="41.34396" lon="0.803115"><ele>708.0</ele><time>2026-04-24T16:46:02.92Z</time></trkpt><trkpt lat="41.344105" lon="0.80295"><ele>701.3333333333334</ele><time>2026-04-24T16:46:03.921Z</time></trkpt><trkpt lat="41.3442667" lon="0.802795"><ele>694.6666666666667</ele><time>2026-04-24T16:46:04.92Z</time></trkpt><trkpt lat="41.3444217" lon="0.8026333"><ele>688.0</ele><time>2026-04-24T16:46:05.921Z</time></trkpt><trkpt lat="41.344585" lon="0.802475"><ele>687.3333333333334</ele><time>2026-04-24T16:46:06.921Z</time></trkpt><trkpt lat="41.3447433" lon="0.8023133"><ele>686.6666666666666</ele><time>2026-04-24T16:46:07.921Z</time></trkpt><trkpt lat="41.3449067" lon="0.80215"><ele>686.0</ele><time>2026-04-24T16:46:08.92Z</time></trkpt><trkpt lat="41.345065" lon="0.8019833"><ele>686.6666666666666</ele><time>2026-04-24T16:46:09.92Z</time></trkpt><trkpt lat="41.34522" lon="0.8018267"><ele>687.3333333333334</ele><time>2026-04-24T16:46:10.92Z</time></trkpt><trkpt lat="41.3453783" lon="0.801675"><ele>688.0</ele><time>2026-04-24T16:46:11.92Z</time></trkpt><trkpt lat="41.3455317" lon="0.8015367"><ele>689.0</ele><time>2026-04-24T16:46:12.92Z</time></trkpt><trkpt lat="41.3456867" lon="0.8014183"><ele>690.0</ele><time>2026-04-24T16:46:13.921Z</time></trkpt><trkpt lat="41.3458417" lon="0.8013133"><ele>691.0</ele><time>2026-04-24T16:46:14.92Z</time></trkpt><trkpt lat="41.3459767" lon="0.80121"><ele>691.0</ele><time>2026-04-24T16:46:15.921Z</time></trkpt><trkpt lat="41.346095" lon="0.8010867"><ele>691.0</ele><time>2026-04-24T16:46:16.92Z</time></trkpt><trkpt lat="41.346185" lon="0.8009233"><ele>691.0</ele><time>2026-04-24T16:46:17.921Z</time></trkpt><trkpt lat="41.346245" lon="0.8007283"><ele>689.0</ele><time>2026-04-24T16:46:18.921Z</time></trkpt><trkpt lat="41.34628" lon="0.8005017"><ele>687.0</ele><time>2026-04-24T16:46:19.92Z</time></trkpt><trkpt lat="41.3463083" lon="0.8002583"><ele>685.0</ele><time>2026-04-24T16:46:20.921Z</time></trkpt><trkpt lat="41.346345" lon="0.8000283"><ele>683.3333333333334</ele><time>2026-04-24T16:46:21.921Z</time></trkpt><trkpt lat="41.3463733" lon="0.7998083"><ele>681.6666666666666</ele><time>2026-04-24T16:46:22.921Z</time></trkpt><trkpt lat="41.346405" lon="0.7996017"><ele>680.0</ele><time>2026-04-24T16:46:23.921Z</time></trkpt><trkpt lat="41.3464267" lon="0.799395"><ele>682.25</ele><time>2026-04-24T16:46:24.921Z</time></trkpt><trkpt lat="41.34646" lon="0.79921"><ele>684.5</ele><time>2026-04-24T16:46:25.92Z</time></trkpt><trkpt lat="41.3465217" lon="0.7990433"><ele>686.75</ele><time>2026-04-24T16:46:26.921Z</time></trkpt><trkpt lat="41.3466217" lon="0.7988967"><ele>689.0</ele><time>2026-04-24T16:46:27.921Z</time></trkpt><trkpt lat="41.3467533" lon="0.798765"><ele>689.0</ele><time>2026-04-24T16:46:28.92Z</time></trkpt><trkpt lat="41.34689" lon="0.7986283"><ele>689.0</ele><time>2026-04-24T16:46:29.92Z</time></trkpt><trkpt lat="41.3470333" lon="0.7984833"><ele>689.0</ele><time>2026-04-24T16:46:30.921Z</time></trkpt><trkpt lat="41.3471733" lon="0.7983333"><ele>686.0</ele><time>2026-04-24T16:46:31.92Z</time></trkpt><trkpt lat="41.3473183" lon="0.7981933"><ele>683.0</ele><time>2026-04-24T16:46:32.921Z</time></trkpt><trkpt lat="41.347465" lon="0.7980433"><ele>680.0</ele><time>2026-04-24T16:46:33.921Z</time></trkpt><trkpt lat="41.347605" lon="0.79789"><ele>680.0</ele><time>2026-04-24T16:46:34.921Z</time></trkpt><trkpt lat="41.34774" lon="0.797755"><ele>680.0</ele><time>2026-04-24T16:46:35.921Z</time></trkpt><trkpt lat="41.3478633" lon="0.7976267"><ele>680.0</ele><time>2026-04-24T16:46:36.921Z</time></trkpt><trkpt lat="41.3479817" lon="0.797495"><ele>679.0</ele><time>2026-04-24T16:46:37.921Z</time></trkpt><trkpt lat="41.3480967" lon="0.7973667"><ele>678.0</ele><time>2026-04-24T16:46:38.92Z</time></trkpt><trkpt lat="41.3482167" lon="0.7972783"><ele>677.0</ele><time>2026-04-24T16:46:39.92Z</time></trkpt><trkpt lat="41.3483433" lon="0.7972283"><ele>676.0</ele><time>2026-04-24T16:46:40.921Z</time></trkpt><trkpt lat="41.3484933" lon="0.79722"><ele>676.0</ele><time>2026-04-24T16:46:41.92Z</time></trkpt><trkpt lat="41.34865" lon="0.7972417"><ele>676.0</ele><time>2026-04-24T16:46:42.92Z</time></trkpt><trkpt lat="41.3488117" lon="0.797275"><ele>676.0</ele><time>2026-04-24T16:46:43.921Z</time></trkpt><trkpt lat="41.34898" lon="0.7973033"><ele>674.3333333333334</ele><time>2026-04-24T16:46:44.92Z</time></trkpt><trkpt lat="41.3491383" lon="0.7973283"><ele>672.6666666666666</ele><time>2026-04-24T16:46:45.92Z</time></trkpt><trkpt lat="41.34929" lon="0.79735"><ele>671.0</ele><time>2026-04-24T16:46:46.92Z</time></trkpt><trkpt lat="41.3494467" lon="0.7973483"><ele>671.0</ele><time>2026-04-24T16:46:47.921Z</time></trkpt><trkpt lat="41.34961" lon="0.7973233"><ele>671.0</ele><time>2026-04-24T16:46:48.92Z</time></trkpt><trkpt lat="41.34978" lon="0.7972817"><ele>671.0</ele><time>2026-04-24T16:46:49.92Z</time></trkpt><trkpt lat="41.3499533" lon="0.797235"><ele>671.0</ele><time>2026-04-24T16:46:50.92Z</time></trkpt><trkpt lat="41.350125" lon="0.7971867"><ele>671.0</ele><time>2026-04-24T16:46:51.92Z</time></trkpt><trkpt lat="41.350305" lon="0.79714"><ele>671.0</ele><time>2026-04-24T16:46:52.921Z</time></trkpt><trkpt lat="41.3504917" lon="0.7970933"><ele>670.6666666666666</ele><time>2026-04-24T16:46:53.92Z</time></trkpt><trkpt lat="41.35068" lon="0.7970417"><ele>670.3333333333334</ele><time>2026-04-24T16:46:54.921Z</time></trkpt><trkpt lat="41.3508733" lon="0.7969667"><ele>670.0</ele><time>2026-04-24T16:46:55.92Z</time></trkpt><trkpt lat="41.35106" lon="0.7968667"><ele>670.6666666666667</ele><time>2026-04-24T16:46:56.921Z</time></trkpt><trkpt lat="41.3512417" lon="0.7967283"><ele>671.3333333333334</ele><time>2026-04-24T16:46:57.92Z</time></trkpt><trkpt lat="41.35142" lon="0.796585"><ele>672.0</ele><time>2026-04-24T16:46:58.921Z</time></trkpt><trkpt lat="41.3515983" lon="0.796425"><ele>672.3333333333334</ele><time>2026-04-24T16:46:59.921Z</time></trkpt><trkpt lat="41.351775" lon="0.79627"><ele>672.6666666666667</ele><time>2026-04-24T16:47:00.921Z</time></trkpt><trkpt lat="41.3519333" lon="0.7961233"><ele>673.0</ele><time>2026-04-24T16:47:01.921Z</time></trkpt><trkpt lat="41.3520817" lon="0.7959917"><ele>672.3333333333334</ele><time>2026-04-24T16:47:02.92Z</time></trkpt><trkpt lat="41.3522367" lon="0.795865"><ele>671.6666666666666</ele><time>2026-04-24T16:47:03.92Z</time></trkpt><trkpt lat="41.3524" lon="0.7957517"><ele>671.0</ele><time>2026-04-24T16:47:04.921Z</time></trkpt><trkpt lat="41.352565" lon="0.7956233"><ele>671.0</ele><time>2026-04-24T16:47:05.92Z</time></trkpt><trkpt lat="41.352735" lon="0.7955067"><ele>671.0</ele><time>2026-04-24T16:47:06.92Z</time></trkpt><trkpt lat="41.35291" lon="0.7953933"><ele>671.0</ele><time>2026-04-24T16:47:07.92Z</time></trkpt><trkpt lat="41.3530883" lon="0.79526"><ele>669.3333333333333</ele><time>2026-04-24T16:47:08.92Z</time></trkpt><trkpt lat="41.353275" lon="0.7951317"><ele>667.6666666666666</ele><time>2026-04-24T16:47:09.921Z</time></trkpt><trkpt lat="41.353465" lon="0.795"><ele>666.0</ele><time>2026-04-24T16:47:10.92Z</time></trkpt><trkpt lat="41.3536617" lon="0.794865"><ele>666.0</ele><time>2026-04-24T16:47:11.92Z</time></trkpt><trkpt lat="41.353865" lon="0.794745"><ele>666.0</ele><time>2026-04-24T16:47:12.921Z</time></trkpt><trkpt lat="41.3540683" lon="0.794605"><ele>663.5</ele><time>2026-04-24T16:47:13.92Z</time></trkpt><trkpt lat="41.3542767" lon="0.7944517"><ele>661.0</ele><time>2026-04-24T16:47:14.921Z</time></trkpt><trkpt lat="41.3544883" lon="0.79431"><ele>661.0</ele><time>2026-04-24T16:47:15.92Z</time></trkpt><trkpt lat="41.3547017" lon="0.7941567"><ele>661.0</ele><time>2026-04-24T16:47:16.921Z</time></trkpt><trkpt lat="41.3549217" lon="0.7940083"><ele>659.0</ele><time>2026-04-24T16:47:17.92Z</time></trkpt><trkpt lat="41.3551417" lon="0.7938567"><ele>657.0</ele><time>2026-04-24T16:47:18.921Z</time></trkpt><trkpt lat="41.3553583" lon="0.7937083"><ele>654.5</ele><time>2026-04-24T16:47:19.921Z</time></trkpt><trkpt lat="41.3555733" lon="0.7935617"><ele>652.0</ele><time>2026-04-24T16:47:20.921Z</time></trkpt><trkpt lat="41.3557883" lon="0.7934067"><ele>652.0</ele><time>2026-04-24T16:47:21.921Z</time></trkpt><trkpt lat="41.3560033" lon="0.7932617"><ele>652.0</ele><time>2026-04-24T16:47:22.921Z</time></trkpt><trkpt lat="41.35621" lon="0.7931133"><ele>652.5</ele><time>2026-04-24T16:47:23.92Z</time></trkpt><trkpt lat="41.3564167" lon="0.79297"><ele>653.0</ele><time>2026-04-24T16:47:24.921Z</time></trkpt><trkpt lat="41.3566133" lon="0.7928283"><ele>653.0</ele><time>2026-04-24T16:47:25.92Z</time></trkpt><trkpt lat="41.356815" lon="0.7926883"><ele>653.0</ele><time>2026-04-24T16:47:26.921Z</time></trkpt><trkpt lat="41.357015" lon="0.7925483"><ele>651.6666666666666</ele><time>2026-04-24T16:47:27.921Z</time></trkpt><trkpt lat="41.3572117" lon="0.7924133"><ele>650.3333333333334</ele><time>2026-04-24T16:47:28.921Z</time></trkpt><trkpt lat="41.3574067" lon="0.7922833"><ele>649.0</ele><time>2026-04-24T16:47:29.921Z</time></trkpt><trkpt lat="41.3575917" lon="0.792155"><ele>649.0</ele><time>2026-04-24T16:47:30.921Z</time></trkpt><trkpt lat="41.3577767" lon="0.7920283"><ele>649.0</ele><time>2026-04-24T16:47:31.921Z</time></trkpt><trkpt lat="41.3579683" lon="0.7918917"><ele>649.0</ele><time>2026-04-24T16:47:32.92Z</time></trkpt><trkpt lat="41.358165" lon="0.7917633"><ele>646.6666666666667</ele><time>2026-04-24T16:47:33.92Z</time></trkpt><trkpt lat="41.3583617" lon="0.7916333"><ele>644.3333333333334</ele><time>2026-04-24T16:47:34.921Z</time></trkpt><trkpt lat="41.3585617" lon="0.7915233"><ele>642.0</ele><time>2026-04-24T16:47:35.92Z</time></trkpt><trkpt lat="41.3587583" lon="0.7914167"><ele>642.3333333333334</ele><time>2026-04-24T16:47:36.921Z</time></trkpt><trkpt lat="41.3589567" lon="0.7913267"><ele>642.6666666666667</ele><time>2026-04-24T16:47:37.921Z</time></trkpt><trkpt lat="41.3591567" lon="0.7912483"><ele>643.0</ele><time>2026-04-24T16:47:38.92Z</time></trkpt><trkpt lat="41.3593533" lon="0.7911633"><ele>643.0</ele><time>2026-04-24T16:47:39.92Z</time></trkpt><trkpt lat="41.3595517" lon="0.7910833"><ele>643.0</ele><time>2026-04-24T16:47:40.92Z</time></trkpt><trkpt lat="41.3597417" lon="0.791"><ele>643.0</ele><time>2026-04-24T16:47:41.92Z</time></trkpt><trkpt lat="41.3599283" lon="0.79091"><ele>639.6666666666667</ele><time>2026-04-24T16:47:42.921Z</time></trkpt><trkpt lat="41.3601167" lon="0.790825"><ele>636.3333333333334</ele><time>2026-04-24T16:47:43.921Z</time></trkpt><trkpt lat="41.3603" lon="0.7907517"><ele>633.0</ele><time>2026-04-24T16:47:44.921Z</time></trkpt><trkpt lat="41.3604617" lon="0.7906767"><ele>633.25</ele><time>2026-04-24T16:47:45.92Z</time></trkpt><trkpt lat="41.3606" lon="0.7906017"><ele>633.5</ele><time>2026-04-24T16:47:46.92Z</time></trkpt><trkpt lat="41.3607067" lon="0.7905267"><ele>633.75</ele><time>2026-04-24T16:47:47.92Z</time></trkpt><trkpt lat="41.3607983" lon="0.7904133"><ele>634.0</ele><time>2026-04-24T16:47:48.921Z</time></trkpt><trkpt lat="41.3608733" lon="0.7902483"><ele>632.6666666666667</ele><time>2026-04-24T16:47:49.92Z</time></trkpt><trkpt lat="41.36094" lon="0.790055"><ele>631.3333333333334</ele><time>2026-04-24T16:47:50.921Z</time></trkpt><trkpt lat="41.3610033" lon="0.789855"><ele>630.0</ele><time>2026-04-24T16:47:51.921Z</time></trkpt><trkpt lat="41.3610617" lon="0.7896433"><ele>630.0</ele><time>2026-04-24T16:47:52.92Z</time></trkpt><trkpt lat="41.3611233" lon="0.7894283"><ele>630.0</ele><time>2026-04-24T16:47:53.921Z</time></trkpt><trkpt lat="41.3611883" lon="0.7892117"><ele>630.0</ele><time>2026-04-24T16:47:54.921Z</time></trkpt><trkpt lat="41.3612483" lon="0.789"><ele>630.6666666666666</ele><time>2026-04-24T16:47:55.92Z</time></trkpt><trkpt lat="41.361305" lon="0.7887933"><ele>631.3333333333333</ele><time>2026-04-24T16:47:56.92Z</time></trkpt><trkpt lat="41.3613633" lon="0.7885967"><ele>632.0</ele><time>2026-04-24T16:47:57.92Z</time></trkpt><trkpt lat="41.36142" lon="0.7884133"><ele>632.0</ele><time>2026-04-24T16:47:58.921Z</time></trkpt><trkpt lat="41.361485" lon="0.7882267"><ele>632.0</ele><time>2026-04-24T16:47:59.92Z</time></trkpt><trkpt lat="41.361555" lon="0.7880467"><ele>632.0</ele><time>2026-04-24T16:48:00.92Z</time></trkpt><trkpt lat="41.3616317" lon="0.7878817"><ele>632.0</ele><time>2026-04-24T16:48:01.921Z</time></trkpt><trkpt lat="41.3617117" lon="0.7877267"><ele>632.0</ele><time>2026-04-24T16:48:02.92Z</time></trkpt><trkpt lat="41.3617933" lon="0.7875783"><ele>632.0</ele><time>2026-04-24T16:48:03.92Z</time></trkpt><trkpt lat="41.36187" lon="0.7874233"><ele>632.0</ele><time>2026-04-24T16:48:04.921Z</time></trkpt><trkpt lat="41.3619483" lon="0.7872767"><ele>631.75</ele><time>2026-04-24T16:48:05.921Z</time></trkpt><trkpt lat="41.3620267" lon="0.78713"><ele>631.5</ele><time>2026-04-24T16:48:06.921Z</time></trkpt><trkpt lat="41.362105" lon="0.7869883"><ele>631.25</ele><time>2026-04-24T16:48:07.92Z</time></trkpt><trkpt lat="41.3621783" lon="0.7868567"><ele>631.0</ele><time>2026-04-24T16:48:08.921Z</time></trkpt><trkpt lat="41.3622467" lon="0.7867317"><ele>630.8</ele><time>2026-04-24T16:48:09.92Z</time></trkpt><trkpt lat="41.3623133" lon="0.7866183"><ele>630.6</ele><time>2026-04-24T16:48:10.92Z</time></trkpt><trkpt lat="41.362375" lon="0.7865083"><ele>630.4</ele><time>2026-04-24T16:48:11.921Z</time></trkpt><trkpt lat="41.36243" lon="0.7864117"><ele>630.2</ele><time>2026-04-24T16:48:12.92Z</time></trkpt><trkpt lat="41.3624817" lon="0.7863233"><ele>630.0</ele><time>2026-04-24T16:48:13.92Z</time></trkpt><trkpt lat="41.36253" lon="0.78623"><ele>630.0</ele><time>2026-04-24T16:48:14.921Z</time></trkpt><trkpt lat="41.36258" lon="0.7861283"><ele>630.0</ele><time>2026-04-24T16:48:15.921Z</time></trkpt><trkpt lat="41.3626317" lon="0.7860067"><ele>630.0</ele><time>2026-04-24T16:48:16.921Z</time></trkpt><trkpt lat="41.3626783" lon="0.7858533"><ele>630.0</ele><time>2026-04-24T16:48:17.921Z</time></trkpt><trkpt lat="41.3627283" lon="0.78568"><ele>628.3333333333334</ele><time>2026-04-24T16:48:18.921Z</time></trkpt><trkpt lat="41.3627817" lon="0.7854933"><ele>626.6666666666667</ele><time>2026-04-24T16:48:19.921Z</time></trkpt><trkpt lat="41.3628383" lon="0.7852883"><ele>625.0</ele><time>2026-04-24T16:48:20.921Z</time></trkpt><trkpt lat="41.3628983" lon="0.7850817"><ele>624.3333333333334</ele><time>2026-04-24T16:48:21.921Z</time></trkpt><trkpt lat="41.3629633" lon="0.7848733"><ele>623.6666666666666</ele><time>2026-04-24T16:48:22.92Z</time></trkpt><trkpt lat="41.3630233" lon="0.784655"><ele>623.0</ele><time>2026-04-24T16:48:23.921Z</time></trkpt><trkpt lat="41.3630817" lon="0.784435"><ele>620.6666666666666</ele><time>2026-04-24T16:48:24.92Z</time></trkpt><trkpt lat="41.3631467" lon="0.7842133"><ele>618.3333333333334</ele><time>2026-04-24T16:48:25.92Z</time></trkpt><trkpt lat="41.36321" lon="0.7839967"><ele>616.0</ele><time>2026-04-24T16:48:26.921Z</time></trkpt><trkpt lat="41.3632717" lon="0.783785"><ele>616.0</ele><time>2026-04-24T16:48:27.92Z</time></trkpt><trkpt lat="41.3633317" lon="0.7835817"><ele>616.0</ele><time>2026-04-24T16:48:28.92Z</time></trkpt><trkpt lat="41.36339" lon="0.78338"><ele>616.0</ele><time>2026-04-24T16:48:29.92Z</time></trkpt><trkpt lat="41.3634433" lon="0.7831917"><ele>614.0</ele><time>2026-04-24T16:48:30.921Z</time></trkpt><trkpt lat="41.3634917" lon="0.7830217"><ele>612.0</ele><time>2026-04-24T16:48:31.92Z</time></trkpt><trkpt lat="41.3635283" lon="0.78287"><ele>610.0</ele><time>2026-04-24T16:48:32.921Z</time></trkpt><trkpt lat="41.36354" lon="0.7827217"><ele>608.0</ele><time>2026-04-24T16:48:33.92Z</time></trkpt><trkpt lat="41.3635033" lon="0.7825883"><ele>606.5</ele><time>2026-04-24T16:48:34.92Z</time></trkpt><trkpt lat="41.3634333" lon="0.7824683"><ele>605.0</ele><time>2026-04-24T16:48:35.921Z</time></trkpt><trkpt lat="41.36335" lon="0.7823517"><ele>603.5</ele><time>2026-04-24T16:48:36.921Z</time></trkpt><trkpt lat="41.3632867" lon="0.7822333"><ele>602.0</ele><time>2026-04-24T16:48:37.921Z</time></trkpt><trkpt lat="41.3632633" lon="0.7820767"><ele>602.0</ele><time>2026-04-24T16:48:38.921Z</time></trkpt><trkpt lat="41.3632683" lon="0.7819133"><ele>602.0</ele><time>2026-04-24T16:48:39.92Z</time></trkpt><trkpt lat="41.363285" lon="0.7817333"><ele>602.0</ele><time>2026-04-24T16:48:40.921Z</time></trkpt><trkpt lat="41.363305" lon="0.7815567"><ele>602.0</ele><time>2026-04-24T16:48:41.921Z</time></trkpt><trkpt lat="41.363355" lon="0.78139"><ele>601.5</ele><time>2026-04-24T16:48:42.921Z</time></trkpt><trkpt lat="41.3634433" lon="0.7812317"><ele>601.0</ele><time>2026-04-24T16:48:43.92Z</time></trkpt><trkpt lat="41.3635467" lon="0.7810967"><ele>600.5</ele><time>2026-04-24T16:48:44.92Z</time></trkpt><trkpt lat="41.3636333" lon="0.7809983"><ele>600.0</ele><time>2026-04-24T16:48:45.921Z</time></trkpt><trkpt lat="41.3637183" lon="0.7809617"><ele>601.6</ele><time>2026-04-24T16:48:46.92Z</time></trkpt><trkpt lat="41.3638217" lon="0.7809817"><ele>603.2</ele><time>2026-04-24T16:48:47.921Z</time></trkpt><trkpt lat="41.3639233" lon="0.7810433"><ele>604.8</ele><time>2026-04-24T16:48:48.921Z</time></trkpt><trkpt lat="41.3640217" lon="0.7811233"><ele>606.4</ele><time>2026-04-24T16:48:49.92Z</time></trkpt><trkpt lat="41.36412" lon="0.7812033"><ele>608.0</ele><time>2026-04-24T16:48:50.921Z</time></trkpt><trkpt lat="41.364205" lon="0.7812483"><ele>608.0</ele><time>2026-04-24T16:48:51.921Z</time></trkpt><trkpt lat="41.364285" lon="0.7812433"><ele>608.0</ele><time>2026-04-24T16:48:52.921Z</time></trkpt><trkpt lat="41.3643633" lon="0.7811917"><ele>608.0</ele><time>2026-04-24T16:48:53.921Z</time></trkpt><trkpt lat="41.364445" lon="0.7810917"><ele>608.0</ele><time>2026-04-24T16:48:54.92Z</time></trkpt><trkpt lat="41.364525" lon="0.7809367"><ele>608.0</ele><time>2026-04-24T16:48:55.921Z</time></trkpt><trkpt lat="41.3646217" lon="0.780805"><ele>604.6666666666666</ele><time>2026-04-24T16:48:56.92Z</time></trkpt><trkpt lat="41.3647483" lon="0.7806867"><ele>601.3333333333334</ele><time>2026-04-24T16:48:57.921Z</time></trkpt><trkpt lat="41.3648883" lon="0.7805933"><ele>598.0</ele><time>2026-04-24T16:48:58.921Z</time></trkpt><trkpt lat="41.36503" lon="0.78051"><ele>598.0</ele><time>2026-04-24T16:48:59.92Z</time></trkpt><trkpt lat="41.365165" lon="0.7804233"><ele>598.0</ele><time>2026-04-24T16:49:00.921Z</time></trkpt><trkpt lat="41.365285" lon="0.7803417"><ele>598.0</ele><time>2026-04-24T16:49:01.92Z</time></trkpt><trkpt lat="41.365375" lon="0.7802417"><ele>598.0</ele><time>2026-04-24T16:49:02.92Z</time></trkpt><trkpt lat="41.3654233" lon="0.7801017"><ele>593.0</ele><time>2026-04-24T16:49:03.921Z</time></trkpt><trkpt lat="41.3654383" lon="0.7799383"><ele>588.0</ele><time>2026-04-24T16:49:04.921Z</time></trkpt><trkpt lat="41.365435" lon="0.7797733"><ele>583.0</ele><time>2026-04-24T16:49:05.92Z</time></trkpt><trkpt lat="41.3654283" lon="0.7796083"><ele>578.0</ele><time>2026-04-24T16:49:06.92Z</time></trkpt><trkpt lat="41.3654467" lon="0.7794767"><ele>578.0</ele><time>2026-04-24T16:49:07.92Z</time></trkpt><trkpt lat="41.3655083" lon="0.7793817"><ele>578.0</ele><time>2026-04-24T16:49:08.92Z</time></trkpt><trkpt lat="41.3655967" lon="0.7793283"><ele>578.0</ele><time>2026-04-24T16:49:09.92Z</time></trkpt><trkpt lat="41.3657" lon="0.779315"><ele>578.0</ele><time>2026-04-24T16:49:10.921Z</time></trkpt><trkpt lat="41.36581" lon="0.77931"><ele>578.0</ele><time>2026-04-24T16:49:11.921Z</time></trkpt><trkpt lat="41.3659333" lon="0.77926"><ele>577.5</ele><time>2026-04-24T16:49:12.92Z</time></trkpt><trkpt lat="41.3660317" lon="0.7791717"><ele>577.0</ele><time>2026-04-24T16:49:13.92Z</time></trkpt><trkpt lat="41.3661183" lon="0.7790617"><ele>576.5</ele><time>2026-04-24T16:49:14.921Z</time></trkpt><trkpt lat="41.3662033" lon="0.77896"><ele>576.0</ele><time>2026-04-24T16:49:15.92Z</time></trkpt><trkpt lat="41.3663033" lon="0.7789167"><ele>577.6</ele><time>2026-04-24T16:49:16.921Z</time></trkpt><trkpt lat="41.3664133" lon="0.7789467"><ele>579.2</ele><time>2026-04-24T16:49:17.921Z</time></trkpt><trkpt lat="41.3665083" lon="0.7790083"><ele>580.8</ele><time>2026-04-24T16:49:18.92Z</time></trkpt><trkpt lat="41.3666067" lon="0.7790617"><ele>582.4</ele><time>2026-04-24T16:49:19.92Z</time></trkpt><trkpt lat="41.3667133" lon="0.7790767"><ele>584.0</ele><time>2026-04-24T16:49:20.92Z</time></trkpt><trkpt lat="41.3668067" lon="0.7790117"><ele>584.0</ele><time>2026-04-24T16:49:21.921Z</time></trkpt><trkpt lat="41.36688" lon="0.7788983"><ele>584.0</ele><time>2026-04-24T16:49:22.921Z</time></trkpt><trkpt lat="41.3669417" lon="0.77875"><ele>584.0</ele><time>2026-04-24T16:49:23.92Z</time></trkpt><trkpt lat="41.3670183" lon="0.7785867"><ele>584.0</ele><time>2026-04-24T16:49:24.921Z</time></trkpt><trkpt lat="41.3671" lon="0.7784233"><ele>583.75</ele><time>2026-04-24T16:49:25.921Z</time></trkpt><trkpt lat="41.3671883" lon="0.77826"><ele>583.5</ele><time>2026-04-24T16:49:26.921Z</time></trkpt><trkpt lat="41.36727" lon="0.7780933"><ele>583.25</ele><time>2026-04-24T16:49:27.921Z</time></trkpt><trkpt lat="41.36735" lon="0.777935"><ele>583.0</ele><time>2026-04-24T16:49:28.92Z</time></trkpt><trkpt lat="41.367425" lon="0.7777733"><ele>578.75</ele><time>2026-04-24T16:49:29.92Z</time></trkpt><trkpt lat="41.3675" lon="0.77762"><ele>574.5</ele><time>2026-04-24T16:49:30.92Z</time></trkpt><trkpt lat="41.367585" lon="0.7774967"><ele>570.25</ele><time>2026-04-24T16:49:31.92Z</time></trkpt><trkpt lat="41.3676717" lon="0.7773817"><ele>566.0</ele><time>2026-04-24T16:49:32.921Z</time></trkpt><trkpt lat="41.367755" lon="0.777265"><ele>566.0</ele><time>2026-04-24T16:49:33.92Z</time></trkpt><trkpt lat="41.3678433" lon="0.7771483"><ele>566.0</ele><time>2026-04-24T16:49:34.92Z</time></trkpt><trkpt lat="41.3679283" lon="0.7770183"><ele>566.0</ele><time>2026-04-24T16:49:35.921Z</time></trkpt><trkpt lat="41.368025" lon="0.7769067"><ele>566.0</ele><time>2026-04-24T16:49:36.921Z</time></trkpt><trkpt lat="41.3681217" lon="0.776805"><ele>566.0</ele><time>2026-04-24T16:49:37.92Z</time></trkpt><trkpt lat="41.36823" lon="0.7767167"><ele>566.0</ele><time>2026-04-24T16:49:38.92Z</time></trkpt><trkpt lat="41.36834" lon="0.7766167"><ele>566.0</ele><time>2026-04-24T16:49:39.92Z</time></trkpt><trkpt lat="41.3684483" lon="0.7765167"><ele>566.0</ele><time>2026-04-24T16:49:40.921Z</time></trkpt><trkpt lat="41.36854" lon="0.7764083"><ele>566.0</ele><time>2026-04-24T16:49:41.92Z</time></trkpt><trkpt lat="41.3686233" lon="0.7762567"><ele>566.0</ele><time>2026-04-24T16:49:42.92Z</time></trkpt><trkpt lat="41.3687" lon="0.7760967"><ele>566.0</ele><time>2026-04-24T16:49:43.92Z</time></trkpt><trkpt lat="41.368785" lon="0.7759533"><ele>566.0</ele><time>2026-04-24T16:49:44.92Z</time></trkpt><trkpt lat="41.3688667" lon="0.7758117"><ele>567.75</ele><time>2026-04-24T16:49:45.921Z</time></trkpt><trkpt lat="41.3689367" lon="0.77567"><ele>569.5</ele><time>2026-04-24T16:49:46.921Z</time></trkpt><trkpt lat="41.3690217" lon="0.7755467"><ele>571.25</ele><time>2026-04-24T16:49:47.92Z</time></trkpt><trkpt lat="41.3691133" lon="0.7754467"><ele>573.0</ele><time>2026-04-24T16:49:48.921Z</time></trkpt><trkpt lat="41.3692183" lon="0.7753767"><ele>573.0</ele><time>2026-04-24T16:49:49.921Z</time></trkpt><trkpt lat="41.3693333" lon="0.7753283"><ele>573.0</ele><time>2026-04-24T16:49:50.921Z</time></trkpt><trkpt lat="41.3694467" lon="0.77529"><ele>573.0</ele><time>2026-04-24T16:49:51.921Z</time></trkpt><trkpt lat="41.369555" lon="0.7752383"><ele>573.0</ele><time>2026-04-24T16:49:52.92Z</time></trkpt><trkpt lat="41.3696483" lon="0.7751733"><ele>572.1999999999999</ele><time>2026-04-24T16:49:53.921Z</time></trkpt><trkpt lat="41.3697217" lon="0.7750817"><ele>571.4</ele><time>2026-04-24T16:49:54.921Z</time></trkpt><trkpt lat="41.3698017" lon="0.7749967"><ele>570.5999999999999</ele><time>2026-04-24T16:49:55.92Z</time></trkpt><trkpt lat="41.36988" lon="0.7748883"><ele>569.8</ele><time>2026-04-24T16:49:56.92Z</time></trkpt><trkpt lat="41.3699667" lon="0.7747933"><ele>569.0</ele><time>2026-04-24T16:49:57.92Z</time></trkpt><trkpt lat="41.370055" lon="0.7747017"><ele>569.0</ele><time>2026-04-24T16:49:58.92Z</time></trkpt><trkpt lat="41.3701417" lon="0.77461"><ele>569.0</ele><time>2026-04-24T16:49:59.92Z</time></trkpt><trkpt lat="41.3702267" lon="0.7745283"><ele>569.0</ele><time>2026-04-24T16:50:00.92Z</time></trkpt><trkpt lat="41.3703033" lon="0.7744517"><ele>569.0</ele><time>2026-04-24T16:50:01.921Z</time></trkpt><trkpt lat="41.370385" lon="0.77439"><ele>569.0</ele><time>2026-04-24T16:50:02.92Z</time></trkpt><trkpt lat="41.3704767" lon="0.7743383"><ele>565.75</ele><time>2026-04-24T16:50:03.92Z</time></trkpt><trkpt lat="41.3705733" lon="0.77431"><ele>562.5</ele><time>2026-04-24T16:50:04.921Z</time></trkpt><trkpt lat="41.37068" lon="0.7742817"><ele>559.25</ele><time>2026-04-24T16:50:05.92Z</time></trkpt><trkpt lat="41.3707983" lon="0.7742417"><ele>556.0</ele><time>2026-04-24T16:50:06.92Z</time></trkpt><trkpt lat="41.37092" lon="0.7742117"><ele>556.0</ele><time>2026-04-24T16:50:07.921Z</time></trkpt><trkpt lat="41.3710417" lon="0.7741633"><ele>556.0</ele><time>2026-04-24T16:50:08.921Z</time></trkpt><trkpt lat="41.3711633" lon="0.7741167"><ele>556.0</ele><time>2026-04-24T16:50:09.92Z</time></trkpt><trkpt lat="41.37129" lon="0.7740617"><ele>556.0</ele><time>2026-04-24T16:50:10.921Z</time></trkpt><trkpt lat="41.37142" lon="0.774005"><ele>556.75</ele><time>2026-04-24T16:50:11.921Z</time></trkpt><trkpt lat="41.3715433" lon="0.7739483"><ele>557.5</ele><time>2026-04-24T16:50:12.921Z</time></trkpt><trkpt lat="41.3716767" lon="0.77391"><ele>558.25</ele><time>2026-04-24T16:50:13.92Z</time></trkpt><trkpt lat="41.3718133" lon="0.7738717"><ele>559.0</ele><time>2026-04-24T16:50:14.92Z</time></trkpt><trkpt lat="41.3719517" lon="0.77383"><ele>559.0</ele><time>2026-04-24T16:50:15.92Z</time></trkpt><trkpt lat="41.3720867" lon="0.7737983"><ele>559.0</ele><time>2026-04-24T16:50:16.921Z</time></trkpt><trkpt lat="41.3722217" lon="0.7737583"><ele>559.0</ele><time>2026-04-24T16:50:17.92Z</time></trkpt><trkpt lat="41.372345" lon="0.7737"><ele>559.0</ele><time>2026-04-24T16:50:18.921Z</time></trkpt><trkpt lat="41.3724667" lon="0.7736533"><ele>559.6</ele><time>2026-04-24T16:50:19.921Z</time></trkpt><trkpt lat="41.372575" lon="0.7736017"><ele>560.2</ele><time>2026-04-24T16:50:20.92Z</time></trkpt><trkpt lat="41.3726733" lon="0.7735617"><ele>560.8000000000001</ele><time>2026-04-24T16:50:21.921Z</time></trkpt><trkpt lat="41.37277" lon="0.7735483"><ele>561.4</ele><time>2026-04-24T16:50:22.921Z</time></trkpt><trkpt lat="41.37286" lon="0.7735583"><ele>562.0</ele><time>2026-04-24T16:50:23.92Z</time></trkpt><trkpt lat="41.37294" lon="0.7736133"><ele>562.0</ele><time>2026-04-24T16:50:24.92Z</time></trkpt><trkpt lat="41.37298" lon="0.7737117"><ele>562.0</ele><time>2026-04-24T16:50:25.921Z</time></trkpt><trkpt lat="41.372995" lon="0.7738283"><ele>562.0</ele><time>2026-04-24T16:50:26.92Z</time></trkpt><trkpt lat="41.3729967" lon="0.7739617"><ele>562.0</ele><time>2026-04-24T16:50:27.921Z</time></trkpt><trkpt lat="41.3730033" lon="0.7740783"><ele>562.0</ele><time>2026-04-24T16:50:28.921Z</time></trkpt><trkpt lat="41.3730133" lon="0.774195"><ele>562.0</ele><time>2026-04-24T16:50:29.92Z</time></trkpt><trkpt lat="41.37302" lon="0.774325"><ele>562.8000000000001</ele><time>2026-04-24T16:50:30.92Z</time></trkpt><trkpt lat="41.37303" lon="0.7744567"><ele>563.6</ele><time>2026-04-24T16:50:31.921Z</time></trkpt><trkpt lat="41.373045" lon="0.7745967"><ele>564.4000000000001</ele><time>2026-04-24T16:50:32.92Z</time></trkpt><trkpt lat="41.37305" lon="0.77475"><ele>565.2</ele><time>2026-04-24T16:50:33.92Z</time></trkpt><trkpt lat="41.3730283" lon="0.7749"><ele>566.0</ele><time>2026-04-24T16:50:34.921Z</time></trkpt><trkpt lat="41.3729933" lon="0.775055"><ele>564.2</ele><time>2026-04-24T16:50:35.92Z</time></trkpt><trkpt lat="41.3729617" lon="0.7752017"><ele>562.4000000000001</ele><time>2026-04-24T16:50:36.921Z</time></trkpt><trkpt lat="41.372935" lon="0.77535"><ele>560.6</ele><time>2026-04-24T16:50:37.92Z</time></trkpt><trkpt lat="41.3729133" lon="0.7754967"><ele>558.8000000000001</ele><time>2026-04-24T16:50:38.92Z</time></trkpt><trkpt lat="41.3728983" lon="0.7756283"><ele>557.0</ele><time>2026-04-24T16:50:39.92Z</time></trkpt><trkpt lat="41.3729217" lon="0.7757633"><ele>557.0</ele><time>2026-04-24T16:50:40.921Z</time></trkpt><trkpt lat="41.3729583" lon="0.77589"><ele>557.0</ele><time>2026-04-24T16:50:41.921Z</time></trkpt><trkpt lat="41.3730033" lon="0.776015"><ele>557.0</ele><time>2026-04-24T16:50:42.921Z</time></trkpt><trkpt lat="41.3730567" lon="0.7761517"><ele>557.0</ele><time>2026-04-24T16:50:43.92Z</time></trkpt><trkpt lat="41.3731083" lon="0.7762917"><ele>557.0</ele><time>2026-04-24T16:50:44.92Z</time></trkpt><trkpt lat="41.37315" lon="0.77644"><ele>556.2</ele><time>2026-04-24T16:50:45.921Z</time></trkpt><trkpt lat="41.373165" lon="0.7765883"><ele>555.4000000000001</ele><time>2026-04-24T16:50:46.92Z</time></trkpt><trkpt lat="41.3731883" lon="0.776725"><ele>554.5999999999999</ele><time>2026-04-24T16:50:47.92Z</time></trkpt><trkpt lat="41.3732283" lon="0.776855"><ele>553.8</ele><time>2026-04-24T16:50:48.92Z</time></trkpt><trkpt lat="41.373305" lon="0.7769783"><ele>553.0</ele><time>2026-04-24T16:50:49.92Z</time></trkpt><trkpt lat="41.3733967" lon="0.7770967"><ele>553.0</ele><time>2026-04-24T16:50:50.921Z</time></trkpt><trkpt lat="41.373505" lon="0.7772167"><ele>553.0</ele><time>2026-04-24T16:50:51.92Z</time></trkpt><trkpt lat="41.3736167" lon="0.7773383"><ele>553.0</ele><time>2026-04-24T16:50:52.921Z</time></trkpt><trkpt lat="41.3737233" lon="0.7774617"><ele>553.0</ele><time>2026-04-24T16:50:53.92Z</time></trkpt><trkpt lat="41.37384" lon="0.7775833"><ele>554.0</ele><time>2026-04-24T16:50:54.92Z</time></trkpt><trkpt lat="41.3739467" lon="0.77769"><ele>555.0</ele><time>2026-04-24T16:50:55.92Z</time></trkpt><trkpt lat="41.3740283" lon="0.7778033"><ele>556.0</ele><time>2026-04-24T16:50:56.921Z</time></trkpt><trkpt lat="41.3740767" lon="0.7779317"><ele>557.0</ele><time>2026-04-24T16:50:57.921Z</time></trkpt><trkpt lat="41.3740783" lon="0.7780667"><ele>557.0</ele><time>2026-04-24T16:50:58.92Z</time></trkpt><trkpt lat="41.3740383" lon="0.7782"><ele>557.0</ele><time>2026-04-24T16:50:59.92Z</time></trkpt><trkpt lat="41.3739717" lon="0.7783233"><ele>557.0</ele><time>2026-04-24T16:51:00.92Z</time></trkpt><trkpt lat="41.3738983" lon="0.77846"><ele>557.0</ele><time>2026-04-24T16:51:01.92Z</time></trkpt><trkpt lat="41.37382" lon="0.7785983"><ele>558.4</ele><time>2026-04-24T16:51:02.92Z</time></trkpt><trkpt lat="41.3737417" lon="0.7787233"><ele>559.8000000000001</ele><time>2026-04-24T16:51:03.921Z</time></trkpt><trkpt lat="41.3736733" lon="0.7788383"><ele>561.2</ele><time>2026-04-24T16:51:04.921Z</time></trkpt><trkpt lat="41.3736167" lon="0.77892"><ele>562.6</ele><time>2026-04-24T16:51:05.921Z</time></trkpt><trkpt lat="41.37357" lon="0.779015"><ele>564.0</ele><time>2026-04-24T16:51:06.921Z</time></trkpt><trkpt lat="41.3735517" lon="0.7791167"><ele>564.0</ele><time>2026-04-24T16:51:07.921Z</time></trkpt><trkpt lat="41.3735633" lon="0.7792017"><ele>564.0</ele><time>2026-04-24T16:51:08.921Z</time></trkpt><trkpt lat="41.3736667" lon="0.7792967"><ele>564.0</ele><time>2026-04-24T16:51:10.92Z</time></trkpt><trkpt lat="41.3737483" lon="0.7792933"><ele>564.0</ele><time>2026-04-24T16:51:11.92Z</time></trkpt><trkpt lat="41.37384" lon="0.779275"><ele>564.0</ele><time>2026-04-24T16:51:12.92Z</time></trkpt><trkpt lat="41.373945" lon="0.7792533"><ele>563.4</ele><time>2026-04-24T16:51:13.92Z</time></trkpt><trkpt lat="41.3740367" lon="0.7792567"><ele>562.8</ele><time>2026-04-24T16:51:14.92Z</time></trkpt><trkpt lat="41.37412" lon="0.7793217"><ele>562.2</ele><time>2026-04-24T16:51:15.92Z</time></trkpt><trkpt lat="41.3741767" lon="0.7794283"><ele>561.6</ele><time>2026-04-24T16:51:16.921Z</time></trkpt><trkpt lat="41.3742417" lon="0.7795567"><ele>561.0</ele><time>2026-04-24T16:51:17.92Z</time></trkpt><trkpt lat="41.3743167" lon="0.77967"><ele>563.0</ele><time>2026-04-24T16:51:18.92Z</time></trkpt><trkpt lat="41.3744033" lon="0.779755"><ele>565.0</ele><time>2026-04-24T16:51:19.92Z</time></trkpt><trkpt lat="41.37451" lon="0.779805"><ele>567.0</ele><time>2026-04-24T16:51:20.92Z</time></trkpt><trkpt lat="41.3746217" lon="0.7798183"><ele>569.0</ele><time>2026-04-24T16:51:21.92Z</time></trkpt><trkpt lat="41.374735" lon="0.7797783"><ele>570.25</ele><time>2026-04-24T16:51:22.92Z</time></trkpt><trkpt lat="41.374855" lon="0.7797133"><ele>571.5</ele><time>2026-04-24T16:51:23.92Z</time></trkpt><trkpt lat="41.3749733" lon="0.7796217"><ele>572.75</ele><time>2026-04-24T16:51:24.92Z</time></trkpt><trkpt lat="41.3750767" lon="0.7795217"><ele>574.0</ele><time>2026-04-24T16:51:25.921Z</time></trkpt><trkpt lat="41.3751633" lon="0.779405"><ele>572.0</ele><time>2026-04-24T16:51:26.921Z</time></trkpt><trkpt lat="41.3752283" lon="0.77925"><ele>570.0</ele><time>2026-04-24T16:51:27.92Z</time></trkpt><trkpt lat="41.3752683" lon="0.779075"><ele>568.0</ele><time>2026-04-24T16:51:28.92Z</time></trkpt><trkpt lat="41.375285" lon="0.7788733"><ele>566.0</ele><time>2026-04-24T16:51:29.921Z</time></trkpt><trkpt lat="41.3752867" lon="0.7786867"><ele>566.0</ele><time>2026-04-24T16:51:30.92Z</time></trkpt><trkpt lat="41.375295" lon="0.7785283"><ele>566.0</ele><time>2026-04-24T16:51:31.921Z</time></trkpt><trkpt lat="41.3753233" lon="0.77839"><ele>566.0</ele><time>2026-04-24T16:51:32.921Z</time></trkpt><trkpt lat="41.3753833" lon="0.778275"><ele>566.0</ele><time>2026-04-24T16:51:33.92Z</time></trkpt><trkpt lat="41.3754683" lon="0.77818"><ele>566.0</ele><time>2026-04-24T16:51:34.921Z</time></trkpt><trkpt lat="41.3755667" lon="0.7780917"><ele>568.25</ele><time>2026-04-24T16:51:35.92Z</time></trkpt><trkpt lat="41.3756733" lon="0.7780083"><ele>570.5</ele><time>2026-04-24T16:51:36.921Z</time></trkpt><trkpt lat="41.3757833" lon="0.7779267"><ele>572.75</ele><time>2026-04-24T16:51:37.921Z</time></trkpt><trkpt lat="41.37589" lon="0.777845"><ele>575.0</ele><time>2026-04-24T16:51:38.92Z</time></trkpt><trkpt lat="41.3759867" lon="0.7777533"><ele>575.0</ele><time>2026-04-24T16:51:39.92Z</time></trkpt><trkpt lat="41.3760683" lon="0.7776767"><ele>575.0</ele><time>2026-04-24T16:51:40.921Z</time></trkpt><trkpt lat="41.3761483" lon="0.7776383"><ele>575.0</ele><time>2026-04-24T16:51:41.92Z</time></trkpt><trkpt lat="41.3762183" lon="0.7776433"><ele>575.0</ele><time>2026-04-24T16:51:42.921Z</time></trkpt><trkpt lat="41.3762733" lon="0.7777983"><ele>575.0</ele><time>2026-04-24T16:51:44.92Z</time></trkpt><trkpt lat="41.3762533" lon="0.7778917"><ele>575.0</ele><time>2026-04-24T16:51:45.921Z</time></trkpt><trkpt lat="41.3762" lon="0.7779783"><ele>575.0</ele><time>2026-04-24T16:51:46.921Z</time></trkpt><trkpt lat="41.3761283" lon="0.77806"><ele>575.0</ele><time>2026-04-24T16:51:47.921Z</time></trkpt><trkpt lat="41.376065" lon="0.7781533"><ele>575.0</ele><time>2026-04-24T16:51:48.921Z</time></trkpt><trkpt lat="41.3760267" lon="0.7782683"><ele>575.0</ele><time>2026-04-24T16:51:49.92Z</time></trkpt><trkpt lat="41.3760133" lon="0.7784"><ele>575.8</ele><time>2026-04-24T16:51:50.921Z</time></trkpt><trkpt lat="41.3760317" lon="0.778535"><ele>576.6</ele><time>2026-04-24T16:51:51.92Z</time></trkpt><trkpt lat="41.3760783" lon="0.7786617"><ele>577.4</ele><time>2026-04-24T16:51:52.92Z</time></trkpt><trkpt lat="41.3761533" lon="0.7787633"><ele>578.2</ele><time>2026-04-24T16:51:53.92Z</time></trkpt><trkpt lat="41.3762533" lon="0.77885"><ele>579.0</ele><time>2026-04-24T16:51:54.92Z</time></trkpt><trkpt lat="41.3763717" lon="0.77891"><ele>581.75</ele><time>2026-04-24T16:51:55.92Z</time></trkpt><trkpt lat="41.3764967" lon="0.7789733"><ele>584.5</ele><time>2026-04-24T16:51:56.92Z</time></trkpt><trkpt lat="41.3766167" lon="0.7790583"><ele>587.25</ele><time>2026-04-24T16:51:57.92Z</time></trkpt><trkpt lat="41.3767183" lon="0.7791733"><ele>590.0</ele><time>2026-04-24T16:51:58.921Z</time></trkpt><trkpt lat="41.3767967" lon="0.779315"><ele>590.75</ele><time>2026-04-24T16:51:59.921Z</time></trkpt><trkpt lat="41.3768567" lon="0.7794583"><ele>591.5</ele><time>2026-04-24T16:52:00.921Z</time></trkpt><trkpt lat="41.3768683" lon="0.7796167"><ele>592.25</ele><time>2026-04-24T16:52:01.921Z</time></trkpt><trkpt lat="41.3768633" lon="0.77978"><ele>593.0</ele><time>2026-04-24T16:52:02.92Z</time></trkpt><trkpt lat="41.3768483" lon="0.7799467"><ele>593.0</ele><time>2026-04-24T16:52:03.92Z</time></trkpt><trkpt lat="41.3768467" lon="0.78012"><ele>593.0</ele><time>2026-04-24T16:52:04.921Z</time></trkpt><trkpt lat="41.376855" lon="0.78029"><ele>593.0</ele><time>2026-04-24T16:52:05.92Z</time></trkpt><trkpt lat="41.3768633" lon="0.7804617"><ele>593.0</ele><time>2026-04-24T16:52:06.92Z</time></trkpt><trkpt lat="41.3768483" lon="0.78063"><ele>593.75</ele><time>2026-04-24T16:52:07.92Z</time></trkpt><trkpt lat="41.3768083" lon="0.7808033"><ele>594.5</ele><time>2026-04-24T16:52:08.92Z</time></trkpt><trkpt lat="41.3767383" lon="0.780965"><ele>595.25</ele><time>2026-04-24T16:52:09.921Z</time></trkpt><trkpt lat="41.3766517" lon="0.7811217"><ele>596.0</ele><time>2026-04-24T16:52:10.921Z</time></trkpt><trkpt lat="41.3765617" lon="0.7812683"><ele>596.0</ele><time>2026-04-24T16:52:11.921Z</time></trkpt><trkpt lat="41.37649" lon="0.7814183"><ele>596.0</ele><time>2026-04-24T16:52:12.92Z</time></trkpt><trkpt lat="41.3764367" lon="0.7815817"><ele>596.0</ele><time>2026-04-24T16:52:13.92Z</time></trkpt><trkpt lat="41.3764167" lon="0.7817567"><ele>596.0</ele><time>2026-04-24T16:52:14.92Z</time></trkpt><trkpt lat="41.3764217" lon="0.78194"><ele>597.0</ele><time>2026-04-24T16:52:15.92Z</time></trkpt><trkpt lat="41.3764367" lon="0.7821167"><ele>598.0</ele><time>2026-04-24T16:52:16.921Z</time></trkpt><trkpt lat="41.3764483" lon="0.78229"><ele>599.0</ele><time>2026-04-24T16:52:17.921Z</time></trkpt><trkpt lat="41.376435" lon="0.78246"><ele>600.0</ele><time>2026-04-24T16:52:18.921Z</time></trkpt><trkpt lat="41.376415" lon="0.7826367"><ele>600.0</ele><time>2026-04-24T16:52:19.92Z</time></trkpt><trkpt lat="41.3763783" lon="0.782805"><ele>600.0</ele><time>2026-04-24T16:52:20.92Z</time></trkpt><trkpt lat="41.376325" lon="0.7829633"><ele>600.0</ele><time>2026-04-24T16:52:21.92Z</time></trkpt><trkpt lat="41.3762667" lon="0.78311"><ele>600.0</ele><time>2026-04-24T16:52:22.92Z</time></trkpt><trkpt lat="41.3762217" lon="0.7832617"><ele>601.5</ele><time>2026-04-24T16:52:23.92Z</time></trkpt><trkpt lat="41.3762017" lon="0.7834183"><ele>603.0</ele><time>2026-04-24T16:52:24.921Z</time></trkpt><trkpt lat="41.3762233" lon="0.7835833"><ele>604.5</ele><time>2026-04-24T16:52:25.921Z</time></trkpt><trkpt lat="41.3762717" lon="0.7837317"><ele>606.0</ele><time>2026-04-24T16:52:26.921Z</time></trkpt><trkpt lat="41.3763517" lon="0.7838517"><ele>606.5</ele><time>2026-04-24T16:52:27.921Z</time></trkpt><trkpt lat="41.3764583" lon="0.7839517"><ele>607.0</ele><time>2026-04-24T16:52:28.921Z</time></trkpt><trkpt lat="41.3765717" lon="0.7840383"><ele>607.5</ele><time>2026-04-24T16:52:29.921Z</time></trkpt><trkpt lat="41.3767" lon="0.78411"><ele>608.0</ele><time>2026-04-24T16:52:30.921Z</time></trkpt><trkpt lat="41.3768317" lon="0.7841617"><ele>608.0</ele><time>2026-04-24T16:52:31.92Z</time></trkpt><trkpt lat="41.3769733" lon="0.7841867"><ele>608.0</ele><time>2026-04-24T16:52:32.92Z</time></trkpt><trkpt lat="41.3771183" lon="0.78418"><ele>608.0</ele><time>2026-04-24T16:52:33.92Z</time></trkpt><trkpt lat="41.3772583" lon="0.7841417"><ele>608.0</ele><time>2026-04-24T16:52:34.921Z</time></trkpt><trkpt lat="41.3774083" lon="0.7840833"><ele>609.6666666666666</ele><time>2026-04-24T16:52:35.921Z</time></trkpt><trkpt lat="41.3775533" lon="0.7840083"><ele>611.3333333333334</ele><time>2026-04-24T16:52:36.92Z</time></trkpt><trkpt lat="41.3776967" lon="0.78394"><ele>613.0</ele><time>2026-04-24T16:52:37.92Z</time></trkpt><trkpt lat="41.3778367" lon="0.7838633"><ele>613.0</ele><time>2026-04-24T16:52:38.92Z</time></trkpt><trkpt lat="41.3779683" lon="0.7837783"><ele>613.0</ele><time>2026-04-24T16:52:39.921Z</time></trkpt><trkpt lat="41.3780883" lon="0.783675"><ele>613.0</ele><time>2026-04-24T16:52:40.921Z</time></trkpt><trkpt lat="41.3782" lon="0.7835833"><ele>613.0</ele><time>2026-04-24T16:52:41.92Z</time></trkpt><trkpt lat="41.3783117" lon="0.7835"><ele>613.5</ele><time>2026-04-24T16:52:42.921Z</time></trkpt><trkpt lat="41.3784317" lon="0.783445"><ele>614.0</ele><time>2026-04-24T16:52:43.92Z</time></trkpt><trkpt lat="41.3785483" lon="0.78342"><ele>614.5</ele><time>2026-04-24T16:52:44.921Z</time></trkpt><trkpt lat="41.37867" lon="0.7834383"><ele>615.0</ele><time>2026-04-24T16:52:45.92Z</time></trkpt><trkpt lat="41.37878" lon="0.7834717"><ele>614.5</ele><time>2026-04-24T16:52:46.921Z</time></trkpt><trkpt lat="41.3788933" lon="0.7834767"><ele>614.0</ele><time>2026-04-24T16:52:47.921Z</time></trkpt><trkpt lat="41.379015" lon="0.7834317"><ele>613.5</ele><time>2026-04-24T16:52:48.92Z</time></trkpt><trkpt lat="41.3791433" lon="0.7833483"><ele>613.0</ele><time>2026-04-24T16:52:49.921Z</time></trkpt><trkpt lat="41.3792567" lon="0.783255"><ele>613.0</ele><time>2026-04-24T16:52:50.92Z</time></trkpt><trkpt lat="41.37938" lon="0.7831633"><ele>613.0</ele><time>2026-04-24T16:52:51.92Z</time></trkpt><trkpt lat="41.3795133" lon="0.7830667"><ele>613.0</ele><time>2026-04-24T16:52:52.92Z</time></trkpt><trkpt lat="41.3796383" lon="0.78296"><ele>613.0</ele><time>2026-04-24T16:52:53.921Z</time></trkpt><trkpt lat="41.3797567" lon="0.7828533"><ele>613.25</ele><time>2026-04-24T16:52:54.921Z</time></trkpt><trkpt lat="41.3798767" lon="0.7827467"><ele>613.5</ele><time>2026-04-24T16:52:55.92Z</time></trkpt><trkpt lat="41.3799817" lon="0.782645"><ele>613.75</ele><time>2026-04-24T16:52:56.92Z</time></trkpt><trkpt lat="41.3800667" lon="0.7825333"><ele>614.0</ele><time>2026-04-24T16:52:57.921Z</time></trkpt><trkpt lat="41.3801367" lon="0.782395"><ele>614.0</ele><time>2026-04-24T16:52:58.92Z</time></trkpt><trkpt lat="41.3801867" lon="0.782235"><ele>614.0</ele><time>2026-04-24T16:52:59.921Z</time></trkpt><trkpt lat="41.380225" lon="0.7820683"><ele>614.0</ele><time>2026-04-24T16:53:00.921Z</time></trkpt><trkpt lat="41.38026" lon="0.78191"><ele>614.0</ele><time>2026-04-24T16:53:01.921Z</time></trkpt><trkpt lat="41.380315" lon="0.7817583"><ele>613.75</ele><time>2026-04-24T16:53:02.921Z</time></trkpt><trkpt lat="41.3804033" lon="0.7816333"><ele>613.5</ele><time>2026-04-24T16:53:03.92Z</time></trkpt><trkpt lat="41.3805117" lon="0.7815267"><ele>613.25</ele><time>2026-04-24T16:53:04.92Z</time></trkpt><trkpt lat="41.38064" lon="0.7814233"><ele>613.0</ele><time>2026-04-24T16:53:05.921Z</time></trkpt><trkpt lat="41.38076" lon="0.7813267"><ele>612.5</ele><time>2026-04-24T16:53:06.92Z</time></trkpt><trkpt lat="41.3808867" lon="0.7812517"><ele>612.0</ele><time>2026-04-24T16:53:07.92Z</time></trkpt><trkpt lat="41.3810233" lon="0.7812"><ele>611.5</ele><time>2026-04-24T16:53:08.92Z</time></trkpt><trkpt lat="41.3811683" lon="0.7811683"><ele>611.0</ele><time>2026-04-24T16:53:09.921Z</time></trkpt><trkpt lat="41.381305" lon="0.7811433"><ele>608.3333333333333</ele><time>2026-04-24T16:53:10.92Z</time></trkpt><trkpt lat="41.3814433" lon="0.7810983"><ele>605.6666666666666</ele><time>2026-04-24T16:53:11.92Z</time></trkpt><trkpt lat="41.3815883" lon="0.7810067"><ele>603.0</ele><time>2026-04-24T16:53:12.921Z</time></trkpt><trkpt lat="41.38172" lon="0.7808933"><ele>601.3333333333334</ele><time>2026-04-24T16:53:13.92Z</time></trkpt><trkpt lat="41.381855" lon="0.7807983"><ele>599.6666666666667</ele><time>2026-04-24T16:53:14.921Z</time></trkpt><trkpt lat="41.3819883" lon="0.7806967"><ele>598.0</ele><time>2026-04-24T16:53:15.921Z</time></trkpt><trkpt lat="41.3821283" lon="0.7806267"><ele>596.75</ele><time>2026-04-24T16:53:16.921Z</time></trkpt><trkpt lat="41.3822583" lon="0.7805767"><ele>595.5</ele><time>2026-04-24T16:53:17.92Z</time></trkpt><trkpt lat="41.38238" lon="0.78053"><ele>594.25</ele><time>2026-04-24T16:53:18.92Z</time></trkpt><trkpt lat="41.3824833" lon="0.7804567"><ele>593.0</ele><time>2026-04-24T16:53:19.921Z</time></trkpt><trkpt lat="41.3825617" lon="0.7803267"><ele>592.25</ele><time>2026-04-24T16:53:20.92Z</time></trkpt><trkpt lat="41.3826283" lon="0.7801817"><ele>591.5</ele><time>2026-04-24T16:53:21.921Z</time></trkpt><trkpt lat="41.382695" lon="0.7800417"><ele>590.75</ele><time>2026-04-24T16:53:22.921Z</time></trkpt><trkpt lat="41.3827783" lon="0.77994"><ele>590.0</ele><time>2026-04-24T16:53:23.921Z</time></trkpt><trkpt lat="41.3828767" lon="0.7798883"><ele>590.0</ele><time>2026-04-24T16:53:24.921Z</time></trkpt><trkpt lat="41.383" lon="0.7798617"><ele>590.0</ele><time>2026-04-24T16:53:25.92Z</time></trkpt><trkpt lat="41.383135" lon="0.7798467"><ele>590.0</ele><time>2026-04-24T16:53:26.92Z</time></trkpt><trkpt lat="41.3832783" lon="0.779835"><ele>590.0</ele><time>2026-04-24T16:53:27.92Z</time></trkpt><trkpt lat="41.3834283" lon="0.7798083"><ele>588.6666666666666</ele><time>2026-04-24T16:53:28.92Z</time></trkpt><trkpt lat="41.383585" lon="0.77977"><ele>587.3333333333334</ele><time>2026-04-24T16:53:29.92Z</time></trkpt><trkpt lat="41.3837367" lon="0.7797233"><ele>586.0</ele><time>2026-04-24T16:53:30.92Z</time></trkpt><trkpt lat="41.3838983" lon="0.77966"><ele>583.0</ele><time>2026-04-24T16:53:31.92Z</time></trkpt><trkpt lat="41.38406" lon="0.7795967"><ele>580.0</ele><time>2026-04-24T16:53:32.921Z</time></trkpt><trkpt lat="41.3842117" lon="0.7795317"><ele>577.0</ele><time>2026-04-24T16:53:33.92Z</time></trkpt><trkpt lat="41.384355" lon="0.779475"><ele>577.0</ele><time>2026-04-24T16:53:34.92Z</time></trkpt><trkpt lat="41.3844833" lon="0.7794283"><ele>577.0</ele><time>2026-04-24T16:53:35.92Z</time></trkpt><trkpt lat="41.3846033" lon="0.77941"><ele>577.0</ele><time>2026-04-24T16:53:36.921Z</time></trkpt><trkpt lat="41.3847133" lon="0.7794267"><ele>577.0</ele><time>2026-04-24T16:53:37.921Z</time></trkpt><trkpt lat="41.3848117" lon="0.7794933"><ele>577.5</ele><time>2026-04-24T16:53:38.921Z</time></trkpt><trkpt lat="41.384895" lon="0.77961"><ele>578.0</ele><time>2026-04-24T16:53:39.92Z</time></trkpt><trkpt lat="41.384965" lon="0.77976"><ele>578.5</ele><time>2026-04-24T16:53:40.921Z</time></trkpt><trkpt lat="41.3850283" lon="0.7799267"><ele>579.0</ele><time>2026-04-24T16:53:41.92Z</time></trkpt><trkpt lat="41.3850867" lon="0.78009"><ele>576.0</ele><time>2026-04-24T16:53:42.921Z</time></trkpt><trkpt lat="41.3851667" lon="0.7802283"><ele>573.0</ele><time>2026-04-24T16:53:43.92Z</time></trkpt><trkpt lat="41.385255" lon="0.7803433"><ele>570.0</ele><time>2026-04-24T16:53:44.921Z</time></trkpt><trkpt lat="41.385365" lon="0.78045"><ele>567.0</ele><time>2026-04-24T16:53:45.921Z</time></trkpt><trkpt lat="41.3854833" lon="0.7805283"><ele>567.25</ele><time>2026-04-24T16:53:46.921Z</time></trkpt><trkpt lat="41.385605" lon="0.7805817"><ele>567.5</ele><time>2026-04-24T16:53:47.921Z</time></trkpt><trkpt lat="41.3857233" lon="0.78061"><ele>567.75</ele><time>2026-04-24T16:53:48.92Z</time></trkpt><trkpt lat="41.3858417" lon="0.7805667"><ele>568.0</ele><time>2026-04-24T16:53:49.92Z</time></trkpt><trkpt lat="41.38595" lon="0.7804767"><ele>568.0</ele><time>2026-04-24T16:53:50.921Z</time></trkpt><trkpt lat="41.3860517" lon="0.7803617"><ele>568.0</ele><time>2026-04-24T16:53:51.921Z</time></trkpt><trkpt lat="41.3861567" lon="0.7802367"><ele>568.0</ele><time>2026-04-24T16:53:52.92Z</time></trkpt><trkpt lat="41.3862667" lon="0.7801167"><ele>568.0</ele><time>2026-04-24T16:53:53.921Z</time></trkpt><trkpt lat="41.3863683" lon="0.7800267"><ele>569.0</ele><time>2026-04-24T16:53:54.92Z</time></trkpt><trkpt lat="41.3864933" lon="0.7799717"><ele>570.0</ele><time>2026-04-24T16:53:55.92Z</time></trkpt><trkpt lat="41.3866333" lon="0.77996"><ele>571.0</ele><time>2026-04-24T16:53:56.92Z</time></trkpt><trkpt lat="41.38677" lon="0.779975"><ele>572.0</ele><time>2026-04-24T16:53:57.921Z</time></trkpt><trkpt lat="41.3869067" lon="0.78002"><ele>572.0</ele><time>2026-04-24T16:53:58.92Z</time></trkpt><trkpt lat="41.38704" lon="0.7800833"><ele>572.0</ele><time>2026-04-24T16:53:59.92Z</time></trkpt><trkpt lat="41.3871683" lon="0.78014"><ele>572.0</ele><time>2026-04-24T16:54:00.92Z</time></trkpt><trkpt lat="41.387305" lon="0.7801667"><ele>572.0</ele><time>2026-04-24T16:54:01.92Z</time></trkpt><trkpt lat="41.3874333" lon="0.78015"><ele>572.75</ele><time>2026-04-24T16:54:02.921Z</time></trkpt><trkpt lat="41.387555" lon="0.7800783"><ele>573.5</ele><time>2026-04-24T16:54:03.92Z</time></trkpt><trkpt lat="41.3876633" lon="0.7799683"><ele>574.25</ele><time>2026-04-24T16:54:04.921Z</time></trkpt><trkpt lat="41.3877717" lon="0.7798617"><ele>575.0</ele><time>2026-04-24T16:54:05.92Z</time></trkpt><trkpt lat="41.3878717" lon="0.779765"><ele>575.0</ele><time>2026-04-24T16:54:06.92Z</time></trkpt><trkpt lat="41.3879767" lon="0.7797183"><ele>575.0</ele><time>2026-04-24T16:54:07.921Z</time></trkpt><trkpt lat="41.3880733" lon="0.7797183"><ele>575.0</ele><time>2026-04-24T16:54:08.921Z</time></trkpt><trkpt lat="41.388155" lon="0.7797817"><ele>575.0</ele><time>2026-04-24T16:54:09.92Z</time></trkpt><trkpt lat="41.3882317" lon="0.7798817"><ele>575.0</ele><time>2026-04-24T16:54:10.92Z</time></trkpt><trkpt lat="41.38832" lon="0.7800017"><ele>574.75</ele><time>2026-04-24T16:54:11.92Z</time></trkpt><trkpt lat="41.3884233" lon="0.7801217"><ele>574.5</ele><time>2026-04-24T16:54:12.92Z</time></trkpt><trkpt lat="41.38854" lon="0.78024"><ele>574.25</ele><time>2026-04-24T16:54:13.92Z</time></trkpt><trkpt lat="41.38866" lon="0.780335"><ele>574.0</ele><time>2026-04-24T16:54:14.921Z</time></trkpt><trkpt lat="41.3887783" lon="0.7804383"><ele>573.75</ele><time>2026-04-24T16:54:15.921Z</time></trkpt><trkpt lat="41.38888" lon="0.7805633"><ele>573.5</ele><time>2026-04-24T16:54:16.921Z</time></trkpt><trkpt lat="41.3889717" lon="0.7807267"><ele>573.25</ele><time>2026-04-24T16:54:17.921Z</time></trkpt><trkpt lat="41.38907" lon="0.7808867"><ele>573.0</ele><time>2026-04-24T16:54:18.921Z</time></trkpt><trkpt lat="41.3891683" lon="0.7810483"><ele>572.25</ele><time>2026-04-24T16:54:19.921Z</time></trkpt><trkpt lat="41.3892683" lon="0.7812"><ele>571.5</ele><time>2026-04-24T16:54:20.92Z</time></trkpt><trkpt lat="41.3893583" lon="0.7813417"><ele>570.75</ele><time>2026-04-24T16:54:21.921Z</time></trkpt><trkpt lat="41.3894383" lon="0.7814767"><ele>570.0</ele><time>2026-04-24T16:54:22.92Z</time></trkpt><trkpt lat="41.3895017" lon="0.781615"><ele>570.0</ele><time>2026-04-24T16:54:23.921Z</time></trkpt><trkpt lat="41.389525" lon="0.7817683"><ele>570.0</ele><time>2026-04-24T16:54:24.92Z</time></trkpt><trkpt lat="41.389515" lon="0.7819217"><ele>570.0</ele><time>2026-04-24T16:54:25.92Z</time></trkpt><trkpt lat="41.389505" lon="0.78206"><ele>570.0</ele><time>2026-04-24T16:54:26.921Z</time></trkpt><trkpt lat="41.3895217" lon="0.7821833"><ele>570.0</ele><time>2026-04-24T16:54:27.921Z</time></trkpt><trkpt lat="41.38958" lon="0.7822967"><ele>569.8</ele><time>2026-04-24T16:54:28.92Z</time></trkpt><trkpt lat="41.3896567" lon="0.782365"><ele>569.6</ele><time>2026-04-24T16:54:29.92Z</time></trkpt><trkpt lat="41.3897533" lon="0.7823983"><ele>569.4</ele><time>2026-04-24T16:54:30.92Z</time></trkpt><trkpt lat="41.38986" lon="0.78237"><ele>569.2</ele><time>2026-04-24T16:54:31.92Z</time></trkpt><trkpt lat="41.38997" lon="0.782295"><ele>569.0</ele><time>2026-04-24T16:54:32.921Z</time></trkpt><trkpt lat="41.3900867" lon="0.7822017"><ele>569.0</ele><time>2026-04-24T16:54:33.92Z</time></trkpt><trkpt lat="41.390215" lon="0.78211"><ele>569.0</ele><time>2026-04-24T16:54:34.921Z</time></trkpt><trkpt lat="41.3903467" lon="0.7820033"><ele>569.0</ele><time>2026-04-24T16:54:35.92Z</time></trkpt><trkpt lat="41.3904817" lon="0.7819067"><ele>568.6666666666666</ele><time>2026-04-24T16:54:36.92Z</time></trkpt><trkpt lat="41.39062" lon="0.78181"><ele>568.3333333333334</ele><time>2026-04-24T16:54:37.92Z</time></trkpt><trkpt lat="41.3907567" lon="0.7817083"><ele>568.0</ele><time>2026-04-24T16:54:38.92Z</time></trkpt><trkpt lat="41.3908867" lon="0.7815917"><ele>568.0</ele><time>2026-04-24T16:54:39.921Z</time></trkpt><trkpt lat="41.3910133" lon="0.7814617"><ele>568.0</ele><time>2026-04-24T16:54:40.92Z</time></trkpt><trkpt lat="41.391145" lon="0.7813183"><ele>568.0</ele><time>2026-04-24T16:54:41.921Z</time></trkpt><trkpt lat="41.3912717" lon="0.7811767"><ele>567.6666666666667</ele><time>2026-04-24T16:54:42.92Z</time></trkpt><trkpt lat="41.39138" lon="0.7810117"><ele>567.3333333333334</ele><time>2026-04-24T16:54:43.92Z</time></trkpt><trkpt lat="41.391485" lon="0.7808333"><ele>567.0</ele><time>2026-04-24T16:54:44.921Z</time></trkpt><trkpt lat="41.39159" lon="0.7806667"><ele>567.0</ele><time>2026-04-24T16:54:45.92Z</time></trkpt><trkpt lat="41.3916983" lon="0.7805117"><ele>567.0</ele><time>2026-04-24T16:54:46.92Z</time></trkpt><trkpt lat="41.3918167" lon="0.7803567"><ele>567.0</ele><time>2026-04-24T16:54:47.921Z</time></trkpt><trkpt lat="41.3919317" lon="0.780215"><ele>566.25</ele><time>2026-04-24T16:54:48.921Z</time></trkpt><trkpt lat="41.3920417" lon="0.78008"><ele>565.5</ele><time>2026-04-24T16:54:49.92Z</time></trkpt><trkpt lat="41.3921367" lon="0.7799333"><ele>564.75</ele><time>2026-04-24T16:54:50.921Z</time></trkpt><trkpt lat="41.3922167" lon="0.7797633"><ele>564.0</ele><time>2026-04-24T16:54:51.921Z</time></trkpt><trkpt lat="41.3922767" lon="0.779585"><ele>564.0</ele><time>2026-04-24T16:54:52.921Z</time></trkpt><trkpt lat="41.392335" lon="0.7794"><ele>564.0</ele><time>2026-04-24T16:54:53.92Z</time></trkpt><trkpt lat="41.3923933" lon="0.7792233"><ele>564.0</ele><time>2026-04-24T16:54:54.92Z</time></trkpt><trkpt lat="41.3924633" lon="0.7790533"><ele>564.0</ele><time>2026-04-24T16:54:55.921Z</time></trkpt><trkpt lat="41.392535" lon="0.778885"><ele>563.0</ele><time>2026-04-24T16:54:56.92Z</time></trkpt><trkpt lat="41.3926133" lon="0.7787183"><ele>562.0</ele><time>2026-04-24T16:54:57.92Z</time></trkpt><trkpt lat="41.3926817" lon="0.7785533"><ele>561.0</ele><time>2026-04-24T16:54:58.92Z</time></trkpt><trkpt lat="41.3927683" lon="0.77839"><ele>560.0</ele><time>2026-04-24T16:54:59.921Z</time></trkpt><trkpt lat="41.3928667" lon="0.77824"><ele>559.0</ele><time>2026-04-24T16:55:00.92Z</time></trkpt><trkpt lat="41.3929783" lon="0.7781017"><ele>558.0</ele><time>2026-04-24T16:55:01.92Z</time></trkpt><trkpt lat="41.3931083" lon="0.7779767"><ele>557.0</ele><time>2026-04-24T16:55:02.921Z</time></trkpt><trkpt lat="41.3932517" lon="0.77784"><ele>557.0</ele><time>2026-04-24T16:55:03.92Z</time></trkpt><trkpt lat="41.3933933" lon="0.7777033"><ele>557.0</ele><time>2026-04-24T16:55:04.921Z</time></trkpt><trkpt lat="41.393535" lon="0.77755"><ele>557.0</ele><time>2026-04-24T16:55:05.921Z</time></trkpt><trkpt lat="41.3936667" lon="0.77739"><ele>557.0</ele><time>2026-04-24T16:55:06.92Z</time></trkpt><trkpt lat="41.3937833" lon="0.777215"><ele>557.0</ele><time>2026-04-24T16:55:07.921Z</time></trkpt><trkpt lat="41.3938917" lon="0.7770483"><ele>557.0</ele><time>2026-04-24T16:55:08.92Z</time></trkpt><trkpt lat="41.3940033" lon="0.77692"><ele>554.75</ele><time>2026-04-24T16:55:09.92Z</time></trkpt><trkpt lat="41.3941267" lon="0.7768333"><ele>552.5</ele><time>2026-04-24T16:55:10.921Z</time></trkpt><trkpt lat="41.3942517" lon="0.7767917"><ele>550.25</ele><time>2026-04-24T16:55:11.92Z</time></trkpt><trkpt lat="41.3943717" lon="0.7767433"><ele>548.0</ele><time>2026-04-24T16:55:12.92Z</time></trkpt><trkpt lat="41.3944733" lon="0.776655"><ele>548.0</ele><time>2026-04-24T16:55:13.921Z</time></trkpt><trkpt lat="41.3945567" lon="0.7765167"><ele>548.0</ele><time>2026-04-24T16:55:14.921Z</time></trkpt><trkpt lat="41.3946067" lon="0.776355"><ele>548.0</ele><time>2026-04-24T16:55:15.92Z</time></trkpt><trkpt lat="41.39463" lon="0.7761683"><ele>548.0</ele><time>2026-04-24T16:55:16.921Z</time></trkpt><trkpt lat="41.3946417" lon="0.7759933"><ele>548.25</ele><time>2026-04-24T16:55:17.921Z</time></trkpt><trkpt lat="41.3946583" lon="0.7758367"><ele>548.5</ele><time>2026-04-24T16:55:18.921Z</time></trkpt><trkpt lat="41.3947117" lon="0.7756967"><ele>548.75</ele><time>2026-04-24T16:55:19.92Z</time></trkpt><trkpt lat="41.3948" lon="0.7755867"><ele>549.0</ele><time>2026-04-24T16:55:20.92Z</time></trkpt><trkpt lat="41.3949183" lon="0.7755383"><ele>549.0</ele><time>2026-04-24T16:55:21.92Z</time></trkpt><trkpt lat="41.3950483" lon="0.775535"><ele>549.0</ele><time>2026-04-24T16:55:22.92Z</time></trkpt><trkpt lat="41.395195" lon="0.7755383"><ele>549.0</ele><time>2026-04-24T16:55:23.921Z</time></trkpt><trkpt lat="41.3953317" lon="0.775535"><ele>549.0</ele><time>2026-04-24T16:55:24.921Z</time></trkpt><trkpt lat="41.3954617" lon="0.775515"><ele>548.25</ele><time>2026-04-24T16:55:25.921Z</time></trkpt><trkpt lat="41.3955783" lon="0.7754683"><ele>547.5</ele><time>2026-04-24T16:55:26.92Z</time></trkpt><trkpt lat="41.3957" lon="0.7753933"><ele>546.75</ele><time>2026-04-24T16:55:27.921Z</time></trkpt><trkpt lat="41.395825" lon="0.7753017"><ele>546.0</ele><time>2026-04-24T16:55:28.92Z</time></trkpt><trkpt lat="41.3959483" lon="0.7752033"><ele>546.0</ele><time>2026-04-24T16:55:29.921Z</time></trkpt><trkpt lat="41.3960767" lon="0.7750983"><ele>546.0</ele><time>2026-04-24T16:55:30.92Z</time></trkpt><trkpt lat="41.396205" lon="0.77498"><ele>546.0</ele><time>2026-04-24T16:55:31.92Z</time></trkpt><trkpt lat="41.3963317" lon="0.7748533"><ele>544.0</ele><time>2026-04-24T16:55:32.921Z</time></trkpt><trkpt lat="41.39645" lon="0.774715"><ele>542.0</ele><time>2026-04-24T16:55:33.92Z</time></trkpt><trkpt lat="41.396555" lon="0.77458"><ele>540.0</ele><time>2026-04-24T16:55:34.921Z</time></trkpt><trkpt lat="41.396655" lon="0.774425"><ele>541.75</ele><time>2026-04-24T16:55:35.921Z</time></trkpt><trkpt lat="41.3967517" lon="0.7742683"><ele>543.5</ele><time>2026-04-24T16:55:36.92Z</time></trkpt><trkpt lat="41.3968533" lon="0.7741167"><ele>545.25</ele><time>2026-04-24T16:55:37.921Z</time></trkpt><trkpt lat="41.3969567" lon="0.7739833"><ele>547.0</ele><time>2026-04-24T16:55:38.92Z</time></trkpt><trkpt lat="41.39708" lon="0.7738833"><ele>543.6666666666667</ele><time>2026-04-24T16:55:39.92Z</time></trkpt><trkpt lat="41.3972233" lon="0.77383"><ele>540.3333333333334</ele><time>2026-04-24T16:55:40.921Z</time></trkpt><trkpt lat="41.397375" lon="0.7738283"><ele>537.0</ele><time>2026-04-24T16:55:41.92Z</time></trkpt><trkpt lat="41.3975267" lon="0.7738433"><ele>537.0</ele><time>2026-04-24T16:55:42.92Z</time></trkpt><trkpt lat="41.397675" lon="0.7738467"><ele>537.0</ele><time>2026-04-24T16:55:43.92Z</time></trkpt><trkpt lat="41.3978017" lon="0.77385"><ele>537.0</ele><time>2026-04-24T16:55:44.92Z</time></trkpt><trkpt lat="41.3979167" lon="0.77383"><ele>537.0</ele><time>2026-04-24T16:55:45.921Z</time></trkpt><trkpt lat="41.3980183" lon="0.7737633"><ele>537.25</ele><time>2026-04-24T16:55:46.921Z</time></trkpt><trkpt lat="41.3980917" lon="0.7736617"><ele>537.5</ele><time>2026-04-24T16:55:47.921Z</time></trkpt><trkpt lat="41.398145" lon="0.77353"><ele>537.75</ele><time>2026-04-24T16:55:48.921Z</time></trkpt><trkpt lat="41.3981717" lon="0.7733683"><ele>538.0</ele><time>2026-04-24T16:55:49.92Z</time></trkpt><trkpt lat="41.3981817" lon="0.773195"><ele>538.0</ele><time>2026-04-24T16:55:50.921Z</time></trkpt><trkpt lat="41.3982083" lon="0.773025"><ele>538.0</ele><time>2026-04-24T16:55:51.921Z</time></trkpt><trkpt lat="41.398265" lon="0.77286"><ele>538.0</ele><time>2026-04-24T16:55:52.921Z</time></trkpt><trkpt lat="41.39834" lon="0.7727033"><ele>538.0</ele><time>2026-04-24T16:55:53.921Z</time></trkpt><trkpt lat="41.398425" lon="0.7725567"><ele>537.5</ele><time>2026-04-24T16:55:54.921Z</time></trkpt><trkpt lat="41.3985167" lon="0.7724217"><ele>537.0</ele><time>2026-04-24T16:55:55.92Z</time></trkpt><trkpt lat="41.398615" lon="0.7723267"><ele>536.5</ele><time>2026-04-24T16:55:56.92Z</time></trkpt><trkpt lat="41.39874" lon="0.7722717"><ele>536.0</ele><time>2026-04-24T16:55:57.92Z</time></trkpt><trkpt lat="41.39888" lon="0.7722617"><ele>536.0</ele><time>2026-04-24T16:55:58.921Z</time></trkpt><trkpt lat="41.39903" lon="0.7722633"><ele>536.0</ele><time>2026-04-24T16:55:59.921Z</time></trkpt><trkpt lat="41.3991833" lon="0.7722667"><ele>536.0</ele><time>2026-04-24T16:56:00.92Z</time></trkpt><trkpt lat="41.3993383" lon="0.7722517"><ele>536.0</ele><time>2026-04-24T16:56:01.92Z</time></trkpt><trkpt lat="41.3994917" lon="0.77225"><ele>536.0</ele><time>2026-04-24T16:56:02.92Z</time></trkpt><trkpt lat="41.3996467" lon="0.7722433"><ele>536.0</ele><time>2026-04-24T16:56:03.921Z</time></trkpt><trkpt lat="41.3997983" lon="0.772235"><ele>535.75</ele><time>2026-04-24T16:56:04.92Z</time></trkpt><trkpt lat="41.399945" lon="0.7722117"><ele>535.5</ele><time>2026-04-24T16:56:05.92Z</time></trkpt><trkpt lat="41.4000867" lon="0.77218"><ele>535.25</ele><time>2026-04-24T16:56:06.92Z</time></trkpt><trkpt lat="41.4002283" lon="0.77212"><ele>535.0</ele><time>2026-04-24T16:56:07.921Z</time></trkpt><trkpt lat="41.40036" lon="0.772035"><ele>534.75</ele><time>2026-04-24T16:56:08.921Z</time></trkpt><trkpt lat="41.4005017" lon="0.7719533"><ele>534.5</ele><time>2026-04-24T16:56:09.921Z</time></trkpt><trkpt lat="41.40061" lon="0.7718533"><ele>534.25</ele><time>2026-04-24T16:56:10.92Z</time></trkpt><trkpt lat="41.4007" lon="0.7717283"><ele>534.0</ele><time>2026-04-24T16:56:11.92Z</time></trkpt><trkpt lat="41.4007817" lon="0.7715667"><ele>535.0</ele><time>2026-04-24T16:56:12.92Z</time></trkpt><trkpt lat="41.4008683" lon="0.771395"><ele>536.0</ele><time>2026-04-24T16:56:13.92Z</time></trkpt><trkpt lat="41.4009817" lon="0.77125"><ele>537.0</ele><time>2026-04-24T16:56:14.921Z</time></trkpt><trkpt lat="41.4011167" lon="0.77113"><ele>538.0</ele><time>2026-04-24T16:56:15.92Z</time></trkpt><trkpt lat="41.4012733" lon="0.77102"><ele>539.0</ele><time>2026-04-24T16:56:16.921Z</time></trkpt><trkpt lat="41.401435" lon="0.7709217"><ele>540.0</ele><time>2026-04-24T16:56:17.92Z</time></trkpt><trkpt lat="41.4015983" lon="0.7708167"><ele>540.0</ele><time>2026-04-24T16:56:18.92Z</time></trkpt><trkpt lat="41.401765" lon="0.7707183"><ele>540.0</ele><time>2026-04-24T16:56:19.92Z</time></trkpt><trkpt lat="41.40193" lon="0.7706233"><ele>540.0</ele><time>2026-04-24T16:56:20.921Z</time></trkpt><trkpt lat="41.4021033" lon="0.7705317"><ele>537.0</ele><time>2026-04-24T16:56:21.92Z</time></trkpt><trkpt lat="41.4022833" lon="0.7704433"><ele>534.0</ele><time>2026-04-24T16:56:22.92Z</time></trkpt><trkpt lat="41.4024617" lon="0.7703567"><ele>531.0</ele><time>2026-04-24T16:56:23.921Z</time></trkpt><trkpt lat="41.4026367" lon="0.7702783"><ele>532.6666666666666</ele><time>2026-04-24T16:56:24.921Z</time></trkpt><trkpt lat="41.4027983" lon="0.77019"><ele>534.3333333333333</ele><time>2026-04-24T16:56:25.92Z</time></trkpt><trkpt lat="41.402935" lon="0.7700917"><ele>536.0</ele><time>2026-04-24T16:56:26.921Z</time></trkpt><trkpt lat="41.40305" lon="0.7699717"><ele>536.0</ele><time>2026-04-24T16:56:27.921Z</time></trkpt><trkpt lat="41.403165" lon="0.7698367"><ele>536.0</ele><time>2026-04-24T16:56:28.921Z</time></trkpt><trkpt lat="41.403275" lon="0.7697083"><ele>536.0</ele><time>2026-04-24T16:56:29.921Z</time></trkpt><trkpt lat="41.4034017" lon="0.76962"><ele>536.0</ele><time>2026-04-24T16:56:30.921Z</time></trkpt><trkpt lat="41.4035367" lon="0.7695667"><ele>536.0</ele><time>2026-04-24T16:56:31.918Z</time></trkpt><trkpt lat="41.4036783" lon="0.7695383"><ele>536.0</ele><time>2026-04-24T16:56:32.92Z</time></trkpt><trkpt lat="41.4038133" lon="0.7695"><ele>536.0</ele><time>2026-04-24T16:56:33.92Z</time></trkpt><trkpt lat="41.4039367" lon="0.76943"><ele>536.0</ele><time>2026-04-24T16:56:34.92Z</time></trkpt><trkpt lat="41.4040517" lon="0.7693367"><ele>537.25</ele><time>2026-04-24T16:56:35.92Z</time></trkpt><trkpt lat="41.4041633" lon="0.7692117"><ele>538.5</ele><time>2026-04-24T16:56:36.921Z</time></trkpt><trkpt lat="41.4042767" lon="0.7691083"><ele>539.75</ele><time>2026-04-24T16:56:37.92Z</time></trkpt><trkpt lat="41.4044033" lon="0.7690417"><ele>541.0</ele><time>2026-04-24T16:56:38.92Z</time></trkpt><trkpt lat="41.4045483" lon="0.7690133"><ele>538.0</ele><time>2026-04-24T16:56:39.92Z</time></trkpt><trkpt lat="41.4046883" lon="0.7689983"><ele>535.0</ele><time>2026-04-24T16:56:40.921Z</time></trkpt><trkpt lat="41.404815" lon="0.7689667"><ele>532.0</ele><time>2026-04-24T16:56:41.92Z</time></trkpt><trkpt lat="41.4049267" lon="0.768915"><ele>529.0</ele><time>2026-04-24T16:56:42.921Z</time></trkpt><trkpt lat="41.4050167" lon="0.7688233"><ele>529.0</ele><time>2026-04-24T16:56:43.921Z</time></trkpt><trkpt lat="41.4050833" lon="0.7686833"><ele>529.0</ele><time>2026-04-24T16:56:44.92Z</time></trkpt><trkpt lat="41.4051217" lon="0.7685217"><ele>529.0</ele><time>2026-04-24T16:56:45.92Z</time></trkpt><trkpt lat="41.405175" lon="0.7683817"><ele>529.0</ele><time>2026-04-24T16:56:46.921Z</time></trkpt><trkpt lat="41.40526" lon="0.7682783"><ele>530.5</ele><time>2026-04-24T16:56:47.921Z</time></trkpt><trkpt lat="41.40536" lon="0.7682217"><ele>532.0</ele><time>2026-04-24T16:56:48.92Z</time></trkpt><trkpt lat="41.4054833" lon="0.7682233"><ele>533.5</ele><time>2026-04-24T16:56:49.921Z</time></trkpt><trkpt lat="41.4056133" lon="0.768265"><ele>535.0</ele><time>2026-04-24T16:56:50.92Z</time></trkpt><trkpt lat="41.4057433" lon="0.76833"><ele>535.0</ele><time>2026-04-24T16:56:51.921Z</time></trkpt><trkpt lat="41.4058733" lon="0.768405"><ele>535.0</ele><time>2026-04-24T16:56:52.92Z</time></trkpt><trkpt lat="41.406005" lon="0.768495"><ele>535.0</ele><time>2026-04-24T16:56:53.92Z</time></trkpt><trkpt lat="41.4061417" lon="0.7686"><ele>535.0</ele><time>2026-04-24T16:56:54.92Z</time></trkpt><trkpt lat="41.40627" lon="0.7687"><ele>533.25</ele><time>2026-04-24T16:56:55.921Z</time></trkpt><trkpt lat="41.4063967" lon="0.7687783"><ele>531.5</ele><time>2026-04-24T16:56:56.921Z</time></trkpt><trkpt lat="41.4065333" lon="0.768825"><ele>529.75</ele><time>2026-04-24T16:56:57.921Z</time></trkpt><trkpt lat="41.4066767" lon="0.7688383"><ele>528.0</ele><time>2026-04-24T16:56:58.92Z</time></trkpt><trkpt lat="41.4068333" lon="0.7688467"><ele>528.0</ele><time>2026-04-24T16:56:59.921Z</time></trkpt><trkpt lat="41.407005" lon="0.7688567"><ele>528.0</ele><time>2026-04-24T16:57:00.92Z</time></trkpt><trkpt lat="41.4071883" lon="0.7688583"><ele>528.0</ele><time>2026-04-24T16:57:01.921Z</time></trkpt><trkpt lat="41.4073683" lon="0.7688583"><ele>528.0</ele><time>2026-04-24T16:57:02.92Z</time></trkpt><trkpt lat="41.40754" lon="0.7688433"><ele>528.0</ele><time>2026-04-24T16:57:03.921Z</time></trkpt><trkpt lat="41.4077067" lon="0.7688133"><ele>528.0</ele><time>2026-04-24T16:57:04.92Z</time></trkpt><trkpt lat="41.4078833" lon="0.7687767"><ele>530.3333333333334</ele><time>2026-04-24T16:57:05.92Z</time></trkpt><trkpt lat="41.4080533" lon="0.7687167"><ele>532.6666666666667</ele><time>2026-04-24T16:57:06.92Z</time></trkpt><trkpt lat="41.408235" lon="0.7686483"><ele>535.0</ele><time>2026-04-24T16:57:07.92Z</time></trkpt><trkpt lat="41.408415" lon="0.76858"><ele>534.6666666666667</ele><time>2026-04-24T16:57:08.92Z</time></trkpt><trkpt lat="41.4086" lon="0.76851"><ele>534.3333333333334</ele><time>2026-04-24T16:57:09.92Z</time></trkpt><trkpt lat="41.4087833" lon="0.7684367"><ele>534.0</ele><time>2026-04-24T16:57:10.92Z</time></trkpt><trkpt lat="41.4089633" lon="0.76837"><ele>533.0</ele><time>2026-04-24T16:57:11.921Z</time></trkpt><trkpt lat="41.4091483" lon="0.7683083"><ele>532.0</ele><time>2026-04-24T16:57:12.92Z</time></trkpt><trkpt lat="41.409325" lon="0.7682417"><ele>531.0</ele><time>2026-04-24T16:57:13.92Z</time></trkpt><trkpt lat="41.40949" lon="0.7681633"><ele>531.0</ele><time>2026-04-24T16:57:14.921Z</time></trkpt><trkpt lat="41.409645" lon="0.7680767"><ele>531.0</ele><time>2026-04-24T16:57:15.921Z</time></trkpt><trkpt lat="41.4097933" lon="0.767975"><ele>531.0</ele><time>2026-04-24T16:57:16.92Z</time></trkpt><trkpt lat="41.409925" lon="0.7678433"><ele>530.6666666666666</ele><time>2026-04-24T16:57:17.92Z</time></trkpt><trkpt lat="41.4100483" lon="0.7676867"><ele>530.3333333333333</ele><time>2026-04-24T16:57:18.921Z</time></trkpt><trkpt lat="41.41017" lon="0.7675117"><ele>530.0</ele><time>2026-04-24T16:57:19.92Z</time></trkpt><trkpt lat="41.410285" lon="0.76736"><ele>530.0</ele><time>2026-04-24T16:57:20.92Z</time></trkpt><trkpt lat="41.4104067" lon="0.7672383"><ele>530.0</ele><time>2026-04-24T16:57:21.92Z</time></trkpt><trkpt lat="41.4105333" lon="0.7671683"><ele>530.0</ele><time>2026-04-24T16:57:22.92Z</time></trkpt><trkpt lat="41.4106633" lon="0.767145"><ele>530.0</ele><time>2026-04-24T16:57:23.921Z</time></trkpt><trkpt lat="41.4108067" lon="0.7671833"><ele>528.75</ele><time>2026-04-24T16:57:24.92Z</time></trkpt><trkpt lat="41.4109467" lon="0.7672483"><ele>527.5</ele><time>2026-04-24T16:57:25.92Z</time></trkpt><trkpt lat="41.41108" lon="0.7673167"><ele>526.25</ele><time>2026-04-24T16:57:26.921Z</time></trkpt><trkpt lat="41.411215" lon="0.7673483"><ele>525.0</ele><time>2026-04-24T16:57:27.92Z</time></trkpt><trkpt lat="41.41136" lon="0.7673533"><ele>524.6666666666666</ele><time>2026-04-24T16:57:28.921Z</time></trkpt><trkpt lat="41.4115067" lon="0.7673283"><ele>524.3333333333333</ele><time>2026-04-24T16:57:29.921Z</time></trkpt><trkpt lat="41.4116617" lon="0.767275"><ele>524.0</ele><time>2026-04-24T16:57:30.92Z</time></trkpt><trkpt lat="41.4118167" lon="0.7672017"><ele>524.0</ele><time>2026-04-24T16:57:31.92Z</time></trkpt><trkpt lat="41.4119833" lon="0.767125"><ele>524.0</ele><time>2026-04-24T16:57:32.92Z</time></trkpt><trkpt lat="41.4121633" lon="0.76705"><ele>524.0</ele><time>2026-04-24T16:57:33.92Z</time></trkpt><trkpt lat="41.4123517" lon="0.7669933"><ele>523.6666666666666</ele><time>2026-04-24T16:57:34.92Z</time></trkpt><trkpt lat="41.41254" lon="0.76694"><ele>523.3333333333334</ele><time>2026-04-24T16:57:35.921Z</time></trkpt><trkpt lat="41.412725" lon="0.7668967"><ele>523.0</ele><time>2026-04-24T16:57:36.92Z</time></trkpt><trkpt lat="41.4129183" lon="0.76686"><ele>522.0</ele><time>2026-04-24T16:57:37.92Z</time></trkpt><trkpt lat="41.4130967" lon="0.7668133"><ele>521.0</ele><time>2026-04-24T16:57:38.921Z</time></trkpt><trkpt lat="41.41327" lon="0.766735"><ele>520.0</ele><time>2026-04-24T16:57:39.921Z</time></trkpt><trkpt lat="41.4134367" lon="0.7666283"><ele>520.0</ele><time>2026-04-24T16:57:40.92Z</time></trkpt><trkpt lat="41.4136" lon="0.7664933"><ele>520.0</ele><time>2026-04-24T16:57:41.92Z</time></trkpt><trkpt lat="41.413755" lon="0.7663333"><ele>520.0</ele><time>2026-04-24T16:57:42.92Z</time></trkpt><trkpt lat="41.41391" lon="0.7661583"><ele>518.6666666666667</ele><time>2026-04-24T16:57:43.921Z</time></trkpt><trkpt lat="41.4140683" lon="0.7659883"><ele>517.3333333333334</ele><time>2026-04-24T16:57:44.92Z</time></trkpt><trkpt lat="41.4142267" lon="0.7658133"><ele>516.0</ele><time>2026-04-24T16:57:45.921Z</time></trkpt><trkpt lat="41.4143867" lon="0.7656367"><ele>516.0</ele><time>2026-04-24T16:57:46.921Z</time></trkpt><trkpt lat="41.41455" lon="0.765455"><ele>516.0</ele><time>2026-04-24T16:57:47.921Z</time></trkpt><trkpt lat="41.41471" lon="0.7652717"><ele>516.0</ele><time>2026-04-24T16:57:48.92Z</time></trkpt><trkpt lat="41.4148717" lon="0.7651"><ele>515.0</ele><time>2026-04-24T16:57:49.92Z</time></trkpt><trkpt lat="41.41503" lon="0.7649233"><ele>514.0</ele><time>2026-04-24T16:57:50.92Z</time></trkpt><trkpt lat="41.41519" lon="0.7647533"><ele>513.0</ele><time>2026-04-24T16:57:51.92Z</time></trkpt><trkpt lat="41.4153483" lon="0.7645917"><ele>513.3333333333334</ele><time>2026-04-24T16:57:52.92Z</time></trkpt><trkpt lat="41.41551" lon="0.764425"><ele>513.6666666666667</ele><time>2026-04-24T16:57:53.921Z</time></trkpt><trkpt lat="41.4156733" lon="0.7642583"><ele>514.0</ele><time>2026-04-24T16:57:54.92Z</time></trkpt><trkpt lat="41.41584" lon="0.7640967"><ele>512.6666666666667</ele><time>2026-04-24T16:57:55.92Z</time></trkpt><trkpt lat="41.4160117" lon="0.7639417"><ele>511.33333333333337</ele><time>2026-04-24T16:57:56.92Z</time></trkpt><trkpt lat="41.4161767" lon="0.76378"><ele>510.0</ele><time>2026-04-24T16:57:57.92Z</time></trkpt><trkpt lat="41.4163367" lon="0.7636267"><ele>508.66666666666663</ele><time>2026-04-24T16:57:58.921Z</time></trkpt><trkpt lat="41.4164867" lon="0.7634733"><ele>507.3333333333333</ele><time>2026-04-24T16:57:59.92Z</time></trkpt><trkpt lat="41.4166417" lon="0.76333"><ele>506.0</ele><time>2026-04-24T16:58:00.921Z</time></trkpt><trkpt lat="41.4167917" lon="0.763185"><ele>506.0</ele><time>2026-04-24T16:58:01.92Z</time></trkpt><trkpt lat="41.41693" lon="0.76305"><ele>506.0</ele><time>2026-04-24T16:58:02.921Z</time></trkpt><trkpt lat="41.4170633" lon="0.7629267"><ele>506.0</ele><time>2026-04-24T16:58:03.921Z</time></trkpt><trkpt lat="41.4171933" lon="0.7628217"><ele>506.25</ele><time>2026-04-24T16:58:04.921Z</time></trkpt><trkpt lat="41.417325" lon="0.7627467"><ele>506.5</ele><time>2026-04-24T16:58:05.921Z</time></trkpt><trkpt lat="41.4174683" lon="0.7627033"><ele>506.75</ele><time>2026-04-24T16:58:06.921Z</time></trkpt><trkpt lat="41.417625" lon="0.7626983"><ele>507.0</ele><time>2026-04-24T16:58:07.921Z</time></trkpt><trkpt lat="41.4177833" lon="0.7627033"><ele>507.0</ele><time>2026-04-24T16:58:08.92Z</time></trkpt><trkpt lat="41.41795" lon="0.7627067"><ele>507.0</ele><time>2026-04-24T16:58:09.921Z</time></trkpt><trkpt lat="41.41811" lon="0.76272"><ele>507.0</ele><time>2026-04-24T16:58:10.921Z</time></trkpt><trkpt lat="41.4182533" lon="0.7627667"><ele>506.33333333333337</ele><time>2026-04-24T16:58:11.92Z</time></trkpt><trkpt lat="41.4183967" lon="0.76285"><ele>505.6666666666667</ele><time>2026-04-24T16:58:12.92Z</time></trkpt><trkpt lat="41.41853" lon="0.762965"><ele>505.0</ele><time>2026-04-24T16:58:13.921Z</time></trkpt><trkpt lat="41.418665" lon="0.76309"><ele>505.0</ele><time>2026-04-24T16:58:14.921Z</time></trkpt><trkpt lat="41.4188" lon="0.76322"><ele>505.0</ele><time>2026-04-24T16:58:15.92Z</time></trkpt><trkpt lat="41.4189233" lon="0.763325"><ele>505.0</ele><time>2026-04-24T16:58:16.921Z</time></trkpt><trkpt lat="41.4190417" lon="0.763395"><ele>505.0</ele><time>2026-04-24T16:58:17.92Z</time></trkpt><trkpt lat="41.4191767" lon="0.7634467"><ele>504.0</ele><time>2026-04-24T16:58:18.92Z</time></trkpt><trkpt lat="41.4193317" lon="0.7634533"><ele>503.0</ele><time>2026-04-24T16:58:19.92Z</time></trkpt><trkpt lat="41.4195017" lon="0.7634417"><ele>502.0</ele><time>2026-04-24T16:58:20.921Z</time></trkpt><trkpt lat="41.4196817" lon="0.7634283"><ele>500.33333333333337</ele><time>2026-04-24T16:58:21.921Z</time></trkpt><trkpt lat="41.4198567" lon="0.7633967"><ele>498.66666666666663</ele><time>2026-04-24T16:58:22.921Z</time></trkpt><trkpt lat="41.420035" lon="0.7633717"><ele>497.0</ele><time>2026-04-24T16:58:23.921Z</time></trkpt><trkpt lat="41.4202167" lon="0.7633417"><ele>497.0</ele><time>2026-04-24T16:58:24.921Z</time></trkpt><trkpt lat="41.4203933" lon="0.7633017"><ele>497.0</ele><time>2026-04-24T16:58:25.921Z</time></trkpt><trkpt lat="41.4205733" lon="0.7632567"><ele>497.0</ele><time>2026-04-24T16:58:26.92Z</time></trkpt><trkpt lat="41.420755" lon="0.763195"><ele>496.66666666666663</ele><time>2026-04-24T16:58:27.921Z</time></trkpt><trkpt lat="41.42093" lon="0.76311"><ele>496.33333333333337</ele><time>2026-04-24T16:58:28.921Z</time></trkpt><trkpt lat="41.42111" lon="0.7630183"><ele>496.0</ele><time>2026-04-24T16:58:29.92Z</time></trkpt><trkpt lat="41.4212767" lon="0.76292"><ele>494.6666666666667</ele><time>2026-04-24T16:58:30.921Z</time></trkpt><trkpt lat="41.42144" lon="0.7628383"><ele>493.33333333333337</ele><time>2026-04-24T16:58:31.921Z</time></trkpt><trkpt lat="41.4215967" lon="0.7627683"><ele>492.0</ele><time>2026-04-24T16:58:32.921Z</time></trkpt><trkpt lat="41.42175" lon="0.7627183"><ele>492.0</ele><time>2026-04-24T16:58:33.921Z</time></trkpt><trkpt lat="41.42191" lon="0.76268"><ele>492.0</ele><time>2026-04-24T16:58:34.921Z</time></trkpt><trkpt lat="41.4220567" lon="0.7626583"><ele>492.0</ele><time>2026-04-24T16:58:35.92Z</time></trkpt><trkpt lat="41.4222017" lon="0.7626583"><ele>491.25</ele><time>2026-04-24T16:58:36.92Z</time></trkpt><trkpt lat="41.422345" lon="0.7627083"><ele>490.5</ele><time>2026-04-24T16:58:37.92Z</time></trkpt><trkpt lat="41.4224617" lon="0.7628117"><ele>489.75</ele><time>2026-04-24T16:58:38.92Z</time></trkpt><trkpt lat="41.4225767" lon="0.762915"><ele>489.0</ele><time>2026-04-24T16:58:39.92Z</time></trkpt><trkpt lat="41.4227" lon="0.7629833"><ele>489.0</ele><time>2026-04-24T16:58:40.92Z</time></trkpt><trkpt lat="41.422835" lon="0.7630117"><ele>489.0</ele><time>2026-04-24T16:58:41.92Z</time></trkpt><trkpt lat="41.4229717" lon="0.762985"><ele>489.0</ele><time>2026-04-24T16:58:42.92Z</time></trkpt><trkpt lat="41.4231" lon="0.762915"><ele>489.0</ele><time>2026-04-24T16:58:43.92Z</time></trkpt><trkpt lat="41.423215" lon="0.7627983"><ele>488.0</ele><time>2026-04-24T16:58:44.921Z</time></trkpt><trkpt lat="41.423315" lon="0.7626433"><ele>487.0</ele><time>2026-04-24T16:58:45.92Z</time></trkpt><trkpt lat="41.42341" lon="0.762485"><ele>486.0</ele><time>2026-04-24T16:58:46.92Z</time></trkpt><trkpt lat="41.4235017" lon="0.7623433"><ele>485.0</ele><time>2026-04-24T16:58:47.921Z</time></trkpt><trkpt lat="41.4235917" lon="0.7622417"><ele>485.0</ele><time>2026-04-24T16:58:48.92Z</time></trkpt><trkpt lat="41.423685" lon="0.7621917"><ele>485.0</ele><time>2026-04-24T16:58:49.921Z</time></trkpt><trkpt lat="41.4237817" lon="0.7621933"><ele>485.0</ele><time>2026-04-24T16:58:50.921Z</time></trkpt><trkpt lat="41.42387" lon="0.7622583"><ele>485.0</ele><time>2026-04-24T16:58:51.92Z</time></trkpt><trkpt lat="41.423935" lon="0.7623733"><ele>485.0</ele><time>2026-04-24T16:58:52.92Z</time></trkpt><trkpt lat="41.424005" lon="0.762505"><ele>484.0</ele><time>2026-04-24T16:58:53.921Z</time></trkpt><trkpt lat="41.42408" lon="0.76261"><ele>483.0</ele><time>2026-04-24T16:58:54.921Z</time></trkpt><trkpt lat="41.4241717" lon="0.76268"><ele>482.0</ele><time>2026-04-24T16:58:55.92Z</time></trkpt><trkpt lat="41.4242817" lon="0.7627167"><ele>481.0</ele><time>2026-04-24T16:58:56.92Z</time></trkpt><trkpt lat="41.4244033" lon="0.7626983"><ele>480.5</ele><time>2026-04-24T16:58:57.921Z</time></trkpt><trkpt lat="41.4245283" lon="0.762645"><ele>480.0</ele><time>2026-04-24T16:58:58.921Z</time></trkpt><trkpt lat="41.4246617" lon="0.7625767"><ele>479.5</ele><time>2026-04-24T16:58:59.921Z</time></trkpt><trkpt lat="41.424795" lon="0.7625167"><ele>479.0</ele><time>2026-04-24T16:59:00.92Z</time></trkpt><trkpt lat="41.4249267" lon="0.76248"><ele>478.0</ele><time>2026-04-24T16:59:01.92Z</time></trkpt><trkpt lat="41.42505" lon="0.762435"><ele>477.0</ele><time>2026-04-24T16:59:02.921Z</time></trkpt><trkpt lat="41.4251633" lon="0.762365"><ele>476.0</ele><time>2026-04-24T16:59:03.921Z</time></trkpt><trkpt lat="41.42526" lon="0.7622517"><ele>475.0</ele><time>2026-04-24T16:59:04.921Z</time></trkpt><trkpt lat="41.4253483" lon="0.7620933"><ele>475.0</ele><time>2026-04-24T16:59:05.921Z</time></trkpt><trkpt lat="41.42544" lon="0.761935"><ele>475.0</ele><time>2026-04-24T16:59:06.921Z</time></trkpt><trkpt lat="41.4255317" lon="0.7617717"><ele>475.0</ele><time>2026-04-24T16:59:07.921Z</time></trkpt><trkpt lat="41.4256183" lon="0.7616033"><ele>473.6666666666667</ele><time>2026-04-24T16:59:08.92Z</time></trkpt><trkpt lat="41.4257083" lon="0.7614233"><ele>472.33333333333337</ele><time>2026-04-24T16:59:09.92Z</time></trkpt><trkpt lat="41.4258017" lon="0.76124"><ele>471.0</ele><time>2026-04-24T16:59:10.92Z</time></trkpt><trkpt lat="41.4259033" lon="0.7610617"><ele>469.66666666666663</ele><time>2026-04-24T16:59:11.921Z</time></trkpt><trkpt lat="41.4260217" lon="0.7608917"><ele>468.3333333333333</ele><time>2026-04-24T16:59:12.92Z</time></trkpt><trkpt lat="41.426135" lon="0.76072"><ele>467.0</ele><time>2026-04-24T16:59:13.921Z</time></trkpt><trkpt lat="41.4262483" lon="0.7605533"><ele>466.3333333333333</ele><time>2026-04-24T16:59:14.92Z</time></trkpt><trkpt lat="41.42636" lon="0.760395"><ele>465.66666666666663</ele><time>2026-04-24T16:59:15.92Z</time></trkpt><trkpt lat="41.4264633" lon="0.7602367"><ele>465.0</ele><time>2026-04-24T16:59:16.92Z</time></trkpt><trkpt lat="41.4265683" lon="0.76009"><ele>465.0</ele><time>2026-04-24T16:59:17.92Z</time></trkpt><trkpt lat="41.4266733" lon="0.7599483"><ele>465.0</ele><time>2026-04-24T16:59:18.921Z</time></trkpt><trkpt lat="41.42678" lon="0.7597917"><ele>465.0</ele><time>2026-04-24T16:59:19.921Z</time></trkpt><trkpt lat="41.4268683" lon="0.7596083"><ele>465.0</ele><time>2026-04-24T16:59:20.921Z</time></trkpt><trkpt lat="41.4269467" lon="0.7594033"><ele>465.0</ele><time>2026-04-24T16:59:21.92Z</time></trkpt><trkpt lat="41.4270283" lon="0.759195"><ele>465.0</ele><time>2026-04-24T16:59:22.92Z</time></trkpt><trkpt lat="41.427125" lon="0.759005"><ele>465.33333333333337</ele><time>2026-04-24T16:59:23.921Z</time></trkpt><trkpt lat="41.4272367" lon="0.7588583"><ele>465.6666666666667</ele><time>2026-04-24T16:59:24.921Z</time></trkpt><trkpt lat="41.4273633" lon="0.7587433"><ele>466.0</ele><time>2026-04-24T16:59:25.92Z</time></trkpt><trkpt lat="41.4274817" lon="0.7586367"><ele>464.25</ele><time>2026-04-24T16:59:26.92Z</time></trkpt><trkpt lat="41.4275867" lon="0.7585167"><ele>462.5</ele><time>2026-04-24T16:59:27.921Z</time></trkpt><trkpt lat="41.427675" lon="0.758355"><ele>460.75</ele><time>2026-04-24T16:59:28.921Z</time></trkpt><trkpt lat="41.4277467" lon="0.7581733"><ele>459.0</ele><time>2026-04-24T16:59:29.92Z</time></trkpt><trkpt lat="41.4278133" lon="0.7579767"><ele>459.0</ele><time>2026-04-24T16:59:30.92Z</time></trkpt><trkpt lat="41.4278917" lon="0.7577833"><ele>459.0</ele><time>2026-04-24T16:59:31.92Z</time></trkpt><trkpt lat="41.42798" lon="0.7575867"><ele>459.0</ele><time>2026-04-24T16:59:32.92Z</time></trkpt><trkpt lat="41.4280833" lon="0.7573983"><ele>458.66666666666663</ele><time>2026-04-24T16:59:33.921Z</time></trkpt><trkpt lat="41.4281917" lon="0.757205"><ele>458.3333333333333</ele><time>2026-04-24T16:59:34.92Z</time></trkpt><trkpt lat="41.4283017" lon="0.7570083"><ele>458.0</ele><time>2026-04-24T16:59:35.92Z</time></trkpt><trkpt lat="41.4284117" lon="0.7568133"><ele>456.66666666666663</ele><time>2026-04-24T16:59:36.92Z</time></trkpt><trkpt lat="41.42851" lon="0.75663"><ele>455.33333333333337</ele><time>2026-04-24T16:59:37.92Z</time></trkpt><trkpt lat="41.4285933" lon="0.75644"><ele>454.0</ele><time>2026-04-24T16:59:38.92Z</time></trkpt><trkpt lat="41.42865" lon="0.7562367"><ele>452.6666666666667</ele><time>2026-04-24T16:59:39.92Z</time></trkpt><trkpt lat="41.4286883" lon="0.756025"><ele>451.33333333333337</ele><time>2026-04-24T16:59:40.921Z</time></trkpt><trkpt lat="41.428715" lon="0.755795"><ele>450.0</ele><time>2026-04-24T16:59:41.921Z</time></trkpt><trkpt lat="41.4287383" lon="0.75556"><ele>450.0</ele><time>2026-04-24T16:59:42.921Z</time></trkpt><trkpt lat="41.4287583" lon="0.7553233"><ele>450.0</ele><time>2026-04-24T16:59:43.921Z</time></trkpt><trkpt lat="41.4287833" lon="0.7550917"><ele>450.0</ele><time>2026-04-24T16:59:44.92Z</time></trkpt><trkpt lat="41.4288083" lon="0.7548683"><ele>450.33333333333337</ele><time>2026-04-24T16:59:45.921Z</time></trkpt><trkpt lat="41.4288367" lon="0.7546567"><ele>450.6666666666667</ele><time>2026-04-24T16:59:46.921Z</time></trkpt><trkpt lat="41.4288867" lon="0.7544583"><ele>451.0</ele><time>2026-04-24T16:59:47.921Z</time></trkpt><trkpt lat="41.4289733" lon="0.7542833"><ele>451.0</ele><time>2026-04-24T16:59:48.921Z</time></trkpt><trkpt lat="41.4290833" lon="0.754135"><ele>451.0</ele><time>2026-04-24T16:59:49.92Z</time></trkpt><trkpt lat="41.4292083" lon="0.753995"><ele>451.0</ele><time>2026-04-24T16:59:50.92Z</time></trkpt><trkpt lat="41.4293383" lon="0.7538483"><ele>451.0</ele><time>2026-04-24T16:59:51.921Z</time></trkpt><trkpt lat="41.4294667" lon="0.7536883"><ele>451.0</ele><time>2026-04-24T16:59:52.921Z</time></trkpt><trkpt lat="41.4295967" lon="0.7535383"><ele>451.0</ele><time>2026-04-24T16:59:53.921Z</time></trkpt><trkpt lat="41.4297183" lon="0.7533983"><ele>450.33333333333337</ele><time>2026-04-24T16:59:54.921Z</time></trkpt><trkpt lat="41.4298167" lon="0.7532567"><ele>449.66666666666663</ele><time>2026-04-24T16:59:55.92Z</time></trkpt><trkpt lat="41.4298983" lon="0.75309"><ele>449.0</ele><time>2026-04-24T16:59:56.92Z</time></trkpt><trkpt lat="41.4299567" lon="0.7528933"><ele>448.66666666666663</ele><time>2026-04-24T16:59:57.92Z</time></trkpt><trkpt lat="41.4299983" lon="0.7526767"><ele>448.33333333333337</ele><time>2026-04-24T16:59:58.92Z</time></trkpt><trkpt lat="41.4300167" lon="0.7524533"><ele>448.0</ele><time>2026-04-24T16:59:59.921Z</time></trkpt><trkpt lat="41.43002" lon="0.7522233"><ele>448.0</ele><time>2026-04-24T17:00:00.921Z</time></trkpt><trkpt lat="41.4300283" lon="0.7520117"><ele>448.0</ele><time>2026-04-24T17:00:01.92Z</time></trkpt><trkpt lat="41.430055" lon="0.7518033"><ele>448.0</ele><time>2026-04-24T17:00:02.92Z</time></trkpt><trkpt lat="41.4300983" lon="0.7516183"><ele>447.75</ele><time>2026-04-24T17:00:03.921Z</time></trkpt><trkpt lat="41.4301767" lon="0.7514667"><ele>447.5</ele><time>2026-04-24T17:00:04.921Z</time></trkpt><trkpt lat="41.4302667" lon="0.7513217"><ele>447.25</ele><time>2026-04-24T17:00:05.92Z</time></trkpt><trkpt lat="41.4303817" lon="0.7511883"><ele>447.0</ele><time>2026-04-24T17:00:06.92Z</time></trkpt><trkpt lat="41.4305" lon="0.7510717"><ele>447.33333333333337</ele><time>2026-04-24T17:00:07.92Z</time></trkpt><trkpt lat="41.430635" lon="0.7509867"><ele>447.6666666666667</ele><time>2026-04-24T17:00:08.92Z</time></trkpt><trkpt lat="41.4307783" lon="0.7509383"><ele>448.0</ele><time>2026-04-24T17:00:09.92Z</time></trkpt><trkpt lat="41.4309383" lon="0.7508933"><ele>448.0</ele><time>2026-04-24T17:00:10.921Z</time></trkpt><trkpt lat="41.431105" lon="0.7508267"><ele>448.0</ele><time>2026-04-24T17:00:11.92Z</time></trkpt><trkpt lat="41.431265" lon="0.7507417"><ele>448.0</ele><time>2026-04-24T17:00:12.921Z</time></trkpt><trkpt lat="41.4314317" lon="0.75065"><ele>447.0</ele><time>2026-04-24T17:00:13.921Z</time></trkpt><trkpt lat="41.4315867" lon="0.7505683"><ele>446.0</ele><time>2026-04-24T17:00:14.92Z</time></trkpt><trkpt lat="41.4317367" lon="0.7504733"><ele>445.0</ele><time>2026-04-24T17:00:15.921Z</time></trkpt><trkpt lat="41.431885" lon="0.750345"><ele>443.33333333333337</ele><time>2026-04-24T17:00:16.921Z</time></trkpt><trkpt lat="41.4320283" lon="0.750185"><ele>441.66666666666663</ele><time>2026-04-24T17:00:17.921Z</time></trkpt><trkpt lat="41.4321617" lon="0.7500183"><ele>440.0</ele><time>2026-04-24T17:00:18.921Z</time></trkpt><trkpt lat="41.4322833" lon="0.749835"><ele>440.0</ele><time>2026-04-24T17:00:19.92Z</time></trkpt><trkpt lat="41.4324133" lon="0.7496567"><ele>440.0</ele><time>2026-04-24T17:00:20.921Z</time></trkpt><trkpt lat="41.432535" lon="0.7494833"><ele>440.0</ele><time>2026-04-24T17:00:21.921Z</time></trkpt><trkpt lat="41.4326567" lon="0.7493167"><ele>439.66666666666663</ele><time>2026-04-24T17:00:22.921Z</time></trkpt><trkpt lat="41.4327767" lon="0.749155"><ele>439.33333333333337</ele><time>2026-04-24T17:00:23.921Z</time></trkpt><trkpt lat="41.432905" lon="0.749005"><ele>439.0</ele><time>2026-04-24T17:00:24.921Z</time></trkpt><trkpt lat="41.4330417" lon="0.7488617"><ele>437.6666666666667</ele><time>2026-04-24T17:00:25.921Z</time></trkpt><trkpt lat="41.4331883" lon="0.7487283"><ele>436.33333333333337</ele><time>2026-04-24T17:00:26.921Z</time></trkpt><trkpt lat="41.4333317" lon="0.7486033"><ele>435.0</ele><time>2026-04-24T17:00:27.92Z</time></trkpt><trkpt lat="41.43346" lon="0.7484683"><ele>435.0</ele><time>2026-04-24T17:00:28.921Z</time></trkpt><trkpt lat="41.4335767" lon="0.7483233"><ele>435.0</ele><time>2026-04-24T17:00:29.92Z</time></trkpt><trkpt lat="41.4336883" lon="0.7481617"><ele>435.0</ele><time>2026-04-24T17:00:30.92Z</time></trkpt><trkpt lat="41.4337933" lon="0.7479867"><ele>434.33333333333337</ele><time>2026-04-24T17:00:31.921Z</time></trkpt><trkpt lat="41.433895" lon="0.747805"><ele>433.6666666666667</ele><time>2026-04-24T17:00:32.92Z</time></trkpt><trkpt lat="41.4339883" lon="0.7476233"><ele>433.0</ele><time>2026-04-24T17:00:33.921Z</time></trkpt><trkpt lat="41.4340933" lon="0.7474733"><ele>433.0</ele><time>2026-04-24T17:00:34.921Z</time></trkpt><trkpt lat="41.4342183" lon="0.747355"><ele>433.0</ele><time>2026-04-24T17:00:35.92Z</time></trkpt><trkpt lat="41.4343583" lon="0.7472483"><ele>433.0</ele><time>2026-04-24T17:00:36.92Z</time></trkpt><trkpt lat="41.4345117" lon="0.7471517"><ele>431.0</ele><time>2026-04-24T17:00:37.92Z</time></trkpt><trkpt lat="41.43467" lon="0.7470667"><ele>429.0</ele><time>2026-04-24T17:00:38.921Z</time></trkpt><trkpt lat="41.434835" lon="0.747005"><ele>427.0</ele><time>2026-04-24T17:00:39.92Z</time></trkpt><trkpt lat="41.4350083" lon="0.7469583"><ele>427.0</ele><time>2026-04-24T17:00:40.921Z</time></trkpt><trkpt lat="41.4351917" lon="0.7469083"><ele>427.0</ele><time>2026-04-24T17:00:41.92Z</time></trkpt><trkpt lat="41.4353767" lon="0.74685"><ele>427.0</ele><time>2026-04-24T17:00:42.92Z</time></trkpt><trkpt lat="41.43556" lon="0.7467883"><ele>427.0</ele><time>2026-04-24T17:00:43.921Z</time></trkpt><trkpt lat="41.4357483" lon="0.7467483"><ele>427.0</ele><time>2026-04-24T17:00:44.92Z</time></trkpt><trkpt lat="41.43594" lon="0.7467183"><ele>427.0</ele><time>2026-04-24T17:00:45.92Z</time></trkpt><trkpt lat="41.4361283" lon="0.7466917"><ele>426.0</ele><time>2026-04-24T17:00:46.921Z</time></trkpt><trkpt lat="41.436315" lon="0.7466633"><ele>425.0</ele><time>2026-04-24T17:00:47.92Z</time></trkpt><trkpt lat="41.4365017" lon="0.7466517"><ele>424.0</ele><time>2026-04-24T17:00:48.92Z</time></trkpt><trkpt lat="41.436685" lon="0.746645"><ele>424.0</ele><time>2026-04-24T17:00:49.921Z</time></trkpt><trkpt lat="41.4368617" lon="0.746645"><ele>424.0</ele><time>2026-04-24T17:00:50.92Z</time></trkpt><trkpt lat="41.4370283" lon="0.7466417"><ele>424.0</ele><time>2026-04-24T17:00:51.92Z</time></trkpt><trkpt lat="41.4371767" lon="0.7466233"><ele>422.5</ele><time>2026-04-24T17:00:52.92Z</time></trkpt><trkpt lat="41.4373117" lon="0.746575"><ele>421.0</ele><time>2026-04-24T17:00:53.92Z</time></trkpt><trkpt lat="41.4374367" lon="0.7464917"><ele>419.5</ele><time>2026-04-24T17:00:54.921Z</time></trkpt><trkpt lat="41.4375533" lon="0.7463767"><ele>418.0</ele><time>2026-04-24T17:00:55.921Z</time></trkpt><trkpt lat="41.4376667" lon="0.7462717"><ele>418.0</ele><time>2026-04-24T17:00:56.92Z</time></trkpt><trkpt lat="41.4377767" lon="0.7462"><ele>418.0</ele><time>2026-04-24T17:00:57.921Z</time></trkpt><trkpt lat="41.4378967" lon="0.7461817"><ele>418.0</ele><time>2026-04-24T17:00:58.92Z</time></trkpt><trkpt lat="41.43802" lon="0.74622"><ele>418.0</ele><time>2026-04-24T17:00:59.921Z</time></trkpt><trkpt lat="41.4381483" lon="0.7462733"><ele>416.33333333333337</ele><time>2026-04-24T17:01:00.92Z</time></trkpt><trkpt lat="41.438295" lon="0.7462983"><ele>414.66666666666663</ele><time>2026-04-24T17:01:01.92Z</time></trkpt><trkpt lat="41.4384533" lon="0.74629"><ele>413.0</ele><time>2026-04-24T17:01:02.92Z</time></trkpt><trkpt lat="41.4386183" lon="0.746275"><ele>413.0</ele><time>2026-04-24T17:01:03.92Z</time></trkpt><trkpt lat="41.4387867" lon="0.7462583"><ele>413.0</ele><time>2026-04-24T17:01:04.92Z</time></trkpt><trkpt lat="41.4389567" lon="0.7462433"><ele>413.0</ele><time>2026-04-24T17:01:05.92Z</time></trkpt><trkpt lat="41.439115" lon="0.746255"><ele>413.66666666666663</ele><time>2026-04-24T17:01:06.92Z</time></trkpt><trkpt lat="41.43927" lon="0.7463033"><ele>414.33333333333337</ele><time>2026-04-24T17:01:07.92Z</time></trkpt><trkpt lat="41.4394117" lon="0.7463767"><ele>415.0</ele><time>2026-04-24T17:01:08.92Z</time></trkpt><trkpt lat="41.4395533" lon="0.74645"><ele>415.6666666666667</ele><time>2026-04-24T17:01:09.921Z</time></trkpt><trkpt lat="41.4396983" lon="0.7465033"><ele>416.33333333333337</ele><time>2026-04-24T17:01:10.921Z</time></trkpt><trkpt lat="41.439855" lon="0.74653"><ele>417.0</ele><time>2026-04-24T17:01:11.921Z</time></trkpt><trkpt lat="41.4400167" lon="0.7465517"><ele>417.0</ele><time>2026-04-24T17:01:12.92Z</time></trkpt><trkpt lat="41.4401833" lon="0.74657"><ele>417.0</ele><time>2026-04-24T17:01:13.921Z</time></trkpt><trkpt lat="41.4403467" lon="0.7465883"><ele>417.0</ele><time>2026-04-24T17:01:14.921Z</time></trkpt><trkpt lat="41.4405033" lon="0.7466117"><ele>416.25</ele><time>2026-04-24T17:01:15.92Z</time></trkpt><trkpt lat="41.440655" lon="0.7466667"><ele>415.5</ele><time>2026-04-24T17:01:16.92Z</time></trkpt><trkpt lat="41.4407817" lon="0.746725"><ele>414.75</ele><time>2026-04-24T17:01:17.92Z</time></trkpt><trkpt lat="41.4408983" lon="0.746775"><ele>414.0</ele><time>2026-04-24T17:01:18.921Z</time></trkpt><trkpt lat="41.4410117" lon="0.74679"><ele>414.0</ele><time>2026-04-24T17:01:19.92Z</time></trkpt><trkpt lat="41.441115" lon="0.746755"><ele>414.0</ele><time>2026-04-24T17:01:20.92Z</time></trkpt><trkpt lat="41.4412233" lon="0.7466717"><ele>414.0</ele><time>2026-04-24T17:01:21.92Z</time></trkpt><trkpt lat="41.4413067" lon="0.74656"><ele>414.0</ele><time>2026-04-24T17:01:22.921Z</time></trkpt><trkpt lat="41.4413867" lon="0.74642"><ele>412.5</ele><time>2026-04-24T17:01:23.92Z</time></trkpt><trkpt lat="41.4414533" lon="0.7462533"><ele>411.0</ele><time>2026-04-24T17:01:24.92Z</time></trkpt><trkpt lat="41.441525" lon="0.7460817"><ele>409.5</ele><time>2026-04-24T17:01:25.92Z</time></trkpt><trkpt lat="41.4416083" lon="0.7459167"><ele>408.0</ele><time>2026-04-24T17:01:26.92Z</time></trkpt><trkpt lat="41.4417067" lon="0.7457633"><ele>408.0</ele><time>2026-04-24T17:01:27.921Z</time></trkpt><trkpt lat="41.4418167" lon="0.7456183"><ele>408.0</ele><time>2026-04-24T17:01:28.921Z</time></trkpt><trkpt lat="41.44194" lon="0.74548"><ele>408.0</ele><time>2026-04-24T17:01:29.92Z</time></trkpt><trkpt lat="41.44206" lon="0.7453583"><ele>407.0</ele><time>2026-04-24T17:01:30.92Z</time></trkpt><trkpt lat="41.4421867" lon="0.7452467"><ele>406.0</ele><time>2026-04-24T17:01:31.92Z</time></trkpt><trkpt lat="41.4423267" lon="0.7451683"><ele>405.0</ele><time>2026-04-24T17:01:32.921Z</time></trkpt><trkpt lat="41.4424617" lon="0.74509"><ele>405.0</ele><time>2026-04-24T17:01:33.92Z</time></trkpt><trkpt lat="41.4425917" lon="0.744965"><ele>405.0</ele><time>2026-04-24T17:01:34.92Z</time></trkpt><trkpt lat="41.4427133" lon="0.7448267"><ele>405.0</ele><time>2026-04-24T17:01:35.921Z</time></trkpt><trkpt lat="41.4428517" lon="0.744695"><ele>402.33333333333337</ele><time>2026-04-24T17:01:36.92Z</time></trkpt><trkpt lat="41.443" lon="0.7445767"><ele>399.6666666666667</ele><time>2026-04-24T17:01:37.921Z</time></trkpt><trkpt lat="41.4431533" lon="0.74447"><ele>397.0</ele><time>2026-04-24T17:01:38.921Z</time></trkpt><trkpt lat="41.443315" lon="0.7443667"><ele>397.0</ele><time>2026-04-24T17:01:39.921Z</time></trkpt><trkpt lat="41.4434767" lon="0.7442667"><ele>397.0</ele><time>2026-04-24T17:01:40.921Z</time></trkpt><trkpt lat="41.4436417" lon="0.74417"><ele>397.0</ele><time>2026-04-24T17:01:41.921Z</time></trkpt><trkpt lat="41.44381" lon="0.7440717"><ele>397.0</ele><time>2026-04-24T17:01:42.92Z</time></trkpt><trkpt lat="41.4439717" lon="0.7439817"><ele>397.0</ele><time>2026-04-24T17:01:43.92Z</time></trkpt><trkpt lat="41.444135" lon="0.743885"><ele>397.0</ele><time>2026-04-24T17:01:44.921Z</time></trkpt><trkpt lat="41.4442933" lon="0.743785"><ele>397.0</ele><time>2026-04-24T17:01:45.92Z</time></trkpt><trkpt lat="41.4444517" lon="0.7436917"><ele>397.0</ele><time>2026-04-24T17:01:46.92Z</time></trkpt><trkpt lat="41.4446167" lon="0.7435983"><ele>397.0</ele><time>2026-04-24T17:01:47.92Z</time></trkpt><trkpt lat="41.4447733" lon="0.7435117"><ele>396.33333333333337</ele><time>2026-04-24T17:01:48.921Z</time></trkpt><trkpt lat="41.4449367" lon="0.7434267"><ele>395.66666666666663</ele><time>2026-04-24T17:01:49.92Z</time></trkpt><trkpt lat="41.4450833" lon="0.7433317"><ele>395.0</ele><time>2026-04-24T17:01:50.92Z</time></trkpt><trkpt lat="41.4452233" lon="0.7432383"><ele>395.0</ele><time>2026-04-24T17:01:51.921Z</time></trkpt><trkpt lat="41.445345" lon="0.7431367"><ele>395.0</ele><time>2026-04-24T17:01:52.92Z</time></trkpt><trkpt lat="41.4454533" lon="0.7430183"><ele>395.0</ele><time>2026-04-24T17:01:53.92Z</time></trkpt><trkpt lat="41.44556" lon="0.7428983"><ele>395.0</ele><time>2026-04-24T17:01:54.921Z</time></trkpt><trkpt lat="41.4456667" lon="0.7427967"><ele>395.25</ele><time>2026-04-24T17:01:55.92Z</time></trkpt><trkpt lat="41.4457883" lon="0.7427317"><ele>395.5</ele><time>2026-04-24T17:01:56.92Z</time></trkpt><trkpt lat="41.44591" lon="0.742665"><ele>395.75</ele><time>2026-04-24T17:01:57.92Z</time></trkpt><trkpt lat="41.4460383" lon="0.7426017"><ele>396.0</ele><time>2026-04-24T17:01:58.921Z</time></trkpt><trkpt lat="41.4461617" lon="0.74251"><ele>396.0</ele><time>2026-04-24T17:01:59.921Z</time></trkpt><trkpt lat="41.4462767" lon="0.7424"><ele>396.0</ele><time>2026-04-24T17:02:00.92Z</time></trkpt><trkpt lat="41.4463933" lon="0.742315"><ele>396.0</ele><time>2026-04-24T17:02:01.92Z</time></trkpt><trkpt lat="41.4465117" lon="0.742255"><ele>396.0</ele><time>2026-04-24T17:02:02.921Z</time></trkpt><trkpt lat="41.4466117" lon="0.7422017"><ele>394.0</ele><time>2026-04-24T17:02:03.921Z</time></trkpt><trkpt lat="41.4466833" lon="0.7421117"><ele>392.0</ele><time>2026-04-24T17:02:04.921Z</time></trkpt><trkpt lat="41.4467367" lon="0.7419717"><ele>390.0</ele><time>2026-04-24T17:02:05.921Z</time></trkpt><trkpt lat="41.4467633" lon="0.741815"><ele>388.0</ele><time>2026-04-24T17:02:06.92Z</time></trkpt><trkpt lat="41.44679" lon="0.7416567"><ele>388.0</ele><time>2026-04-24T17:02:07.921Z</time></trkpt><trkpt lat="41.4468133" lon="0.741495"><ele>388.0</ele><time>2026-04-24T17:02:08.921Z</time></trkpt><trkpt lat="41.44683" lon="0.7413367"><ele>388.0</ele><time>2026-04-24T17:02:09.92Z</time></trkpt><trkpt lat="41.4468433" lon="0.7411867"><ele>388.0</ele><time>2026-04-24T17:02:10.921Z</time></trkpt><trkpt lat="41.4468483" lon="0.7410583"><ele>387.50000000000006</ele><time>2026-04-24T17:02:11.92Z</time></trkpt><trkpt lat="41.44685" lon="0.7409283"><ele>387.0</ele><time>2026-04-24T17:02:12.92Z</time></trkpt><trkpt lat="41.4468517" lon="0.740815"><ele>386.5</ele><time>2026-04-24T17:02:13.921Z</time></trkpt><trkpt lat="41.4468667" lon="0.74072"><ele>386.0</ele><time>2026-04-24T17:02:14.921Z</time></trkpt><trkpt lat="41.446885" lon="0.740635"><ele>385.50000000000006</ele><time>2026-04-24T17:02:15.92Z</time></trkpt><trkpt lat="41.4469233" lon="0.7405433"><ele>385.0</ele><time>2026-04-24T17:02:16.921Z</time></trkpt><trkpt lat="41.4469617" lon="0.7404517"><ele>385.00000000000006</ele><time>2026-04-24T17:02:17.921Z</time></trkpt><trkpt lat="41.4470017" lon="0.7403533"><ele>385.0</ele><time>2026-04-24T17:02:18.92Z</time></trkpt><trkpt lat="41.4470417" lon="0.7402633"><ele>385.0</ele><time>2026-04-24T17:02:19.92Z</time></trkpt><trkpt lat="41.4470883" lon="0.7401717"><ele>385.0</ele><time>2026-04-24T17:02:20.921Z</time></trkpt><trkpt lat="41.4471383" lon="0.7400717"><ele>385.00000000000006</ele><time>2026-04-24T17:02:21.92Z</time></trkpt><trkpt lat="41.4471817" lon="0.7399783"><ele>385.0</ele><time>2026-04-24T17:02:22.92Z</time></trkpt><trkpt lat="41.44722" lon="0.7398883"><ele>383.42857142857144</ele><time>2026-04-24T17:02:23.92Z</time></trkpt><trkpt lat="41.447265" lon="0.739805"><ele>381.8571428571429</ele><time>2026-04-24T17:02:24.92Z</time></trkpt><trkpt lat="41.4473117" lon="0.7397217"><ele>380.2857142857143</ele><time>2026-04-24T17:02:25.921Z</time></trkpt><trkpt lat="41.44736" lon="0.739645"><ele>378.7142857142857</ele><time>2026-04-24T17:02:26.92Z</time></trkpt><trkpt lat="41.4474133" lon="0.7395883"><ele>377.14285714285717</ele><time>2026-04-24T17:02:27.921Z</time></trkpt><trkpt lat="41.4474717" lon="0.7395417"><ele>375.57142857142856</ele><time>2026-04-24T17:02:28.92Z</time></trkpt><trkpt lat="41.4475333" lon="0.7394883"><ele>374.0</ele><time>2026-04-24T17:02:29.921Z</time></trkpt><trkpt lat="41.44759" lon="0.7394183"><ele>373.83333333333337</ele><time>2026-04-24T17:02:30.92Z</time></trkpt><trkpt lat="41.447635" lon="0.73934"><ele>373.6666666666667</ele><time>2026-04-24T17:02:31.921Z</time></trkpt><trkpt lat="41.4476767" lon="0.7392633"><ele>373.5</ele><time>2026-04-24T17:02:32.921Z</time></trkpt><trkpt lat="41.44771" lon="0.739185"><ele>373.3333333333333</ele><time>2026-04-24T17:02:33.92Z</time></trkpt><trkpt lat="41.4477433" lon="0.7391083"><ele>373.16666666666663</ele><time>2026-04-24T17:02:34.921Z</time></trkpt><trkpt lat="41.447805" lon="0.7389733"><ele>373.0</ele><time>2026-04-24T17:02:36.92Z</time></trkpt><trkpt lat="41.447855" lon="0.738895"><ele>373.0</ele><time>2026-04-24T17:02:38.921Z</time></trkpt><trkpt lat="41.4479333" lon="0.7388367"><ele>373.0</ele><time>2026-04-24T17:02:41.92Z</time></trkpt><trkpt lat="41.4480133" lon="0.73883"><ele>373.0</ele><time>2026-04-24T17:02:44.921Z</time></trkpt><trkpt lat="41.4480883" lon="0.7388817"><ele>373.0</ele><time>2026-04-24T17:02:47.921Z</time></trkpt><trkpt lat="41.44813" lon="0.7389483"><ele>373.0</ele><time>2026-04-24T17:02:48.92Z</time></trkpt><trkpt lat="41.4481783" lon="0.7390317"><ele>373.0</ele><time>2026-04-24T17:02:49.921Z</time></trkpt><trkpt lat="41.4482183" lon="0.7391283"><ele>372.66666666666663</ele><time>2026-04-24T17:02:50.921Z</time></trkpt><trkpt lat="41.4482467" lon="0.7392267"><ele>372.3333333333333</ele><time>2026-04-24T17:02:51.921Z</time></trkpt><trkpt lat="41.448265" lon="0.7393267"><ele>372.0</ele><time>2026-04-24T17:02:52.92Z</time></trkpt><trkpt lat="41.448265" lon="0.7394383"><ele>371.6666666666667</ele><time>2026-04-24T17:02:53.921Z</time></trkpt><trkpt lat="41.4482533" lon="0.7395633"><ele>371.33333333333337</ele><time>2026-04-24T17:02:54.92Z</time></trkpt><trkpt lat="41.44824" lon="0.7396983"><ele>371.0</ele><time>2026-04-24T17:02:55.92Z</time></trkpt><trkpt lat="41.448225" lon="0.7398333"><ele>370.0</ele><time>2026-04-24T17:02:56.921Z</time></trkpt><trkpt lat="41.4482067" lon="0.7399733"><ele>369.0</ele><time>2026-04-24T17:02:57.921Z</time></trkpt><trkpt lat="41.4481883" lon="0.74012"><ele>368.0</ele><time>2026-04-24T17:02:58.92Z</time></trkpt><trkpt lat="41.448175" lon="0.7402683"><ele>367.0</ele><time>2026-04-24T17:02:59.921Z</time></trkpt><trkpt lat="41.4481767" lon="0.7404183"><ele>366.0</ele><time>2026-04-24T17:03:00.921Z</time></trkpt><trkpt lat="41.4481883" lon="0.74057"><ele>365.25</ele><time>2026-04-24T17:03:01.921Z</time></trkpt><trkpt lat="41.4482283" lon="0.7407217"><ele>364.5</ele><time>2026-04-24T17:03:02.92Z</time></trkpt><trkpt lat="41.44829" lon="0.7408583"><ele>363.75</ele><time>2026-04-24T17:03:03.92Z</time></trkpt><trkpt lat="41.448365" lon="0.7410133"><ele>363.0</ele><time>2026-04-24T17:03:04.92Z</time></trkpt><trkpt lat="41.448415" lon="0.741195"><ele>361.6666666666667</ele><time>2026-04-24T17:03:05.92Z</time></trkpt><trkpt lat="41.448445" lon="0.7413933"><ele>360.33333333333337</ele><time>2026-04-24T17:03:06.92Z</time></trkpt><trkpt lat="41.44846" lon="0.7415967"><ele>359.0</ele><time>2026-04-24T17:03:07.92Z</time></trkpt><trkpt lat="41.4484783" lon="0.7418067"><ele>359.33333333333337</ele><time>2026-04-24T17:03:08.921Z</time></trkpt><trkpt lat="41.4484933" lon="0.74202"><ele>359.6666666666667</ele><time>2026-04-24T17:03:09.921Z</time></trkpt><trkpt lat="41.448525" lon="0.74224"><ele>360.0</ele><time>2026-04-24T17:03:10.92Z</time></trkpt><trkpt lat="41.4485683" lon="0.74245"><ele>360.0</ele><time>2026-04-24T17:03:11.92Z</time></trkpt><trkpt lat="41.4486067" lon="0.7426667"><ele>360.0</ele><time>2026-04-24T17:03:12.92Z</time></trkpt><trkpt lat="41.448625" lon="0.7428883"><ele>360.0</ele><time>2026-04-24T17:03:13.921Z</time></trkpt><trkpt lat="41.4486117" lon="0.743115"><ele>358.6666666666667</ele><time>2026-04-24T17:03:14.92Z</time></trkpt><trkpt lat="41.4485667" lon="0.74335"><ele>357.33333333333337</ele><time>2026-04-24T17:03:15.92Z</time></trkpt><trkpt lat="41.44852" lon="0.7435867"><ele>356.0</ele><time>2026-04-24T17:03:16.92Z</time></trkpt><trkpt lat="41.4484833" lon="0.74384"><ele>354.33333333333337</ele><time>2026-04-24T17:03:17.921Z</time></trkpt><trkpt lat="41.4484517" lon="0.7441"><ele>352.6666666666667</ele><time>2026-04-24T17:03:18.92Z</time></trkpt><trkpt lat="41.4484317" lon="0.7443633"><ele>351.0</ele><time>2026-04-24T17:03:19.921Z</time></trkpt><trkpt lat="41.4484217" lon="0.744625"><ele>350.0</ele><time>2026-04-24T17:03:20.92Z</time></trkpt><trkpt lat="41.4484117" lon="0.744875"><ele>349.0</ele><time>2026-04-24T17:03:21.92Z</time></trkpt><trkpt lat="41.4483983" lon="0.7451167"><ele>348.0</ele><time>2026-04-24T17:03:22.92Z</time></trkpt><trkpt lat="41.4483933" lon="0.74534"><ele>346.0</ele><time>2026-04-24T17:03:23.92Z</time></trkpt><trkpt lat="41.4484083" lon="0.7455617"><ele>344.0</ele><time>2026-04-24T17:03:24.921Z</time></trkpt><trkpt lat="41.4484483" lon="0.7457683"><ele>342.0</ele><time>2026-04-24T17:03:25.92Z</time></trkpt><trkpt lat="41.4485167" lon="0.745965"><ele>340.6666666666667</ele><time>2026-04-24T17:03:26.92Z</time></trkpt><trkpt lat="41.4486067" lon="0.74616"><ele>339.33333333333337</ele><time>2026-04-24T17:03:27.921Z</time></trkpt><trkpt lat="41.4487217" lon="0.7463233"><ele>338.0</ele><time>2026-04-24T17:03:28.921Z</time></trkpt><trkpt lat="41.44886" lon="0.74645"><ele>338.0</ele><time>2026-04-24T17:03:29.92Z</time></trkpt><trkpt lat="41.44902" lon="0.74654"><ele>338.0</ele><time>2026-04-24T17:03:30.92Z</time></trkpt><trkpt lat="41.4491933" lon="0.7465917"><ele>338.0</ele><time>2026-04-24T17:03:31.921Z</time></trkpt><trkpt lat="41.449375" lon="0.7465933"><ele>338.0</ele><time>2026-04-24T17:03:32.92Z</time></trkpt><trkpt lat="41.449555" lon="0.74653"><ele>338.0</ele><time>2026-04-24T17:03:33.921Z</time></trkpt><trkpt lat="41.4497183" lon="0.7464233"><ele>338.0</ele><time>2026-04-24T17:03:34.92Z</time></trkpt><trkpt lat="41.4498667" lon="0.7462767"><ele>337.33333333333337</ele><time>2026-04-24T17:03:35.92Z</time></trkpt><trkpt lat="41.4499883" lon="0.74609"><ele>336.6666666666667</ele><time>2026-04-24T17:03:36.921Z</time></trkpt><trkpt lat="41.45008" lon="0.745865"><ele>336.0</ele><time>2026-04-24T17:03:37.92Z</time></trkpt><trkpt lat="41.4501317" lon="0.7456233"><ele>336.0</ele><time>2026-04-24T17:03:38.921Z</time></trkpt><trkpt lat="41.450145" lon="0.7453733"><ele>336.0</ele><time>2026-04-24T17:03:39.921Z</time></trkpt><trkpt lat="41.450125" lon="0.7451233"><ele>336.0</ele><time>2026-04-24T17:03:40.921Z</time></trkpt><trkpt lat="41.45008" lon="0.7448783"><ele>336.0</ele><time>2026-04-24T17:03:41.92Z</time></trkpt><trkpt lat="41.4500583" lon="0.74464"><ele>336.0</ele><time>2026-04-24T17:03:42.921Z</time></trkpt><trkpt lat="41.450085" lon="0.7444133"><ele>336.0</ele><time>2026-04-24T17:03:43.92Z</time></trkpt><trkpt lat="41.450155" lon="0.7441883"><ele>335.6666666666667</ele><time>2026-04-24T17:03:44.92Z</time></trkpt><trkpt lat="41.4502567" lon="0.7439717"><ele>335.33333333333337</ele><time>2026-04-24T17:03:45.92Z</time></trkpt><trkpt lat="41.450365" lon="0.7437567"><ele>335.0</ele><time>2026-04-24T17:03:46.92Z</time></trkpt><trkpt lat="41.450475" lon="0.7435567"><ele>331.33333333333337</ele><time>2026-04-24T17:03:47.92Z</time></trkpt><trkpt lat="41.4505817" lon="0.7433783"><ele>327.6666666666667</ele><time>2026-04-24T17:03:48.92Z</time></trkpt><trkpt lat="41.4506917" lon="0.7432233"><ele>324.0</ele><time>2026-04-24T17:03:49.921Z</time></trkpt><trkpt lat="41.4508233" lon="0.7431167"><ele>324.0</ele><time>2026-04-24T17:03:50.921Z</time></trkpt><trkpt lat="41.4509817" lon="0.74305"><ele>324.0</ele><time>2026-04-24T17:03:51.92Z</time></trkpt><trkpt lat="41.4511517" lon="0.74304"><ele>324.0</ele><time>2026-04-24T17:03:52.92Z</time></trkpt><trkpt lat="41.4513117" lon="0.7430933"><ele>321.6666666666667</ele><time>2026-04-24T17:03:53.921Z</time></trkpt><trkpt lat="41.4514517" lon="0.743205"><ele>319.33333333333337</ele><time>2026-04-24T17:03:54.92Z</time></trkpt><trkpt lat="41.4515717" lon="0.743365"><ele>317.0</ele><time>2026-04-24T17:03:55.92Z</time></trkpt><trkpt lat="41.4516633" lon="0.743555"><ele>317.0</ele><time>2026-04-24T17:03:56.92Z</time></trkpt><trkpt lat="41.4517167" lon="0.7437733"><ele>317.0</ele><time>2026-04-24T17:03:57.921Z</time></trkpt><trkpt lat="41.4517117" lon="0.7440017"><ele>317.0</ele><time>2026-04-24T17:03:58.92Z</time></trkpt><trkpt lat="41.4516617" lon="0.7442133"><ele>314.0</ele><time>2026-04-24T17:03:59.921Z</time></trkpt><trkpt lat="41.4515917" lon="0.744415"><ele>311.0</ele><time>2026-04-24T17:04:00.921Z</time></trkpt><trkpt lat="41.4515017" lon="0.744605"><ele>308.0</ele><time>2026-04-24T17:04:01.92Z</time></trkpt><trkpt lat="41.4514033" lon="0.7447867"><ele>308.0</ele><time>2026-04-24T17:04:02.92Z</time></trkpt><trkpt lat="41.4513083" lon="0.7449717"><ele>308.0</ele><time>2026-04-24T17:04:03.921Z</time></trkpt><trkpt lat="41.4512233" lon="0.745155"><ele>308.0</ele><time>2026-04-24T17:04:04.921Z</time></trkpt><trkpt lat="41.4511417" lon="0.7453333"><ele>310.33333333333337</ele><time>2026-04-24T17:04:05.92Z</time></trkpt><trkpt lat="41.4510767" lon="0.74552"><ele>312.6666666666667</ele><time>2026-04-24T17:04:06.921Z</time></trkpt><trkpt lat="41.451045" lon="0.7457167"><ele>315.0</ele><time>2026-04-24T17:04:07.921Z</time></trkpt><trkpt lat="41.4510483" lon="0.7459167"><ele>313.25</ele><time>2026-04-24T17:04:08.92Z</time></trkpt><trkpt lat="41.4510833" lon="0.7461033"><ele>311.5</ele><time>2026-04-24T17:04:09.921Z</time></trkpt><trkpt lat="41.4511533" lon="0.74627"><ele>309.75</ele><time>2026-04-24T17:04:10.921Z</time></trkpt><trkpt lat="41.45126" lon="0.74641"><ele>308.0</ele><time>2026-04-24T17:04:11.92Z</time></trkpt><trkpt lat="41.4513967" lon="0.7465017"><ele>307.0</ele><time>2026-04-24T17:04:12.92Z</time></trkpt><trkpt lat="41.4515483" lon="0.7465483"><ele>306.0</ele><time>2026-04-24T17:04:13.92Z</time></trkpt><trkpt lat="41.45171" lon="0.746535"><ele>305.0</ele><time>2026-04-24T17:04:14.92Z</time></trkpt><trkpt lat="41.4518633" lon="0.7464683"><ele>305.0</ele><time>2026-04-24T17:04:15.92Z</time></trkpt><trkpt lat="41.45201" lon="0.7463483"><ele>305.0</ele><time>2026-04-24T17:04:16.92Z</time></trkpt><trkpt lat="41.4521417" lon="0.746195"><ele>305.0</ele><time>2026-04-24T17:04:17.92Z</time></trkpt><trkpt lat="41.45226" lon="0.7459917"><ele>309.0</ele><time>2026-04-24T17:04:18.92Z</time></trkpt><trkpt lat="41.4523533" lon="0.74576"><ele>313.0</ele><time>2026-04-24T17:04:19.92Z</time></trkpt><trkpt lat="41.452435" lon="0.7454933"><ele>317.0</ele><time>2026-04-24T17:04:20.92Z</time></trkpt><trkpt lat="41.4525083" lon="0.7452183"><ele>315.0</ele><time>2026-04-24T17:04:21.921Z</time></trkpt><trkpt lat="41.4525767" lon="0.7449533"><ele>313.0</ele><time>2026-04-24T17:04:22.921Z</time></trkpt><trkpt lat="41.4526483" lon="0.7446817"><ele>311.0</ele><time>2026-04-24T17:04:23.92Z</time></trkpt><trkpt lat="41.45272" lon="0.7444133"><ele>310.33333333333337</ele><time>2026-04-24T17:04:24.921Z</time></trkpt><trkpt lat="41.4527917" lon="0.7441483"><ele>309.6666666666667</ele><time>2026-04-24T17:04:25.921Z</time></trkpt><trkpt lat="41.4528567" lon="0.7438883"><ele>309.0</ele><time>2026-04-24T17:04:26.921Z</time></trkpt><trkpt lat="41.4529167" lon="0.7436433"><ele>312.3333333333333</ele><time>2026-04-24T17:04:27.921Z</time></trkpt><trkpt lat="41.45298" lon="0.7434183"><ele>315.66666666666663</ele><time>2026-04-24T17:04:28.92Z</time></trkpt><trkpt lat="41.4530433" lon="0.7432033"><ele>319.0</ele><time>2026-04-24T17:04:29.92Z</time></trkpt><trkpt lat="41.453135" lon="0.7430217"><ele>319.0</ele><time>2026-04-24T17:04:30.92Z</time></trkpt><trkpt lat="41.4532617" lon="0.7428833"><ele>319.0</ele><time>2026-04-24T17:04:31.92Z</time></trkpt><trkpt lat="41.4534067" lon="0.742795"><ele>319.0</ele><time>2026-04-24T17:04:32.92Z</time></trkpt><trkpt lat="41.453565" lon="0.742735"><ele>320.3333333333333</ele><time>2026-04-24T17:04:33.92Z</time></trkpt><trkpt lat="41.45372" lon="0.7426717"><ele>321.6666666666667</ele><time>2026-04-24T17:04:34.92Z</time></trkpt><trkpt lat="41.4538617" lon="0.7425617"><ele>323.0</ele><time>2026-04-24T17:04:35.921Z</time></trkpt><trkpt lat="41.4539783" lon="0.74242"><ele>323.0</ele><time>2026-04-24T17:04:36.921Z</time></trkpt><trkpt lat="41.45406" lon="0.742235"><ele>323.0</ele><time>2026-04-24T17:04:37.921Z</time></trkpt><trkpt lat="41.45411" lon="0.7420233"><ele>323.0</ele><time>2026-04-24T17:04:38.92Z</time></trkpt><trkpt lat="41.4541417" lon="0.7417967"><ele>322.0</ele><time>2026-04-24T17:04:39.921Z</time></trkpt><trkpt lat="41.454175" lon="0.7415633"><ele>321.0</ele><time>2026-04-24T17:04:40.92Z</time></trkpt><trkpt lat="41.4542067" lon="0.7413333"><ele>320.0</ele><time>2026-04-24T17:04:41.921Z</time></trkpt><trkpt lat="41.454245" lon="0.741115"><ele>319.5</ele><time>2026-04-24T17:04:42.92Z</time></trkpt><trkpt lat="41.45429" lon="0.7409217"><ele>319.0</ele><time>2026-04-24T17:04:43.921Z</time></trkpt><trkpt lat="41.4543617" lon="0.74075"><ele>318.5</ele><time>2026-04-24T17:04:44.92Z</time></trkpt><trkpt lat="41.4544683" lon="0.7406283"><ele>318.0</ele><time>2026-04-24T17:04:45.921Z</time></trkpt><trkpt lat="41.454605" lon="0.7405617"><ele>320.0</ele><time>2026-04-24T17:04:46.92Z</time></trkpt><trkpt lat="41.454755" lon="0.7405417"><ele>322.0</ele><time>2026-04-24T17:04:47.921Z</time></trkpt><trkpt lat="41.454895" lon="0.7405783"><ele>324.0</ele><time>2026-04-24T17:04:48.92Z</time></trkpt><trkpt lat="41.4550267" lon="0.7406767"><ele>326.0</ele><time>2026-04-24T17:04:49.92Z</time></trkpt><trkpt lat="41.4551417" lon="0.7408217"><ele>326.0</ele><time>2026-04-24T17:04:50.92Z</time></trkpt><trkpt lat="41.4552667" lon="0.740985"><ele>326.0</ele><time>2026-04-24T17:04:51.92Z</time></trkpt><trkpt lat="41.4553967" lon="0.7411583"><ele>326.0</ele><time>2026-04-24T17:04:52.92Z</time></trkpt><trkpt lat="41.455535" lon="0.7413333"><ele>328.0</ele><time>2026-04-24T17:04:53.92Z</time></trkpt><trkpt lat="41.455665" lon="0.7415083"><ele>330.0</ele><time>2026-04-24T17:04:54.921Z</time></trkpt><trkpt lat="41.4558067" lon="0.74169"><ele>332.0</ele><time>2026-04-24T17:04:55.92Z</time></trkpt><trkpt lat="41.4559483" lon="0.7418733"><ele>331.6666666666667</ele><time>2026-04-24T17:04:56.921Z</time></trkpt><trkpt lat="41.456095" lon="0.7420683"><ele>331.3333333333333</ele><time>2026-04-24T17:04:57.921Z</time></trkpt><trkpt lat="41.45624" lon="0.7422667"><ele>331.0</ele><time>2026-04-24T17:04:58.92Z</time></trkpt><trkpt lat="41.4563883" lon="0.7424767"><ele>331.0</ele><time>2026-04-24T17:04:59.921Z</time></trkpt><trkpt lat="41.4565417" lon="0.7427033"><ele>331.0</ele><time>2026-04-24T17:05:00.92Z</time></trkpt><trkpt lat="41.4566883" lon="0.7429267"><ele>333.5</ele><time>2026-04-24T17:05:01.921Z</time></trkpt><trkpt lat="41.4568367" lon="0.74315"><ele>336.0</ele><time>2026-04-24T17:05:02.92Z</time></trkpt><trkpt lat="41.4569917" lon="0.7433717"><ele>339.0</ele><time>2026-04-24T17:05:03.92Z</time></trkpt><trkpt lat="41.4571533" lon="0.7435933"><ele>342.0</ele><time>2026-04-24T17:05:04.92Z</time></trkpt><trkpt lat="41.4573167" lon="0.7438167"><ele>342.0</ele><time>2026-04-24T17:05:05.92Z</time></trkpt><trkpt lat="41.4574867" lon="0.7440417"><ele>342.0</ele><time>2026-04-24T17:05:06.92Z</time></trkpt><trkpt lat="41.4576567" lon="0.7442733"><ele>345.0</ele><time>2026-04-24T17:05:07.921Z</time></trkpt><trkpt lat="41.4578317" lon="0.7445017"><ele>348.0</ele><time>2026-04-24T17:05:08.92Z</time></trkpt><trkpt lat="41.4580017" lon="0.74472"><ele>348.0</ele><time>2026-04-24T17:05:09.921Z</time></trkpt><trkpt lat="41.45817" lon="0.7449383"><ele>348.0</ele><time>2026-04-24T17:05:10.92Z</time></trkpt><trkpt lat="41.458345" lon="0.74515"><ele>352.5</ele><time>2026-04-24T17:05:11.921Z</time></trkpt><trkpt lat="41.4585233" lon="0.7453483"><ele>357.0</ele><time>2026-04-24T17:05:12.921Z</time></trkpt><trkpt lat="41.4587033" lon="0.7455333"><ele>354.6666666666667</ele><time>2026-04-24T17:05:13.92Z</time></trkpt><trkpt lat="41.4588817" lon="0.74569"><ele>352.33333333333337</ele><time>2026-04-24T17:05:14.921Z</time></trkpt><trkpt lat="41.4590733" lon="0.7458217"><ele>350.0</ele><time>2026-04-24T17:05:15.92Z</time></trkpt><trkpt lat="41.45928" lon="0.7459217"><ele>350.0</ele><time>2026-04-24T17:05:16.92Z</time></trkpt><trkpt lat="41.4594867" lon="0.74599"><ele>350.0</ele><time>2026-04-24T17:05:17.92Z</time></trkpt><trkpt lat="41.4596967" lon="0.7460267"><ele>350.0</ele><time>2026-04-24T17:05:18.92Z</time></trkpt><trkpt lat="41.4599067" lon="0.7460183"><ele>351.33333333333337</ele><time>2026-04-24T17:05:19.92Z</time></trkpt><trkpt lat="41.460115" lon="0.74597"><ele>352.6666666666667</ele><time>2026-04-24T17:05:20.92Z</time></trkpt><trkpt lat="41.460325" lon="0.74589"><ele>354.0</ele><time>2026-04-24T17:05:21.92Z</time></trkpt><trkpt lat="41.4605217" lon="0.7457767"><ele>358.3333333333333</ele><time>2026-04-24T17:05:22.921Z</time></trkpt><trkpt lat="41.46071" lon="0.7456333"><ele>362.66666666666663</ele><time>2026-04-24T17:05:23.92Z</time></trkpt><trkpt lat="41.4608867" lon="0.7454683"><ele>367.0</ele><time>2026-04-24T17:05:24.92Z</time></trkpt><trkpt lat="41.46105" lon="0.7452817"><ele>365.66666666666663</ele><time>2026-04-24T17:05:25.92Z</time></trkpt><trkpt lat="41.4612117" lon="0.7450883"><ele>364.3333333333333</ele><time>2026-04-24T17:05:26.92Z</time></trkpt><trkpt lat="41.4613683" lon="0.7448917"><ele>363.0</ele><time>2026-04-24T17:05:27.921Z</time></trkpt><trkpt lat="41.4615317" lon="0.7447067"><ele>366.3333333333333</ele><time>2026-04-24T17:05:28.92Z</time></trkpt><trkpt lat="41.4617133" lon="0.7445467"><ele>369.66666666666663</ele><time>2026-04-24T17:05:29.92Z</time></trkpt><trkpt lat="41.4619183" lon="0.7444183"><ele>373.0</ele><time>2026-04-24T17:05:30.921Z</time></trkpt><trkpt lat="41.4621333" lon="0.7443167"><ele>373.0</ele><time>2026-04-24T17:05:31.92Z</time></trkpt><trkpt lat="41.4623533" lon="0.7442517"><ele>373.0</ele><time>2026-04-24T17:05:32.92Z</time></trkpt><trkpt lat="41.4625833" lon="0.7442267"><ele>373.0</ele><time>2026-04-24T17:05:33.92Z</time></trkpt><trkpt lat="41.4628117" lon="0.7442567"><ele>373.0</ele><time>2026-04-24T17:05:34.921Z</time></trkpt><trkpt lat="41.4630417" lon="0.7443183"><ele>379.0</ele><time>2026-04-24T17:05:35.92Z</time></trkpt><trkpt lat="41.4632617" lon="0.7444183"><ele>385.0</ele><time>2026-04-24T17:05:36.92Z</time></trkpt><trkpt lat="41.46348" lon="0.7445333"><ele>385.0</ele><time>2026-04-24T17:05:37.921Z</time></trkpt><trkpt lat="41.4636867" lon="0.74466"><ele>385.0</ele><time>2026-04-24T17:05:38.921Z</time></trkpt><trkpt lat="41.4638917" lon="0.744765"><ele>385.0</ele><time>2026-04-24T17:05:39.92Z</time></trkpt><trkpt lat="41.4641067" lon="0.7448533"><ele>388.5</ele><time>2026-04-24T17:05:40.921Z</time></trkpt><trkpt lat="41.46433" lon="0.7449133"><ele>392.0</ele><time>2026-04-24T17:05:41.92Z</time></trkpt><trkpt lat="41.4645583" lon="0.7449317"><ele>396.0</ele><time>2026-04-24T17:05:42.92Z</time></trkpt><trkpt lat="41.4647883" lon="0.744905"><ele>400.0</ele><time>2026-04-24T17:05:43.921Z</time></trkpt><trkpt lat="41.4650183" lon="0.7448417"><ele>400.0</ele><time>2026-04-24T17:05:44.92Z</time></trkpt><trkpt lat="41.465235" lon="0.7447383"><ele>400.0</ele><time>2026-04-24T17:05:45.921Z</time></trkpt><trkpt lat="41.465445" lon="0.7445983"><ele>400.5</ele><time>2026-04-24T17:05:46.92Z</time></trkpt><trkpt lat="41.4656417" lon="0.74441"><ele>401.0</ele><time>2026-04-24T17:05:47.92Z</time></trkpt><trkpt lat="41.4658167" lon="0.7441817"><ele>401.0</ele><time>2026-04-24T17:05:48.92Z</time></trkpt><trkpt lat="41.465965" lon="0.7439167"><ele>401.0</ele><time>2026-04-24T17:05:49.92Z</time></trkpt><trkpt lat="41.4660917" lon="0.7436283"><ele>401.5</ele><time>2026-04-24T17:05:50.92Z</time></trkpt><trkpt lat="41.4662033" lon="0.743325"><ele>402.0</ele><time>2026-04-24T17:05:51.92Z</time></trkpt><trkpt lat="41.46631" lon="0.7430183"><ele>402.0</ele><time>2026-04-24T17:05:52.921Z</time></trkpt><trkpt lat="41.46642" lon="0.742715"><ele>402.0</ele><time>2026-04-24T17:05:53.921Z</time></trkpt><trkpt lat="41.4665483" lon="0.7424333"><ele>402.0</ele><time>2026-04-24T17:05:54.92Z</time></trkpt><trkpt lat="41.4667017" lon="0.7421683"><ele>402.0</ele><time>2026-04-24T17:05:55.921Z</time></trkpt><trkpt lat="41.4668833" lon="0.7419433"><ele>401.5</ele><time>2026-04-24T17:05:56.92Z</time></trkpt><trkpt lat="41.467085" lon="0.741765"><ele>401.0</ele><time>2026-04-24T17:05:57.92Z</time></trkpt><trkpt lat="41.46731" lon="0.7416217"><ele>397.5</ele><time>2026-04-24T17:05:58.92Z</time></trkpt><trkpt lat="41.4675467" lon="0.7415233"><ele>394.0</ele><time>2026-04-24T17:05:59.921Z</time></trkpt><trkpt lat="41.4677983" lon="0.7414633"><ele>391.0</ele><time>2026-04-24T17:06:00.92Z</time></trkpt><trkpt lat="41.46805" lon="0.7414567"><ele>388.0</ele><time>2026-04-24T17:06:01.919Z</time></trkpt><trkpt lat="41.4683017" lon="0.7415133"><ele>388.0</ele><time>2026-04-24T17:06:02.921Z</time></trkpt><trkpt lat="41.4685467" lon="0.74161"><ele>388.0</ele><time>2026-04-24T17:06:03.921Z</time></trkpt><trkpt lat="41.4687817" lon="0.7417533"><ele>382.5</ele><time>2026-04-24T17:06:04.921Z</time></trkpt><trkpt lat="41.4690117" lon="0.74191"><ele>377.0</ele><time>2026-04-24T17:06:05.921Z</time></trkpt><trkpt lat="41.46924" lon="0.7420567"><ele>377.0</ele><time>2026-04-24T17:06:06.921Z</time></trkpt><trkpt lat="41.469475" lon="0.7421833"><ele>377.0</ele><time>2026-04-24T17:06:07.921Z</time></trkpt><trkpt lat="41.4697117" lon="0.74227"><ele>375.0</ele><time>2026-04-24T17:06:08.921Z</time></trkpt><trkpt lat="41.46995" lon="0.7423083"><ele>373.0</ele><time>2026-04-24T17:06:09.92Z</time></trkpt><trkpt lat="41.4701883" lon="0.742305"><ele>373.0</ele><time>2026-04-24T17:06:10.92Z</time></trkpt><trkpt lat="41.4704167" lon="0.7422583"><ele>373.0</ele><time>2026-04-24T17:06:11.92Z</time></trkpt><trkpt lat="41.47065" lon="0.742175"><ele>371.0</ele><time>2026-04-24T17:06:12.921Z</time></trkpt><trkpt lat="41.4708833" lon="0.74204"><ele>369.0</ele><time>2026-04-24T17:06:13.92Z</time></trkpt><trkpt lat="41.471115" lon="0.7418867"><ele>366.5</ele><time>2026-04-24T17:06:14.921Z</time></trkpt><trkpt lat="41.4713367" lon="0.741725"><ele>364.0</ele><time>2026-04-24T17:06:15.921Z</time></trkpt><trkpt lat="41.47156" lon="0.7415683"><ele>364.0</ele><time>2026-04-24T17:06:16.92Z</time></trkpt><trkpt lat="41.4717867" lon="0.741415"><ele>364.0</ele><time>2026-04-24T17:06:17.92Z</time></trkpt><trkpt lat="41.47201" lon="0.74126"><ele>363.5</ele><time>2026-04-24T17:06:18.92Z</time></trkpt><trkpt lat="41.47223" lon="0.7411033"><ele>363.0</ele><time>2026-04-24T17:06:19.921Z</time></trkpt><trkpt lat="41.4724517" lon="0.7409533"><ele>363.0</ele><time>2026-04-24T17:06:20.92Z</time></trkpt><trkpt lat="41.47267" lon="0.7407967"><ele>363.0</ele><time>2026-04-24T17:06:21.92Z</time></trkpt><trkpt lat="41.4728933" lon="0.740645"><ele>360.5</ele><time>2026-04-24T17:06:22.92Z</time></trkpt><trkpt lat="41.4731083" lon="0.7404917"><ele>358.0</ele><time>2026-04-24T17:06:23.92Z</time></trkpt><trkpt lat="41.4733233" lon="0.7403433"><ele>359.0</ele><time>2026-04-24T17:06:24.92Z</time></trkpt><trkpt lat="41.473525" lon="0.74018"><ele>360.0</ele><time>2026-04-24T17:06:25.92Z</time></trkpt><trkpt lat="41.4737233" lon="0.74001"><ele>356.5</ele><time>2026-04-24T17:06:26.921Z</time></trkpt><trkpt lat="41.4739033" lon="0.7398067"><ele>353.0</ele><time>2026-04-24T17:06:27.921Z</time></trkpt><trkpt lat="41.4740717" lon="0.7395583"><ele>354.5</ele><time>2026-04-24T17:06:28.92Z</time></trkpt><trkpt lat="41.4742467" lon="0.7392917"><ele>356.0</ele><time>2026-04-24T17:06:29.921Z</time></trkpt><trkpt lat="41.4744267" lon="0.739025"><ele>352.0</ele><time>2026-04-24T17:06:30.921Z</time></trkpt><trkpt lat="41.4746183" lon="0.7387783"><ele>348.0</ele><time>2026-04-24T17:06:31.921Z</time></trkpt><trkpt lat="41.4748267" lon="0.738565"><ele>350.0</ele><time>2026-04-24T17:06:32.92Z</time></trkpt><trkpt lat="41.4750533" lon="0.7383933"><ele>352.0</ele><time>2026-04-24T17:06:33.921Z</time></trkpt><trkpt lat="41.4752933" lon="0.7382483"><ele>347.5</ele><time>2026-04-24T17:06:34.92Z</time></trkpt><trkpt lat="41.4755333" lon="0.7381"><ele>343.0</ele><time>2026-04-24T17:06:35.92Z</time></trkpt><trkpt lat="41.47576" lon="0.737945"><ele>343.0</ele><time>2026-04-24T17:06:36.92Z</time></trkpt><trkpt lat="41.475985" lon="0.7377783"><ele>343.0</ele><time>2026-04-24T17:06:37.92Z</time></trkpt><trkpt lat="41.47621" lon="0.73761"><ele>343.5</ele><time>2026-04-24T17:06:38.92Z</time></trkpt><trkpt lat="41.47643" lon="0.73743"><ele>344.0</ele><time>2026-04-24T17:06:39.92Z</time></trkpt><trkpt lat="41.4766383" lon="0.7372317"><ele>344.0</ele><time>2026-04-24T17:06:40.921Z</time></trkpt><trkpt lat="41.47684" lon="0.7370133"><ele>344.0</ele><time>2026-04-24T17:06:41.92Z</time></trkpt><trkpt lat="41.4770283" lon="0.73678"><ele>340.0</ele><time>2026-04-24T17:06:42.92Z</time></trkpt><trkpt lat="41.4772083" lon="0.736535"><ele>336.0</ele><time>2026-04-24T17:06:43.921Z</time></trkpt><trkpt lat="41.4773817" lon="0.736285"><ele>338.5</ele><time>2026-04-24T17:06:44.92Z</time></trkpt><trkpt lat="41.477545" lon="0.7360233"><ele>341.0</ele><time>2026-04-24T17:06:45.92Z</time></trkpt><trkpt lat="41.477705" lon="0.7357583"><ele>341.0</ele><time>2026-04-24T17:06:46.92Z</time></trkpt><trkpt lat="41.4778683" lon="0.7355033"><ele>341.0</ele><time>2026-04-24T17:06:47.921Z</time></trkpt><trkpt lat="41.47804" lon="0.73527"><ele>341.0</ele><time>2026-04-24T17:06:48.921Z</time></trkpt><trkpt lat="41.47823" lon="0.735075"><ele>341.0</ele><time>2026-04-24T17:06:49.92Z</time></trkpt><trkpt lat="41.4784267" lon="0.7349167"><ele>341.0</ele><time>2026-04-24T17:06:50.92Z</time></trkpt><trkpt lat="41.47864" lon="0.734805"><ele>341.0</ele><time>2026-04-24T17:06:51.92Z</time></trkpt><trkpt lat="41.4788683" lon="0.7347317"><ele>335.5</ele><time>2026-04-24T17:06:52.921Z</time></trkpt><trkpt lat="41.4791" lon="0.7347033"><ele>330.0</ele><time>2026-04-24T17:06:53.921Z</time></trkpt><trkpt lat="41.479335" lon="0.7347183"><ele>330.0</ele><time>2026-04-24T17:06:54.92Z</time></trkpt><trkpt lat="41.4795717" lon="0.734775"><ele>330.0</ele><time>2026-04-24T17:06:55.921Z</time></trkpt><trkpt lat="41.4797983" lon="0.7348633"><ele>330.5</ele><time>2026-04-24T17:06:56.92Z</time></trkpt><trkpt lat="41.480015" lon="0.734995"><ele>331.0</ele><time>2026-04-24T17:06:57.92Z</time></trkpt><trkpt lat="41.4802233" lon="0.73516"><ele>331.5</ele><time>2026-04-24T17:06:58.92Z</time></trkpt><trkpt lat="41.4804117" lon="0.7353633"><ele>332.0</ele><time>2026-04-24T17:06:59.92Z</time></trkpt><trkpt lat="41.48057" lon="0.7356017"><ele>335.5</ele><time>2026-04-24T17:07:00.921Z</time></trkpt><trkpt lat="41.480705" lon="0.735865"><ele>339.0</ele><time>2026-04-24T17:07:01.921Z</time></trkpt><trkpt lat="41.4808183" lon="0.736155"><ele>339.5</ele><time>2026-04-24T17:07:02.92Z</time></trkpt><trkpt lat="41.4809267" lon="0.7364617"><ele>340.0</ele><time>2026-04-24T17:07:03.92Z</time></trkpt><trkpt lat="41.4810283" lon="0.7367683"><ele>340.5</ele><time>2026-04-24T17:07:04.92Z</time></trkpt><trkpt lat="41.4811367" lon="0.7370717"><ele>341.0</ele><time>2026-04-24T17:07:05.92Z</time></trkpt><trkpt lat="41.4812417" lon="0.7373817"><ele>346.0</ele><time>2026-04-24T17:07:06.921Z</time></trkpt><trkpt lat="41.4813517" lon="0.7376883"><ele>351.0</ele><time>2026-04-24T17:07:07.92Z</time></trkpt><trkpt lat="41.4814583" lon="0.7380017"><ele>351.0</ele><time>2026-04-24T17:07:08.921Z</time></trkpt><trkpt lat="41.481565" lon="0.73831"><ele>351.0</ele><time>2026-04-24T17:07:09.921Z</time></trkpt><trkpt lat="41.481675" lon="0.7386183"><ele>350.0</ele><time>2026-04-24T17:07:10.92Z</time></trkpt><trkpt lat="41.48179" lon="0.7389317"><ele>349.0</ele><time>2026-04-24T17:07:11.92Z</time></trkpt><trkpt lat="41.4818967" lon="0.7392383"><ele>351.0</ele><time>2026-04-24T17:07:12.92Z</time></trkpt><trkpt lat="41.482" lon="0.739545"><ele>353.0</ele><time>2026-04-24T17:07:13.92Z</time></trkpt><trkpt lat="41.4821017" lon="0.7398533"><ele>359.0</ele><time>2026-04-24T17:07:14.92Z</time></trkpt><trkpt lat="41.482205" lon="0.7401683"><ele>365.0</ele><time>2026-04-24T17:07:15.921Z</time></trkpt><trkpt lat="41.4823133" lon="0.7404683"><ele>365.0</ele><time>2026-04-24T17:07:16.92Z</time></trkpt><trkpt lat="41.48242" lon="0.7407683"><ele>365.0</ele><time>2026-04-24T17:07:17.92Z</time></trkpt><trkpt lat="41.48253" lon="0.741065"><ele>366.0</ele><time>2026-04-24T17:07:18.921Z</time></trkpt><trkpt lat="41.4826433" lon="0.74135"><ele>367.0</ele><time>2026-04-24T17:07:19.921Z</time></trkpt><trkpt lat="41.482775" lon="0.741625"><ele>367.0</ele><time>2026-04-24T17:07:20.921Z</time></trkpt><trkpt lat="41.4829217" lon="0.7418783"><ele>367.0</ele><time>2026-04-24T17:07:21.92Z</time></trkpt><trkpt lat="41.4830867" lon="0.74212"><ele>373.0</ele><time>2026-04-24T17:07:22.921Z</time></trkpt><trkpt lat="41.4832783" lon="0.7423233"><ele>379.0</ele><time>2026-04-24T17:07:23.92Z</time></trkpt><trkpt lat="41.48349" lon="0.7425067"><ele>379.0</ele><time>2026-04-24T17:07:24.921Z</time></trkpt><trkpt lat="41.4837083" lon="0.7426583"><ele>379.0</ele><time>2026-04-24T17:07:25.92Z</time></trkpt><trkpt lat="41.4839467" lon="0.74278"><ele>381.5</ele><time>2026-04-24T17:07:26.92Z</time></trkpt><trkpt lat="41.48419" lon="0.7428783"><ele>384.0</ele><time>2026-04-24T17:07:27.921Z</time></trkpt><trkpt lat="41.4844367" lon="0.74295"><ele>383.0</ele><time>2026-04-24T17:07:28.92Z</time></trkpt><trkpt lat="41.4846917" lon="0.7430133"><ele>382.0</ele><time>2026-04-24T17:07:29.92Z</time></trkpt><trkpt lat="41.4849417" lon="0.7430733"><ele>382.0</ele><time>2026-04-24T17:07:30.921Z</time></trkpt><trkpt lat="41.485195" lon="0.7431417"><ele>382.0</ele><time>2026-04-24T17:07:31.92Z</time></trkpt><trkpt lat="41.4854483" lon="0.7432133"><ele>381.0</ele><time>2026-04-24T17:07:32.92Z</time></trkpt><trkpt lat="41.485705" lon="0.7432833"><ele>380.0</ele><time>2026-04-24T17:07:33.92Z</time></trkpt><trkpt lat="41.4859633" lon="0.7433567"><ele>380.0</ele><time>2026-04-24T17:07:34.92Z</time></trkpt><trkpt lat="41.4862083" lon="0.7434267"><ele>380.0</ele><time>2026-04-24T17:07:35.921Z</time></trkpt><trkpt lat="41.4864433" lon="0.7435333"><ele>375.5</ele><time>2026-04-24T17:07:36.921Z</time></trkpt><trkpt lat="41.48667" lon="0.7436767"><ele>371.0</ele><time>2026-04-24T17:07:37.921Z</time></trkpt><trkpt lat="41.48689" lon="0.7438567"><ele>371.0</ele><time>2026-04-24T17:07:38.921Z</time></trkpt><trkpt lat="41.487085" lon="0.7440733"><ele>371.0</ele><time>2026-04-24T17:07:39.921Z</time></trkpt><trkpt lat="41.4872617" lon="0.74432"><ele>369.0</ele><time>2026-04-24T17:07:40.92Z</time></trkpt><trkpt lat="41.4874367" lon="0.7445717"><ele>367.0</ele><time>2026-04-24T17:07:41.921Z</time></trkpt><trkpt lat="41.4876183" lon="0.7448017"><ele>367.0</ele><time>2026-04-24T17:07:42.921Z</time></trkpt><trkpt lat="41.4878133" lon="0.7449967"><ele>367.0</ele><time>2026-04-24T17:07:43.92Z</time></trkpt><trkpt lat="41.488025" lon="0.7451617"><ele>363.0</ele><time>2026-04-24T17:07:44.921Z</time></trkpt><trkpt lat="41.4882483" lon="0.7453133"><ele>359.0</ele><time>2026-04-24T17:07:45.92Z</time></trkpt><trkpt lat="41.4884783" lon="0.7454533"><ele>359.0</ele><time>2026-04-24T17:07:46.921Z</time></trkpt><trkpt lat="41.4887117" lon="0.7456167"><ele>359.0</ele><time>2026-04-24T17:07:47.92Z</time></trkpt><trkpt lat="41.4889267" lon="0.7458067"><ele>359.0</ele><time>2026-04-24T17:07:48.92Z</time></trkpt><trkpt lat="41.4891167" lon="0.7460367"><ele>359.0</ele><time>2026-04-24T17:07:49.92Z</time></trkpt><trkpt lat="41.4892767" lon="0.7462967"><ele>355.5</ele><time>2026-04-24T17:07:50.92Z</time></trkpt><trkpt lat="41.4894133" lon="0.7465733"><ele>352.0</ele><time>2026-04-24T17:07:51.92Z</time></trkpt><trkpt lat="41.4895433" lon="0.7468533"><ele>350.0</ele><time>2026-04-24T17:07:52.92Z</time></trkpt><trkpt lat="41.4896767" lon="0.7471367"><ele>348.0</ele><time>2026-04-24T17:07:53.921Z</time></trkpt><trkpt lat="41.4898217" lon="0.7474033"><ele>348.0</ele><time>2026-04-24T17:07:54.92Z</time></trkpt><trkpt lat="41.4899817" lon="0.747645"><ele>348.0</ele><time>2026-04-24T17:07:55.92Z</time></trkpt><trkpt lat="41.4901667" lon="0.747865"><ele>346.0</ele><time>2026-04-24T17:07:56.921Z</time></trkpt><trkpt lat="41.490365" lon="0.74807"><ele>344.0</ele><time>2026-04-24T17:07:57.921Z</time></trkpt><trkpt lat="41.4905717" lon="0.7482733"><ele>343.5</ele><time>2026-04-24T17:07:58.92Z</time></trkpt><trkpt lat="41.4907767" lon="0.7484767"><ele>343.0</ele><time>2026-04-24T17:07:59.921Z</time></trkpt><trkpt lat="41.4909817" lon="0.7486833"><ele>342.5</ele><time>2026-04-24T17:08:00.921Z</time></trkpt><trkpt lat="41.4911833" lon="0.7488817"><ele>342.0</ele><time>2026-04-24T17:08:01.92Z</time></trkpt><trkpt lat="41.4913783" lon="0.7490783"><ele>342.0</ele><time>2026-04-24T17:08:02.921Z</time></trkpt><trkpt lat="41.4915767" lon="0.7492783"><ele>342.0</ele><time>2026-04-24T17:08:03.92Z</time></trkpt><trkpt lat="41.4917767" lon="0.7494783"><ele>340.5</ele><time>2026-04-24T17:08:04.921Z</time></trkpt><trkpt lat="41.491975" lon="0.7496867"><ele>339.0</ele><time>2026-04-24T17:08:05.921Z</time></trkpt><trkpt lat="41.492165" lon="0.7499067"><ele>338.5</ele><time>2026-04-24T17:08:06.92Z</time></trkpt><trkpt lat="41.4923417" lon="0.7501483"><ele>338.0</ele><time>2026-04-24T17:08:07.921Z</time></trkpt><trkpt lat="41.4925017" lon="0.7504083"><ele>335.5</ele><time>2026-04-24T17:08:08.921Z</time></trkpt><trkpt lat="41.4926267" lon="0.7507"><ele>333.0</ele><time>2026-04-24T17:08:09.921Z</time></trkpt><trkpt lat="41.4927383" lon="0.7510033"><ele>331.5</ele><time>2026-04-24T17:08:10.92Z</time></trkpt><trkpt lat="41.49284" lon="0.75131"><ele>330.0</ele><time>2026-04-24T17:08:11.92Z</time></trkpt><trkpt lat="41.4929317" lon="0.751625"><ele>329.0</ele><time>2026-04-24T17:08:12.921Z</time></trkpt><trkpt lat="41.4930183" lon="0.7519267"><ele>328.0</ele><time>2026-04-24T17:08:13.921Z</time></trkpt><trkpt lat="41.4931183" lon="0.75223"><ele>328.0</ele><time>2026-04-24T17:08:14.92Z</time></trkpt><trkpt lat="41.4932183" lon="0.752525"><ele>328.0</ele><time>2026-04-24T17:08:15.92Z</time></trkpt><trkpt lat="41.4933317" lon="0.7528233"><ele>330.5</ele><time>2026-04-24T17:08:16.919Z</time></trkpt><trkpt lat="41.4934583" lon="0.7531083"><ele>333.0</ele><time>2026-04-24T17:08:17.919Z</time></trkpt><trkpt lat="41.4935983" lon="0.7533883"><ele>334.5</ele><time>2026-04-24T17:08:18.92Z</time></trkpt><trkpt lat="41.4937467" lon="0.7536567"><ele>336.0</ele><time>2026-04-24T17:08:19.919Z</time></trkpt><trkpt lat="41.4939" lon="0.7539167"><ele>333.0</ele><time>2026-04-24T17:08:20.92Z</time></trkpt><trkpt lat="41.4940433" lon="0.75418"><ele>330.0</ele><time>2026-04-24T17:08:21.92Z</time></trkpt><trkpt lat="41.49419" lon="0.7544517"><ele>330.0</ele><time>2026-04-24T17:08:22.919Z</time></trkpt><trkpt lat="41.4943183" lon="0.7547333"><ele>330.0</ele><time>2026-04-24T17:08:23.92Z</time></trkpt><trkpt lat="41.4944233" lon="0.7550367"><ele>331.5</ele><time>2026-04-24T17:08:24.919Z</time></trkpt><trkpt lat="41.49452" lon="0.7553467"><ele>333.0</ele><time>2026-04-24T17:08:25.92Z</time></trkpt><trkpt lat="41.4946033" lon="0.7556633"><ele>334.5</ele><time>2026-04-24T17:08:26.92Z</time></trkpt><trkpt lat="41.494685" lon="0.7559783"><ele>336.0</ele><time>2026-04-24T17:08:27.919Z</time></trkpt><trkpt lat="41.4947633" lon="0.756295"><ele>336.0</ele><time>2026-04-24T17:08:28.92Z</time></trkpt><trkpt lat="41.49484" lon="0.75661"><ele>336.0</ele><time>2026-04-24T17:08:29.92Z</time></trkpt><trkpt lat="41.49492" lon="0.756925"><ele>336.5</ele><time>2026-04-24T17:08:30.919Z</time></trkpt><trkpt lat="41.494995" lon="0.7572417"><ele>337.0</ele><time>2026-04-24T17:08:31.919Z</time></trkpt><trkpt lat="41.4950683" lon="0.757555"><ele>338.0</ele><time>2026-04-24T17:08:32.919Z</time></trkpt><trkpt lat="41.4951417" lon="0.7578683"><ele>339.0</ele><time>2026-04-24T17:08:33.92Z</time></trkpt><trkpt lat="41.4952133" lon="0.75818"><ele>339.0</ele><time>2026-04-24T17:08:34.92Z</time></trkpt><trkpt lat="41.4952867" lon="0.7584967"><ele>339.0</ele><time>2026-04-24T17:08:35.919Z</time></trkpt><trkpt lat="41.49536" lon="0.7588117"><ele>340.5</ele><time>2026-04-24T17:08:36.919Z</time></trkpt><trkpt lat="41.49544" lon="0.759125"><ele>342.0</ele><time>2026-04-24T17:08:37.92Z</time></trkpt><trkpt lat="41.4955167" lon="0.7594367"><ele>342.0</ele><time>2026-04-24T17:08:38.92Z</time></trkpt><trkpt lat="41.4955983" lon="0.7597583"><ele>342.0</ele><time>2026-04-24T17:08:39.919Z</time></trkpt><trkpt lat="41.4956733" lon="0.7600683"><ele>342.0</ele><time>2026-04-24T17:08:40.92Z</time></trkpt><trkpt lat="41.4957367" lon="0.760355"><ele>342.0</ele><time>2026-04-24T17:08:41.92Z</time></trkpt><trkpt lat="41.4958033" lon="0.7606367"><ele>342.0</ele><time>2026-04-24T17:08:42.919Z</time></trkpt><trkpt lat="41.49587" lon="0.760915"><ele>342.6666666666667</ele><time>2026-04-24T17:08:43.92Z</time></trkpt><trkpt lat="41.495935" lon="0.761185"><ele>343.33333333333337</ele><time>2026-04-24T17:08:44.919Z</time></trkpt><trkpt lat="41.4959933" lon="0.7614517"><ele>344.0</ele><time>2026-04-24T17:08:45.919Z</time></trkpt><trkpt lat="41.4960517" lon="0.76171"><ele>343.6666666666667</ele><time>2026-04-24T17:08:46.92Z</time></trkpt><trkpt lat="41.4961067" lon="0.7619483"><ele>343.3333333333333</ele><time>2026-04-24T17:08:47.919Z</time></trkpt><trkpt lat="41.4961567" lon="0.7621717"><ele>343.0</ele><time>2026-04-24T17:08:48.919Z</time></trkpt><trkpt lat="41.49621" lon="0.76238"><ele>344.75</ele><time>2026-04-24T17:08:49.92Z</time></trkpt><trkpt lat="41.4962583" lon="0.7625717"><ele>346.5</ele><time>2026-04-24T17:08:50.92Z</time></trkpt><trkpt lat="41.4963017" lon="0.7627533"><ele>348.25</ele><time>2026-04-24T17:08:51.92Z</time></trkpt><trkpt lat="41.4963433" lon="0.7629267"><ele>350.0</ele><time>2026-04-24T17:08:52.92Z</time></trkpt><trkpt lat="41.49638" lon="0.7630817"><ele>350.25</ele><time>2026-04-24T17:08:53.92Z</time></trkpt><trkpt lat="41.4964233" lon="0.7632317"><ele>350.5</ele><time>2026-04-24T17:08:54.92Z</time></trkpt><trkpt lat="41.4964633" lon="0.7633683"><ele>350.75</ele><time>2026-04-24T17:08:55.919Z</time></trkpt><trkpt lat="41.4965083" lon="0.7635"><ele>351.0</ele><time>2026-04-24T17:08:56.919Z</time></trkpt><trkpt lat="41.4965583" lon="0.76364"><ele>351.0</ele><time>2026-04-24T17:08:57.92Z</time></trkpt><trkpt lat="41.49661" lon="0.7637733"><ele>351.0</ele><time>2026-04-24T17:08:58.92Z</time></trkpt><trkpt lat="41.4966683" lon="0.76389"><ele>351.0</ele><time>2026-04-24T17:08:59.92Z</time></trkpt><trkpt lat="41.4967283" lon="0.764"><ele>351.0</ele><time>2026-04-24T17:09:00.92Z</time></trkpt><trkpt lat="41.496795" lon="0.7641083"><ele>351.0</ele><time>2026-04-24T17:09:01.919Z</time></trkpt><trkpt lat="41.4968533" lon="0.764225"><ele>351.0</ele><time>2026-04-24T17:09:02.92Z</time></trkpt><trkpt lat="41.4969233" lon="0.7643367"><ele>351.0</ele><time>2026-04-24T17:09:03.919Z</time></trkpt><trkpt lat="41.4969867" lon="0.7644467"><ele>351.0</ele><time>2026-04-24T17:09:04.92Z</time></trkpt><trkpt lat="41.4970517" lon="0.7645617"><ele>351.0</ele><time>2026-04-24T17:09:05.92Z</time></trkpt><trkpt lat="41.4971017" lon="0.76468"><ele>351.0</ele><time>2026-04-24T17:09:06.919Z</time></trkpt><trkpt lat="41.497165" lon="0.7648017"><ele>351.4</ele><time>2026-04-24T17:09:07.919Z</time></trkpt><trkpt lat="41.4972317" lon="0.7649167"><ele>351.8</ele><time>2026-04-24T17:09:08.92Z</time></trkpt><trkpt lat="41.4973167" lon="0.764995"><ele>352.2</ele><time>2026-04-24T17:09:09.92Z</time></trkpt><trkpt lat="41.4973983" lon="0.7650667"><ele>352.59999999999997</ele><time>2026-04-24T17:09:10.92Z</time></trkpt><trkpt lat="41.497475" lon="0.7650967"><ele>353.0</ele><time>2026-04-24T17:09:11.919Z</time></trkpt><trkpt lat="41.4975367" lon="0.7651183"><ele>353.0</ele><time>2026-04-24T17:09:12.919Z</time></trkpt><trkpt lat="41.4976533" lon="0.7651667"><ele>353.0</ele><time>2026-04-24T17:09:14.92Z</time></trkpt><trkpt lat="41.4977183" lon="0.7651933"><ele>353.0</ele><time>2026-04-24T17:09:15.919Z</time></trkpt><trkpt lat="41.49779" lon="0.76522"><ele>353.0</ele><time>2026-04-24T17:09:16.92Z</time></trkpt><trkpt lat="41.49785" lon="0.7652633"><ele>353.0</ele><time>2026-04-24T17:09:17.919Z</time></trkpt><trkpt lat="41.4979433" lon="0.76532"><ele>353.0</ele><time>2026-04-24T17:09:19.92Z</time></trkpt><trkpt lat="41.4980083" lon="0.7654067"><ele>353.5</ele><time>2026-04-24T17:09:22.919Z</time></trkpt><trkpt lat="41.49805" lon="0.765505"><ele>354.0</ele><time>2026-04-24T17:09:24.919Z</time></trkpt><trkpt lat="41.4980983" lon="0.7656367"><ele>354.5</ele><time>2026-04-24T17:09:26.92Z</time></trkpt><trkpt lat="41.4981267" lon="0.765715"><ele>355.0</ele><time>2026-04-24T17:09:27.92Z</time></trkpt><trkpt lat="41.4981583" lon="0.765805"><ele>355.5</ele><time>2026-04-24T17:09:28.92Z</time></trkpt><trkpt lat="41.498195" lon="0.7659133"><ele>356.0</ele><time>2026-04-24T17:09:29.92Z</time></trkpt><trkpt lat="41.4982417" lon="0.766015"><ele>356.1666666666667</ele><time>2026-04-24T17:09:30.92Z</time></trkpt><trkpt lat="41.4982867" lon="0.76611"><ele>356.33333333333337</ele><time>2026-04-24T17:09:31.919Z</time></trkpt><trkpt lat="41.4983283" lon="0.7662067"><ele>356.5</ele><time>2026-04-24T17:09:32.92Z</time></trkpt><trkpt lat="41.498365" lon="0.7663017"><ele>356.6666666666667</ele><time>2026-04-24T17:09:33.92Z</time></trkpt><trkpt lat="41.4983983" lon="0.7663883"><ele>356.8333333333333</ele><time>2026-04-24T17:09:34.919Z</time></trkpt><trkpt lat="41.4984267" lon="0.766475"><ele>357.0</ele><time>2026-04-24T17:09:35.919Z</time></trkpt><trkpt lat="41.4984717" lon="0.7666083"><ele>357.0</ele><time>2026-04-24T17:09:37.919Z</time></trkpt><trkpt lat="41.4985167" lon="0.7667133"><ele>357.0</ele><time>2026-04-24T17:09:39.92Z</time></trkpt><trkpt lat="41.4985767" lon="0.766855"><ele>357.0</ele><time>2026-04-24T17:09:41.919Z</time></trkpt><trkpt lat="41.4986083" lon="0.7669367"><ele>357.0</ele><time>2026-04-24T17:09:42.92Z</time></trkpt><trkpt lat="41.4986433" lon="0.767035"><ele>357.0</ele><time>2026-04-24T17:09:43.92Z</time></trkpt><trkpt lat="41.4986783" lon="0.767145"><ele>357.0</ele><time>2026-04-24T17:09:44.92Z</time></trkpt><trkpt lat="41.4987083" lon="0.767275"><ele>357.0</ele><time>2026-04-24T17:09:45.919Z</time></trkpt><trkpt lat="41.498735" lon="0.76742"><ele>357.0</ele><time>2026-04-24T17:09:46.919Z</time></trkpt><trkpt lat="41.498755" lon="0.767575"><ele>357.0</ele><time>2026-04-24T17:09:47.92Z</time></trkpt><trkpt lat="41.4987817" lon="0.7677433"><ele>355.25</ele><time>2026-04-24T17:09:48.919Z</time></trkpt><trkpt lat="41.4988167" lon="0.767905"><ele>353.5</ele><time>2026-04-24T17:09:49.92Z</time></trkpt><trkpt lat="41.4988333" lon="0.7680783"><ele>351.75</ele><time>2026-04-24T17:09:50.92Z</time></trkpt><trkpt lat="41.4988517" lon="0.7682683"><ele>350.0</ele><time>2026-04-24T17:09:51.92Z</time></trkpt><trkpt lat="41.49887" lon="0.7684567"><ele>348.33333333333337</ele><time>2026-04-24T17:09:52.92Z</time></trkpt><trkpt lat="41.4988867" lon="0.7686417"><ele>346.6666666666667</ele><time>2026-04-24T17:09:53.919Z</time></trkpt><trkpt lat="41.49891" lon="0.7688533"><ele>345.0</ele><time>2026-04-24T17:09:54.92Z</time></trkpt><trkpt lat="41.4989367" lon="0.7690717"><ele>345.0</ele><time>2026-04-24T17:09:55.92Z</time></trkpt><trkpt lat="41.4989783" lon="0.7693017"><ele>345.0</ele><time>2026-04-24T17:09:56.92Z</time></trkpt><trkpt lat="41.4990333" lon="0.7695333"><ele>345.0</ele><time>2026-04-24T17:09:57.92Z</time></trkpt><trkpt lat="41.4991017" lon="0.769765"><ele>346.0</ele><time>2026-04-24T17:09:58.92Z</time></trkpt><trkpt lat="41.4991983" lon="0.7699933"><ele>347.0</ele><time>2026-04-24T17:09:59.92Z</time></trkpt><trkpt lat="41.4993033" lon="0.77021"><ele>348.0</ele><time>2026-04-24T17:10:00.919Z</time></trkpt><trkpt lat="41.4994133" lon="0.77043"><ele>349.3333333333333</ele><time>2026-04-24T17:10:01.919Z</time></trkpt><trkpt lat="41.4995167" lon="0.770655"><ele>350.66666666666663</ele><time>2026-04-24T17:10:02.917Z</time></trkpt><trkpt lat="41.4996" lon="0.770895"><ele>352.0</ele><time>2026-04-24T17:10:03.919Z</time></trkpt><trkpt lat="41.499655" lon="0.7711567"><ele>346.3333333333333</ele><time>2026-04-24T17:10:04.919Z</time></trkpt><trkpt lat="41.499675" lon="0.7714283"><ele>340.6666666666667</ele><time>2026-04-24T17:10:05.919Z</time></trkpt><trkpt lat="41.4996767" lon="0.7717"><ele>335.0</ele><time>2026-04-24T17:10:06.919Z</time></trkpt><trkpt lat="41.4996733" lon="0.7719617"><ele>332.0</ele><time>2026-04-24T17:10:07.919Z</time></trkpt><trkpt lat="41.4996767" lon="0.7722183"><ele>329.0</ele><time>2026-04-24T17:10:08.92Z</time></trkpt><trkpt lat="41.4996883" lon="0.7724767"><ele>326.0</ele><time>2026-04-24T17:10:09.92Z</time></trkpt><trkpt lat="41.4997267" lon="0.7727383"><ele>323.6666666666667</ele><time>2026-04-24T17:10:10.919Z</time></trkpt><trkpt lat="41.4997967" lon="0.7729933"><ele>321.3333333333333</ele><time>2026-04-24T17:10:11.919Z</time></trkpt><trkpt lat="41.4999017" lon="0.773235"><ele>319.0</ele><time>2026-04-24T17:10:12.919Z</time></trkpt><trkpt lat="41.50004" lon="0.77346"><ele>320.5</ele><time>2026-04-24T17:10:13.919Z</time></trkpt><trkpt lat="41.5002067" lon="0.7736617"><ele>322.0</ele><time>2026-04-24T17:10:14.92Z</time></trkpt><trkpt lat="41.500385" lon="0.7738567"><ele>320.0</ele><time>2026-04-24T17:10:15.92Z</time></trkpt><trkpt lat="41.5005683" lon="0.77405"><ele>318.0</ele><time>2026-04-24T17:10:16.919Z</time></trkpt><trkpt lat="41.5007483" lon="0.77425"><ele>324.0</ele><time>2026-04-24T17:10:17.919Z</time></trkpt><trkpt lat="41.50093" lon="0.7744483"><ele>330.0</ele><time>2026-04-24T17:10:18.919Z</time></trkpt><trkpt lat="41.50112" lon="0.774645"><ele>322.5</ele><time>2026-04-24T17:10:19.919Z</time></trkpt><trkpt lat="41.5013083" lon="0.7748367"><ele>315.0</ele><time>2026-04-24T17:10:20.919Z</time></trkpt><trkpt lat="41.5014983" lon="0.7750333"><ele>320.0</ele><time>2026-04-24T17:10:21.92Z</time></trkpt><trkpt lat="41.5016867" lon="0.7752267"><ele>325.0</ele><time>2026-04-24T17:10:22.919Z</time></trkpt><trkpt lat="41.5018683" lon="0.7754267"><ele>325.0</ele><time>2026-04-24T17:10:23.92Z</time></trkpt><trkpt lat="41.5020567" lon="0.775615"><ele>325.0</ele><time>2026-04-24T17:10:24.919Z</time></trkpt><trkpt lat="41.5022367" lon="0.775805"><ele>323.0</ele><time>2026-04-24T17:10:25.92Z</time></trkpt><trkpt lat="41.5024117" lon="0.77599"><ele>321.0</ele><time>2026-04-24T17:10:26.919Z</time></trkpt><trkpt lat="41.502575" lon="0.7761867"><ele>319.0</ele><time>2026-04-24T17:10:27.919Z</time></trkpt><trkpt lat="41.502725" lon="0.7764067"><ele>319.0</ele><time>2026-04-24T17:10:28.92Z</time></trkpt><trkpt lat="41.502855" lon="0.7766483"><ele>319.0</ele><time>2026-04-24T17:10:29.92Z</time></trkpt><trkpt lat="41.50297" lon="0.7769233"><ele>311.0</ele><time>2026-04-24T17:10:30.92Z</time></trkpt><trkpt lat="41.5030533" lon="0.7772167"><ele>303.0</ele><time>2026-04-24T17:10:31.919Z</time></trkpt><trkpt lat="41.5030933" lon="0.7775317"><ele>303.5</ele><time>2026-04-24T17:10:32.92Z</time></trkpt><trkpt lat="41.503115" lon="0.777845"><ele>304.0</ele><time>2026-04-24T17:10:33.919Z</time></trkpt><trkpt lat="41.5030933" lon="0.7781567"><ele>304.0</ele><time>2026-04-24T17:10:34.919Z</time></trkpt><trkpt lat="41.5030483" lon="0.77848"><ele>304.0</ele><time>2026-04-24T17:10:35.919Z</time></trkpt><trkpt lat="41.5029767" lon="0.778805"><ele>302.5</ele><time>2026-04-24T17:10:36.92Z</time></trkpt><trkpt lat="41.5029167" lon="0.7791183"><ele>301.0</ele><time>2026-04-24T17:10:37.92Z</time></trkpt><trkpt lat="41.5028517" lon="0.7794433"><ele>306.5</ele><time>2026-04-24T17:10:38.919Z</time></trkpt><trkpt lat="41.5027783" lon="0.7797683"><ele>312.0</ele><time>2026-04-24T17:10:39.919Z</time></trkpt><trkpt lat="41.502705" lon="0.7800883"><ele>311.0</ele><time>2026-04-24T17:10:40.919Z</time></trkpt><trkpt lat="41.5026417" lon="0.7804017"><ele>310.0</ele><time>2026-04-24T17:10:41.919Z</time></trkpt><trkpt lat="41.502575" lon="0.780715"><ele>309.0</ele><time>2026-04-24T17:10:42.92Z</time></trkpt><trkpt lat="41.5024933" lon="0.7810267"><ele>308.0</ele><time>2026-04-24T17:10:43.919Z</time></trkpt><trkpt lat="41.5024267" lon="0.781315"><ele>308.0</ele><time>2026-04-24T17:10:44.919Z</time></trkpt><trkpt lat="41.5023767" lon="0.7815867"><ele>308.0</ele><time>2026-04-24T17:10:45.919Z</time></trkpt><trkpt lat="41.5023117" lon="0.7818583"><ele>308.0</ele><time>2026-04-24T17:10:46.919Z</time></trkpt><trkpt lat="41.502255" lon="0.7821217"><ele>306.6666666666667</ele><time>2026-04-24T17:10:47.919Z</time></trkpt><trkpt lat="41.5021967" lon="0.782385"><ele>305.3333333333333</ele><time>2026-04-24T17:10:48.92Z</time></trkpt><trkpt lat="41.5021417" lon="0.7826483"><ele>304.0</ele><time>2026-04-24T17:10:49.92Z</time></trkpt><trkpt lat="41.5020867" lon="0.7829067"><ele>305.0</ele><time>2026-04-24T17:10:50.919Z</time></trkpt><trkpt lat="41.5020283" lon="0.783175"><ele>306.0</ele><time>2026-04-24T17:10:51.92Z</time></trkpt><trkpt lat="41.5019667" lon="0.7834533"><ele>307.0</ele><time>2026-04-24T17:10:52.92Z</time></trkpt><trkpt lat="41.501915" lon="0.78374"><ele>307.0</ele><time>2026-04-24T17:10:53.92Z</time></trkpt><trkpt lat="41.5018567" lon="0.7840367"><ele>307.0</ele><time>2026-04-24T17:10:54.92Z</time></trkpt><trkpt lat="41.5018" lon="0.7843333"><ele>307.5</ele><time>2026-04-24T17:10:55.92Z</time></trkpt><trkpt lat="41.501725" lon="0.7846383"><ele>308.0</ele><time>2026-04-24T17:10:56.919Z</time></trkpt><trkpt lat="41.5016383" lon="0.78495"><ele>307.0</ele><time>2026-04-24T17:10:57.92Z</time></trkpt><trkpt lat="41.5015633" lon="0.78526"><ele>306.0</ele><time>2026-04-24T17:10:58.919Z</time></trkpt><trkpt lat="41.50149" lon="0.7855733"><ele>306.0</ele><time>2026-04-24T17:10:59.919Z</time></trkpt><trkpt lat="41.50141" lon="0.78589"><ele>306.0</ele><time>2026-04-24T17:11:00.92Z</time></trkpt><trkpt lat="41.5013383" lon="0.7862033"><ele>306.5</ele><time>2026-04-24T17:11:01.92Z</time></trkpt><trkpt lat="41.5012783" lon="0.7865117"><ele>307.0</ele><time>2026-04-24T17:11:02.92Z</time></trkpt><trkpt lat="41.50121" lon="0.7868233"><ele>308.0</ele><time>2026-04-24T17:11:03.92Z</time></trkpt><trkpt lat="41.501145" lon="0.7871367"><ele>309.0</ele><time>2026-04-24T17:11:04.92Z</time></trkpt><trkpt lat="41.5010717" lon="0.7874583"><ele>309.0</ele><time>2026-04-24T17:11:05.919Z</time></trkpt><trkpt lat="41.5009917" lon="0.7877883"><ele>309.0</ele><time>2026-04-24T17:11:06.919Z</time></trkpt><trkpt lat="41.500925" lon="0.7881117"><ele>309.0</ele><time>2026-04-24T17:11:07.919Z</time></trkpt><trkpt lat="41.50085" lon="0.788445"><ele>309.0</ele><time>2026-04-24T17:11:08.92Z</time></trkpt><trkpt lat="41.50078" lon="0.788775"><ele>309.0</ele><time>2026-04-24T17:11:09.92Z</time></trkpt><trkpt lat="41.5006983" lon="0.7891083"><ele>309.0</ele><time>2026-04-24T17:11:10.92Z</time></trkpt><trkpt lat="41.50062" lon="0.7894433"><ele>309.0</ele><time>2026-04-24T17:11:11.919Z</time></trkpt><trkpt lat="41.5005433" lon="0.7897783"><ele>309.0</ele><time>2026-04-24T17:11:12.919Z</time></trkpt><trkpt lat="41.5004717" lon="0.7901117"><ele>311.0</ele><time>2026-04-24T17:11:13.92Z</time></trkpt><trkpt lat="41.5003983" lon="0.7904467"><ele>313.0</ele><time>2026-04-24T17:11:14.919Z</time></trkpt><trkpt lat="41.5003217" lon="0.7907883"><ele>312.5</ele><time>2026-04-24T17:11:15.919Z</time></trkpt><trkpt lat="41.5002417" lon="0.79113"><ele>312.0</ele><time>2026-04-24T17:11:16.919Z</time></trkpt><trkpt lat="41.5001667" lon="0.7914767"><ele>312.0</ele><time>2026-04-24T17:11:17.919Z</time></trkpt><trkpt lat="41.5001017" lon="0.79182"><ele>312.0</ele><time>2026-04-24T17:11:18.92Z</time></trkpt><trkpt lat="41.5000183" lon="0.792165"><ele>311.5</ele><time>2026-04-24T17:11:19.919Z</time></trkpt><trkpt lat="41.4999417" lon="0.7925"><ele>311.0</ele><time>2026-04-24T17:11:20.919Z</time></trkpt><trkpt lat="41.499865" lon="0.7928367"><ele>312.0</ele><time>2026-04-24T17:11:21.92Z</time></trkpt><trkpt lat="41.4997933" lon="0.79318"><ele>313.0</ele><time>2026-04-24T17:11:22.919Z</time></trkpt><trkpt lat="41.4997233" lon="0.793525"><ele>313.5</ele><time>2026-04-24T17:11:23.92Z</time></trkpt><trkpt lat="41.4996567" lon="0.7938733"><ele>314.0</ele><time>2026-04-24T17:11:24.92Z</time></trkpt><trkpt lat="41.4995983" lon="0.7942183"><ele>315.5</ele><time>2026-04-24T17:11:25.919Z</time></trkpt><trkpt lat="41.4995433" lon="0.7945583"><ele>317.0</ele><time>2026-04-24T17:11:26.92Z</time></trkpt><trkpt lat="41.499485" lon="0.7949017"><ele>317.5</ele><time>2026-04-24T17:11:27.919Z</time></trkpt><trkpt lat="41.499425" lon="0.79524"><ele>318.0</ele><time>2026-04-24T17:11:28.919Z</time></trkpt><trkpt lat="41.499375" lon="0.795575"><ele>318.0</ele><time>2026-04-24T17:11:29.92Z</time></trkpt><trkpt lat="41.499325" lon="0.7959167"><ele>318.0</ele><time>2026-04-24T17:11:30.919Z</time></trkpt><trkpt lat="41.4992817" lon="0.79626"><ele>317.0</ele><time>2026-04-24T17:11:31.919Z</time></trkpt><trkpt lat="41.4992367" lon="0.7966017"><ele>316.0</ele><time>2026-04-24T17:11:32.92Z</time></trkpt><trkpt lat="41.4991933" lon="0.7969367"><ele>316.0</ele><time>2026-04-24T17:11:33.92Z</time></trkpt><trkpt lat="41.499145" lon="0.7972733"><ele>316.0</ele><time>2026-04-24T17:11:34.919Z</time></trkpt><trkpt lat="41.4990983" lon="0.79761"><ele>318.5</ele><time>2026-04-24T17:11:35.919Z</time></trkpt><trkpt lat="41.4990517" lon="0.7979483"><ele>321.0</ele><time>2026-04-24T17:11:36.919Z</time></trkpt><trkpt lat="41.4990067" lon="0.7982817"><ele>323.0</ele><time>2026-04-24T17:11:37.92Z</time></trkpt><trkpt lat="41.4989617" lon="0.79862"><ele>325.0</ele><time>2026-04-24T17:11:38.92Z</time></trkpt><trkpt lat="41.4989167" lon="0.79895"><ele>325.0</ele><time>2026-04-24T17:11:39.919Z</time></trkpt><trkpt lat="41.4988717" lon="0.7992817"><ele>325.0</ele><time>2026-04-24T17:11:40.92Z</time></trkpt><trkpt lat="41.49883" lon="0.7996167"><ele>325.5</ele><time>2026-04-24T17:11:41.92Z</time></trkpt><trkpt lat="41.4987867" lon="0.7999567"><ele>326.0</ele><time>2026-04-24T17:11:42.92Z</time></trkpt><trkpt lat="41.4987483" lon="0.8002967"><ele>330.0</ele><time>2026-04-24T17:11:43.92Z</time></trkpt><trkpt lat="41.4987" lon="0.80064"><ele>334.0</ele><time>2026-04-24T17:11:44.919Z</time></trkpt><trkpt lat="41.4986483" lon="0.800985"><ele>334.5</ele><time>2026-04-24T17:11:45.919Z</time></trkpt><trkpt lat="41.4986017" lon="0.8013283"><ele>335.0</ele><time>2026-04-24T17:11:46.919Z</time></trkpt><trkpt lat="41.4985567" lon="0.8016717"><ele>335.0</ele><time>2026-04-24T17:11:47.919Z</time></trkpt><trkpt lat="41.4985067" lon="0.8020117"><ele>335.0</ele><time>2026-04-24T17:11:48.919Z</time></trkpt><trkpt lat="41.4984617" lon="0.80235"><ele>335.0</ele><time>2026-04-24T17:11:49.92Z</time></trkpt><trkpt lat="41.498415" lon="0.802695"><ele>335.0</ele><time>2026-04-24T17:11:50.92Z</time></trkpt><trkpt lat="41.4983717" lon="0.80304"><ele>335.0</ele><time>2026-04-24T17:11:51.919Z</time></trkpt><trkpt lat="41.4983217" lon="0.8033783"><ele>335.0</ele><time>2026-04-24T17:11:52.919Z</time></trkpt><trkpt lat="41.4982733" lon="0.80372"><ele>335.5</ele><time>2026-04-24T17:11:53.92Z</time></trkpt><trkpt lat="41.4982217" lon="0.804065"><ele>336.0</ele><time>2026-04-24T17:11:54.92Z</time></trkpt><trkpt lat="41.4981733" lon="0.8044067"><ele>336.5</ele><time>2026-04-24T17:11:55.919Z</time></trkpt><trkpt lat="41.4981233" lon="0.80475"><ele>337.0</ele><time>2026-04-24T17:11:56.919Z</time></trkpt><trkpt lat="41.4980783" lon="0.8050933"><ele>337.5</ele><time>2026-04-24T17:11:57.919Z</time></trkpt><trkpt lat="41.4980283" lon="0.80544"><ele>338.0</ele><time>2026-04-24T17:11:58.919Z</time></trkpt><trkpt lat="41.4979833" lon="0.8057817"><ele>339.0</ele><time>2026-04-24T17:11:59.919Z</time></trkpt><trkpt lat="41.4979367" lon="0.8061167"><ele>340.0</ele><time>2026-04-24T17:12:00.92Z</time></trkpt><trkpt lat="41.497895" lon="0.8064467"><ele>341.0</ele><time>2026-04-24T17:12:01.919Z</time></trkpt><trkpt lat="41.4978667" lon="0.80678"><ele>342.0</ele><time>2026-04-24T17:12:02.92Z</time></trkpt><trkpt lat="41.4978533" lon="0.8071167"><ele>343.0</ele><time>2026-04-24T17:12:03.92Z</time></trkpt><trkpt lat="41.4978617" lon="0.8074533"><ele>344.0</ele><time>2026-04-24T17:12:04.919Z</time></trkpt><trkpt lat="41.4978917" lon="0.807785"><ele>341.5</ele><time>2026-04-24T17:12:05.919Z</time></trkpt><trkpt lat="41.4979467" lon="0.80812"><ele>339.0</ele><time>2026-04-24T17:12:06.919Z</time></trkpt><trkpt lat="41.498015" lon="0.8084583"><ele>341.0</ele><time>2026-04-24T17:12:07.92Z</time></trkpt><trkpt lat="41.498095" lon="0.8087867"><ele>343.0</ele><time>2026-04-24T17:12:08.92Z</time></trkpt><trkpt lat="41.498185" lon="0.8091217"><ele>344.0</ele><time>2026-04-24T17:12:09.919Z</time></trkpt><trkpt lat="41.4982717" lon="0.8094367"><ele>345.0</ele><time>2026-04-24T17:12:10.919Z</time></trkpt><trkpt lat="41.498355" lon="0.80975"><ele>345.0</ele><time>2026-04-24T17:12:11.92Z</time></trkpt><trkpt lat="41.4984383" lon="0.8100617"><ele>345.0</ele><time>2026-04-24T17:12:12.919Z</time></trkpt><trkpt lat="41.4985167" lon="0.8103733"><ele>345.0</ele><time>2026-04-24T17:12:13.919Z</time></trkpt><trkpt lat="41.4985917" lon="0.810685"><ele>345.0</ele><time>2026-04-24T17:12:14.919Z</time></trkpt><trkpt lat="41.4986717" lon="0.8110017"><ele>344.0</ele><time>2026-04-24T17:12:15.919Z</time></trkpt><trkpt lat="41.4987533" lon="0.8113217"><ele>343.0</ele><time>2026-04-24T17:12:16.919Z</time></trkpt><trkpt lat="41.49884" lon="0.81164"><ele>344.0</ele><time>2026-04-24T17:12:17.919Z</time></trkpt><trkpt lat="41.4989217" lon="0.8119633"><ele>345.0</ele><time>2026-04-24T17:12:18.919Z</time></trkpt><trkpt lat="41.49901" lon="0.812285"><ele>345.0</ele><time>2026-04-24T17:12:19.92Z</time></trkpt><trkpt lat="41.4990983" lon="0.81261"><ele>345.0</ele><time>2026-04-24T17:12:20.92Z</time></trkpt><trkpt lat="41.499185" lon="0.812935"><ele>346.5</ele><time>2026-04-24T17:12:21.919Z</time></trkpt><trkpt lat="41.499275" lon="0.8132583"><ele>348.0</ele><time>2026-04-24T17:12:22.92Z</time></trkpt><trkpt lat="41.4993633" lon="0.8135817"><ele>348.5</ele><time>2026-04-24T17:12:23.919Z</time></trkpt><trkpt lat="41.499445" lon="0.813905"><ele>349.0</ele><time>2026-04-24T17:12:24.919Z</time></trkpt><trkpt lat="41.4995267" lon="0.81423"><ele>349.0</ele><time>2026-04-24T17:12:25.919Z</time></trkpt><trkpt lat="41.4995917" lon="0.814565"><ele>349.0</ele><time>2026-04-24T17:12:26.92Z</time></trkpt><trkpt lat="41.4996333" lon="0.8149067"><ele>349.5</ele><time>2026-04-24T17:12:27.919Z</time></trkpt><trkpt lat="41.4996483" lon="0.8152467"><ele>350.0</ele><time>2026-04-24T17:12:28.92Z</time></trkpt><trkpt lat="41.49965" lon="0.8155883"><ele>350.0</ele><time>2026-04-24T17:12:29.919Z</time></trkpt><trkpt lat="41.4996233" lon="0.815925"><ele>350.0</ele><time>2026-04-24T17:12:30.92Z</time></trkpt><trkpt lat="41.49957" lon="0.8162617"><ele>351.0</ele><time>2026-04-24T17:12:31.919Z</time></trkpt><trkpt lat="41.4994883" lon="0.8165933"><ele>352.0</ele><time>2026-04-24T17:12:32.919Z</time></trkpt><trkpt lat="41.4993917" lon="0.8169117"><ele>349.0</ele><time>2026-04-24T17:12:33.919Z</time></trkpt><trkpt lat="41.49928" lon="0.8172267"><ele>346.0</ele><time>2026-04-24T17:12:34.919Z</time></trkpt><trkpt lat="41.4991683" lon="0.8175383"><ele>341.5</ele><time>2026-04-24T17:12:35.919Z</time></trkpt><trkpt lat="41.49907" lon="0.8178467"><ele>337.0</ele><time>2026-04-24T17:12:36.919Z</time></trkpt><trkpt lat="41.49898" lon="0.81816"><ele>337.0</ele><time>2026-04-24T17:12:37.919Z</time></trkpt><trkpt lat="41.4989083" lon="0.8184783"><ele>337.0</ele><time>2026-04-24T17:12:38.92Z</time></trkpt><trkpt lat="41.498855" lon="0.818805"><ele>334.5</ele><time>2026-04-24T17:12:39.92Z</time></trkpt><trkpt lat="41.49882" lon="0.8191367"><ele>332.0</ele><time>2026-04-24T17:12:40.92Z</time></trkpt><trkpt lat="41.4987983" lon="0.8194717"><ele>330.0</ele><time>2026-04-24T17:12:41.92Z</time></trkpt><trkpt lat="41.4987917" lon="0.8198067"><ele>328.0</ele><time>2026-04-24T17:12:42.919Z</time></trkpt><trkpt lat="41.4988017" lon="0.82014"><ele>326.5</ele><time>2026-04-24T17:12:43.92Z</time></trkpt><trkpt lat="41.4988333" lon="0.82048"><ele>325.0</ele><time>2026-04-24T17:12:44.919Z</time></trkpt><trkpt lat="41.49889" lon="0.8208117"><ele>324.5</ele><time>2026-04-24T17:12:45.919Z</time></trkpt><trkpt lat="41.4989617" lon="0.8211433"><ele>324.0</ele><time>2026-04-24T17:12:46.919Z</time></trkpt><trkpt lat="41.499055" lon="0.82147"><ele>324.0</ele><time>2026-04-24T17:12:47.92Z</time></trkpt><trkpt lat="41.4991767" lon="0.82178"><ele>324.0</ele><time>2026-04-24T17:12:48.92Z</time></trkpt><trkpt lat="41.49931" lon="0.8220883"><ele>325.5</ele><time>2026-04-24T17:12:49.919Z</time></trkpt><trkpt lat="41.4994533" lon="0.8223883"><ele>327.0</ele><time>2026-04-24T17:12:50.919Z</time></trkpt><trkpt lat="41.49961" lon="0.8226783"><ele>328.5</ele><time>2026-04-24T17:12:51.92Z</time></trkpt><trkpt lat="41.4997733" lon="0.8229667"><ele>330.0</ele><time>2026-04-24T17:12:52.919Z</time></trkpt><trkpt lat="41.49994" lon="0.8232533"><ele>333.5</ele><time>2026-04-24T17:12:53.92Z</time></trkpt><trkpt lat="41.500095" lon="0.823545"><ele>337.0</ele><time>2026-04-24T17:12:54.92Z</time></trkpt><trkpt lat="41.5002433" lon="0.8238283"><ele>337.0</ele><time>2026-04-24T17:12:55.92Z</time></trkpt><trkpt lat="41.500385" lon="0.82411"><ele>337.0</ele><time>2026-04-24T17:12:56.92Z</time></trkpt><trkpt lat="41.500515" lon="0.8243967"><ele>335.0</ele><time>2026-04-24T17:12:57.92Z</time></trkpt><trkpt lat="41.5006417" lon="0.82468"><ele>333.0</ele><time>2026-04-24T17:12:58.919Z</time></trkpt><trkpt lat="41.500765" lon="0.8249667"><ele>335.5</ele><time>2026-04-24T17:12:59.92Z</time></trkpt><trkpt lat="41.50088" lon="0.82526"><ele>338.0</ele><time>2026-04-24T17:13:00.919Z</time></trkpt><trkpt lat="41.5009917" lon="0.8255567"><ele>338.0</ele><time>2026-04-24T17:13:01.92Z</time></trkpt><trkpt lat="41.501095" lon="0.82585"><ele>338.0</ele><time>2026-04-24T17:13:02.919Z</time></trkpt><trkpt lat="41.5012083" lon="0.82613"><ele>335.0</ele><time>2026-04-24T17:13:03.919Z</time></trkpt><trkpt lat="41.5013217" lon="0.8264117"><ele>332.0</ele><time>2026-04-24T17:13:04.92Z</time></trkpt><trkpt lat="41.5014367" lon="0.82669"><ele>332.5</ele><time>2026-04-24T17:13:05.92Z</time></trkpt><trkpt lat="41.5015517" lon="0.82697"><ele>333.0</ele><time>2026-04-24T17:13:06.919Z</time></trkpt><trkpt lat="41.5016667" lon="0.8272583"><ele>333.0</ele><time>2026-04-24T17:13:07.92Z</time></trkpt><trkpt lat="41.501785" lon="0.82754"><ele>333.0</ele><time>2026-04-24T17:13:08.92Z</time></trkpt><trkpt lat="41.5019117" lon="0.8278133"><ele>333.0</ele><time>2026-04-24T17:13:09.919Z</time></trkpt><trkpt lat="41.5020467" lon="0.828085"><ele>333.0</ele><time>2026-04-24T17:13:10.92Z</time></trkpt><trkpt lat="41.5021883" lon="0.8283583"><ele>330.5</ele><time>2026-04-24T17:13:11.919Z</time></trkpt><trkpt lat="41.502335" lon="0.8286317"><ele>328.0</ele><time>2026-04-24T17:13:12.919Z</time></trkpt><trkpt lat="41.5024833" lon="0.82891"><ele>328.0</ele><time>2026-04-24T17:13:13.92Z</time></trkpt><trkpt lat="41.5026367" lon="0.829195"><ele>328.0</ele><time>2026-04-24T17:13:14.92Z</time></trkpt><trkpt lat="41.502785" lon="0.82948"><ele>326.0</ele><time>2026-04-24T17:13:15.92Z</time></trkpt><trkpt lat="41.5029333" lon="0.8297667"><ele>324.0</ele><time>2026-04-24T17:13:16.92Z</time></trkpt><trkpt lat="41.5030833" lon="0.8300517"><ele>323.0</ele><time>2026-04-24T17:13:17.92Z</time></trkpt><trkpt lat="41.5032333" lon="0.83034"><ele>322.0</ele><time>2026-04-24T17:13:18.92Z</time></trkpt><trkpt lat="41.50338" lon="0.8306267"><ele>322.0</ele><time>2026-04-24T17:13:19.919Z</time></trkpt><trkpt lat="41.503525" lon="0.8309133"><ele>322.0</ele><time>2026-04-24T17:13:20.92Z</time></trkpt><trkpt lat="41.5036717" lon="0.8311933"><ele>320.5</ele><time>2026-04-24T17:13:21.92Z</time></trkpt><trkpt lat="41.5038183" lon="0.83148"><ele>319.0</ele><time>2026-04-24T17:13:22.92Z</time></trkpt><trkpt lat="41.5039667" lon="0.831765"><ele>318.5</ele><time>2026-04-24T17:13:23.919Z</time></trkpt><trkpt lat="41.5041183" lon="0.83205"><ele>318.0</ele><time>2026-04-24T17:13:24.92Z</time></trkpt><trkpt lat="41.5042683" lon="0.832335"><ele>318.0</ele><time>2026-04-24T17:13:25.92Z</time></trkpt><trkpt lat="41.5044167" lon="0.83262"><ele>318.0</ele><time>2026-04-24T17:13:26.92Z</time></trkpt><trkpt lat="41.5045667" lon="0.8329067"><ele>317.0</ele><time>2026-04-24T17:13:27.92Z</time></trkpt><trkpt lat="41.504715" lon="0.8331917"><ele>316.0</ele><time>2026-04-24T17:13:28.919Z</time></trkpt><trkpt lat="41.504865" lon="0.8334783"><ele>315.5</ele><time>2026-04-24T17:13:29.919Z</time></trkpt><trkpt lat="41.5050183" lon="0.8337717"><ele>315.0</ele><time>2026-04-24T17:13:30.919Z</time></trkpt><trkpt lat="41.5051683" lon="0.8340633"><ele>315.5</ele><time>2026-04-24T17:13:31.919Z</time></trkpt><trkpt lat="41.5053183" lon="0.8343633"><ele>316.0</ele><time>2026-04-24T17:13:32.92Z</time></trkpt><trkpt lat="41.5054733" lon="0.8346567"><ele>314.5</ele><time>2026-04-24T17:13:33.919Z</time></trkpt><trkpt lat="41.5056283" lon="0.83495"><ele>313.0</ele><time>2026-04-24T17:13:34.919Z</time></trkpt><trkpt lat="41.5057817" lon="0.8352367"><ele>313.0</ele><time>2026-04-24T17:13:35.919Z</time></trkpt><trkpt lat="41.5059383" lon="0.8355317"><ele>313.0</ele><time>2026-04-24T17:13:36.919Z</time></trkpt><trkpt lat="41.5060933" lon="0.8358217"><ele>312.5</ele><time>2026-04-24T17:13:37.919Z</time></trkpt><trkpt lat="41.5062433" lon="0.836115"><ele>312.0</ele><time>2026-04-24T17:13:38.92Z</time></trkpt><trkpt lat="41.5063933" lon="0.836405"><ele>312.0</ele><time>2026-04-24T17:13:39.919Z</time></trkpt><trkpt lat="41.5065433" lon="0.8366967"><ele>312.0</ele><time>2026-04-24T17:13:40.92Z</time></trkpt><trkpt lat="41.506695" lon="0.83699"><ele>310.5</ele><time>2026-04-24T17:13:41.919Z</time></trkpt><trkpt lat="41.50685" lon="0.8372817"><ele>309.0</ele><time>2026-04-24T17:13:42.92Z</time></trkpt><trkpt lat="41.5070033" lon="0.8375733"><ele>308.0</ele><time>2026-04-24T17:13:43.919Z</time></trkpt><trkpt lat="41.5071533" lon="0.8378717"><ele>307.0</ele><time>2026-04-24T17:13:44.919Z</time></trkpt><trkpt lat="41.50731" lon="0.8381667"><ele>307.0</ele><time>2026-04-24T17:13:45.919Z</time></trkpt><trkpt lat="41.507465" lon="0.8384633"><ele>307.0</ele><time>2026-04-24T17:13:46.919Z</time></trkpt><trkpt lat="41.5076217" lon="0.838755"><ele>307.5</ele><time>2026-04-24T17:13:47.92Z</time></trkpt><trkpt lat="41.5077767" lon="0.839045"><ele>308.0</ele><time>2026-04-24T17:13:48.92Z</time></trkpt><trkpt lat="41.5079267" lon="0.839335"><ele>306.0</ele><time>2026-04-24T17:13:49.92Z</time></trkpt><trkpt lat="41.50807" lon="0.8396383"><ele>304.0</ele><time>2026-04-24T17:13:50.92Z</time></trkpt><trkpt lat="41.5082067" lon="0.8399133"><ele>303.5</ele><time>2026-04-24T17:13:51.919Z</time></trkpt><trkpt lat="41.5083483" lon="0.8401967"><ele>303.0</ele><time>2026-04-24T17:13:52.92Z</time></trkpt><trkpt lat="41.5085033" lon="0.8404633"><ele>303.0</ele><time>2026-04-24T17:13:53.92Z</time></trkpt><trkpt lat="41.50865" lon="0.84074"><ele>303.0</ele><time>2026-04-24T17:13:54.92Z</time></trkpt><trkpt lat="41.5088" lon="0.8410133"><ele>302.5</ele><time>2026-04-24T17:13:55.92Z</time></trkpt><trkpt lat="41.50894" lon="0.841275"><ele>302.0</ele><time>2026-04-24T17:13:56.919Z</time></trkpt><trkpt lat="41.5090767" lon="0.8415217"><ele>302.0</ele><time>2026-04-24T17:13:57.92Z</time></trkpt><trkpt lat="41.5092017" lon="0.8417633"><ele>302.0</ele><time>2026-04-24T17:13:58.919Z</time></trkpt><trkpt lat="41.5093233" lon="0.8419983"><ele>302.0</ele><time>2026-04-24T17:13:59.919Z</time></trkpt><trkpt lat="41.509445" lon="0.8422317"><ele>302.0</ele><time>2026-04-24T17:14:00.919Z</time></trkpt><trkpt lat="41.5095617" lon="0.8424583"><ele>302.0</ele><time>2026-04-24T17:14:01.919Z</time></trkpt><trkpt lat="41.5096683" lon="0.842675"><ele>302.0</ele><time>2026-04-24T17:14:02.919Z</time></trkpt><trkpt lat="41.5097683" lon="0.84289"><ele>302.0</ele><time>2026-04-24T17:14:03.919Z</time></trkpt><trkpt lat="41.5098683" lon="0.8431067"><ele>302.0</ele><time>2026-04-24T17:14:04.92Z</time></trkpt><trkpt lat="41.509965" lon="0.8433333"><ele>302.0</ele><time>2026-04-24T17:14:05.919Z</time></trkpt><trkpt lat="41.51006" lon="0.84356"><ele>302.0</ele><time>2026-04-24T17:14:06.92Z</time></trkpt><trkpt lat="41.5101483" lon="0.8438"><ele>302.0</ele><time>2026-04-24T17:14:07.919Z</time></trkpt><trkpt lat="41.510225" lon="0.8440467"><ele>302.0</ele><time>2026-04-24T17:14:08.919Z</time></trkpt><trkpt lat="41.5103067" lon="0.84429"><ele>301.33333333333337</ele><time>2026-04-24T17:14:09.919Z</time></trkpt><trkpt lat="41.5103867" lon="0.8445417"><ele>300.6666666666667</ele><time>2026-04-24T17:14:10.919Z</time></trkpt><trkpt lat="41.5104733" lon="0.844785"><ele>300.0</ele><time>2026-04-24T17:14:11.92Z</time></trkpt><trkpt lat="41.5105733" lon="0.84503"><ele>299.0</ele><time>2026-04-24T17:14:12.919Z</time></trkpt><trkpt lat="41.5106817" lon="0.84527"><ele>298.0</ele><time>2026-04-24T17:14:13.92Z</time></trkpt><trkpt lat="41.510805" lon="0.8454983"><ele>297.0</ele><time>2026-04-24T17:14:14.92Z</time></trkpt><trkpt lat="41.5109383" lon="0.8457133"><ele>297.0</ele><time>2026-04-24T17:14:15.92Z</time></trkpt><trkpt lat="41.5110917" lon="0.84591"><ele>297.0</ele><time>2026-04-24T17:14:16.919Z</time></trkpt><trkpt lat="41.5112617" lon="0.84609"><ele>297.0</ele><time>2026-04-24T17:14:17.919Z</time></trkpt><trkpt lat="41.5114467" lon="0.8462567"><ele>296.5</ele><time>2026-04-24T17:14:18.92Z</time></trkpt><trkpt lat="41.5116383" lon="0.8464117"><ele>296.0</ele><time>2026-04-24T17:14:19.92Z</time></trkpt><trkpt lat="41.511835" lon="0.8465683"><ele>296.0</ele><time>2026-04-24T17:14:20.92Z</time></trkpt><trkpt lat="41.5120317" lon="0.84674"><ele>296.0</ele><time>2026-04-24T17:14:21.919Z</time></trkpt><trkpt lat="41.5122183" lon="0.8469383"><ele>296.5</ele><time>2026-04-24T17:14:22.919Z</time></trkpt><trkpt lat="41.5124" lon="0.847145"><ele>297.0</ele><time>2026-04-24T17:14:23.919Z</time></trkpt><trkpt lat="41.512585" lon="0.8473667"><ele>297.0</ele><time>2026-04-24T17:14:24.919Z</time></trkpt><trkpt lat="41.5127583" lon="0.8475917"><ele>297.0</ele><time>2026-04-24T17:14:25.92Z</time></trkpt><trkpt lat="41.51293" lon="0.8478183"><ele>296.5</ele><time>2026-04-24T17:14:26.92Z</time></trkpt><trkpt lat="41.5131" lon="0.8480533"><ele>296.0</ele><time>2026-04-24T17:14:27.919Z</time></trkpt><trkpt lat="41.5132733" lon="0.8482933"><ele>296.0</ele><time>2026-04-24T17:14:28.92Z</time></trkpt><trkpt lat="41.5134533" lon="0.8485333"><ele>296.0</ele><time>2026-04-24T17:14:29.92Z</time></trkpt><trkpt lat="41.513635" lon="0.848775"><ele>294.0</ele><time>2026-04-24T17:14:30.92Z</time></trkpt><trkpt lat="41.5138167" lon="0.8490183"><ele>292.0</ele><time>2026-04-24T17:14:31.92Z</time></trkpt><trkpt lat="41.5139967" lon="0.8492633"><ele>292.0</ele><time>2026-04-24T17:14:32.919Z</time></trkpt><trkpt lat="41.5141767" lon="0.8495117"><ele>292.0</ele><time>2026-04-24T17:14:33.92Z</time></trkpt><trkpt lat="41.5143617" lon="0.8497567"><ele>292.0</ele><time>2026-04-24T17:14:34.92Z</time></trkpt><trkpt lat="41.51455" lon="0.8500033"><ele>292.0</ele><time>2026-04-24T17:14:35.919Z</time></trkpt><trkpt lat="41.5147383" lon="0.85025"><ele>290.5</ele><time>2026-04-24T17:14:36.919Z</time></trkpt><trkpt lat="41.51492" lon="0.8504983"><ele>289.0</ele><time>2026-04-24T17:14:37.92Z</time></trkpt><trkpt lat="41.5151" lon="0.8507517"><ele>290.0</ele><time>2026-04-24T17:14:38.919Z</time></trkpt><trkpt lat="41.5152783" lon="0.8509983"><ele>291.0</ele><time>2026-04-24T17:14:39.919Z</time></trkpt><trkpt lat="41.5154517" lon="0.85123"><ele>289.0</ele><time>2026-04-24T17:14:40.919Z</time></trkpt><trkpt lat="41.5156183" lon="0.8514583"><ele>287.0</ele><time>2026-04-24T17:14:41.919Z</time></trkpt><trkpt lat="41.51578" lon="0.85168"><ele>287.0</ele><time>2026-04-24T17:14:42.919Z</time></trkpt><trkpt lat="41.5159383" lon="0.8518933"><ele>287.0</ele><time>2026-04-24T17:14:43.92Z</time></trkpt><trkpt lat="41.5160983" lon="0.8521117"><ele>285.5</ele><time>2026-04-24T17:14:44.92Z</time></trkpt><trkpt lat="41.516255" lon="0.8523317"><ele>284.0</ele><time>2026-04-24T17:14:45.92Z</time></trkpt><trkpt lat="41.5164083" lon="0.8525567"><ele>282.5</ele><time>2026-04-24T17:14:46.92Z</time></trkpt><trkpt lat="41.5165633" lon="0.85279"><ele>281.0</ele><time>2026-04-24T17:14:47.92Z</time></trkpt><trkpt lat="41.5167117" lon="0.8530317"><ele>281.0</ele><time>2026-04-24T17:14:48.919Z</time></trkpt><trkpt lat="41.5168533" lon="0.85329"><ele>281.0</ele><time>2026-04-24T17:14:49.919Z</time></trkpt><trkpt lat="41.5169867" lon="0.85355"><ele>280.0</ele><time>2026-04-24T17:14:50.919Z</time></trkpt><trkpt lat="41.5171167" lon="0.853815"><ele>279.0</ele><time>2026-04-24T17:14:51.919Z</time></trkpt><trkpt lat="41.5172467" lon="0.8540833"><ele>278.3333333333333</ele><time>2026-04-24T17:14:52.919Z</time></trkpt><trkpt lat="41.51737" lon="0.8543383"><ele>277.66666666666663</ele><time>2026-04-24T17:14:53.919Z</time></trkpt><trkpt lat="41.5174883" lon="0.8545833"><ele>277.0</ele><time>2026-04-24T17:14:54.919Z</time></trkpt><trkpt lat="41.5176" lon="0.8548167"><ele>277.0</ele><time>2026-04-24T17:14:55.919Z</time></trkpt><trkpt lat="41.5177083" lon="0.8550383"><ele>277.0</ele><time>2026-04-24T17:14:56.919Z</time></trkpt><trkpt lat="41.51781" lon="0.8552517"><ele>277.0</ele><time>2026-04-24T17:14:57.919Z</time></trkpt><trkpt lat="41.5179017" lon="0.8554533"><ele>277.0</ele><time>2026-04-24T17:14:58.919Z</time></trkpt><trkpt lat="41.517995" lon="0.8556467"><ele>277.0</ele><time>2026-04-24T17:14:59.92Z</time></trkpt><trkpt lat="41.5180883" lon="0.8558283"><ele>277.0</ele><time>2026-04-24T17:15:00.92Z</time></trkpt><trkpt lat="41.5181733" lon="0.8560017"><ele>278.0</ele><time>2026-04-24T17:15:01.92Z</time></trkpt><trkpt lat="41.5182483" lon="0.8561667"><ele>279.0</ele><time>2026-04-24T17:15:02.919Z</time></trkpt><trkpt lat="41.5183217" lon="0.8563217"><ele>280.0</ele><time>2026-04-24T17:15:03.92Z</time></trkpt><trkpt lat="41.5183867" lon="0.8564633"><ele>281.0</ele><time>2026-04-24T17:15:04.919Z</time></trkpt><trkpt lat="41.5184383" lon="0.8566033"><ele>281.0</ele><time>2026-04-24T17:15:05.919Z</time></trkpt><trkpt lat="41.518465" lon="0.856745"><ele>281.0</ele><time>2026-04-24T17:15:06.92Z</time></trkpt><trkpt lat="41.5184717" lon="0.8568733"><ele>281.0</ele><time>2026-04-24T17:15:07.92Z</time></trkpt><trkpt lat="41.5184933" lon="0.8569933"><ele>281.0</ele><time>2026-04-24T17:15:08.919Z</time></trkpt><trkpt lat="41.5185533" lon="0.8570967"><ele>281.0</ele><time>2026-04-24T17:15:09.919Z</time></trkpt><trkpt lat="41.5186267" lon="0.8571983"><ele>281.5</ele><time>2026-04-24T17:15:10.92Z</time></trkpt><trkpt lat="41.5186983" lon="0.8573167"><ele>282.0</ele><time>2026-04-24T17:15:11.92Z</time></trkpt><trkpt lat="41.5187433" lon="0.857465"><ele>282.5</ele><time>2026-04-24T17:15:12.92Z</time></trkpt><trkpt lat="41.5187733" lon="0.8576217"><ele>283.0</ele><time>2026-04-24T17:15:13.919Z</time></trkpt><trkpt lat="41.5188" lon="0.8577867"><ele>282.25</ele><time>2026-04-24T17:15:14.92Z</time></trkpt><trkpt lat="41.5188317" lon="0.8579583"><ele>281.5</ele><time>2026-04-24T17:15:15.919Z</time></trkpt><trkpt lat="41.5188617" lon="0.858135"><ele>280.75</ele><time>2026-04-24T17:15:16.919Z</time></trkpt><trkpt lat="41.5188883" lon="0.8583067"><ele>280.0</ele><time>2026-04-24T17:15:17.92Z</time></trkpt><trkpt lat="41.5189167" lon="0.8584833"><ele>280.0</ele><time>2026-04-24T17:15:18.92Z</time></trkpt><trkpt lat="41.5189517" lon="0.8586617"><ele>280.0</ele><time>2026-04-24T17:15:19.92Z</time></trkpt><trkpt lat="41.5189883" lon="0.8588283"><ele>280.0</ele><time>2026-04-24T17:15:20.92Z</time></trkpt><trkpt lat="41.5189967" lon="0.8589833"><ele>280.0</ele><time>2026-04-24T17:15:21.919Z</time></trkpt><trkpt lat="41.5189667" lon="0.859125"><ele>280.0</ele><time>2026-04-24T17:15:22.92Z</time></trkpt><trkpt lat="41.5189167" lon="0.8592467"><ele>280.0</ele><time>2026-04-24T17:15:23.919Z</time></trkpt><trkpt lat="41.5188817" lon="0.8593767"><ele>280.0</ele><time>2026-04-24T17:15:24.92Z</time></trkpt><trkpt lat="41.5188867" lon="0.8594967"><ele>280.0</ele><time>2026-04-24T17:15:25.919Z</time></trkpt><trkpt lat="41.51894" lon="0.859605"><ele>280.0</ele><time>2026-04-24T17:15:26.92Z</time></trkpt><trkpt lat="41.5190333" lon="0.8596833"><ele>280.0</ele><time>2026-04-24T17:15:27.919Z</time></trkpt><trkpt lat="41.5191383" lon="0.8597617"><ele>280.0</ele><time>2026-04-24T17:15:28.92Z</time></trkpt><trkpt lat="41.5192233" lon="0.8598783"><ele>280.0</ele><time>2026-04-24T17:15:29.92Z</time></trkpt><trkpt lat="41.5192867" lon="0.8600383"><ele>280.0</ele><time>2026-04-24T17:15:30.92Z</time></trkpt><trkpt lat="41.5193567" lon="0.8602033"><ele>280.0</ele><time>2026-04-24T17:15:31.919Z</time></trkpt><trkpt lat="41.5194317" lon="0.860375"><ele>280.0</ele><time>2026-04-24T17:15:32.92Z</time></trkpt><trkpt lat="41.5195133" lon="0.8605283"><ele>280.0</ele><time>2026-04-24T17:15:33.92Z</time></trkpt><trkpt lat="41.5195933" lon="0.8606817"><ele>280.0</ele><time>2026-04-24T17:15:34.919Z</time></trkpt><trkpt lat="41.519675" lon="0.8608333"><ele>280.75</ele><time>2026-04-24T17:15:35.919Z</time></trkpt><trkpt lat="41.5197583" lon="0.86099"><ele>281.5</ele><time>2026-04-24T17:15:36.92Z</time></trkpt><trkpt lat="41.5198383" lon="0.861145"><ele>282.25</ele><time>2026-04-24T17:15:37.92Z</time></trkpt><trkpt lat="41.5199167" lon="0.8613033"><ele>283.0</ele><time>2026-04-24T17:15:38.919Z</time></trkpt><trkpt lat="41.519995" lon="0.8614617"><ele>283.0</ele><time>2026-04-24T17:15:39.92Z</time></trkpt><trkpt lat="41.5200817" lon="0.8616133"><ele>283.0</ele><time>2026-04-24T17:15:40.919Z</time></trkpt><trkpt lat="41.520165" lon="0.8617717"><ele>283.0</ele><time>2026-04-24T17:15:41.919Z</time></trkpt><trkpt lat="41.52025" lon="0.8619283"><ele>283.0</ele><time>2026-04-24T17:15:42.919Z</time></trkpt><trkpt lat="41.5203317" lon="0.862085"><ele>283.5</ele><time>2026-04-24T17:15:43.92Z</time></trkpt><trkpt lat="41.5204167" lon="0.8622367"><ele>284.0</ele><time>2026-04-24T17:15:44.92Z</time></trkpt><trkpt lat="41.5204983" lon="0.8623833"><ele>284.5</ele><time>2026-04-24T17:15:45.92Z</time></trkpt><trkpt lat="41.520575" lon="0.86253"><ele>285.0</ele><time>2026-04-24T17:15:46.919Z</time></trkpt><trkpt lat="41.5206517" lon="0.8626733"><ele>286.0</ele><time>2026-04-24T17:15:47.919Z</time></trkpt><trkpt lat="41.5207233" lon="0.862815"><ele>287.0</ele><time>2026-04-24T17:15:48.919Z</time></trkpt><trkpt lat="41.5207933" lon="0.862955"><ele>288.0</ele><time>2026-04-24T17:15:49.919Z</time></trkpt><trkpt lat="41.520865" lon="0.8630883"><ele>289.0</ele><time>2026-04-24T17:15:50.92Z</time></trkpt><trkpt lat="41.52093" lon="0.8632233"><ele>289.0</ele><time>2026-04-24T17:15:51.919Z</time></trkpt><trkpt lat="41.5209933" lon="0.86336"><ele>289.0</ele><time>2026-04-24T17:15:52.919Z</time></trkpt><trkpt lat="41.5210683" lon="0.8634817"><ele>289.0</ele><time>2026-04-24T17:15:53.919Z</time></trkpt><trkpt lat="41.521135" lon="0.8636017"><ele>289.0</ele><time>2026-04-24T17:15:54.919Z</time></trkpt><trkpt lat="41.521195" lon="0.863725"><ele>288.59999999999997</ele><time>2026-04-24T17:15:55.919Z</time></trkpt><trkpt lat="41.5212533" lon="0.863835"><ele>288.2</ele><time>2026-04-24T17:15:56.919Z</time></trkpt><trkpt lat="41.52131" lon="0.8639417"><ele>287.79999999999995</ele><time>2026-04-24T17:15:57.919Z</time></trkpt><trkpt lat="41.5213633" lon="0.86404"><ele>287.4</ele><time>2026-04-24T17:15:58.92Z</time></trkpt><trkpt lat="41.521415" lon="0.8641367"><ele>287.0</ele><time>2026-04-24T17:15:59.919Z</time></trkpt><trkpt lat="41.5214667" lon="0.8642317"><ele>287.5</ele><time>2026-04-24T17:16:00.919Z</time></trkpt><trkpt lat="41.5215133" lon="0.8643167"><ele>288.0</ele><time>2026-04-24T17:16:01.919Z</time></trkpt><trkpt lat="41.5215583" lon="0.864405"><ele>288.5</ele><time>2026-04-24T17:16:02.919Z</time></trkpt><trkpt lat="41.5216067" lon="0.8644917"><ele>289.0</ele><time>2026-04-24T17:16:03.919Z</time></trkpt><trkpt lat="41.5216483" lon="0.86458"><ele>289.5</ele><time>2026-04-24T17:16:04.919Z</time></trkpt><trkpt lat="41.5216983" lon="0.8646867"><ele>290.0</ele><time>2026-04-24T17:16:06.919Z</time></trkpt><trkpt lat="41.5217283" lon="0.8647633"><ele>290.0</ele><time>2026-04-24T17:16:10.92Z</time></trkpt><trkpt lat="41.5217517" lon="0.864845"><ele>290.0</ele><time>2026-04-24T17:16:13.919Z</time></trkpt><trkpt lat="41.5216967" lon="0.8649817"><ele>290.0</ele><time>2026-04-24T17:16:15.92Z</time></trkpt><trkpt lat="41.5216417" lon="0.8650767"><ele>290.0</ele><time>2026-04-24T17:16:16.919Z</time></trkpt><trkpt lat="41.5215867" lon="0.8651817"><ele>290.0</ele><time>2026-04-24T17:16:17.92Z</time></trkpt><trkpt lat="41.5215267" lon="0.8652933"><ele>290.8</ele><time>2026-04-24T17:16:18.919Z</time></trkpt><trkpt lat="41.5214667" lon="0.8654117"><ele>291.6</ele><time>2026-04-24T17:16:19.919Z</time></trkpt><trkpt lat="41.5214067" lon="0.86553"><ele>292.4</ele><time>2026-04-24T17:16:20.92Z</time></trkpt><trkpt lat="41.5213483" lon="0.8656483"><ele>293.2</ele><time>2026-04-24T17:16:21.919Z</time></trkpt><trkpt lat="41.5212883" lon="0.8657733"><ele>294.0</ele><time>2026-04-24T17:16:22.919Z</time></trkpt><trkpt lat="41.5212217" lon="0.86591"><ele>295.25</ele><time>2026-04-24T17:16:23.92Z</time></trkpt><trkpt lat="41.521155" lon="0.8660317"><ele>296.5</ele><time>2026-04-24T17:16:24.919Z</time></trkpt><trkpt lat="41.5210817" lon="0.8661433"><ele>297.75</ele><time>2026-04-24T17:16:25.919Z</time></trkpt><trkpt lat="41.52101" lon="0.8662733"><ele>299.0</ele><time>2026-04-24T17:16:26.919Z</time></trkpt><trkpt lat="41.52093" lon="0.8663733"><ele>299.0</ele><time>2026-04-24T17:16:27.92Z</time></trkpt><trkpt lat="41.5208617" lon="0.866485"><ele>299.0</ele><time>2026-04-24T17:16:28.92Z</time></trkpt><trkpt lat="41.520785" lon="0.86658"><ele>299.0</ele><time>2026-04-24T17:16:29.92Z</time></trkpt><trkpt lat="41.5207167" lon="0.8666717"><ele>299.0</ele><time>2026-04-24T17:16:30.92Z</time></trkpt><trkpt lat="41.520645" lon="0.8667683"><ele>299.0</ele><time>2026-04-24T17:16:31.919Z</time></trkpt><trkpt lat="41.5205833" lon="0.866855"><ele>298.6666666666667</ele><time>2026-04-24T17:16:32.92Z</time></trkpt><trkpt lat="41.5205167" lon="0.8669383"><ele>298.33333333333337</ele><time>2026-04-24T17:16:33.92Z</time></trkpt><trkpt lat="41.52046" lon="0.8670183"><ele>298.0</ele><time>2026-04-24T17:16:34.92Z</time></trkpt><trkpt lat="41.5204133" lon="0.8670867"><ele>297.6666666666667</ele><time>2026-04-24T17:16:35.919Z</time></trkpt><trkpt lat="41.520355" lon="0.8671383"><ele>297.3333333333333</ele><time>2026-04-24T17:16:36.919Z</time></trkpt><trkpt lat="41.5202817" lon="0.86724"><ele>297.0</ele><time>2026-04-24T17:16:38.92Z</time></trkpt><trkpt lat="41.5202133" lon="0.867345"><ele>297.0</ele><time>2026-04-24T17:16:40.919Z</time></trkpt><trkpt lat="41.5201517" lon="0.86743"><ele>297.0</ele><time>2026-04-24T17:16:42.92Z</time></trkpt><trkpt lat="41.52008" lon="0.86752"><ele>297.0</ele><time>2026-04-24T17:16:44.919Z</time></trkpt><trkpt lat="41.5200267" lon="0.8676233"><ele>297.0</ele><time>2026-04-24T17:16:46.92Z</time></trkpt><trkpt lat="41.519975" lon="0.8677017"><ele>297.0</ele><time>2026-04-24T17:16:48.92Z</time></trkpt><trkpt lat="41.5199483" lon="0.8678383"><ele>297.0</ele><time>2026-04-24T17:16:50.919Z</time></trkpt><trkpt lat="41.5199183" lon="0.8679967"><ele>297.0</ele><time>2026-04-24T17:16:52.919Z</time></trkpt><trkpt lat="41.5199017" lon="0.8680817"><ele>297.0</ele><time>2026-04-24T17:16:53.919Z</time></trkpt><trkpt lat="41.5198917" lon="0.868245"><ele>297.0</ele><time>2026-04-24T17:16:55.919Z</time></trkpt><trkpt lat="41.5199167" lon="0.8683733"><ele>297.0</ele><time>2026-04-24T17:16:57.919Z</time></trkpt><trkpt lat="41.5199933" lon="0.868455"><ele>298.0</ele><time>2026-04-24T17:17:26.92Z</time></trkpt><trkpt lat="41.520025" lon="0.86853"><ele>299.0</ele><time>2026-04-24T17:17:28.919Z</time></trkpt><trkpt lat="41.5200467" lon="0.868615"><ele>300.0</ele><time>2026-04-24T17:17:31.919Z</time></trkpt><trkpt lat="41.5200967" lon="0.8687167"><ele>301.0</ele><time>2026-04-24T17:17:34.919Z</time></trkpt><trkpt lat="41.5201367" lon="0.8688067"><ele>302.0</ele><time>2026-04-24T17:17:36.919Z</time></trkpt><trkpt lat="41.5202" lon="0.868905"><ele>303.0</ele><time>2026-04-24T17:17:38.919Z</time></trkpt><trkpt lat="41.52026" lon="0.869"><ele>303.0</ele><time>2026-04-24T17:17:40.919Z</time></trkpt><trkpt lat="41.5203183" lon="0.8691067"><ele>303.0</ele><time>2026-04-24T17:17:42.92Z</time></trkpt><trkpt lat="41.5203667" lon="0.8692217"><ele>303.0</ele><time>2026-04-24T17:17:44.92Z</time></trkpt><trkpt lat="41.5204017" lon="0.8693183"><ele>303.0</ele><time>2026-04-24T17:17:46.92Z</time></trkpt><trkpt lat="41.52044" lon="0.86939"><ele>303.0</ele><time>2026-04-24T17:17:49.92Z</time></trkpt><trkpt lat="41.5204083" lon="0.8695"><ele>303.0</ele><time>2026-04-24T17:17:52.92Z</time></trkpt><trkpt lat="41.5203733" lon="0.86966"><ele>303.4</ele><time>2026-04-24T17:17:54.919Z</time></trkpt><trkpt lat="41.5203567" lon="0.86975"><ele>303.8</ele><time>2026-04-24T17:17:55.92Z</time></trkpt><trkpt lat="41.5203283" lon="0.8699033"><ele>304.2</ele><time>2026-04-24T17:17:57.92Z</time></trkpt><trkpt lat="41.52031" lon="0.87003"><ele>304.6</ele><time>2026-04-24T17:17:59.92Z</time></trkpt><trkpt lat="41.520295" lon="0.8701467"><ele>305.0</ele><time>2026-04-24T17:18:01.92Z</time></trkpt><trkpt lat="41.520265" lon="0.8702983"><ele>305.1666666666667</ele><time>2026-04-24T17:18:03.919Z</time></trkpt><trkpt lat="41.520245" lon="0.8703833"><ele>305.33333333333337</ele><time>2026-04-24T17:18:04.92Z</time></trkpt><trkpt lat="41.5202217" lon="0.8704633"><ele>305.5</ele><time>2026-04-24T17:18:05.92Z</time></trkpt><trkpt lat="41.5201867" lon="0.87061"><ele>305.6666666666667</ele><time>2026-04-24T17:18:07.919Z</time></trkpt><trkpt lat="41.5201417" lon="0.870725"><ele>305.8333333333333</ele><time>2026-04-24T17:18:09.92Z</time></trkpt><trkpt lat="41.5200917" lon="0.870815"><ele>306.0</ele><time>2026-04-24T17:18:12.92Z</time></trkpt><trkpt lat="41.5200917" lon="0.8709067"><ele>306.3333333333333</ele><time>2026-04-24T17:18:18.919Z</time></trkpt><trkpt lat="41.520165" lon="0.8709717"><ele>306.6666666666667</ele><time>2026-04-24T17:18:20.92Z</time></trkpt><trkpt lat="41.5202717" lon="0.87105"><ele>307.0</ele><time>2026-04-24T17:18:22.919Z</time></trkpt><trkpt lat="41.5203367" lon="0.8710967"><ele>307.33333333333337</ele><time>2026-04-24T17:18:23.919Z</time></trkpt><trkpt lat="41.5204067" lon="0.8711417"><ele>307.6666666666667</ele><time>2026-04-24T17:18:24.92Z</time></trkpt><trkpt lat="41.5204667" lon="0.8711767"><ele>308.0</ele><time>2026-04-24T17:18:25.919Z</time></trkpt><trkpt lat="41.5205683" lon="0.8712367"><ele>308.83333333333337</ele><time>2026-04-24T17:18:27.92Z</time></trkpt><trkpt lat="41.52065" lon="0.8712783"><ele>309.6666666666667</ele><time>2026-04-24T17:18:29.92Z</time></trkpt><trkpt lat="41.5207233" lon="0.8713367"><ele>310.5</ele><time>2026-04-24T17:18:31.92Z</time></trkpt><trkpt lat="41.5207817" lon="0.8713717"><ele>311.3333333333333</ele><time>2026-04-24T17:18:32.919Z</time></trkpt><trkpt lat="41.520845" lon="0.8714067"><ele>312.16666666666663</ele><time>2026-04-24T17:18:33.92Z</time></trkpt><trkpt lat="41.5209183" lon="0.871445"><ele>313.0</ele><time>2026-04-24T17:18:34.92Z</time></trkpt><trkpt lat="41.5210017" lon="0.8714833"><ele>313.0</ele><time>2026-04-24T17:18:35.919Z</time></trkpt><trkpt lat="41.52107" lon="0.8715117"><ele>313.0</ele><time>2026-04-24T17:18:36.919Z</time></trkpt><trkpt lat="41.521145" lon="0.871545"><ele>313.0</ele><time>2026-04-24T17:18:38.92Z</time></trkpt><trkpt lat="41.521215" lon="0.8715483"><ele>313.0</ele><time>2026-04-24T17:18:41.92Z</time></trkpt><trkpt lat="41.5213283" lon="0.8716233"><ele>313.0</ele><time>2026-04-24T17:18:43.919Z</time></trkpt><trkpt lat="41.5214" lon="0.8716617"><ele>313.0</ele><time>2026-04-24T17:18:44.92Z</time></trkpt><trkpt lat="41.5214733" lon="0.8717033"><ele>313.66666666666663</ele><time>2026-04-24T17:18:45.919Z</time></trkpt><trkpt lat="41.52155" lon="0.87174"><ele>314.3333333333333</ele><time>2026-04-24T17:18:46.92Z</time></trkpt><trkpt lat="41.5216217" lon="0.87179"><ele>315.0</ele><time>2026-04-24T17:18:47.919Z</time></trkpt><trkpt lat="41.5216883" lon="0.8718433"><ele>315.6666666666667</ele><time>2026-04-24T17:18:48.92Z</time></trkpt><trkpt lat="41.5217767" lon="0.8719117"><ele>316.33333333333337</ele><time>2026-04-24T17:18:50.92Z</time></trkpt><trkpt lat="41.5218" lon="0.871995"><ele>317.0</ele><time>2026-04-24T17:18:53.92Z</time></trkpt><trkpt lat="41.5217717" lon="0.8721417"><ele>317.0</ele><time>2026-04-24T17:18:55.92Z</time></trkpt><trkpt lat="41.5217117" lon="0.872275"><ele>317.0</ele><time>2026-04-24T17:18:57.92Z</time></trkpt><trkpt lat="41.5216567" lon="0.8723533"><ele>317.0</ele><time>2026-04-24T17:18:59.919Z</time></trkpt></trkseg></trk></gpx>